<?xml version="1.0" encoding="UTF-8" standalone="no" ?>
<gpx xmlns="http://www.topografix.com/GPX/1/1" xmlns:xsi="http://www.w3.org/2001/XMLSchema-instance" xsi:schemaLocation="http://www.topografix.com/GPX/1/1 http://www.topografix.com/GPX/1/1/gpx.xsd" version="1.1" creator="VisuGPX - https://www.visugpx.com">
  <metadata>
    <name>Serbie - Bulgarie - Danube - j17</name>
    <desc><![CDATA[File with points/tracks from Locus Map/3.37.2]]></desc>
  </metadata>
  <trk>
    <name><![CDATA[2022-06-03 j17]]></name>
    <trkseg>
      <trkpt lat="44.48412" lon="22.45723">
        <ele>55.69</ele>
        <time>2022-06-03T06:24:36.000Z</time>
      </trkpt>
      <trkpt lat="44.48414" lon="22.4571">
        <ele>53.4</ele>
        <time>2022-06-03T06:24:41.000Z</time>
      </trkpt>
      <trkpt lat="44.48415" lon="22.45693">
        <ele>43.73</ele>
        <time>2022-06-03T06:24:55.000Z</time>
      </trkpt>
      <trkpt lat="44.48406" lon="22.45697">
        <ele>55.81</ele>
        <time>2022-06-03T06:25:33.000Z</time>
      </trkpt>
      <trkpt lat="44.48402" lon="22.45683">
        <ele>55.69</ele>
        <time>2022-06-03T06:28:06.000Z</time>
      </trkpt>
      <trkpt lat="44.48401" lon="22.45668">
        <ele>56.33</ele>
        <time>2022-06-03T06:28:12.000Z</time>
      </trkpt>
      <trkpt lat="44.48403" lon="22.45653">
        <ele>57.31</ele>
        <time>2022-06-03T06:28:17.000Z</time>
      </trkpt>
      <trkpt lat="44.484" lon="22.45638">
        <ele>57.9</ele>
        <time>2022-06-03T06:28:24.000Z</time>
      </trkpt>
      <trkpt lat="44.48386" lon="22.45624">
        <ele>57.34</ele>
        <time>2022-06-03T06:28:29.000Z</time>
      </trkpt>
      <trkpt lat="44.48368" lon="22.4561">
        <ele>55.88</ele>
        <time>2022-06-03T06:28:34.000Z</time>
      </trkpt>
      <trkpt lat="44.48349" lon="22.4559">
        <ele>55.23</ele>
        <time>2022-06-03T06:28:39.000Z</time>
      </trkpt>
      <trkpt lat="44.4833" lon="22.45572">
        <ele>54.8</ele>
        <time>2022-06-03T06:28:44.000Z</time>
      </trkpt>
      <trkpt lat="44.48309" lon="22.45551">
        <ele>54.29</ele>
        <time>2022-06-03T06:28:49.000Z</time>
      </trkpt>
      <trkpt lat="44.48289" lon="22.45529">
        <ele>54</ele>
        <time>2022-06-03T06:28:54.000Z</time>
      </trkpt>
      <trkpt lat="44.48275" lon="22.45507">
        <ele>54.19</ele>
        <time>2022-06-03T06:28:59.000Z</time>
      </trkpt>
      <trkpt lat="44.48258" lon="22.45492">
        <ele>54.13</ele>
        <time>2022-06-03T06:29:04.000Z</time>
      </trkpt>
      <trkpt lat="44.48236" lon="22.45476">
        <ele>53.48</ele>
        <time>2022-06-03T06:29:09.000Z</time>
      </trkpt>
      <trkpt lat="44.48215" lon="22.45455">
        <ele>53.44</ele>
        <time>2022-06-03T06:29:14.000Z</time>
      </trkpt>
      <trkpt lat="44.48193" lon="22.45435">
        <ele>54.21</ele>
        <time>2022-06-03T06:29:19.000Z</time>
      </trkpt>
      <trkpt lat="44.4817" lon="22.45417">
        <ele>54.86</ele>
        <time>2022-06-03T06:29:24.000Z</time>
      </trkpt>
      <trkpt lat="44.48145" lon="22.45402">
        <ele>54.94</ele>
        <time>2022-06-03T06:29:29.000Z</time>
      </trkpt>
      <trkpt lat="44.4812" lon="22.45389">
        <ele>55.13</ele>
        <time>2022-06-03T06:29:34.000Z</time>
      </trkpt>
      <trkpt lat="44.48095" lon="22.45379">
        <ele>56.7</ele>
        <time>2022-06-03T06:29:39.000Z</time>
      </trkpt>
      <trkpt lat="44.48073" lon="22.45367">
        <ele>55.12</ele>
        <time>2022-06-03T06:29:44.000Z</time>
      </trkpt>
      <trkpt lat="44.48046" lon="22.45359">
        <ele>56.56</ele>
        <time>2022-06-03T06:29:49.000Z</time>
      </trkpt>
      <trkpt lat="44.48019" lon="22.45352">
        <ele>58.12</ele>
        <time>2022-06-03T06:29:54.000Z</time>
      </trkpt>
      <trkpt lat="44.47994" lon="22.45347">
        <ele>58.4</ele>
        <time>2022-06-03T06:29:59.000Z</time>
      </trkpt>
      <trkpt lat="44.47969" lon="22.45344">
        <ele>57.47</ele>
        <time>2022-06-03T06:30:04.000Z</time>
      </trkpt>
      <trkpt lat="44.47944" lon="22.4534">
        <ele>58.25</ele>
        <time>2022-06-03T06:30:09.000Z</time>
      </trkpt>
      <trkpt lat="44.47919" lon="22.45336">
        <ele>58.52</ele>
        <time>2022-06-03T06:30:14.000Z</time>
      </trkpt>
      <trkpt lat="44.47893" lon="22.45325">
        <ele>58.02</ele>
        <time>2022-06-03T06:30:19.000Z</time>
      </trkpt>
      <trkpt lat="44.47869" lon="22.4531">
        <ele>56.26</ele>
        <time>2022-06-03T06:30:24.000Z</time>
      </trkpt>
      <trkpt lat="44.47845" lon="22.45293">
        <ele>54.86</ele>
        <time>2022-06-03T06:30:29.000Z</time>
      </trkpt>
      <trkpt lat="44.47822" lon="22.45274">
        <ele>53.91</ele>
        <time>2022-06-03T06:30:34.000Z</time>
      </trkpt>
      <trkpt lat="44.47798" lon="22.45255">
        <ele>54.31</ele>
        <time>2022-06-03T06:30:39.000Z</time>
      </trkpt>
      <trkpt lat="44.47772" lon="22.45233">
        <ele>55.23</ele>
        <time>2022-06-03T06:30:44.000Z</time>
      </trkpt>
      <trkpt lat="44.47747" lon="22.45215">
        <ele>57.44</ele>
        <time>2022-06-03T06:30:49.000Z</time>
      </trkpt>
      <trkpt lat="44.47722" lon="22.45196">
        <ele>59.31</ele>
        <time>2022-06-03T06:30:54.000Z</time>
      </trkpt>
      <trkpt lat="44.47697" lon="22.45177">
        <ele>60.44</ele>
        <time>2022-06-03T06:30:59.000Z</time>
      </trkpt>
      <trkpt lat="44.47673" lon="22.45157">
        <ele>61.65</ele>
        <time>2022-06-03T06:31:04.000Z</time>
      </trkpt>
      <trkpt lat="44.47649" lon="22.45138">
        <ele>62.98</ele>
        <time>2022-06-03T06:31:09.000Z</time>
      </trkpt>
      <trkpt lat="44.47623" lon="22.45122">
        <ele>64.14</ele>
        <time>2022-06-03T06:31:14.000Z</time>
      </trkpt>
      <trkpt lat="44.47598" lon="22.45101">
        <ele>64.18</ele>
        <time>2022-06-03T06:31:19.000Z</time>
      </trkpt>
      <trkpt lat="44.47574" lon="22.45083">
        <ele>63.82</ele>
        <time>2022-06-03T06:31:24.000Z</time>
      </trkpt>
      <trkpt lat="44.4755" lon="22.45067">
        <ele>64.36</ele>
        <time>2022-06-03T06:31:29.000Z</time>
      </trkpt>
      <trkpt lat="44.47525" lon="22.45049">
        <ele>63.64</ele>
        <time>2022-06-03T06:31:34.000Z</time>
      </trkpt>
      <trkpt lat="44.475" lon="22.45033">
        <ele>58.29</ele>
        <time>2022-06-03T06:31:39.000Z</time>
      </trkpt>
      <trkpt lat="44.47474" lon="22.45016">
        <ele>55.97</ele>
        <time>2022-06-03T06:31:44.000Z</time>
      </trkpt>
      <trkpt lat="44.47447" lon="22.44999">
        <ele>55.27</ele>
        <time>2022-06-03T06:31:49.000Z</time>
      </trkpt>
      <trkpt lat="44.47424" lon="22.44988">
        <ele>52.79</ele>
        <time>2022-06-03T06:31:54.000Z</time>
      </trkpt>
      <trkpt lat="44.47402" lon="22.44979">
        <ele>52.67</ele>
        <time>2022-06-03T06:31:59.000Z</time>
      </trkpt>
      <trkpt lat="44.47378" lon="22.44971">
        <ele>57.62</ele>
        <time>2022-06-03T06:32:04.000Z</time>
      </trkpt>
      <trkpt lat="44.47354" lon="22.44963">
        <ele>63.53</ele>
        <time>2022-06-03T06:32:09.000Z</time>
      </trkpt>
      <trkpt lat="44.4733" lon="22.44958">
        <ele>64.05</ele>
        <time>2022-06-03T06:32:14.000Z</time>
      </trkpt>
      <trkpt lat="44.47308" lon="22.44951">
        <ele>63.09</ele>
        <time>2022-06-03T06:32:19.000Z</time>
      </trkpt>
      <trkpt lat="44.47288" lon="22.44946">
        <ele>59.88</ele>
        <time>2022-06-03T06:32:24.000Z</time>
      </trkpt>
      <trkpt lat="44.47274" lon="22.44945">
        <ele>60.44</ele>
        <time>2022-06-03T06:32:29.000Z</time>
      </trkpt>
      <trkpt lat="44.4726" lon="22.44943">
        <ele>57.98</ele>
        <time>2022-06-03T06:32:34.000Z</time>
      </trkpt>
      <trkpt lat="44.47244" lon="22.44941">
        <ele>57.85</ele>
        <time>2022-06-03T06:32:39.000Z</time>
      </trkpt>
      <trkpt lat="44.47225" lon="22.44939">
        <ele>58.6</ele>
        <time>2022-06-03T06:32:44.000Z</time>
      </trkpt>
      <trkpt lat="44.47203" lon="22.44935">
        <ele>58.05</ele>
        <time>2022-06-03T06:32:49.000Z</time>
      </trkpt>
      <trkpt lat="44.4718" lon="22.44932">
        <ele>57.84</ele>
        <time>2022-06-03T06:32:54.000Z</time>
      </trkpt>
      <trkpt lat="44.47155" lon="22.44935">
        <ele>57.11</ele>
        <time>2022-06-03T06:32:59.000Z</time>
      </trkpt>
      <trkpt lat="44.47131" lon="22.44935">
        <ele>56.81</ele>
        <time>2022-06-03T06:33:04.000Z</time>
      </trkpt>
      <trkpt lat="44.47107" lon="22.44937">
        <ele>56.5</ele>
        <time>2022-06-03T06:33:09.000Z</time>
      </trkpt>
      <trkpt lat="44.47083" lon="22.4494">
        <ele>56.67</ele>
        <time>2022-06-03T06:33:14.000Z</time>
      </trkpt>
      <trkpt lat="44.47058" lon="22.44945">
        <ele>57.47</ele>
        <time>2022-06-03T06:33:19.000Z</time>
      </trkpt>
      <trkpt lat="44.4703" lon="22.44951">
        <ele>57.08</ele>
        <time>2022-06-03T06:33:24.000Z</time>
      </trkpt>
      <trkpt lat="44.47004" lon="22.44954">
        <ele>57.99</ele>
        <time>2022-06-03T06:33:29.000Z</time>
      </trkpt>
      <trkpt lat="44.4698" lon="22.44955">
        <ele>58.15</ele>
        <time>2022-06-03T06:33:34.000Z</time>
      </trkpt>
      <trkpt lat="44.46955" lon="22.44956">
        <ele>58.98</ele>
        <time>2022-06-03T06:33:39.000Z</time>
      </trkpt>
      <trkpt lat="44.46928" lon="22.44957">
        <ele>59.93</ele>
        <time>2022-06-03T06:33:44.000Z</time>
      </trkpt>
      <trkpt lat="44.46902" lon="22.44963">
        <ele>60.18</ele>
        <time>2022-06-03T06:33:49.000Z</time>
      </trkpt>
      <trkpt lat="44.46878" lon="22.44969">
        <ele>59.89</ele>
        <time>2022-06-03T06:33:54.000Z</time>
      </trkpt>
      <trkpt lat="44.46852" lon="22.44975">
        <ele>60.92</ele>
        <time>2022-06-03T06:33:59.000Z</time>
      </trkpt>
      <trkpt lat="44.46825" lon="22.44982">
        <ele>61.99</ele>
        <time>2022-06-03T06:34:04.000Z</time>
      </trkpt>
      <trkpt lat="44.468" lon="22.44987">
        <ele>63.55</ele>
        <time>2022-06-03T06:34:09.000Z</time>
      </trkpt>
      <trkpt lat="44.46773" lon="22.44989">
        <ele>63.27</ele>
        <time>2022-06-03T06:34:14.000Z</time>
      </trkpt>
      <trkpt lat="44.46747" lon="22.44995">
        <ele>63.94</ele>
        <time>2022-06-03T06:34:19.000Z</time>
      </trkpt>
      <trkpt lat="44.46721" lon="22.45003">
        <ele>62.25</ele>
        <time>2022-06-03T06:34:24.000Z</time>
      </trkpt>
      <trkpt lat="44.46695" lon="22.4501">
        <ele>61.2</ele>
        <time>2022-06-03T06:34:29.000Z</time>
      </trkpt>
      <trkpt lat="44.46669" lon="22.45013">
        <ele>61.69</ele>
        <time>2022-06-03T06:34:34.000Z</time>
      </trkpt>
      <trkpt lat="44.46642" lon="22.45021">
        <ele>63.35</ele>
        <time>2022-06-03T06:34:39.000Z</time>
      </trkpt>
      <trkpt lat="44.46616" lon="22.45028">
        <ele>64.95</ele>
        <time>2022-06-03T06:34:44.000Z</time>
      </trkpt>
      <trkpt lat="44.4659" lon="22.45033">
        <ele>65.94</ele>
        <time>2022-06-03T06:34:49.000Z</time>
      </trkpt>
      <trkpt lat="44.46564" lon="22.4504">
        <ele>66.05</ele>
        <time>2022-06-03T06:34:54.000Z</time>
      </trkpt>
      <trkpt lat="44.46539" lon="22.45044">
        <ele>66.83</ele>
        <time>2022-06-03T06:34:59.000Z</time>
      </trkpt>
      <trkpt lat="44.46513" lon="22.45047">
        <ele>65.43</ele>
        <time>2022-06-03T06:35:04.000Z</time>
      </trkpt>
      <trkpt lat="44.46486" lon="22.45051">
        <ele>66.44</ele>
        <time>2022-06-03T06:35:09.000Z</time>
      </trkpt>
      <trkpt lat="44.46458" lon="22.45059">
        <ele>66.05</ele>
        <time>2022-06-03T06:35:14.000Z</time>
      </trkpt>
      <trkpt lat="44.46431" lon="22.45064">
        <ele>66.02</ele>
        <time>2022-06-03T06:35:19.000Z</time>
      </trkpt>
      <trkpt lat="44.46405" lon="22.4507">
        <ele>67.35</ele>
        <time>2022-06-03T06:35:24.000Z</time>
      </trkpt>
      <trkpt lat="44.46379" lon="22.45076">
        <ele>68.34</ele>
        <time>2022-06-03T06:35:29.000Z</time>
      </trkpt>
      <trkpt lat="44.46352" lon="22.4508">
        <ele>68.29</ele>
        <time>2022-06-03T06:35:34.000Z</time>
      </trkpt>
      <trkpt lat="44.46326" lon="22.45082">
        <ele>67.53</ele>
        <time>2022-06-03T06:35:39.000Z</time>
      </trkpt>
      <trkpt lat="44.463" lon="22.45084">
        <ele>65.92</ele>
        <time>2022-06-03T06:35:44.000Z</time>
      </trkpt>
      <trkpt lat="44.46272" lon="22.45092">
        <ele>66.75</ele>
        <time>2022-06-03T06:35:49.000Z</time>
      </trkpt>
      <trkpt lat="44.46243" lon="22.45098">
        <ele>68.46</ele>
        <time>2022-06-03T06:35:54.000Z</time>
      </trkpt>
      <trkpt lat="44.46215" lon="22.45107">
        <ele>70.42</ele>
        <time>2022-06-03T06:35:59.000Z</time>
      </trkpt>
      <trkpt lat="44.46187" lon="22.45112">
        <ele>72.55</ele>
        <time>2022-06-03T06:36:04.000Z</time>
      </trkpt>
      <trkpt lat="44.4616" lon="22.45117">
        <ele>74.36</ele>
        <time>2022-06-03T06:36:09.000Z</time>
      </trkpt>
      <trkpt lat="44.46133" lon="22.45122">
        <ele>74.33</ele>
        <time>2022-06-03T06:36:14.000Z</time>
      </trkpt>
      <trkpt lat="44.46106" lon="22.45126">
        <ele>71.74</ele>
        <time>2022-06-03T06:36:19.000Z</time>
      </trkpt>
      <trkpt lat="44.4608" lon="22.45129">
        <ele>69.34</ele>
        <time>2022-06-03T06:36:24.000Z</time>
      </trkpt>
      <trkpt lat="44.4605" lon="22.45137">
        <ele>68.81</ele>
        <time>2022-06-03T06:36:29.000Z</time>
      </trkpt>
      <trkpt lat="44.46019" lon="22.45146">
        <ele>68.55</ele>
        <time>2022-06-03T06:36:34.000Z</time>
      </trkpt>
      <trkpt lat="44.45989" lon="22.45152">
        <ele>68.26</ele>
        <time>2022-06-03T06:36:39.000Z</time>
      </trkpt>
      <trkpt lat="44.4596" lon="22.45158">
        <ele>68.98</ele>
        <time>2022-06-03T06:36:44.000Z</time>
      </trkpt>
      <trkpt lat="44.45931" lon="22.45163">
        <ele>69.93</ele>
        <time>2022-06-03T06:36:49.000Z</time>
      </trkpt>
      <trkpt lat="44.45901" lon="22.45167">
        <ele>68.39</ele>
        <time>2022-06-03T06:36:54.000Z</time>
      </trkpt>
      <trkpt lat="44.45872" lon="22.45174">
        <ele>67.81</ele>
        <time>2022-06-03T06:36:59.000Z</time>
      </trkpt>
      <trkpt lat="44.45843" lon="22.45181">
        <ele>67.07</ele>
        <time>2022-06-03T06:37:04.000Z</time>
      </trkpt>
      <trkpt lat="44.45817" lon="22.45188">
        <ele>67.19</ele>
        <time>2022-06-03T06:37:09.000Z</time>
      </trkpt>
      <trkpt lat="44.4579" lon="22.45194">
        <ele>66.18</ele>
        <time>2022-06-03T06:37:14.000Z</time>
      </trkpt>
      <trkpt lat="44.45764" lon="22.45197">
        <ele>66.07</ele>
        <time>2022-06-03T06:37:19.000Z</time>
      </trkpt>
      <trkpt lat="44.4574" lon="22.452">
        <ele>64.79</ele>
        <time>2022-06-03T06:37:24.000Z</time>
      </trkpt>
      <trkpt lat="44.45717" lon="22.45206">
        <ele>65.2</ele>
        <time>2022-06-03T06:37:29.000Z</time>
      </trkpt>
      <trkpt lat="44.45693" lon="22.45212">
        <ele>65.54</ele>
        <time>2022-06-03T06:37:34.000Z</time>
      </trkpt>
      <trkpt lat="44.45671" lon="22.45216">
        <ele>65.35</ele>
        <time>2022-06-03T06:37:39.000Z</time>
      </trkpt>
      <trkpt lat="44.45651" lon="22.45219">
        <ele>66.46</ele>
        <time>2022-06-03T06:37:44.000Z</time>
      </trkpt>
      <trkpt lat="44.45632" lon="22.45222">
        <ele>65.97</ele>
        <time>2022-06-03T06:37:49.000Z</time>
      </trkpt>
      <trkpt lat="44.45613" lon="22.45225">
        <ele>67.15</ele>
        <time>2022-06-03T06:37:54.000Z</time>
      </trkpt>
      <trkpt lat="44.45593" lon="22.45228">
        <ele>67.15</ele>
        <time>2022-06-03T06:37:59.000Z</time>
      </trkpt>
      <trkpt lat="44.45572" lon="22.45233">
        <ele>68.41</ele>
        <time>2022-06-03T06:38:04.000Z</time>
      </trkpt>
      <trkpt lat="44.45551" lon="22.45237">
        <ele>67.46</ele>
        <time>2022-06-03T06:38:09.000Z</time>
      </trkpt>
      <trkpt lat="44.45529" lon="22.45242">
        <ele>67.14</ele>
        <time>2022-06-03T06:38:14.000Z</time>
      </trkpt>
      <trkpt lat="44.45506" lon="22.45247">
        <ele>66.99</ele>
        <time>2022-06-03T06:38:19.000Z</time>
      </trkpt>
      <trkpt lat="44.45486" lon="22.45251">
        <ele>67.06</ele>
        <time>2022-06-03T06:38:24.000Z</time>
      </trkpt>
      <trkpt lat="44.45465" lon="22.45255">
        <ele>67.62</ele>
        <time>2022-06-03T06:38:29.000Z</time>
      </trkpt>
      <trkpt lat="44.45442" lon="22.45261">
        <ele>67.41</ele>
        <time>2022-06-03T06:38:34.000Z</time>
      </trkpt>
      <trkpt lat="44.45422" lon="22.45266">
        <ele>67.5</ele>
        <time>2022-06-03T06:38:39.000Z</time>
      </trkpt>
      <trkpt lat="44.454" lon="22.45272">
        <ele>67.39</ele>
        <time>2022-06-03T06:38:44.000Z</time>
      </trkpt>
      <trkpt lat="44.4538" lon="22.45282">
        <ele>68.07</ele>
        <time>2022-06-03T06:38:49.000Z</time>
      </trkpt>
      <trkpt lat="44.4536" lon="22.45286">
        <ele>67.36</ele>
        <time>2022-06-03T06:38:54.000Z</time>
      </trkpt>
      <trkpt lat="44.45339" lon="22.45288">
        <ele>67.66</ele>
        <time>2022-06-03T06:38:59.000Z</time>
      </trkpt>
      <trkpt lat="44.45318" lon="22.45296">
        <ele>69.18</ele>
        <time>2022-06-03T06:39:04.000Z</time>
      </trkpt>
      <trkpt lat="44.45295" lon="22.453">
        <ele>69.58</ele>
        <time>2022-06-03T06:39:09.000Z</time>
      </trkpt>
      <trkpt lat="44.45273" lon="22.45305">
        <ele>70.41</ele>
        <time>2022-06-03T06:39:14.000Z</time>
      </trkpt>
      <trkpt lat="44.45252" lon="22.45309">
        <ele>71.26</ele>
        <time>2022-06-03T06:39:19.000Z</time>
      </trkpt>
      <trkpt lat="44.4523" lon="22.45312">
        <ele>71.14</ele>
        <time>2022-06-03T06:39:24.000Z</time>
      </trkpt>
      <trkpt lat="44.45206" lon="22.45316">
        <ele>72.24</ele>
        <time>2022-06-03T06:39:29.000Z</time>
      </trkpt>
      <trkpt lat="44.45185" lon="22.45321">
        <ele>70.89</ele>
        <time>2022-06-03T06:39:34.000Z</time>
      </trkpt>
      <trkpt lat="44.45163" lon="22.45325">
        <ele>67.99</ele>
        <time>2022-06-03T06:39:39.000Z</time>
      </trkpt>
      <trkpt lat="44.45143" lon="22.45328">
        <ele>65.78</ele>
        <time>2022-06-03T06:39:44.000Z</time>
      </trkpt>
      <trkpt lat="44.45121" lon="22.45334">
        <ele>64.07</ele>
        <time>2022-06-03T06:39:49.000Z</time>
      </trkpt>
      <trkpt lat="44.45101" lon="22.45339">
        <ele>63.9</ele>
        <time>2022-06-03T06:39:54.000Z</time>
      </trkpt>
      <trkpt lat="44.45083" lon="22.45341">
        <ele>64.32</ele>
        <time>2022-06-03T06:39:59.000Z</time>
      </trkpt>
      <trkpt lat="44.45062" lon="22.45344">
        <ele>65.78</ele>
        <time>2022-06-03T06:40:04.000Z</time>
      </trkpt>
      <trkpt lat="44.4504" lon="22.45347">
        <ele>65.77</ele>
        <time>2022-06-03T06:40:09.000Z</time>
      </trkpt>
      <trkpt lat="44.45019" lon="22.45351">
        <ele>65.72</ele>
        <time>2022-06-03T06:40:14.000Z</time>
      </trkpt>
      <trkpt lat="44.44997" lon="22.45355">
        <ele>65.54</ele>
        <time>2022-06-03T06:40:19.000Z</time>
      </trkpt>
      <trkpt lat="44.44977" lon="22.45359">
        <ele>66.91</ele>
        <time>2022-06-03T06:40:24.000Z</time>
      </trkpt>
      <trkpt lat="44.44957" lon="22.45362">
        <ele>66.06</ele>
        <time>2022-06-03T06:40:29.000Z</time>
      </trkpt>
      <trkpt lat="44.44933" lon="22.45369">
        <ele>67.05</ele>
        <time>2022-06-03T06:40:34.000Z</time>
      </trkpt>
      <trkpt lat="44.44912" lon="22.45374">
        <ele>67.62</ele>
        <time>2022-06-03T06:40:39.000Z</time>
      </trkpt>
      <trkpt lat="44.4489" lon="22.45379">
        <ele>66.91</ele>
        <time>2022-06-03T06:40:44.000Z</time>
      </trkpt>
      <trkpt lat="44.44869" lon="22.45384">
        <ele>65.83</ele>
        <time>2022-06-03T06:40:49.000Z</time>
      </trkpt>
      <trkpt lat="44.44849" lon="22.45387">
        <ele>64.65</ele>
        <time>2022-06-03T06:40:54.000Z</time>
      </trkpt>
      <trkpt lat="44.44829" lon="22.4539">
        <ele>64.48</ele>
        <time>2022-06-03T06:40:59.000Z</time>
      </trkpt>
      <trkpt lat="44.44808" lon="22.45393">
        <ele>64.4</ele>
        <time>2022-06-03T06:41:04.000Z</time>
      </trkpt>
      <trkpt lat="44.44782" lon="22.454">
        <ele>65.39</ele>
        <time>2022-06-03T06:41:09.000Z</time>
      </trkpt>
      <trkpt lat="44.4476" lon="22.45406">
        <ele>64.91</ele>
        <time>2022-06-03T06:41:14.000Z</time>
      </trkpt>
      <trkpt lat="44.44738" lon="22.45411">
        <ele>65.88</ele>
        <time>2022-06-03T06:41:19.000Z</time>
      </trkpt>
      <trkpt lat="44.44717" lon="22.45417">
        <ele>67.22</ele>
        <time>2022-06-03T06:41:24.000Z</time>
      </trkpt>
      <trkpt lat="44.44695" lon="22.45422">
        <ele>66.43</ele>
        <time>2022-06-03T06:41:29.000Z</time>
      </trkpt>
      <trkpt lat="44.44674" lon="22.45429">
        <ele>66.26</ele>
        <time>2022-06-03T06:41:34.000Z</time>
      </trkpt>
      <trkpt lat="44.44655" lon="22.45436">
        <ele>66.33</ele>
        <time>2022-06-03T06:41:39.000Z</time>
      </trkpt>
      <trkpt lat="44.44633" lon="22.45443">
        <ele>66.87</ele>
        <time>2022-06-03T06:41:44.000Z</time>
      </trkpt>
      <trkpt lat="44.4461" lon="22.4545">
        <ele>67.33</ele>
        <time>2022-06-03T06:41:49.000Z</time>
      </trkpt>
      <trkpt lat="44.44589" lon="22.45457">
        <ele>67.05</ele>
        <time>2022-06-03T06:41:54.000Z</time>
      </trkpt>
      <trkpt lat="44.44568" lon="22.45463">
        <ele>66.95</ele>
        <time>2022-06-03T06:41:59.000Z</time>
      </trkpt>
      <trkpt lat="44.44546" lon="22.4547">
        <ele>67.08</ele>
        <time>2022-06-03T06:42:04.000Z</time>
      </trkpt>
      <trkpt lat="44.44522" lon="22.45478">
        <ele>67.35</ele>
        <time>2022-06-03T06:42:09.000Z</time>
      </trkpt>
      <trkpt lat="44.44501" lon="22.45487">
        <ele>68.79</ele>
        <time>2022-06-03T06:42:14.000Z</time>
      </trkpt>
      <trkpt lat="44.44479" lon="22.45495">
        <ele>68.43</ele>
        <time>2022-06-03T06:42:19.000Z</time>
      </trkpt>
      <trkpt lat="44.44457" lon="22.45504">
        <ele>68.3</ele>
        <time>2022-06-03T06:42:24.000Z</time>
      </trkpt>
      <trkpt lat="44.44434" lon="22.45514">
        <ele>68.29</ele>
        <time>2022-06-03T06:42:29.000Z</time>
      </trkpt>
      <trkpt lat="44.44414" lon="22.45524">
        <ele>68.57</ele>
        <time>2022-06-03T06:42:34.000Z</time>
      </trkpt>
      <trkpt lat="44.44397" lon="22.45533">
        <ele>68.9</ele>
        <time>2022-06-03T06:42:39.000Z</time>
      </trkpt>
      <trkpt lat="44.44378" lon="22.45538">
        <ele>69.66</ele>
        <time>2022-06-03T06:42:44.000Z</time>
      </trkpt>
      <trkpt lat="44.44357" lon="22.45547">
        <ele>69.9</ele>
        <time>2022-06-03T06:42:49.000Z</time>
      </trkpt>
      <trkpt lat="44.44333" lon="22.45556">
        <ele>69.72</ele>
        <time>2022-06-03T06:42:54.000Z</time>
      </trkpt>
      <trkpt lat="44.44307" lon="22.45567">
        <ele>69.89</ele>
        <time>2022-06-03T06:42:59.000Z</time>
      </trkpt>
      <trkpt lat="44.44282" lon="22.45579">
        <ele>70.24</ele>
        <time>2022-06-03T06:43:04.000Z</time>
      </trkpt>
      <trkpt lat="44.44259" lon="22.45591">
        <ele>70.43</ele>
        <time>2022-06-03T06:43:09.000Z</time>
      </trkpt>
      <trkpt lat="44.44237" lon="22.45602">
        <ele>70.6</ele>
        <time>2022-06-03T06:43:14.000Z</time>
      </trkpt>
      <trkpt lat="44.44218" lon="22.4561">
        <ele>70.72</ele>
        <time>2022-06-03T06:43:19.000Z</time>
      </trkpt>
      <trkpt lat="44.44191" lon="22.45624">
        <ele>70.83</ele>
        <time>2022-06-03T06:43:24.000Z</time>
      </trkpt>
      <trkpt lat="44.44168" lon="22.45634">
        <ele>72.13</ele>
        <time>2022-06-03T06:43:29.000Z</time>
      </trkpt>
      <trkpt lat="44.4415" lon="22.45645">
        <ele>72.87</ele>
        <time>2022-06-03T06:43:34.000Z</time>
      </trkpt>
      <trkpt lat="44.4413" lon="22.45655">
        <ele>73.34</ele>
        <time>2022-06-03T06:43:39.000Z</time>
      </trkpt>
      <trkpt lat="44.44108" lon="22.45666">
        <ele>73.43</ele>
        <time>2022-06-03T06:43:44.000Z</time>
      </trkpt>
      <trkpt lat="44.44085" lon="22.45677">
        <ele>73.89</ele>
        <time>2022-06-03T06:43:49.000Z</time>
      </trkpt>
      <trkpt lat="44.44061" lon="22.4569">
        <ele>73.61</ele>
        <time>2022-06-03T06:43:54.000Z</time>
      </trkpt>
      <trkpt lat="44.44041" lon="22.45699">
        <ele>71.75</ele>
        <time>2022-06-03T06:43:59.000Z</time>
      </trkpt>
      <trkpt lat="44.44022" lon="22.4571">
        <ele>69.92</ele>
        <time>2022-06-03T06:44:04.000Z</time>
      </trkpt>
      <trkpt lat="44.43999" lon="22.45723">
        <ele>69.44</ele>
        <time>2022-06-03T06:44:09.000Z</time>
      </trkpt>
      <trkpt lat="44.43974" lon="22.45736">
        <ele>69.3</ele>
        <time>2022-06-03T06:44:14.000Z</time>
      </trkpt>
      <trkpt lat="44.4395" lon="22.45748">
        <ele>70.47</ele>
        <time>2022-06-03T06:44:19.000Z</time>
      </trkpt>
      <trkpt lat="44.43927" lon="22.4576">
        <ele>71.54</ele>
        <time>2022-06-03T06:44:24.000Z</time>
      </trkpt>
      <trkpt lat="44.43904" lon="22.45771">
        <ele>72.31</ele>
        <time>2022-06-03T06:44:29.000Z</time>
      </trkpt>
      <trkpt lat="44.43881" lon="22.45783">
        <ele>71.95</ele>
        <time>2022-06-03T06:44:34.000Z</time>
      </trkpt>
      <trkpt lat="44.43858" lon="22.45796">
        <ele>71.21</ele>
        <time>2022-06-03T06:44:39.000Z</time>
      </trkpt>
      <trkpt lat="44.43835" lon="22.45808">
        <ele>71.01</ele>
        <time>2022-06-03T06:44:44.000Z</time>
      </trkpt>
      <trkpt lat="44.4381" lon="22.45821">
        <ele>70.78</ele>
        <time>2022-06-03T06:44:49.000Z</time>
      </trkpt>
      <trkpt lat="44.43787" lon="22.45833">
        <ele>69.28</ele>
        <time>2022-06-03T06:44:54.000Z</time>
      </trkpt>
      <trkpt lat="44.43763" lon="22.45845">
        <ele>68.25</ele>
        <time>2022-06-03T06:44:59.000Z</time>
      </trkpt>
      <trkpt lat="44.43737" lon="22.45859">
        <ele>67.52</ele>
        <time>2022-06-03T06:45:04.000Z</time>
      </trkpt>
      <trkpt lat="44.43713" lon="22.45874">
        <ele>68.06</ele>
        <time>2022-06-03T06:45:09.000Z</time>
      </trkpt>
      <trkpt lat="44.43687" lon="22.45888">
        <ele>68.98</ele>
        <time>2022-06-03T06:45:14.000Z</time>
      </trkpt>
      <trkpt lat="44.43661" lon="22.45904">
        <ele>67.95</ele>
        <time>2022-06-03T06:45:19.000Z</time>
      </trkpt>
      <trkpt lat="44.43638" lon="22.45918">
        <ele>68.93</ele>
        <time>2022-06-03T06:45:24.000Z</time>
      </trkpt>
      <trkpt lat="44.43613" lon="22.45933">
        <ele>70.36</ele>
        <time>2022-06-03T06:45:29.000Z</time>
      </trkpt>
      <trkpt lat="44.43588" lon="22.45949">
        <ele>69.94</ele>
        <time>2022-06-03T06:45:34.000Z</time>
      </trkpt>
      <trkpt lat="44.43567" lon="22.45965">
        <ele>68.3</ele>
        <time>2022-06-03T06:45:39.000Z</time>
      </trkpt>
      <trkpt lat="44.43543" lon="22.45981">
        <ele>67.48</ele>
        <time>2022-06-03T06:45:44.000Z</time>
      </trkpt>
      <trkpt lat="44.4352" lon="22.45999">
        <ele>67.41</ele>
        <time>2022-06-03T06:45:49.000Z</time>
      </trkpt>
      <trkpt lat="44.43497" lon="22.46017">
        <ele>65.68</ele>
        <time>2022-06-03T06:45:54.000Z</time>
      </trkpt>
      <trkpt lat="44.43474" lon="22.46035">
        <ele>66.39</ele>
        <time>2022-06-03T06:45:59.000Z</time>
      </trkpt>
      <trkpt lat="44.43452" lon="22.46052">
        <ele>66.56</ele>
        <time>2022-06-03T06:46:04.000Z</time>
      </trkpt>
      <trkpt lat="44.43431" lon="22.4607">
        <ele>66.84</ele>
        <time>2022-06-03T06:46:09.000Z</time>
      </trkpt>
      <trkpt lat="44.43411" lon="22.46087">
        <ele>68.07</ele>
        <time>2022-06-03T06:46:14.000Z</time>
      </trkpt>
      <trkpt lat="44.43391" lon="22.46103">
        <ele>67.33</ele>
        <time>2022-06-03T06:46:19.000Z</time>
      </trkpt>
      <trkpt lat="44.43372" lon="22.46121">
        <ele>66.92</ele>
        <time>2022-06-03T06:46:24.000Z</time>
      </trkpt>
      <trkpt lat="44.43353" lon="22.4614">
        <ele>66.34</ele>
        <time>2022-06-03T06:46:29.000Z</time>
      </trkpt>
      <trkpt lat="44.43334" lon="22.46158">
        <ele>65.57</ele>
        <time>2022-06-03T06:46:34.000Z</time>
      </trkpt>
      <trkpt lat="44.43314" lon="22.46178">
        <ele>65.88</ele>
        <time>2022-06-03T06:46:39.000Z</time>
      </trkpt>
      <trkpt lat="44.43293" lon="22.46198">
        <ele>65.99</ele>
        <time>2022-06-03T06:46:44.000Z</time>
      </trkpt>
      <trkpt lat="44.43275" lon="22.46218">
        <ele>65.76</ele>
        <time>2022-06-03T06:46:49.000Z</time>
      </trkpt>
      <trkpt lat="44.43256" lon="22.46239">
        <ele>66.56</ele>
        <time>2022-06-03T06:46:54.000Z</time>
      </trkpt>
      <trkpt lat="44.43238" lon="22.4626">
        <ele>66.35</ele>
        <time>2022-06-03T06:46:59.000Z</time>
      </trkpt>
      <trkpt lat="44.43221" lon="22.46281">
        <ele>67.76</ele>
        <time>2022-06-03T06:47:04.000Z</time>
      </trkpt>
      <trkpt lat="44.43203" lon="22.46301">
        <ele>67.92</ele>
        <time>2022-06-03T06:47:09.000Z</time>
      </trkpt>
      <trkpt lat="44.43185" lon="22.46323">
        <ele>66.25</ele>
        <time>2022-06-03T06:47:14.000Z</time>
      </trkpt>
      <trkpt lat="44.43166" lon="22.46344">
        <ele>65.31</ele>
        <time>2022-06-03T06:47:19.000Z</time>
      </trkpt>
      <trkpt lat="44.43148" lon="22.46366">
        <ele>65.23</ele>
        <time>2022-06-03T06:47:24.000Z</time>
      </trkpt>
      <trkpt lat="44.43133" lon="22.46382">
        <ele>65.3</ele>
        <time>2022-06-03T06:47:29.000Z</time>
      </trkpt>
      <trkpt lat="44.43122" lon="22.46396">
        <ele>65.59</ele>
        <time>2022-06-03T06:47:34.000Z</time>
      </trkpt>
      <trkpt lat="44.43116" lon="22.46408">
        <ele>66.09</ele>
        <time>2022-06-03T06:48:50.000Z</time>
      </trkpt>
      <trkpt lat="44.43103" lon="22.46429">
        <ele>66.47</ele>
        <time>2022-06-03T06:48:55.000Z</time>
      </trkpt>
      <trkpt lat="44.43084" lon="22.46453">
        <ele>66.82</ele>
        <time>2022-06-03T06:49:00.000Z</time>
      </trkpt>
      <trkpt lat="44.43067" lon="22.46479">
        <ele>67.56</ele>
        <time>2022-06-03T06:49:05.000Z</time>
      </trkpt>
      <trkpt lat="44.4305" lon="22.46504">
        <ele>67.98</ele>
        <time>2022-06-03T06:49:10.000Z</time>
      </trkpt>
      <trkpt lat="44.43033" lon="22.46531">
        <ele>67.96</ele>
        <time>2022-06-03T06:49:15.000Z</time>
      </trkpt>
      <trkpt lat="44.43015" lon="22.46557">
        <ele>67.53</ele>
        <time>2022-06-03T06:49:20.000Z</time>
      </trkpt>
      <trkpt lat="44.42998" lon="22.46584">
        <ele>67.97</ele>
        <time>2022-06-03T06:49:25.000Z</time>
      </trkpt>
      <trkpt lat="44.42981" lon="22.46612">
        <ele>67.47</ele>
        <time>2022-06-03T06:49:30.000Z</time>
      </trkpt>
      <trkpt lat="44.42965" lon="22.46639">
        <ele>67.85</ele>
        <time>2022-06-03T06:49:35.000Z</time>
      </trkpt>
      <trkpt lat="44.42951" lon="22.46665">
        <ele>67.39</ele>
        <time>2022-06-03T06:49:40.000Z</time>
      </trkpt>
      <trkpt lat="44.42939" lon="22.46687">
        <ele>68.37</ele>
        <time>2022-06-03T06:49:45.000Z</time>
      </trkpt>
      <trkpt lat="44.42928" lon="22.46705">
        <ele>68.98</ele>
        <time>2022-06-03T06:49:50.000Z</time>
      </trkpt>
      <trkpt lat="44.42916" lon="22.46721">
        <ele>67.74</ele>
        <time>2022-06-03T06:49:55.000Z</time>
      </trkpt>
      <trkpt lat="44.42902" lon="22.46737">
        <ele>66.47</ele>
        <time>2022-06-03T06:50:00.000Z</time>
      </trkpt>
      <trkpt lat="44.42884" lon="22.46752">
        <ele>65.62</ele>
        <time>2022-06-03T06:50:05.000Z</time>
      </trkpt>
      <trkpt lat="44.4286" lon="22.46766">
        <ele>65.33</ele>
        <time>2022-06-03T06:50:10.000Z</time>
      </trkpt>
      <trkpt lat="44.42835" lon="22.4678">
        <ele>64.04</ele>
        <time>2022-06-03T06:50:15.000Z</time>
      </trkpt>
      <trkpt lat="44.42805" lon="22.46798">
        <ele>62.88</ele>
        <time>2022-06-03T06:50:20.000Z</time>
      </trkpt>
      <trkpt lat="44.42793" lon="22.46831">
        <ele>61.39</ele>
        <time>2022-06-03T06:50:25.000Z</time>
      </trkpt>
      <trkpt lat="44.42808" lon="22.46867">
        <ele>58.17</ele>
        <time>2022-06-03T06:50:30.000Z</time>
      </trkpt>
      <trkpt lat="44.42832" lon="22.46903">
        <ele>55.31</ele>
        <time>2022-06-03T06:50:35.000Z</time>
      </trkpt>
      <trkpt lat="44.42861" lon="22.46922">
        <ele>54.31</ele>
        <time>2022-06-03T06:50:40.000Z</time>
      </trkpt>
      <trkpt lat="44.42885" lon="22.46937">
        <ele>51.86</ele>
        <time>2022-06-03T06:50:45.000Z</time>
      </trkpt>
      <trkpt lat="44.42894" lon="22.46965">
        <ele>51.25</ele>
        <time>2022-06-03T06:50:50.000Z</time>
      </trkpt>
      <trkpt lat="44.42898" lon="22.46994">
        <ele>51.91</ele>
        <time>2022-06-03T06:50:55.000Z</time>
      </trkpt>
      <trkpt lat="44.42902" lon="22.47028">
        <ele>51.85</ele>
        <time>2022-06-03T06:51:00.000Z</time>
      </trkpt>
      <trkpt lat="44.42908" lon="22.47063">
        <ele>52.9</ele>
        <time>2022-06-03T06:51:05.000Z</time>
      </trkpt>
      <trkpt lat="44.42914" lon="22.47106">
        <ele>52.27</ele>
        <time>2022-06-03T06:51:10.000Z</time>
      </trkpt>
      <trkpt lat="44.42921" lon="22.47148">
        <ele>51.96</ele>
        <time>2022-06-03T06:51:15.000Z</time>
      </trkpt>
      <trkpt lat="44.42909" lon="22.47177">
        <ele>51.29</ele>
        <time>2022-06-03T06:51:20.000Z</time>
      </trkpt>
      <trkpt lat="44.42889" lon="22.47194">
        <ele>50.88</ele>
        <time>2022-06-03T06:51:25.000Z</time>
      </trkpt>
      <trkpt lat="44.4287" lon="22.47206">
        <ele>50.87</ele>
        <time>2022-06-03T06:51:30.000Z</time>
      </trkpt>
      <trkpt lat="44.42852" lon="22.47219">
        <ele>51.2</ele>
        <time>2022-06-03T06:51:35.000Z</time>
      </trkpt>
      <trkpt lat="44.42837" lon="22.47234">
        <ele>51.5</ele>
        <time>2022-06-03T06:51:40.000Z</time>
      </trkpt>
      <trkpt lat="44.42822" lon="22.47252">
        <ele>51.2</ele>
        <time>2022-06-03T06:51:45.000Z</time>
      </trkpt>
      <trkpt lat="44.42808" lon="22.47273">
        <ele>51.03</ele>
        <time>2022-06-03T06:51:50.000Z</time>
      </trkpt>
      <trkpt lat="44.42795" lon="22.47296">
        <ele>50.27</ele>
        <time>2022-06-03T06:51:55.000Z</time>
      </trkpt>
      <trkpt lat="44.42786" lon="22.4732">
        <ele>50.92</ele>
        <time>2022-06-03T06:52:00.000Z</time>
      </trkpt>
      <trkpt lat="44.42778" lon="22.47348">
        <ele>51.27</ele>
        <time>2022-06-03T06:52:05.000Z</time>
      </trkpt>
      <trkpt lat="44.42769" lon="22.47376">
        <ele>51.72</ele>
        <time>2022-06-03T06:52:10.000Z</time>
      </trkpt>
      <trkpt lat="44.42762" lon="22.47407">
        <ele>51.51</ele>
        <time>2022-06-03T06:52:15.000Z</time>
      </trkpt>
      <trkpt lat="44.42752" lon="22.4744">
        <ele>51.86</ele>
        <time>2022-06-03T06:52:20.000Z</time>
      </trkpt>
      <trkpt lat="44.42745" lon="22.47473">
        <ele>51.4</ele>
        <time>2022-06-03T06:52:25.000Z</time>
      </trkpt>
      <trkpt lat="44.42736" lon="22.47508">
        <ele>51.67</ele>
        <time>2022-06-03T06:52:30.000Z</time>
      </trkpt>
      <trkpt lat="44.42726" lon="22.47543">
        <ele>51.91</ele>
        <time>2022-06-03T06:52:35.000Z</time>
      </trkpt>
      <trkpt lat="44.42715" lon="22.47577">
        <ele>50.73</ele>
        <time>2022-06-03T06:52:40.000Z</time>
      </trkpt>
      <trkpt lat="44.42704" lon="22.47612">
        <ele>50.41</ele>
        <time>2022-06-03T06:52:45.000Z</time>
      </trkpt>
      <trkpt lat="44.42692" lon="22.47644">
        <ele>49.85</ele>
        <time>2022-06-03T06:52:50.000Z</time>
      </trkpt>
      <trkpt lat="44.42679" lon="22.47674">
        <ele>51.74</ele>
        <time>2022-06-03T06:52:55.000Z</time>
      </trkpt>
      <trkpt lat="44.42664" lon="22.47701">
        <ele>51.44</ele>
        <time>2022-06-03T06:53:00.000Z</time>
      </trkpt>
      <trkpt lat="44.42643" lon="22.47729">
        <ele>48.4</ele>
        <time>2022-06-03T06:53:05.000Z</time>
      </trkpt>
      <trkpt lat="44.42624" lon="22.47754">
        <ele>47.9</ele>
        <time>2022-06-03T06:53:10.000Z</time>
      </trkpt>
      <trkpt lat="44.42604" lon="22.47777">
        <ele>47.63</ele>
        <time>2022-06-03T06:53:15.000Z</time>
      </trkpt>
      <trkpt lat="44.42587" lon="22.47806">
        <ele>47.38</ele>
        <time>2022-06-03T06:53:20.000Z</time>
      </trkpt>
      <trkpt lat="44.42568" lon="22.47834">
        <ele>48.33</ele>
        <time>2022-06-03T06:53:25.000Z</time>
      </trkpt>
      <trkpt lat="44.42551" lon="22.47862">
        <ele>49.8</ele>
        <time>2022-06-03T06:53:30.000Z</time>
      </trkpt>
      <trkpt lat="44.42536" lon="22.47886">
        <ele>50.57</ele>
        <time>2022-06-03T06:53:35.000Z</time>
      </trkpt>
      <trkpt lat="44.42522" lon="22.47909">
        <ele>50.81</ele>
        <time>2022-06-03T06:53:40.000Z</time>
      </trkpt>
      <trkpt lat="44.42506" lon="22.47929">
        <ele>51.16</ele>
        <time>2022-06-03T06:53:45.000Z</time>
      </trkpt>
      <trkpt lat="44.42494" lon="22.47951">
        <ele>51.74</ele>
        <time>2022-06-03T06:53:50.000Z</time>
      </trkpt>
      <trkpt lat="44.4248" lon="22.47974">
        <ele>52.22</ele>
        <time>2022-06-03T06:53:55.000Z</time>
      </trkpt>
      <trkpt lat="44.42465" lon="22.47997">
        <ele>52.95</ele>
        <time>2022-06-03T06:54:00.000Z</time>
      </trkpt>
      <trkpt lat="44.42448" lon="22.48019">
        <ele>53.58</ele>
        <time>2022-06-03T06:54:05.000Z</time>
      </trkpt>
      <trkpt lat="44.42432" lon="22.4804">
        <ele>54.29</ele>
        <time>2022-06-03T06:54:10.000Z</time>
      </trkpt>
      <trkpt lat="44.42417" lon="22.48059">
        <ele>54.54</ele>
        <time>2022-06-03T06:54:15.000Z</time>
      </trkpt>
      <trkpt lat="44.42403" lon="22.48081">
        <ele>55.29</ele>
        <time>2022-06-03T06:54:20.000Z</time>
      </trkpt>
      <trkpt lat="44.42387" lon="22.48103">
        <ele>54.61</ele>
        <time>2022-06-03T06:54:25.000Z</time>
      </trkpt>
      <trkpt lat="44.42373" lon="22.48124">
        <ele>54.87</ele>
        <time>2022-06-03T06:54:30.000Z</time>
      </trkpt>
      <trkpt lat="44.42357" lon="22.48144">
        <ele>53.65</ele>
        <time>2022-06-03T06:54:35.000Z</time>
      </trkpt>
      <trkpt lat="44.42343" lon="22.48166">
        <ele>52.6</ele>
        <time>2022-06-03T06:54:40.000Z</time>
      </trkpt>
      <trkpt lat="44.42328" lon="22.48185">
        <ele>52.57</ele>
        <time>2022-06-03T06:54:45.000Z</time>
      </trkpt>
      <trkpt lat="44.42314" lon="22.48206">
        <ele>52.96</ele>
        <time>2022-06-03T06:54:50.000Z</time>
      </trkpt>
      <trkpt lat="44.42301" lon="22.48226">
        <ele>53.16</ele>
        <time>2022-06-03T06:54:55.000Z</time>
      </trkpt>
      <trkpt lat="44.42287" lon="22.48245">
        <ele>52.17</ele>
        <time>2022-06-03T06:55:00.000Z</time>
      </trkpt>
      <trkpt lat="44.4227" lon="22.48255">
        <ele>50.49</ele>
        <time>2022-06-03T06:55:05.000Z</time>
      </trkpt>
      <trkpt lat="44.42252" lon="22.48268">
        <ele>49.36</ele>
        <time>2022-06-03T06:55:10.000Z</time>
      </trkpt>
      <trkpt lat="44.42231" lon="22.48285">
        <ele>51.19</ele>
        <time>2022-06-03T06:55:15.000Z</time>
      </trkpt>
      <trkpt lat="44.42213" lon="22.48304">
        <ele>51.93</ele>
        <time>2022-06-03T06:55:20.000Z</time>
      </trkpt>
      <trkpt lat="44.42196" lon="22.48321">
        <ele>51.3</ele>
        <time>2022-06-03T06:55:25.000Z</time>
      </trkpt>
      <trkpt lat="44.42179" lon="22.4834">
        <ele>50.64</ele>
        <time>2022-06-03T06:55:30.000Z</time>
      </trkpt>
      <trkpt lat="44.42162" lon="22.48358">
        <ele>50.86</ele>
        <time>2022-06-03T06:55:35.000Z</time>
      </trkpt>
      <trkpt lat="44.42145" lon="22.48377">
        <ele>51.69</ele>
        <time>2022-06-03T06:55:40.000Z</time>
      </trkpt>
      <trkpt lat="44.4213" lon="22.48399">
        <ele>51.92</ele>
        <time>2022-06-03T06:55:45.000Z</time>
      </trkpt>
      <trkpt lat="44.42115" lon="22.48422">
        <ele>52.17</ele>
        <time>2022-06-03T06:55:50.000Z</time>
      </trkpt>
      <trkpt lat="44.42098" lon="22.48438">
        <ele>52.41</ele>
        <time>2022-06-03T06:55:55.000Z</time>
      </trkpt>
      <trkpt lat="44.42083" lon="22.48451">
        <ele>52.02</ele>
        <time>2022-06-03T06:56:00.000Z</time>
      </trkpt>
      <trkpt lat="44.42067" lon="22.48465">
        <ele>51.55</ele>
        <time>2022-06-03T06:56:05.000Z</time>
      </trkpt>
      <trkpt lat="44.42056" lon="22.4847">
        <ele>46.29</ele>
        <time>2022-06-03T06:58:11.000Z</time>
      </trkpt>
      <trkpt lat="44.42044" lon="22.48482">
        <ele>46.57</ele>
        <time>2022-06-03T06:58:16.000Z</time>
      </trkpt>
      <trkpt lat="44.42032" lon="22.48499">
        <ele>46.64</ele>
        <time>2022-06-03T06:58:21.000Z</time>
      </trkpt>
      <trkpt lat="44.4202" lon="22.48519">
        <ele>47.1</ele>
        <time>2022-06-03T06:58:26.000Z</time>
      </trkpt>
      <trkpt lat="44.42004" lon="22.48539">
        <ele>48.84</ele>
        <time>2022-06-03T06:58:31.000Z</time>
      </trkpt>
      <trkpt lat="44.41985" lon="22.48558">
        <ele>50.74</ele>
        <time>2022-06-03T06:58:36.000Z</time>
      </trkpt>
      <trkpt lat="44.41969" lon="22.4857">
        <ele>51.92</ele>
        <time>2022-06-03T06:58:41.000Z</time>
      </trkpt>
      <trkpt lat="44.41953" lon="22.48585">
        <ele>52.79</ele>
        <time>2022-06-03T06:58:46.000Z</time>
      </trkpt>
      <trkpt lat="44.41935" lon="22.48602">
        <ele>54.9</ele>
        <time>2022-06-03T06:58:51.000Z</time>
      </trkpt>
      <trkpt lat="44.41917" lon="22.48619">
        <ele>54.34</ele>
        <time>2022-06-03T06:58:56.000Z</time>
      </trkpt>
      <trkpt lat="44.41899" lon="22.48632">
        <ele>54.72</ele>
        <time>2022-06-03T06:59:01.000Z</time>
      </trkpt>
      <trkpt lat="44.41883" lon="22.48645">
        <ele>55.42</ele>
        <time>2022-06-03T06:59:06.000Z</time>
      </trkpt>
      <trkpt lat="44.41868" lon="22.4866">
        <ele>55.66</ele>
        <time>2022-06-03T06:59:11.000Z</time>
      </trkpt>
      <trkpt lat="44.4185" lon="22.48674">
        <ele>55.22</ele>
        <time>2022-06-03T06:59:16.000Z</time>
      </trkpt>
      <trkpt lat="44.41833" lon="22.48691">
        <ele>54.71</ele>
        <time>2022-06-03T06:59:21.000Z</time>
      </trkpt>
      <trkpt lat="44.41817" lon="22.48704">
        <ele>54.23</ele>
        <time>2022-06-03T06:59:26.000Z</time>
      </trkpt>
      <trkpt lat="44.41807" lon="22.48717">
        <ele>54.64</ele>
        <time>2022-06-03T06:59:31.000Z</time>
      </trkpt>
      <trkpt lat="44.41791" lon="22.48731">
        <ele>55.09</ele>
        <time>2022-06-03T06:59:36.000Z</time>
      </trkpt>
      <trkpt lat="44.41777" lon="22.48743">
        <ele>55.2</ele>
        <time>2022-06-03T06:59:41.000Z</time>
      </trkpt>
      <trkpt lat="44.41759" lon="22.48757">
        <ele>56.06</ele>
        <time>2022-06-03T06:59:46.000Z</time>
      </trkpt>
      <trkpt lat="44.41742" lon="22.48772">
        <ele>56.11</ele>
        <time>2022-06-03T06:59:51.000Z</time>
      </trkpt>
      <trkpt lat="44.41726" lon="22.48786">
        <ele>56.54</ele>
        <time>2022-06-03T06:59:56.000Z</time>
      </trkpt>
      <trkpt lat="44.41706" lon="22.48807">
        <ele>55.65</ele>
        <time>2022-06-03T07:00:01.000Z</time>
      </trkpt>
      <trkpt lat="44.41686" lon="22.48828">
        <ele>55.67</ele>
        <time>2022-06-03T07:00:06.000Z</time>
      </trkpt>
      <trkpt lat="44.41669" lon="22.48855">
        <ele>56.46</ele>
        <time>2022-06-03T07:00:11.000Z</time>
      </trkpt>
      <trkpt lat="44.41652" lon="22.48879">
        <ele>57.25</ele>
        <time>2022-06-03T07:00:16.000Z</time>
      </trkpt>
      <trkpt lat="44.41634" lon="22.48887">
        <ele>57.99</ele>
        <time>2022-06-03T07:00:21.000Z</time>
      </trkpt>
      <trkpt lat="44.41614" lon="22.48899">
        <ele>57.96</ele>
        <time>2022-06-03T07:00:26.000Z</time>
      </trkpt>
      <trkpt lat="44.41596" lon="22.48915">
        <ele>58.86</ele>
        <time>2022-06-03T07:00:31.000Z</time>
      </trkpt>
      <trkpt lat="44.41579" lon="22.4893">
        <ele>58.82</ele>
        <time>2022-06-03T07:00:36.000Z</time>
      </trkpt>
      <trkpt lat="44.41566" lon="22.48943">
        <ele>58.46</ele>
        <time>2022-06-03T07:00:41.000Z</time>
      </trkpt>
      <trkpt lat="44.4155" lon="22.48957">
        <ele>57.93</ele>
        <time>2022-06-03T07:00:46.000Z</time>
      </trkpt>
      <trkpt lat="44.4153" lon="22.4897">
        <ele>57.99</ele>
        <time>2022-06-03T07:00:51.000Z</time>
      </trkpt>
      <trkpt lat="44.41512" lon="22.48985">
        <ele>58</ele>
        <time>2022-06-03T07:00:56.000Z</time>
      </trkpt>
      <trkpt lat="44.41493" lon="22.49001">
        <ele>57.51</ele>
        <time>2022-06-03T07:01:01.000Z</time>
      </trkpt>
      <trkpt lat="44.41475" lon="22.49016">
        <ele>57.49</ele>
        <time>2022-06-03T07:01:06.000Z</time>
      </trkpt>
      <trkpt lat="44.41456" lon="22.49028">
        <ele>56.79</ele>
        <time>2022-06-03T07:01:11.000Z</time>
      </trkpt>
      <trkpt lat="44.4144" lon="22.49039">
        <ele>56.4</ele>
        <time>2022-06-03T07:01:16.000Z</time>
      </trkpt>
      <trkpt lat="44.41419" lon="22.49051">
        <ele>56.04</ele>
        <time>2022-06-03T07:01:21.000Z</time>
      </trkpt>
      <trkpt lat="44.41398" lon="22.49065">
        <ele>55.34</ele>
        <time>2022-06-03T07:01:26.000Z</time>
      </trkpt>
      <trkpt lat="44.41372" lon="22.4908">
        <ele>54.39</ele>
        <time>2022-06-03T07:01:31.000Z</time>
      </trkpt>
      <trkpt lat="44.41348" lon="22.49095">
        <ele>53.53</ele>
        <time>2022-06-03T07:01:36.000Z</time>
      </trkpt>
      <trkpt lat="44.4132" lon="22.49107">
        <ele>53.2</ele>
        <time>2022-06-03T07:01:41.000Z</time>
      </trkpt>
      <trkpt lat="44.41294" lon="22.49121">
        <ele>53.25</ele>
        <time>2022-06-03T07:01:46.000Z</time>
      </trkpt>
      <trkpt lat="44.41268" lon="22.49124">
        <ele>52.49</ele>
        <time>2022-06-03T07:01:51.000Z</time>
      </trkpt>
      <trkpt lat="44.41241" lon="22.49126">
        <ele>52.21</ele>
        <time>2022-06-03T07:01:56.000Z</time>
      </trkpt>
      <trkpt lat="44.41213" lon="22.49129">
        <ele>51.59</ele>
        <time>2022-06-03T07:02:01.000Z</time>
      </trkpt>
      <trkpt lat="44.41188" lon="22.49131">
        <ele>50.85</ele>
        <time>2022-06-03T07:02:06.000Z</time>
      </trkpt>
      <trkpt lat="44.41163" lon="22.49131">
        <ele>51.26</ele>
        <time>2022-06-03T07:02:11.000Z</time>
      </trkpt>
      <trkpt lat="44.41141" lon="22.49133">
        <ele>51.89</ele>
        <time>2022-06-03T07:02:16.000Z</time>
      </trkpt>
      <trkpt lat="44.41124" lon="22.4913">
        <ele>52.36</ele>
        <time>2022-06-03T07:02:21.000Z</time>
      </trkpt>
      <trkpt lat="44.41101" lon="22.49135">
        <ele>54.44</ele>
        <time>2022-06-03T07:02:26.000Z</time>
      </trkpt>
      <trkpt lat="44.41079" lon="22.49139">
        <ele>54.76</ele>
        <time>2022-06-03T07:02:31.000Z</time>
      </trkpt>
      <trkpt lat="44.41058" lon="22.49138">
        <ele>54.6</ele>
        <time>2022-06-03T07:02:36.000Z</time>
      </trkpt>
      <trkpt lat="44.41038" lon="22.49139">
        <ele>54.34</ele>
        <time>2022-06-03T07:02:41.000Z</time>
      </trkpt>
      <trkpt lat="44.41016" lon="22.4914">
        <ele>55.75</ele>
        <time>2022-06-03T07:02:46.000Z</time>
      </trkpt>
      <trkpt lat="44.40998" lon="22.49138">
        <ele>56.73</ele>
        <time>2022-06-03T07:02:51.000Z</time>
      </trkpt>
      <trkpt lat="44.41006" lon="22.49142">
        <ele>55.4</ele>
        <time>2022-06-03T07:03:00.000Z</time>
      </trkpt>
      <trkpt lat="44.40996" lon="22.49138">
        <ele>56.42</ele>
        <time>2022-06-03T07:07:40.000Z</time>
      </trkpt>
      <trkpt lat="44.40982" lon="22.49139">
        <ele>56.4</ele>
        <time>2022-06-03T07:07:45.000Z</time>
      </trkpt>
      <trkpt lat="44.40964" lon="22.49141">
        <ele>56.3</ele>
        <time>2022-06-03T07:07:50.000Z</time>
      </trkpt>
      <trkpt lat="44.40945" lon="22.49142">
        <ele>56.88</ele>
        <time>2022-06-03T07:07:55.000Z</time>
      </trkpt>
      <trkpt lat="44.40925" lon="22.49142">
        <ele>56.11</ele>
        <time>2022-06-03T07:08:00.000Z</time>
      </trkpt>
      <trkpt lat="44.40904" lon="22.49142">
        <ele>55.32</ele>
        <time>2022-06-03T07:08:05.000Z</time>
      </trkpt>
      <trkpt lat="44.40882" lon="22.49141">
        <ele>54.46</ele>
        <time>2022-06-03T07:08:10.000Z</time>
      </trkpt>
      <trkpt lat="44.40859" lon="22.49141">
        <ele>53.78</ele>
        <time>2022-06-03T07:08:15.000Z</time>
      </trkpt>
      <trkpt lat="44.40834" lon="22.49141">
        <ele>54.12</ele>
        <time>2022-06-03T07:08:20.000Z</time>
      </trkpt>
      <trkpt lat="44.40806" lon="22.49136">
        <ele>54.14</ele>
        <time>2022-06-03T07:08:25.000Z</time>
      </trkpt>
      <trkpt lat="44.40775" lon="22.49134">
        <ele>53.13</ele>
        <time>2022-06-03T07:08:30.000Z</time>
      </trkpt>
      <trkpt lat="44.40745" lon="22.49139">
        <ele>51.6</ele>
        <time>2022-06-03T07:08:35.000Z</time>
      </trkpt>
      <trkpt lat="44.40715" lon="22.49149">
        <ele>48.95</ele>
        <time>2022-06-03T07:08:40.000Z</time>
      </trkpt>
      <trkpt lat="44.40686" lon="22.49165">
        <ele>46.95</ele>
        <time>2022-06-03T07:08:45.000Z</time>
      </trkpt>
      <trkpt lat="44.40662" lon="22.49167">
        <ele>46.17</ele>
        <time>2022-06-03T07:08:50.000Z</time>
      </trkpt>
      <trkpt lat="44.40642" lon="22.49151">
        <ele>46.16</ele>
        <time>2022-06-03T07:08:55.000Z</time>
      </trkpt>
      <trkpt lat="44.40618" lon="22.49143">
        <ele>45.93</ele>
        <time>2022-06-03T07:09:00.000Z</time>
      </trkpt>
      <trkpt lat="44.40594" lon="22.49154">
        <ele>45.6</ele>
        <time>2022-06-03T07:09:05.000Z</time>
      </trkpt>
      <trkpt lat="44.40577" lon="22.49176">
        <ele>45.53</ele>
        <time>2022-06-03T07:09:10.000Z</time>
      </trkpt>
      <trkpt lat="44.40564" lon="22.4921">
        <ele>43.17</ele>
        <time>2022-06-03T07:09:15.000Z</time>
      </trkpt>
      <trkpt lat="44.40551" lon="22.4925">
        <ele>44.88</ele>
        <time>2022-06-03T07:09:20.000Z</time>
      </trkpt>
      <trkpt lat="44.40546" lon="22.49284">
        <ele>45.78</ele>
        <time>2022-06-03T07:09:25.000Z</time>
      </trkpt>
      <trkpt lat="44.40537" lon="22.49307">
        <ele>46.18</ele>
        <time>2022-06-03T07:09:30.000Z</time>
      </trkpt>
      <trkpt lat="44.40526" lon="22.49318">
        <ele>46.65</ele>
        <time>2022-06-03T07:09:35.000Z</time>
      </trkpt>
      <trkpt lat="44.40515" lon="22.49327">
        <ele>46.7</ele>
        <time>2022-06-03T07:09:40.000Z</time>
      </trkpt>
      <trkpt lat="44.40502" lon="22.49336">
        <ele>46.8</ele>
        <time>2022-06-03T07:09:45.000Z</time>
      </trkpt>
      <trkpt lat="44.40485" lon="22.49351">
        <ele>46.88</ele>
        <time>2022-06-03T07:09:50.000Z</time>
      </trkpt>
      <trkpt lat="44.40467" lon="22.49359">
        <ele>46.97</ele>
        <time>2022-06-03T07:09:55.000Z</time>
      </trkpt>
      <trkpt lat="44.40443" lon="22.49374">
        <ele>47.07</ele>
        <time>2022-06-03T07:10:00.000Z</time>
      </trkpt>
      <trkpt lat="44.40417" lon="22.4938">
        <ele>47.3</ele>
        <time>2022-06-03T07:10:05.000Z</time>
      </trkpt>
      <trkpt lat="44.40396" lon="22.49385">
        <ele>47.37</ele>
        <time>2022-06-03T07:10:10.000Z</time>
      </trkpt>
      <trkpt lat="44.40369" lon="22.49392">
        <ele>46.9</ele>
        <time>2022-06-03T07:10:15.000Z</time>
      </trkpt>
      <trkpt lat="44.40347" lon="22.49394">
        <ele>47.17</ele>
        <time>2022-06-03T07:10:20.000Z</time>
      </trkpt>
      <trkpt lat="44.40319" lon="22.49407">
        <ele>47.31</ele>
        <time>2022-06-03T07:10:25.000Z</time>
      </trkpt>
      <trkpt lat="44.40292" lon="22.49411">
        <ele>48.02</ele>
        <time>2022-06-03T07:10:30.000Z</time>
      </trkpt>
      <trkpt lat="44.40267" lon="22.49415">
        <ele>47.51</ele>
        <time>2022-06-03T07:10:35.000Z</time>
      </trkpt>
      <trkpt lat="44.40242" lon="22.49419">
        <ele>47.34</ele>
        <time>2022-06-03T07:10:40.000Z</time>
      </trkpt>
      <trkpt lat="44.40218" lon="22.49422">
        <ele>47.71</ele>
        <time>2022-06-03T07:10:45.000Z</time>
      </trkpt>
      <trkpt lat="44.40195" lon="22.49423">
        <ele>47.56</ele>
        <time>2022-06-03T07:10:50.000Z</time>
      </trkpt>
      <trkpt lat="44.40174" lon="22.49426">
        <ele>46.15</ele>
        <time>2022-06-03T07:10:55.000Z</time>
      </trkpt>
      <trkpt lat="44.40152" lon="22.49427">
        <ele>44.44</ele>
        <time>2022-06-03T07:11:00.000Z</time>
      </trkpt>
      <trkpt lat="44.40126" lon="22.49429">
        <ele>42.95</ele>
        <time>2022-06-03T07:11:05.000Z</time>
      </trkpt>
      <trkpt lat="44.40101" lon="22.49433">
        <ele>42.73</ele>
        <time>2022-06-03T07:11:10.000Z</time>
      </trkpt>
      <trkpt lat="44.40077" lon="22.49436">
        <ele>41.5</ele>
        <time>2022-06-03T07:11:15.000Z</time>
      </trkpt>
      <trkpt lat="44.40056" lon="22.49438">
        <ele>40.87</ele>
        <time>2022-06-03T07:11:20.000Z</time>
      </trkpt>
      <trkpt lat="44.40038" lon="22.49439">
        <ele>38.93</ele>
        <time>2022-06-03T07:11:25.000Z</time>
      </trkpt>
      <trkpt lat="44.40015" lon="22.49442">
        <ele>37.94</ele>
        <time>2022-06-03T07:11:30.000Z</time>
      </trkpt>
      <trkpt lat="44.39992" lon="22.49444">
        <ele>37.67</ele>
        <time>2022-06-03T07:11:35.000Z</time>
      </trkpt>
      <trkpt lat="44.3997" lon="22.49449">
        <ele>37.46</ele>
        <time>2022-06-03T07:11:40.000Z</time>
      </trkpt>
      <trkpt lat="44.39948" lon="22.49448">
        <ele>37.08</ele>
        <time>2022-06-03T07:11:45.000Z</time>
      </trkpt>
      <trkpt lat="44.39927" lon="22.49444">
        <ele>36.57</ele>
        <time>2022-06-03T07:11:50.000Z</time>
      </trkpt>
      <trkpt lat="44.39905" lon="22.49445">
        <ele>36.53</ele>
        <time>2022-06-03T07:11:55.000Z</time>
      </trkpt>
      <trkpt lat="44.39885" lon="22.49448">
        <ele>36.08</ele>
        <time>2022-06-03T07:12:00.000Z</time>
      </trkpt>
      <trkpt lat="44.39865" lon="22.49455">
        <ele>35.75</ele>
        <time>2022-06-03T07:12:05.000Z</time>
      </trkpt>
      <trkpt lat="44.39845" lon="22.49463">
        <ele>38.42</ele>
        <time>2022-06-03T07:12:10.000Z</time>
      </trkpt>
      <trkpt lat="44.39824" lon="22.49469">
        <ele>38.01</ele>
        <time>2022-06-03T07:12:15.000Z</time>
      </trkpt>
      <trkpt lat="44.39792" lon="22.49466">
        <ele>37.31</ele>
        <time>2022-06-03T07:12:20.000Z</time>
      </trkpt>
      <trkpt lat="44.39769" lon="22.49461">
        <ele>38.09</ele>
        <time>2022-06-03T07:12:25.000Z</time>
      </trkpt>
      <trkpt lat="44.39746" lon="22.49456">
        <ele>41.03</ele>
        <time>2022-06-03T07:12:30.000Z</time>
      </trkpt>
      <trkpt lat="44.39726" lon="22.49445">
        <ele>42.16</ele>
        <time>2022-06-03T07:12:35.000Z</time>
      </trkpt>
      <trkpt lat="44.39715" lon="22.49434">
        <ele>42.36</ele>
        <time>2022-06-03T07:12:40.000Z</time>
      </trkpt>
      <trkpt lat="44.39705" lon="22.4943">
        <ele>43.45</ele>
        <time>2022-06-03T07:12:46.000Z</time>
      </trkpt>
      <trkpt lat="44.39695" lon="22.49433">
        <ele>43.94</ele>
        <time>2022-06-03T07:12:51.000Z</time>
      </trkpt>
      <trkpt lat="44.39685" lon="22.49435">
        <ele>44.93</ele>
        <time>2022-06-03T07:12:56.000Z</time>
      </trkpt>
      <trkpt lat="44.39674" lon="22.4944">
        <ele>46.29</ele>
        <time>2022-06-03T07:13:01.000Z</time>
      </trkpt>
      <trkpt lat="44.39658" lon="22.49444">
        <ele>47.92</ele>
        <time>2022-06-03T07:13:06.000Z</time>
      </trkpt>
      <trkpt lat="44.39633" lon="22.4945">
        <ele>49.05</ele>
        <time>2022-06-03T07:13:11.000Z</time>
      </trkpt>
      <trkpt lat="44.39602" lon="22.49452">
        <ele>48.61</ele>
        <time>2022-06-03T07:13:16.000Z</time>
      </trkpt>
      <trkpt lat="44.39573" lon="22.49453">
        <ele>47.82</ele>
        <time>2022-06-03T07:13:21.000Z</time>
      </trkpt>
      <trkpt lat="44.39545" lon="22.49458">
        <ele>47.28</ele>
        <time>2022-06-03T07:13:26.000Z</time>
      </trkpt>
      <trkpt lat="44.39517" lon="22.49467">
        <ele>45.95</ele>
        <time>2022-06-03T07:13:31.000Z</time>
      </trkpt>
      <trkpt lat="44.39491" lon="22.49478">
        <ele>45.99</ele>
        <time>2022-06-03T07:13:36.000Z</time>
      </trkpt>
      <trkpt lat="44.39468" lon="22.49485">
        <ele>46.38</ele>
        <time>2022-06-03T07:13:41.000Z</time>
      </trkpt>
      <trkpt lat="44.39455" lon="22.49487">
        <ele>46.89</ele>
        <time>2022-06-03T07:13:46.000Z</time>
      </trkpt>
      <trkpt lat="44.39443" lon="22.49492">
        <ele>47.64</ele>
        <time>2022-06-03T07:13:51.000Z</time>
      </trkpt>
      <trkpt lat="44.39433" lon="22.49497">
        <ele>47.93</ele>
        <time>2022-06-03T07:13:56.000Z</time>
      </trkpt>
      <trkpt lat="44.39419" lon="22.49502">
        <ele>48.64</ele>
        <time>2022-06-03T07:14:01.000Z</time>
      </trkpt>
      <trkpt lat="44.39401" lon="22.49509">
        <ele>48.9</ele>
        <time>2022-06-03T07:14:06.000Z</time>
      </trkpt>
      <trkpt lat="44.3938" lon="22.49516">
        <ele>49.5</ele>
        <time>2022-06-03T07:14:11.000Z</time>
      </trkpt>
      <trkpt lat="44.39373" lon="22.49524">
        <ele>52.17</ele>
        <time>2022-06-03T07:14:32.000Z</time>
      </trkpt>
      <trkpt lat="44.39361" lon="22.4953">
        <ele>52.7</ele>
        <time>2022-06-03T07:14:39.000Z</time>
      </trkpt>
      <trkpt lat="44.39342" lon="22.49541">
        <ele>52.74</ele>
        <time>2022-06-03T07:14:44.000Z</time>
      </trkpt>
      <trkpt lat="44.3932" lon="22.4955">
        <ele>53.22</ele>
        <time>2022-06-03T07:14:49.000Z</time>
      </trkpt>
      <trkpt lat="44.39297" lon="22.49555">
        <ele>52.05</ele>
        <time>2022-06-03T07:14:54.000Z</time>
      </trkpt>
      <trkpt lat="44.39277" lon="22.49561">
        <ele>49.42</ele>
        <time>2022-06-03T07:14:59.000Z</time>
      </trkpt>
      <trkpt lat="44.39254" lon="22.49564">
        <ele>47.43</ele>
        <time>2022-06-03T07:15:04.000Z</time>
      </trkpt>
      <trkpt lat="44.3923" lon="22.49564">
        <ele>47.28</ele>
        <time>2022-06-03T07:15:09.000Z</time>
      </trkpt>
      <trkpt lat="44.39207" lon="22.49563">
        <ele>45.91</ele>
        <time>2022-06-03T07:15:14.000Z</time>
      </trkpt>
      <trkpt lat="44.39183" lon="22.49551">
        <ele>45.55</ele>
        <time>2022-06-03T07:15:19.000Z</time>
      </trkpt>
      <trkpt lat="44.39161" lon="22.4954">
        <ele>45.78</ele>
        <time>2022-06-03T07:15:24.000Z</time>
      </trkpt>
      <trkpt lat="44.39142" lon="22.49531">
        <ele>46.27</ele>
        <time>2022-06-03T07:15:29.000Z</time>
      </trkpt>
      <trkpt lat="44.39124" lon="22.49522">
        <ele>46.11</ele>
        <time>2022-06-03T07:15:34.000Z</time>
      </trkpt>
      <trkpt lat="44.39105" lon="22.49513">
        <ele>45.8</ele>
        <time>2022-06-03T07:15:39.000Z</time>
      </trkpt>
      <trkpt lat="44.39087" lon="22.49504">
        <ele>45.49</ele>
        <time>2022-06-03T07:15:44.000Z</time>
      </trkpt>
      <trkpt lat="44.39066" lon="22.49497">
        <ele>46.61</ele>
        <time>2022-06-03T07:15:49.000Z</time>
      </trkpt>
      <trkpt lat="44.39044" lon="22.49496">
        <ele>47.6</ele>
        <time>2022-06-03T07:15:54.000Z</time>
      </trkpt>
      <trkpt lat="44.3902" lon="22.49505">
        <ele>45.75</ele>
        <time>2022-06-03T07:15:59.000Z</time>
      </trkpt>
      <trkpt lat="44.38999" lon="22.49517">
        <ele>44.3</ele>
        <time>2022-06-03T07:16:04.000Z</time>
      </trkpt>
      <trkpt lat="44.38977" lon="22.49532">
        <ele>44.96</ele>
        <time>2022-06-03T07:16:09.000Z</time>
      </trkpt>
      <trkpt lat="44.38959" lon="22.49544">
        <ele>46.01</ele>
        <time>2022-06-03T07:16:14.000Z</time>
      </trkpt>
      <trkpt lat="44.38942" lon="22.49555">
        <ele>46.2</ele>
        <time>2022-06-03T07:16:19.000Z</time>
      </trkpt>
      <trkpt lat="44.38925" lon="22.49565">
        <ele>46.03</ele>
        <time>2022-06-03T07:16:24.000Z</time>
      </trkpt>
      <trkpt lat="44.38906" lon="22.49573">
        <ele>47.09</ele>
        <time>2022-06-03T07:16:29.000Z</time>
      </trkpt>
      <trkpt lat="44.38889" lon="22.49578">
        <ele>47.91</ele>
        <time>2022-06-03T07:16:34.000Z</time>
      </trkpt>
      <trkpt lat="44.38872" lon="22.49583">
        <ele>48.46</ele>
        <time>2022-06-03T07:16:39.000Z</time>
      </trkpt>
      <trkpt lat="44.38852" lon="22.49584">
        <ele>49.18</ele>
        <time>2022-06-03T07:16:44.000Z</time>
      </trkpt>
      <trkpt lat="44.38829" lon="22.49586">
        <ele>49.3</ele>
        <time>2022-06-03T07:16:49.000Z</time>
      </trkpt>
      <trkpt lat="44.38807" lon="22.49593">
        <ele>49.38</ele>
        <time>2022-06-03T07:16:54.000Z</time>
      </trkpt>
      <trkpt lat="44.38783" lon="22.49596">
        <ele>49.79</ele>
        <time>2022-06-03T07:16:59.000Z</time>
      </trkpt>
      <trkpt lat="44.38757" lon="22.496">
        <ele>50.44</ele>
        <time>2022-06-03T07:17:04.000Z</time>
      </trkpt>
      <trkpt lat="44.38735" lon="22.496">
        <ele>50.59</ele>
        <time>2022-06-03T07:17:09.000Z</time>
      </trkpt>
      <trkpt lat="44.38715" lon="22.49603">
        <ele>48.76</ele>
        <time>2022-06-03T07:17:14.000Z</time>
      </trkpt>
      <trkpt lat="44.38698" lon="22.49609">
        <ele>49.37</ele>
        <time>2022-06-03T07:17:19.000Z</time>
      </trkpt>
      <trkpt lat="44.38681" lon="22.49618">
        <ele>50.58</ele>
        <time>2022-06-03T07:17:24.000Z</time>
      </trkpt>
      <trkpt lat="44.38663" lon="22.49628">
        <ele>51.17</ele>
        <time>2022-06-03T07:17:29.000Z</time>
      </trkpt>
      <trkpt lat="44.38645" lon="22.49641">
        <ele>51.57</ele>
        <time>2022-06-03T07:17:34.000Z</time>
      </trkpt>
      <trkpt lat="44.3863" lon="22.49651">
        <ele>52.25</ele>
        <time>2022-06-03T07:17:39.000Z</time>
      </trkpt>
      <trkpt lat="44.38615" lon="22.49653">
        <ele>52.37</ele>
        <time>2022-06-03T07:17:44.000Z</time>
      </trkpt>
      <trkpt lat="44.38599" lon="22.49656">
        <ele>52.12</ele>
        <time>2022-06-03T07:17:49.000Z</time>
      </trkpt>
      <trkpt lat="44.38584" lon="22.49663">
        <ele>52.76</ele>
        <time>2022-06-03T07:17:54.000Z</time>
      </trkpt>
      <trkpt lat="44.38566" lon="22.49667">
        <ele>52.95</ele>
        <time>2022-06-03T07:17:59.000Z</time>
      </trkpt>
      <trkpt lat="44.38541" lon="22.49683">
        <ele>51.78</ele>
        <time>2022-06-03T07:18:04.000Z</time>
      </trkpt>
      <trkpt lat="44.38509" lon="22.497">
        <ele>50.51</ele>
        <time>2022-06-03T07:18:09.000Z</time>
      </trkpt>
      <trkpt lat="44.38479" lon="22.49705">
        <ele>49.13</ele>
        <time>2022-06-03T07:18:14.000Z</time>
      </trkpt>
      <trkpt lat="44.38456" lon="22.49708">
        <ele>48.7</ele>
        <time>2022-06-03T07:18:19.000Z</time>
      </trkpt>
      <trkpt lat="44.38443" lon="22.4971">
        <ele>48.56</ele>
        <time>2022-06-03T07:18:24.000Z</time>
      </trkpt>
      <trkpt lat="44.38428" lon="22.49709">
        <ele>47.44</ele>
        <time>2022-06-03T07:18:29.000Z</time>
      </trkpt>
      <trkpt lat="44.38415" lon="22.49711">
        <ele>47.63</ele>
        <time>2022-06-03T07:18:34.000Z</time>
      </trkpt>
      <trkpt lat="44.38404" lon="22.49715">
        <ele>48.49</ele>
        <time>2022-06-03T07:18:39.000Z</time>
      </trkpt>
      <trkpt lat="44.38389" lon="22.49725">
        <ele>53.58</ele>
        <time>2022-06-03T07:20:02.000Z</time>
      </trkpt>
      <trkpt lat="44.38378" lon="22.49731">
        <ele>54.7</ele>
        <time>2022-06-03T07:20:32.000Z</time>
      </trkpt>
      <trkpt lat="44.38357" lon="22.49739">
        <ele>54.21</ele>
        <time>2022-06-03T07:20:37.000Z</time>
      </trkpt>
      <trkpt lat="44.38334" lon="22.49745">
        <ele>53.5</ele>
        <time>2022-06-03T07:20:42.000Z</time>
      </trkpt>
      <trkpt lat="44.38314" lon="22.49752">
        <ele>52.67</ele>
        <time>2022-06-03T07:20:47.000Z</time>
      </trkpt>
      <trkpt lat="44.3829" lon="22.4976">
        <ele>52.85</ele>
        <time>2022-06-03T07:20:52.000Z</time>
      </trkpt>
      <trkpt lat="44.38268" lon="22.49771">
        <ele>52.18</ele>
        <time>2022-06-03T07:20:57.000Z</time>
      </trkpt>
      <trkpt lat="44.38242" lon="22.49781">
        <ele>51.56</ele>
        <time>2022-06-03T07:21:02.000Z</time>
      </trkpt>
      <trkpt lat="44.38218" lon="22.49786">
        <ele>51.92</ele>
        <time>2022-06-03T07:21:07.000Z</time>
      </trkpt>
      <trkpt lat="44.38194" lon="22.49793">
        <ele>51.59</ele>
        <time>2022-06-03T07:21:12.000Z</time>
      </trkpt>
      <trkpt lat="44.3817" lon="22.49793">
        <ele>51.33</ele>
        <time>2022-06-03T07:21:17.000Z</time>
      </trkpt>
      <trkpt lat="44.38143" lon="22.49793">
        <ele>51.01</ele>
        <time>2022-06-03T07:21:22.000Z</time>
      </trkpt>
      <trkpt lat="44.3812" lon="22.49802">
        <ele>51.07</ele>
        <time>2022-06-03T07:21:27.000Z</time>
      </trkpt>
      <trkpt lat="44.38095" lon="22.49809">
        <ele>50.09</ele>
        <time>2022-06-03T07:21:32.000Z</time>
      </trkpt>
      <trkpt lat="44.38069" lon="22.49814">
        <ele>49.46</ele>
        <time>2022-06-03T07:21:37.000Z</time>
      </trkpt>
      <trkpt lat="44.38046" lon="22.49823">
        <ele>47.84</ele>
        <time>2022-06-03T07:21:42.000Z</time>
      </trkpt>
      <trkpt lat="44.38022" lon="22.4983">
        <ele>48.23</ele>
        <time>2022-06-03T07:21:47.000Z</time>
      </trkpt>
      <trkpt lat="44.38" lon="22.49835">
        <ele>48.67</ele>
        <time>2022-06-03T07:21:52.000Z</time>
      </trkpt>
      <trkpt lat="44.37976" lon="22.49841">
        <ele>47.58</ele>
        <time>2022-06-03T07:21:57.000Z</time>
      </trkpt>
      <trkpt lat="44.37953" lon="22.49848">
        <ele>46.59</ele>
        <time>2022-06-03T07:22:02.000Z</time>
      </trkpt>
      <trkpt lat="44.37932" lon="22.49856">
        <ele>45.72</ele>
        <time>2022-06-03T07:22:07.000Z</time>
      </trkpt>
      <trkpt lat="44.37911" lon="22.49862">
        <ele>45.21</ele>
        <time>2022-06-03T07:22:12.000Z</time>
      </trkpt>
      <trkpt lat="44.37889" lon="22.4987">
        <ele>45.16</ele>
        <time>2022-06-03T07:22:17.000Z</time>
      </trkpt>
      <trkpt lat="44.37867" lon="22.49877">
        <ele>44.37</ele>
        <time>2022-06-03T07:22:22.000Z</time>
      </trkpt>
      <trkpt lat="44.37844" lon="22.49885">
        <ele>43.81</ele>
        <time>2022-06-03T07:22:27.000Z</time>
      </trkpt>
      <trkpt lat="44.37822" lon="22.49892">
        <ele>45.72</ele>
        <time>2022-06-03T07:22:32.000Z</time>
      </trkpt>
      <trkpt lat="44.37799" lon="22.49898">
        <ele>45.33</ele>
        <time>2022-06-03T07:22:37.000Z</time>
      </trkpt>
      <trkpt lat="44.37776" lon="22.49907">
        <ele>47.07</ele>
        <time>2022-06-03T07:22:42.000Z</time>
      </trkpt>
      <trkpt lat="44.37755" lon="22.49916">
        <ele>48.8</ele>
        <time>2022-06-03T07:22:47.000Z</time>
      </trkpt>
      <trkpt lat="44.37736" lon="22.49923">
        <ele>49.49</ele>
        <time>2022-06-03T07:22:52.000Z</time>
      </trkpt>
      <trkpt lat="44.37715" lon="22.49931">
        <ele>49.92</ele>
        <time>2022-06-03T07:22:57.000Z</time>
      </trkpt>
      <trkpt lat="44.37696" lon="22.4994">
        <ele>50.85</ele>
        <time>2022-06-03T07:23:02.000Z</time>
      </trkpt>
      <trkpt lat="44.37675" lon="22.49948">
        <ele>50.79</ele>
        <time>2022-06-03T07:23:07.000Z</time>
      </trkpt>
      <trkpt lat="44.37655" lon="22.49956">
        <ele>50.62</ele>
        <time>2022-06-03T07:23:12.000Z</time>
      </trkpt>
      <trkpt lat="44.37633" lon="22.49966">
        <ele>50.71</ele>
        <time>2022-06-03T07:23:17.000Z</time>
      </trkpt>
      <trkpt lat="44.3761" lon="22.49973">
        <ele>49.37</ele>
        <time>2022-06-03T07:23:22.000Z</time>
      </trkpt>
      <trkpt lat="44.37588" lon="22.4998">
        <ele>48.03</ele>
        <time>2022-06-03T07:23:27.000Z</time>
      </trkpt>
      <trkpt lat="44.37567" lon="22.49986">
        <ele>47.61</ele>
        <time>2022-06-03T07:23:32.000Z</time>
      </trkpt>
      <trkpt lat="44.37546" lon="22.49991">
        <ele>46.62</ele>
        <time>2022-06-03T07:23:37.000Z</time>
      </trkpt>
      <trkpt lat="44.37525" lon="22.49993">
        <ele>46.25</ele>
        <time>2022-06-03T07:23:42.000Z</time>
      </trkpt>
      <trkpt lat="44.37505" lon="22.50001">
        <ele>46.11</ele>
        <time>2022-06-03T07:23:47.000Z</time>
      </trkpt>
      <trkpt lat="44.37484" lon="22.50008">
        <ele>45.44</ele>
        <time>2022-06-03T07:23:52.000Z</time>
      </trkpt>
      <trkpt lat="44.37464" lon="22.50012">
        <ele>44.83</ele>
        <time>2022-06-03T07:23:57.000Z</time>
      </trkpt>
      <trkpt lat="44.37444" lon="22.5002">
        <ele>44.72</ele>
        <time>2022-06-03T07:24:02.000Z</time>
      </trkpt>
      <trkpt lat="44.37423" lon="22.50032">
        <ele>45.05</ele>
        <time>2022-06-03T07:24:07.000Z</time>
      </trkpt>
      <trkpt lat="44.37402" lon="22.50039">
        <ele>46.27</ele>
        <time>2022-06-03T07:24:12.000Z</time>
      </trkpt>
      <trkpt lat="44.37387" lon="22.50039">
        <ele>46.96</ele>
        <time>2022-06-03T07:24:17.000Z</time>
      </trkpt>
      <trkpt lat="44.37372" lon="22.50027">
        <ele>47.22</ele>
        <time>2022-06-03T07:24:22.000Z</time>
      </trkpt>
      <trkpt lat="44.37358" lon="22.50011">
        <ele>47.47</ele>
        <time>2022-06-03T07:24:27.000Z</time>
      </trkpt>
      <trkpt lat="44.37346" lon="22.49993">
        <ele>47.99</ele>
        <time>2022-06-03T07:24:32.000Z</time>
      </trkpt>
      <trkpt lat="44.37334" lon="22.49975">
        <ele>48.17</ele>
        <time>2022-06-03T07:24:37.000Z</time>
      </trkpt>
      <trkpt lat="44.37322" lon="22.49956">
        <ele>48.57</ele>
        <time>2022-06-03T07:24:42.000Z</time>
      </trkpt>
      <trkpt lat="44.3731" lon="22.49934">
        <ele>48.53</ele>
        <time>2022-06-03T07:24:47.000Z</time>
      </trkpt>
      <trkpt lat="44.37298" lon="22.49909">
        <ele>48.6</ele>
        <time>2022-06-03T07:24:52.000Z</time>
      </trkpt>
      <trkpt lat="44.37284" lon="22.49882">
        <ele>48.7</ele>
        <time>2022-06-03T07:24:57.000Z</time>
      </trkpt>
      <trkpt lat="44.37271" lon="22.49854">
        <ele>48.63</ele>
        <time>2022-06-03T07:25:02.000Z</time>
      </trkpt>
      <trkpt lat="44.37262" lon="22.49827">
        <ele>48.51</ele>
        <time>2022-06-03T07:25:07.000Z</time>
      </trkpt>
      <trkpt lat="44.37251" lon="22.49802">
        <ele>48.65</ele>
        <time>2022-06-03T07:25:12.000Z</time>
      </trkpt>
      <trkpt lat="44.37241" lon="22.49779">
        <ele>48.45</ele>
        <time>2022-06-03T07:25:17.000Z</time>
      </trkpt>
      <trkpt lat="44.37231" lon="22.49755">
        <ele>48.92</ele>
        <time>2022-06-03T07:25:22.000Z</time>
      </trkpt>
      <trkpt lat="44.37221" lon="22.49732">
        <ele>50.22</ele>
        <time>2022-06-03T07:25:27.000Z</time>
      </trkpt>
      <trkpt lat="44.3721" lon="22.4971">
        <ele>51.48</ele>
        <time>2022-06-03T07:25:32.000Z</time>
      </trkpt>
      <trkpt lat="44.37198" lon="22.49683">
        <ele>53</ele>
        <time>2022-06-03T07:25:37.000Z</time>
      </trkpt>
      <trkpt lat="44.37184" lon="22.49658">
        <ele>53.7</ele>
        <time>2022-06-03T07:25:42.000Z</time>
      </trkpt>
      <trkpt lat="44.3717" lon="22.49629">
        <ele>54.73</ele>
        <time>2022-06-03T07:25:47.000Z</time>
      </trkpt>
      <trkpt lat="44.37152" lon="22.496">
        <ele>55.91</ele>
        <time>2022-06-03T07:25:52.000Z</time>
      </trkpt>
      <trkpt lat="44.37136" lon="22.49573">
        <ele>56.93</ele>
        <time>2022-06-03T07:25:57.000Z</time>
      </trkpt>
      <trkpt lat="44.37127" lon="22.49542">
        <ele>57.98</ele>
        <time>2022-06-03T07:26:02.000Z</time>
      </trkpt>
      <trkpt lat="44.37115" lon="22.49517">
        <ele>59.14</ele>
        <time>2022-06-03T07:26:07.000Z</time>
      </trkpt>
      <trkpt lat="44.3709" lon="22.49499">
        <ele>60.84</ele>
        <time>2022-06-03T07:26:12.000Z</time>
      </trkpt>
      <trkpt lat="44.37072" lon="22.4948">
        <ele>62.59</ele>
        <time>2022-06-03T07:26:17.000Z</time>
      </trkpt>
      <trkpt lat="44.3706" lon="22.49459">
        <ele>64.08</ele>
        <time>2022-06-03T07:26:22.000Z</time>
      </trkpt>
      <trkpt lat="44.37047" lon="22.49444">
        <ele>65.73</ele>
        <time>2022-06-03T07:26:27.000Z</time>
      </trkpt>
      <trkpt lat="44.37037" lon="22.49445">
        <ele>67.03</ele>
        <time>2022-06-03T07:26:32.000Z</time>
      </trkpt>
      <trkpt lat="44.37047" lon="22.49447">
        <ele>70.53</ele>
        <time>2022-06-03T07:27:08.000Z</time>
      </trkpt>
      <trkpt lat="44.3704" lon="22.49437">
        <ele>65.65</ele>
        <time>2022-06-03T07:27:48.000Z</time>
      </trkpt>
      <trkpt lat="44.37032" lon="22.49447">
        <ele>64.13</ele>
        <time>2022-06-03T07:28:04.000Z</time>
      </trkpt>
      <trkpt lat="44.37012" lon="22.49452">
        <ele>63.9</ele>
        <time>2022-06-03T07:28:09.000Z</time>
      </trkpt>
      <trkpt lat="44.36994" lon="22.49454">
        <ele>63.71</ele>
        <time>2022-06-03T07:28:14.000Z</time>
      </trkpt>
      <trkpt lat="44.36971" lon="22.49451">
        <ele>63.45</ele>
        <time>2022-06-03T07:28:19.000Z</time>
      </trkpt>
      <trkpt lat="44.36948" lon="22.49439">
        <ele>62.4</ele>
        <time>2022-06-03T07:28:24.000Z</time>
      </trkpt>
      <trkpt lat="44.36921" lon="22.49429">
        <ele>61.39</ele>
        <time>2022-06-03T07:28:29.000Z</time>
      </trkpt>
      <trkpt lat="44.36891" lon="22.49424">
        <ele>60.19</ele>
        <time>2022-06-03T07:28:34.000Z</time>
      </trkpt>
      <trkpt lat="44.36864" lon="22.49425">
        <ele>58.01</ele>
        <time>2022-06-03T07:28:39.000Z</time>
      </trkpt>
      <trkpt lat="44.36843" lon="22.49425">
        <ele>56.57</ele>
        <time>2022-06-03T07:28:44.000Z</time>
      </trkpt>
      <trkpt lat="44.36824" lon="22.49425">
        <ele>55.54</ele>
        <time>2022-06-03T07:28:49.000Z</time>
      </trkpt>
      <trkpt lat="44.36806" lon="22.49428">
        <ele>54.54</ele>
        <time>2022-06-03T07:28:54.000Z</time>
      </trkpt>
      <trkpt lat="44.36789" lon="22.49429">
        <ele>53.77</ele>
        <time>2022-06-03T07:28:59.000Z</time>
      </trkpt>
      <trkpt lat="44.36772" lon="22.49428">
        <ele>53.26</ele>
        <time>2022-06-03T07:29:04.000Z</time>
      </trkpt>
      <trkpt lat="44.36753" lon="22.49428">
        <ele>52.44</ele>
        <time>2022-06-03T07:29:09.000Z</time>
      </trkpt>
      <trkpt lat="44.36733" lon="22.49427">
        <ele>51.98</ele>
        <time>2022-06-03T07:29:14.000Z</time>
      </trkpt>
      <trkpt lat="44.36713" lon="22.49426">
        <ele>52.6</ele>
        <time>2022-06-03T07:29:19.000Z</time>
      </trkpt>
      <trkpt lat="44.36693" lon="22.49426">
        <ele>51.21</ele>
        <time>2022-06-03T07:29:24.000Z</time>
      </trkpt>
      <trkpt lat="44.36671" lon="22.49428">
        <ele>50.5</ele>
        <time>2022-06-03T07:29:29.000Z</time>
      </trkpt>
      <trkpt lat="44.36646" lon="22.49427">
        <ele>49.57</ele>
        <time>2022-06-03T07:29:34.000Z</time>
      </trkpt>
      <trkpt lat="44.36617" lon="22.49427">
        <ele>48.6</ele>
        <time>2022-06-03T07:29:39.000Z</time>
      </trkpt>
      <trkpt lat="44.36582" lon="22.49429">
        <ele>47.55</ele>
        <time>2022-06-03T07:29:44.000Z</time>
      </trkpt>
      <trkpt lat="44.36547" lon="22.49447">
        <ele>45.97</ele>
        <time>2022-06-03T07:29:49.000Z</time>
      </trkpt>
      <trkpt lat="44.36521" lon="22.49472">
        <ele>44.88</ele>
        <time>2022-06-03T07:29:54.000Z</time>
      </trkpt>
      <trkpt lat="44.36504" lon="22.49498">
        <ele>45.94</ele>
        <time>2022-06-03T07:29:59.000Z</time>
      </trkpt>
      <trkpt lat="44.36494" lon="22.49524">
        <ele>46.53</ele>
        <time>2022-06-03T07:30:04.000Z</time>
      </trkpt>
      <trkpt lat="44.36488" lon="22.49546">
        <ele>46.33</ele>
        <time>2022-06-03T07:30:09.000Z</time>
      </trkpt>
      <trkpt lat="44.36481" lon="22.49567">
        <ele>46.27</ele>
        <time>2022-06-03T07:30:14.000Z</time>
      </trkpt>
      <trkpt lat="44.36476" lon="22.49592">
        <ele>47.77</ele>
        <time>2022-06-03T07:30:19.000Z</time>
      </trkpt>
      <trkpt lat="44.36478" lon="22.49616">
        <ele>47.64</ele>
        <time>2022-06-03T07:30:24.000Z</time>
      </trkpt>
      <trkpt lat="44.36482" lon="22.49641">
        <ele>47.3</ele>
        <time>2022-06-03T07:30:29.000Z</time>
      </trkpt>
      <trkpt lat="44.36485" lon="22.49666">
        <ele>47.07</ele>
        <time>2022-06-03T07:30:34.000Z</time>
      </trkpt>
      <trkpt lat="44.36491" lon="22.49691">
        <ele>46.12</ele>
        <time>2022-06-03T07:30:39.000Z</time>
      </trkpt>
      <trkpt lat="44.365" lon="22.49713">
        <ele>43.99</ele>
        <time>2022-06-03T07:30:44.000Z</time>
      </trkpt>
      <trkpt lat="44.36509" lon="22.49735">
        <ele>39.93</ele>
        <time>2022-06-03T07:30:49.000Z</time>
      </trkpt>
      <trkpt lat="44.36517" lon="22.49755">
        <ele>37.22</ele>
        <time>2022-06-03T07:30:54.000Z</time>
      </trkpt>
      <trkpt lat="44.36526" lon="22.49777">
        <ele>36</ele>
        <time>2022-06-03T07:30:59.000Z</time>
      </trkpt>
      <trkpt lat="44.36534" lon="22.49797">
        <ele>33.63</ele>
        <time>2022-06-03T07:31:04.000Z</time>
      </trkpt>
      <trkpt lat="44.36537" lon="22.4982">
        <ele>32.82</ele>
        <time>2022-06-03T07:31:09.000Z</time>
      </trkpt>
      <trkpt lat="44.36542" lon="22.49843">
        <ele>37.79</ele>
        <time>2022-06-03T07:31:14.000Z</time>
      </trkpt>
      <trkpt lat="44.36543" lon="22.49869">
        <ele>43.4</ele>
        <time>2022-06-03T07:31:19.000Z</time>
      </trkpt>
      <trkpt lat="44.36543" lon="22.49895">
        <ele>46.94</ele>
        <time>2022-06-03T07:31:24.000Z</time>
      </trkpt>
      <trkpt lat="44.36535" lon="22.49921">
        <ele>47</ele>
        <time>2022-06-03T07:31:29.000Z</time>
      </trkpt>
      <trkpt lat="44.36531" lon="22.4995">
        <ele>46.54</ele>
        <time>2022-06-03T07:31:34.000Z</time>
      </trkpt>
      <trkpt lat="44.36529" lon="22.49981">
        <ele>45.74</ele>
        <time>2022-06-03T07:31:39.000Z</time>
      </trkpt>
      <trkpt lat="44.36529" lon="22.5001">
        <ele>44.98</ele>
        <time>2022-06-03T07:31:44.000Z</time>
      </trkpt>
      <trkpt lat="44.36524" lon="22.50035">
        <ele>45.37</ele>
        <time>2022-06-03T07:31:49.000Z</time>
      </trkpt>
      <trkpt lat="44.36524" lon="22.50048">
        <ele>44.54</ele>
        <time>2022-06-03T07:32:25.000Z</time>
      </trkpt>
      <trkpt lat="44.36521" lon="22.50071">
        <ele>45.44</ele>
        <time>2022-06-03T07:32:30.000Z</time>
      </trkpt>
      <trkpt lat="44.36516" lon="22.50099">
        <ele>46.14</ele>
        <time>2022-06-03T07:32:35.000Z</time>
      </trkpt>
      <trkpt lat="44.36511" lon="22.50127">
        <ele>46.87</ele>
        <time>2022-06-03T07:32:40.000Z</time>
      </trkpt>
      <trkpt lat="44.36506" lon="22.50154">
        <ele>48.13</ele>
        <time>2022-06-03T07:32:45.000Z</time>
      </trkpt>
      <trkpt lat="44.36504" lon="22.50177">
        <ele>48.73</ele>
        <time>2022-06-03T07:32:50.000Z</time>
      </trkpt>
      <trkpt lat="44.36501" lon="22.50206">
        <ele>48.93</ele>
        <time>2022-06-03T07:32:55.000Z</time>
      </trkpt>
      <trkpt lat="44.36495" lon="22.50237">
        <ele>49.51</ele>
        <time>2022-06-03T07:33:00.000Z</time>
      </trkpt>
      <trkpt lat="44.36489" lon="22.50268">
        <ele>49.43</ele>
        <time>2022-06-03T07:33:05.000Z</time>
      </trkpt>
      <trkpt lat="44.36478" lon="22.50298">
        <ele>49.33</ele>
        <time>2022-06-03T07:33:10.000Z</time>
      </trkpt>
      <trkpt lat="44.36461" lon="22.50322">
        <ele>48.89</ele>
        <time>2022-06-03T07:33:15.000Z</time>
      </trkpt>
      <trkpt lat="44.36441" lon="22.50343">
        <ele>49.26</ele>
        <time>2022-06-03T07:33:20.000Z</time>
      </trkpt>
      <trkpt lat="44.36424" lon="22.50367">
        <ele>49.57</ele>
        <time>2022-06-03T07:33:25.000Z</time>
      </trkpt>
      <trkpt lat="44.3641" lon="22.50394">
        <ele>50.5</ele>
        <time>2022-06-03T07:33:30.000Z</time>
      </trkpt>
      <trkpt lat="44.36392" lon="22.50417">
        <ele>49.88</ele>
        <time>2022-06-03T07:33:35.000Z</time>
      </trkpt>
      <trkpt lat="44.36374" lon="22.5043">
        <ele>50.31</ele>
        <time>2022-06-03T07:33:40.000Z</time>
      </trkpt>
      <trkpt lat="44.36357" lon="22.50428">
        <ele>49.57</ele>
        <time>2022-06-03T07:33:45.000Z</time>
      </trkpt>
      <trkpt lat="44.3634" lon="22.50422">
        <ele>51.28</ele>
        <time>2022-06-03T07:33:50.000Z</time>
      </trkpt>
      <trkpt lat="44.36322" lon="22.50415">
        <ele>51.5</ele>
        <time>2022-06-03T07:33:55.000Z</time>
      </trkpt>
      <trkpt lat="44.36305" lon="22.50403">
        <ele>52.49</ele>
        <time>2022-06-03T07:34:00.000Z</time>
      </trkpt>
      <trkpt lat="44.36288" lon="22.50396">
        <ele>53.77</ele>
        <time>2022-06-03T07:34:05.000Z</time>
      </trkpt>
      <trkpt lat="44.36267" lon="22.50387">
        <ele>53.53</ele>
        <time>2022-06-03T07:34:10.000Z</time>
      </trkpt>
      <trkpt lat="44.36247" lon="22.50378">
        <ele>52.34</ele>
        <time>2022-06-03T07:34:15.000Z</time>
      </trkpt>
      <trkpt lat="44.36226" lon="22.50368">
        <ele>52.75</ele>
        <time>2022-06-03T07:34:20.000Z</time>
      </trkpt>
      <trkpt lat="44.36207" lon="22.50361">
        <ele>52.97</ele>
        <time>2022-06-03T07:34:25.000Z</time>
      </trkpt>
      <trkpt lat="44.36191" lon="22.50353">
        <ele>52.84</ele>
        <time>2022-06-03T07:34:30.000Z</time>
      </trkpt>
      <trkpt lat="44.36176" lon="22.50346">
        <ele>52.96</ele>
        <time>2022-06-03T07:34:35.000Z</time>
      </trkpt>
      <trkpt lat="44.36162" lon="22.5034">
        <ele>53.29</ele>
        <time>2022-06-03T07:34:40.000Z</time>
      </trkpt>
      <trkpt lat="44.36147" lon="22.50334">
        <ele>53.58</ele>
        <time>2022-06-03T07:34:45.000Z</time>
      </trkpt>
      <trkpt lat="44.36133" lon="22.50329">
        <ele>55.24</ele>
        <time>2022-06-03T07:34:50.000Z</time>
      </trkpt>
      <trkpt lat="44.36117" lon="22.50328">
        <ele>57.6</ele>
        <time>2022-06-03T07:34:55.000Z</time>
      </trkpt>
      <trkpt lat="44.36102" lon="22.50336">
        <ele>57.77</ele>
        <time>2022-06-03T07:35:00.000Z</time>
      </trkpt>
      <trkpt lat="44.36088" lon="22.50367">
        <ele>56.33</ele>
        <time>2022-06-03T07:35:05.000Z</time>
      </trkpt>
      <trkpt lat="44.36078" lon="22.50412">
        <ele>53.96</ele>
        <time>2022-06-03T07:35:10.000Z</time>
      </trkpt>
      <trkpt lat="44.36084" lon="22.50467">
        <ele>52.33</ele>
        <time>2022-06-03T07:35:15.000Z</time>
      </trkpt>
      <trkpt lat="44.36106" lon="22.50498">
        <ele>49.93</ele>
        <time>2022-06-03T07:35:20.000Z</time>
      </trkpt>
      <trkpt lat="44.36141" lon="22.50508">
        <ele>47.58</ele>
        <time>2022-06-03T07:35:25.000Z</time>
      </trkpt>
      <trkpt lat="44.36171" lon="22.50522">
        <ele>45.23</ele>
        <time>2022-06-03T07:35:30.000Z</time>
      </trkpt>
      <trkpt lat="44.36203" lon="22.50532">
        <ele>42.96</ele>
        <time>2022-06-03T07:35:35.000Z</time>
      </trkpt>
      <trkpt lat="44.36232" lon="22.50558">
        <ele>40.64</ele>
        <time>2022-06-03T07:35:40.000Z</time>
      </trkpt>
      <trkpt lat="44.36257" lon="22.50587">
        <ele>39.08</ele>
        <time>2022-06-03T07:35:45.000Z</time>
      </trkpt>
      <trkpt lat="44.36274" lon="22.50622">
        <ele>38.28</ele>
        <time>2022-06-03T07:35:50.000Z</time>
      </trkpt>
      <trkpt lat="44.36279" lon="22.50661">
        <ele>37.18</ele>
        <time>2022-06-03T07:35:55.000Z</time>
      </trkpt>
      <trkpt lat="44.36278" lon="22.50697">
        <ele>39.63</ele>
        <time>2022-06-03T07:36:00.000Z</time>
      </trkpt>
      <trkpt lat="44.36264" lon="22.50733">
        <ele>41.53</ele>
        <time>2022-06-03T07:36:05.000Z</time>
      </trkpt>
      <trkpt lat="44.3625" lon="22.50767">
        <ele>44.07</ele>
        <time>2022-06-03T07:36:10.000Z</time>
      </trkpt>
      <trkpt lat="44.36235" lon="22.50797">
        <ele>44.37</ele>
        <time>2022-06-03T07:36:15.000Z</time>
      </trkpt>
      <trkpt lat="44.36218" lon="22.50831">
        <ele>43.76</ele>
        <time>2022-06-03T07:36:20.000Z</time>
      </trkpt>
      <trkpt lat="44.36201" lon="22.50859">
        <ele>43.72</ele>
        <time>2022-06-03T07:36:25.000Z</time>
      </trkpt>
      <trkpt lat="44.36182" lon="22.50884">
        <ele>43.7</ele>
        <time>2022-06-03T07:36:30.000Z</time>
      </trkpt>
      <trkpt lat="44.3616" lon="22.50901">
        <ele>44.19</ele>
        <time>2022-06-03T07:36:35.000Z</time>
      </trkpt>
      <trkpt lat="44.36132" lon="22.50912">
        <ele>44.39</ele>
        <time>2022-06-03T07:36:40.000Z</time>
      </trkpt>
      <trkpt lat="44.36107" lon="22.50922">
        <ele>44.49</ele>
        <time>2022-06-03T07:36:45.000Z</time>
      </trkpt>
      <trkpt lat="44.36084" lon="22.50934">
        <ele>45.17</ele>
        <time>2022-06-03T07:36:50.000Z</time>
      </trkpt>
      <trkpt lat="44.3606" lon="22.50946">
        <ele>45.45</ele>
        <time>2022-06-03T07:36:55.000Z</time>
      </trkpt>
      <trkpt lat="44.36036" lon="22.50957">
        <ele>44.53</ele>
        <time>2022-06-03T07:37:00.000Z</time>
      </trkpt>
      <trkpt lat="44.36011" lon="22.50966">
        <ele>44.11</ele>
        <time>2022-06-03T07:37:05.000Z</time>
      </trkpt>
      <trkpt lat="44.35989" lon="22.50977">
        <ele>44.5</ele>
        <time>2022-06-03T07:37:10.000Z</time>
      </trkpt>
      <trkpt lat="44.35967" lon="22.5098">
        <ele>45.33</ele>
        <time>2022-06-03T07:37:15.000Z</time>
      </trkpt>
      <trkpt lat="44.35946" lon="22.50974">
        <ele>46.1</ele>
        <time>2022-06-03T07:37:20.000Z</time>
      </trkpt>
      <trkpt lat="44.35926" lon="22.50958">
        <ele>47.03</ele>
        <time>2022-06-03T07:37:25.000Z</time>
      </trkpt>
      <trkpt lat="44.35905" lon="22.50938">
        <ele>47.2</ele>
        <time>2022-06-03T07:37:30.000Z</time>
      </trkpt>
      <trkpt lat="44.35881" lon="22.50922">
        <ele>46.64</ele>
        <time>2022-06-03T07:37:35.000Z</time>
      </trkpt>
      <trkpt lat="44.35855" lon="22.50916">
        <ele>46.16</ele>
        <time>2022-06-03T07:37:40.000Z</time>
      </trkpt>
      <trkpt lat="44.35828" lon="22.50917">
        <ele>46.27</ele>
        <time>2022-06-03T07:37:45.000Z</time>
      </trkpt>
      <trkpt lat="44.35802" lon="22.50923">
        <ele>45.88</ele>
        <time>2022-06-03T07:37:50.000Z</time>
      </trkpt>
      <trkpt lat="44.35775" lon="22.50925">
        <ele>46.44</ele>
        <time>2022-06-03T07:37:55.000Z</time>
      </trkpt>
      <trkpt lat="44.35747" lon="22.50924">
        <ele>45.15</ele>
        <time>2022-06-03T07:38:00.000Z</time>
      </trkpt>
      <trkpt lat="44.35721" lon="22.50927">
        <ele>45.47</ele>
        <time>2022-06-03T07:38:05.000Z</time>
      </trkpt>
      <trkpt lat="44.357" lon="22.50946">
        <ele>46.72</ele>
        <time>2022-06-03T07:38:10.000Z</time>
      </trkpt>
      <trkpt lat="44.35682" lon="22.50969">
        <ele>48.04</ele>
        <time>2022-06-03T07:38:15.000Z</time>
      </trkpt>
      <trkpt lat="44.35662" lon="22.50992">
        <ele>48.15</ele>
        <time>2022-06-03T07:38:20.000Z</time>
      </trkpt>
      <trkpt lat="44.35648" lon="22.51023">
        <ele>47.41</ele>
        <time>2022-06-03T07:38:25.000Z</time>
      </trkpt>
      <trkpt lat="44.35644" lon="22.51054">
        <ele>45.36</ele>
        <time>2022-06-03T07:38:30.000Z</time>
      </trkpt>
      <trkpt lat="44.35645" lon="22.51082">
        <ele>43.32</ele>
        <time>2022-06-03T07:38:35.000Z</time>
      </trkpt>
      <trkpt lat="44.35631" lon="22.511">
        <ele>43.84</ele>
        <time>2022-06-03T07:38:40.000Z</time>
      </trkpt>
      <trkpt lat="44.35606" lon="22.5111">
        <ele>44.07</ele>
        <time>2022-06-03T07:38:45.000Z</time>
      </trkpt>
      <trkpt lat="44.35582" lon="22.51113">
        <ele>43.9</ele>
        <time>2022-06-03T07:38:50.000Z</time>
      </trkpt>
      <trkpt lat="44.35557" lon="22.5111">
        <ele>44.85</ele>
        <time>2022-06-03T07:38:55.000Z</time>
      </trkpt>
      <trkpt lat="44.35531" lon="22.51102">
        <ele>44.27</ele>
        <time>2022-06-03T07:39:00.000Z</time>
      </trkpt>
      <trkpt lat="44.35505" lon="22.51098">
        <ele>43.91</ele>
        <time>2022-06-03T07:39:05.000Z</time>
      </trkpt>
      <trkpt lat="44.35481" lon="22.51097">
        <ele>43.67</ele>
        <time>2022-06-03T07:39:10.000Z</time>
      </trkpt>
      <trkpt lat="44.35459" lon="22.51098">
        <ele>42.79</ele>
        <time>2022-06-03T07:39:15.000Z</time>
      </trkpt>
      <trkpt lat="44.35437" lon="22.51104">
        <ele>43.53</ele>
        <time>2022-06-03T07:39:20.000Z</time>
      </trkpt>
      <trkpt lat="44.35417" lon="22.51112">
        <ele>44.63</ele>
        <time>2022-06-03T07:39:25.000Z</time>
      </trkpt>
      <trkpt lat="44.35397" lon="22.51122">
        <ele>44.96</ele>
        <time>2022-06-03T07:39:30.000Z</time>
      </trkpt>
      <trkpt lat="44.35378" lon="22.51133">
        <ele>45.24</ele>
        <time>2022-06-03T07:39:35.000Z</time>
      </trkpt>
      <trkpt lat="44.35357" lon="22.51145">
        <ele>44.99</ele>
        <time>2022-06-03T07:39:40.000Z</time>
      </trkpt>
      <trkpt lat="44.35337" lon="22.51156">
        <ele>44.43</ele>
        <time>2022-06-03T07:39:45.000Z</time>
      </trkpt>
      <trkpt lat="44.35318" lon="22.51167">
        <ele>44.2</ele>
        <time>2022-06-03T07:39:50.000Z</time>
      </trkpt>
      <trkpt lat="44.35299" lon="22.51179">
        <ele>47.72</ele>
        <time>2022-06-03T07:39:55.000Z</time>
      </trkpt>
      <trkpt lat="44.35278" lon="22.51193">
        <ele>48.5</ele>
        <time>2022-06-03T07:40:00.000Z</time>
      </trkpt>
      <trkpt lat="44.35258" lon="22.51205">
        <ele>49.44</ele>
        <time>2022-06-03T07:40:05.000Z</time>
      </trkpt>
      <trkpt lat="44.35237" lon="22.51216">
        <ele>49.78</ele>
        <time>2022-06-03T07:40:10.000Z</time>
      </trkpt>
      <trkpt lat="44.35217" lon="22.5123">
        <ele>50.42</ele>
        <time>2022-06-03T07:40:15.000Z</time>
      </trkpt>
      <trkpt lat="44.35197" lon="22.51243">
        <ele>49.85</ele>
        <time>2022-06-03T07:40:20.000Z</time>
      </trkpt>
      <trkpt lat="44.35177" lon="22.51255">
        <ele>49.9</ele>
        <time>2022-06-03T07:40:25.000Z</time>
      </trkpt>
      <trkpt lat="44.35156" lon="22.51268">
        <ele>50.01</ele>
        <time>2022-06-03T07:40:30.000Z</time>
      </trkpt>
      <trkpt lat="44.35136" lon="22.51284">
        <ele>52.23</ele>
        <time>2022-06-03T07:40:35.000Z</time>
      </trkpt>
      <trkpt lat="44.35116" lon="22.51296">
        <ele>50.81</ele>
        <time>2022-06-03T07:40:40.000Z</time>
      </trkpt>
      <trkpt lat="44.35093" lon="22.5131">
        <ele>50.04</ele>
        <time>2022-06-03T07:40:45.000Z</time>
      </trkpt>
      <trkpt lat="44.3507" lon="22.51326">
        <ele>49.43</ele>
        <time>2022-06-03T07:40:50.000Z</time>
      </trkpt>
      <trkpt lat="44.35047" lon="22.51344">
        <ele>50.39</ele>
        <time>2022-06-03T07:40:55.000Z</time>
      </trkpt>
      <trkpt lat="44.35022" lon="22.5136">
        <ele>50.12</ele>
        <time>2022-06-03T07:41:00.000Z</time>
      </trkpt>
      <trkpt lat="44.34998" lon="22.51378">
        <ele>48.66</ele>
        <time>2022-06-03T07:41:05.000Z</time>
      </trkpt>
      <trkpt lat="44.34974" lon="22.51394">
        <ele>47.63</ele>
        <time>2022-06-03T07:41:10.000Z</time>
      </trkpt>
      <trkpt lat="44.34948" lon="22.51413">
        <ele>45.16</ele>
        <time>2022-06-03T07:41:15.000Z</time>
      </trkpt>
      <trkpt lat="44.34923" lon="22.51427">
        <ele>43.74</ele>
        <time>2022-06-03T07:41:20.000Z</time>
      </trkpt>
      <trkpt lat="44.34897" lon="22.51418">
        <ele>45.44</ele>
        <time>2022-06-03T07:41:25.000Z</time>
      </trkpt>
      <trkpt lat="44.34871" lon="22.51418">
        <ele>42.47</ele>
        <time>2022-06-03T07:41:30.000Z</time>
      </trkpt>
      <trkpt lat="44.34848" lon="22.51434">
        <ele>41.98</ele>
        <time>2022-06-03T07:41:35.000Z</time>
      </trkpt>
      <trkpt lat="44.34826" lon="22.51457">
        <ele>41.41</ele>
        <time>2022-06-03T07:41:40.000Z</time>
      </trkpt>
      <trkpt lat="44.34809" lon="22.51486">
        <ele>40.93</ele>
        <time>2022-06-03T07:41:45.000Z</time>
      </trkpt>
      <trkpt lat="44.34789" lon="22.51505">
        <ele>39.88</ele>
        <time>2022-06-03T07:41:50.000Z</time>
      </trkpt>
      <trkpt lat="44.34764" lon="22.51515">
        <ele>39.64</ele>
        <time>2022-06-03T07:41:55.000Z</time>
      </trkpt>
      <trkpt lat="44.34745" lon="22.51535">
        <ele>38.98</ele>
        <time>2022-06-03T07:42:00.000Z</time>
      </trkpt>
      <trkpt lat="44.34723" lon="22.51553">
        <ele>38.56</ele>
        <time>2022-06-03T07:42:05.000Z</time>
      </trkpt>
      <trkpt lat="44.34701" lon="22.51565">
        <ele>38.53</ele>
        <time>2022-06-03T07:42:10.000Z</time>
      </trkpt>
      <trkpt lat="44.34677" lon="22.5158">
        <ele>39.96</ele>
        <time>2022-06-03T07:42:15.000Z</time>
      </trkpt>
      <trkpt lat="44.34657" lon="22.51595">
        <ele>39.53</ele>
        <time>2022-06-03T07:42:20.000Z</time>
      </trkpt>
      <trkpt lat="44.34637" lon="22.51614">
        <ele>39.24</ele>
        <time>2022-06-03T07:42:25.000Z</time>
      </trkpt>
      <trkpt lat="44.3462" lon="22.51628">
        <ele>38.64</ele>
        <time>2022-06-03T07:42:30.000Z</time>
      </trkpt>
      <trkpt lat="44.34602" lon="22.51641">
        <ele>38.65</ele>
        <time>2022-06-03T07:42:35.000Z</time>
      </trkpt>
      <trkpt lat="44.34586" lon="22.51657">
        <ele>42.98</ele>
        <time>2022-06-03T07:42:40.000Z</time>
      </trkpt>
      <trkpt lat="44.34569" lon="22.51663">
        <ele>45.83</ele>
        <time>2022-06-03T07:42:45.000Z</time>
      </trkpt>
      <trkpt lat="44.34551" lon="22.51654">
        <ele>44.86</ele>
        <time>2022-06-03T07:42:50.000Z</time>
      </trkpt>
      <trkpt lat="44.34535" lon="22.51645">
        <ele>43</ele>
        <time>2022-06-03T07:42:55.000Z</time>
      </trkpt>
      <trkpt lat="44.34517" lon="22.51651">
        <ele>43.76</ele>
        <time>2022-06-03T07:43:00.000Z</time>
      </trkpt>
      <trkpt lat="44.34503" lon="22.5167">
        <ele>43.64</ele>
        <time>2022-06-03T07:43:05.000Z</time>
      </trkpt>
      <trkpt lat="44.34487" lon="22.51689">
        <ele>41.2</ele>
        <time>2022-06-03T07:43:10.000Z</time>
      </trkpt>
      <trkpt lat="44.34469" lon="22.51702">
        <ele>40.43</ele>
        <time>2022-06-03T07:43:15.000Z</time>
      </trkpt>
      <trkpt lat="44.34452" lon="22.51716">
        <ele>41.12</ele>
        <time>2022-06-03T07:43:20.000Z</time>
      </trkpt>
      <trkpt lat="44.34434" lon="22.51728">
        <ele>40.85</ele>
        <time>2022-06-03T07:43:25.000Z</time>
      </trkpt>
      <trkpt lat="44.34416" lon="22.51735">
        <ele>39.85</ele>
        <time>2022-06-03T07:43:30.000Z</time>
      </trkpt>
      <trkpt lat="44.34401" lon="22.51737">
        <ele>40.43</ele>
        <time>2022-06-03T07:43:35.000Z</time>
      </trkpt>
      <trkpt lat="44.34384" lon="22.51734">
        <ele>40.64</ele>
        <time>2022-06-03T07:43:40.000Z</time>
      </trkpt>
      <trkpt lat="44.34367" lon="22.51731">
        <ele>40.15</ele>
        <time>2022-06-03T07:43:45.000Z</time>
      </trkpt>
      <trkpt lat="44.34353" lon="22.51736">
        <ele>40.94</ele>
        <time>2022-06-03T07:43:50.000Z</time>
      </trkpt>
      <trkpt lat="44.34341" lon="22.51744">
        <ele>42.02</ele>
        <time>2022-06-03T07:43:55.000Z</time>
      </trkpt>
      <trkpt lat="44.34326" lon="22.51756">
        <ele>43.99</ele>
        <time>2022-06-03T07:44:00.000Z</time>
      </trkpt>
      <trkpt lat="44.34312" lon="22.51768">
        <ele>43.03</ele>
        <time>2022-06-03T07:44:05.000Z</time>
      </trkpt>
      <trkpt lat="44.34298" lon="22.51783">
        <ele>42.65</ele>
        <time>2022-06-03T07:44:10.000Z</time>
      </trkpt>
      <trkpt lat="44.34285" lon="22.51801">
        <ele>41.88</ele>
        <time>2022-06-03T07:44:15.000Z</time>
      </trkpt>
      <trkpt lat="44.34272" lon="22.51815">
        <ele>41.07</ele>
        <time>2022-06-03T07:44:20.000Z</time>
      </trkpt>
      <trkpt lat="44.34258" lon="22.51829">
        <ele>39.59</ele>
        <time>2022-06-03T07:44:25.000Z</time>
      </trkpt>
      <trkpt lat="44.34243" lon="22.51844">
        <ele>39.42</ele>
        <time>2022-06-03T07:44:30.000Z</time>
      </trkpt>
      <trkpt lat="44.34229" lon="22.51857">
        <ele>41.59</ele>
        <time>2022-06-03T07:44:35.000Z</time>
      </trkpt>
      <trkpt lat="44.34215" lon="22.51868">
        <ele>42.34</ele>
        <time>2022-06-03T07:44:40.000Z</time>
      </trkpt>
      <trkpt lat="44.34201" lon="22.51877">
        <ele>42.77</ele>
        <time>2022-06-03T07:44:45.000Z</time>
      </trkpt>
      <trkpt lat="44.34184" lon="22.51887">
        <ele>41.72</ele>
        <time>2022-06-03T07:44:50.000Z</time>
      </trkpt>
      <trkpt lat="44.34168" lon="22.51896">
        <ele>42.3</ele>
        <time>2022-06-03T07:44:55.000Z</time>
      </trkpt>
      <trkpt lat="44.34152" lon="22.51906">
        <ele>43.53</ele>
        <time>2022-06-03T07:45:00.000Z</time>
      </trkpt>
      <trkpt lat="44.34134" lon="22.51916">
        <ele>44.78</ele>
        <time>2022-06-03T07:45:05.000Z</time>
      </trkpt>
      <trkpt lat="44.34116" lon="22.51925">
        <ele>44.47</ele>
        <time>2022-06-03T07:45:10.000Z</time>
      </trkpt>
      <trkpt lat="44.34098" lon="22.51931">
        <ele>45.18</ele>
        <time>2022-06-03T07:45:15.000Z</time>
      </trkpt>
      <trkpt lat="44.3408" lon="22.51929">
        <ele>44.81</ele>
        <time>2022-06-03T07:45:20.000Z</time>
      </trkpt>
      <trkpt lat="44.3406" lon="22.51926">
        <ele>43.63</ele>
        <time>2022-06-03T07:45:25.000Z</time>
      </trkpt>
      <trkpt lat="44.34041" lon="22.51932">
        <ele>44.09</ele>
        <time>2022-06-03T07:45:30.000Z</time>
      </trkpt>
      <trkpt lat="44.34025" lon="22.51946">
        <ele>45.02</ele>
        <time>2022-06-03T07:45:35.000Z</time>
      </trkpt>
      <trkpt lat="44.3401" lon="22.51957">
        <ele>44.28</ele>
        <time>2022-06-03T07:45:40.000Z</time>
      </trkpt>
      <trkpt lat="44.33996" lon="22.51957">
        <ele>42.99</ele>
        <time>2022-06-03T07:45:45.000Z</time>
      </trkpt>
      <trkpt lat="44.33981" lon="22.51956">
        <ele>42.52</ele>
        <time>2022-06-03T07:45:50.000Z</time>
      </trkpt>
      <trkpt lat="44.33966" lon="22.51972">
        <ele>41.29</ele>
        <time>2022-06-03T07:45:55.000Z</time>
      </trkpt>
      <trkpt lat="44.33954" lon="22.51989">
        <ele>40.62</ele>
        <time>2022-06-03T07:46:00.000Z</time>
      </trkpt>
      <trkpt lat="44.33939" lon="22.51997">
        <ele>41.03</ele>
        <time>2022-06-03T07:46:05.000Z</time>
      </trkpt>
      <trkpt lat="44.33922" lon="22.51997">
        <ele>43.22</ele>
        <time>2022-06-03T07:46:10.000Z</time>
      </trkpt>
      <trkpt lat="44.33905" lon="22.52003">
        <ele>43.43</ele>
        <time>2022-06-03T07:46:15.000Z</time>
      </trkpt>
      <trkpt lat="44.3389" lon="22.52015">
        <ele>43.73</ele>
        <time>2022-06-03T07:46:20.000Z</time>
      </trkpt>
      <trkpt lat="44.33877" lon="22.52028">
        <ele>42.46</ele>
        <time>2022-06-03T07:46:25.000Z</time>
      </trkpt>
      <trkpt lat="44.33864" lon="22.52046">
        <ele>41.32</ele>
        <time>2022-06-03T07:46:30.000Z</time>
      </trkpt>
      <trkpt lat="44.33853" lon="22.52068">
        <ele>39.57</ele>
        <time>2022-06-03T07:46:35.000Z</time>
      </trkpt>
      <trkpt lat="44.33845" lon="22.5209">
        <ele>39.65</ele>
        <time>2022-06-03T07:46:40.000Z</time>
      </trkpt>
      <trkpt lat="44.33833" lon="22.52111">
        <ele>40.71</ele>
        <time>2022-06-03T07:46:45.000Z</time>
      </trkpt>
      <trkpt lat="44.33814" lon="22.52128">
        <ele>40.4</ele>
        <time>2022-06-03T07:46:50.000Z</time>
      </trkpt>
      <trkpt lat="44.33794" lon="22.52142">
        <ele>39.39</ele>
        <time>2022-06-03T07:46:55.000Z</time>
      </trkpt>
      <trkpt lat="44.33775" lon="22.52161">
        <ele>38.61</ele>
        <time>2022-06-03T07:47:00.000Z</time>
      </trkpt>
      <trkpt lat="44.33753" lon="22.52175">
        <ele>39.22</ele>
        <time>2022-06-03T07:47:05.000Z</time>
      </trkpt>
      <trkpt lat="44.3373" lon="22.52189">
        <ele>40.34</ele>
        <time>2022-06-03T07:47:10.000Z</time>
      </trkpt>
      <trkpt lat="44.33709" lon="22.522">
        <ele>40.49</ele>
        <time>2022-06-03T07:47:15.000Z</time>
      </trkpt>
      <trkpt lat="44.3369" lon="22.52213">
        <ele>38.65</ele>
        <time>2022-06-03T07:47:20.000Z</time>
      </trkpt>
      <trkpt lat="44.33671" lon="22.52223">
        <ele>36.46</ele>
        <time>2022-06-03T07:47:25.000Z</time>
      </trkpt>
      <trkpt lat="44.33653" lon="22.52236">
        <ele>34.87</ele>
        <time>2022-06-03T07:47:30.000Z</time>
      </trkpt>
      <trkpt lat="44.33636" lon="22.52252">
        <ele>34.53</ele>
        <time>2022-06-03T07:47:35.000Z</time>
      </trkpt>
      <trkpt lat="44.33618" lon="22.52268">
        <ele>34.95</ele>
        <time>2022-06-03T07:47:40.000Z</time>
      </trkpt>
      <trkpt lat="44.33603" lon="22.52281">
        <ele>35.1</ele>
        <time>2022-06-03T07:47:45.000Z</time>
      </trkpt>
      <trkpt lat="44.33591" lon="22.52293">
        <ele>35.11</ele>
        <time>2022-06-03T07:47:50.000Z</time>
      </trkpt>
      <trkpt lat="44.33579" lon="22.52303">
        <ele>35.14</ele>
        <time>2022-06-03T07:47:55.000Z</time>
      </trkpt>
      <trkpt lat="44.33565" lon="22.52318">
        <ele>37.03</ele>
        <time>2022-06-03T07:48:00.000Z</time>
      </trkpt>
      <trkpt lat="44.33553" lon="22.52332">
        <ele>36.03</ele>
        <time>2022-06-03T07:48:05.000Z</time>
      </trkpt>
      <trkpt lat="44.33541" lon="22.52346">
        <ele>35.54</ele>
        <time>2022-06-03T07:48:10.000Z</time>
      </trkpt>
      <trkpt lat="44.33532" lon="22.52362">
        <ele>36.03</ele>
        <time>2022-06-03T07:48:15.000Z</time>
      </trkpt>
      <trkpt lat="44.3352" lon="22.52378">
        <ele>35.83</ele>
        <time>2022-06-03T07:48:20.000Z</time>
      </trkpt>
      <trkpt lat="44.33509" lon="22.52394">
        <ele>35.51</ele>
        <time>2022-06-03T07:48:25.000Z</time>
      </trkpt>
      <trkpt lat="44.33502" lon="22.52405">
        <ele>38.37</ele>
        <time>2022-06-03T07:48:30.000Z</time>
      </trkpt>
      <trkpt lat="44.33497" lon="22.52419">
        <ele>39.24</ele>
        <time>2022-06-03T07:49:40.000Z</time>
      </trkpt>
      <trkpt lat="44.33488" lon="22.52432">
        <ele>38.83</ele>
        <time>2022-06-03T07:49:45.000Z</time>
      </trkpt>
      <trkpt lat="44.33477" lon="22.52448">
        <ele>38.51</ele>
        <time>2022-06-03T07:49:50.000Z</time>
      </trkpt>
      <trkpt lat="44.33466" lon="22.52465">
        <ele>38.49</ele>
        <time>2022-06-03T07:49:55.000Z</time>
      </trkpt>
      <trkpt lat="44.33456" lon="22.52483">
        <ele>39.77</ele>
        <time>2022-06-03T07:50:00.000Z</time>
      </trkpt>
      <trkpt lat="44.33447" lon="22.525">
        <ele>39.9</ele>
        <time>2022-06-03T07:50:05.000Z</time>
      </trkpt>
      <trkpt lat="44.33437" lon="22.52518">
        <ele>39.89</ele>
        <time>2022-06-03T07:50:10.000Z</time>
      </trkpt>
      <trkpt lat="44.33422" lon="22.52531">
        <ele>39.52</ele>
        <time>2022-06-03T07:50:15.000Z</time>
      </trkpt>
      <trkpt lat="44.33405" lon="22.52534">
        <ele>38.04</ele>
        <time>2022-06-03T07:50:20.000Z</time>
      </trkpt>
      <trkpt lat="44.33392" lon="22.52543">
        <ele>36.5</ele>
        <time>2022-06-03T07:50:25.000Z</time>
      </trkpt>
      <trkpt lat="44.33376" lon="22.52554">
        <ele>34.84</ele>
        <time>2022-06-03T07:50:30.000Z</time>
      </trkpt>
      <trkpt lat="44.33362" lon="22.52566">
        <ele>35.61</ele>
        <time>2022-06-03T07:50:35.000Z</time>
      </trkpt>
      <trkpt lat="44.33345" lon="22.52576">
        <ele>35.49</ele>
        <time>2022-06-03T07:50:40.000Z</time>
      </trkpt>
      <trkpt lat="44.33327" lon="22.5259">
        <ele>35.45</ele>
        <time>2022-06-03T07:50:45.000Z</time>
      </trkpt>
      <trkpt lat="44.33306" lon="22.52601">
        <ele>35.11</ele>
        <time>2022-06-03T07:50:50.000Z</time>
      </trkpt>
      <trkpt lat="44.33292" lon="22.52614">
        <ele>34.45</ele>
        <time>2022-06-03T07:50:55.000Z</time>
      </trkpt>
      <trkpt lat="44.33288" lon="22.52628">
        <ele>36.55</ele>
        <time>2022-06-03T07:51:22.000Z</time>
      </trkpt>
      <trkpt lat="44.33283" lon="22.52638">
        <ele>36.54</ele>
        <time>2022-06-03T07:51:33.000Z</time>
      </trkpt>
      <trkpt lat="44.33273" lon="22.5265">
        <ele>36.2</ele>
        <time>2022-06-03T07:51:38.000Z</time>
      </trkpt>
      <trkpt lat="44.3326" lon="22.52666">
        <ele>36.2</ele>
        <time>2022-06-03T07:51:43.000Z</time>
      </trkpt>
      <trkpt lat="44.33242" lon="22.52681">
        <ele>37.92</ele>
        <time>2022-06-03T07:51:48.000Z</time>
      </trkpt>
      <trkpt lat="44.33225" lon="22.52691">
        <ele>39.23</ele>
        <time>2022-06-03T07:51:53.000Z</time>
      </trkpt>
      <trkpt lat="44.33216" lon="22.52714">
        <ele>38.19</ele>
        <time>2022-06-03T07:51:58.000Z</time>
      </trkpt>
      <trkpt lat="44.33205" lon="22.52736">
        <ele>38.27</ele>
        <time>2022-06-03T07:52:03.000Z</time>
      </trkpt>
      <trkpt lat="44.33188" lon="22.52746">
        <ele>39.68</ele>
        <time>2022-06-03T07:52:08.000Z</time>
      </trkpt>
      <trkpt lat="44.33166" lon="22.52753">
        <ele>40.77</ele>
        <time>2022-06-03T07:52:13.000Z</time>
      </trkpt>
      <trkpt lat="44.33149" lon="22.52769">
        <ele>40.16</ele>
        <time>2022-06-03T07:52:18.000Z</time>
      </trkpt>
      <trkpt lat="44.33144" lon="22.52795">
        <ele>38.11</ele>
        <time>2022-06-03T07:52:23.000Z</time>
      </trkpt>
      <trkpt lat="44.33156" lon="22.52822">
        <ele>37.64</ele>
        <time>2022-06-03T07:52:28.000Z</time>
      </trkpt>
      <trkpt lat="44.33166" lon="22.52845">
        <ele>36.23</ele>
        <time>2022-06-03T07:52:33.000Z</time>
      </trkpt>
      <trkpt lat="44.33161" lon="22.52865">
        <ele>35.98</ele>
        <time>2022-06-03T07:52:38.000Z</time>
      </trkpt>
      <trkpt lat="44.33146" lon="22.52878">
        <ele>36.15</ele>
        <time>2022-06-03T07:52:43.000Z</time>
      </trkpt>
      <trkpt lat="44.3313" lon="22.52889">
        <ele>36.37</ele>
        <time>2022-06-03T07:52:48.000Z</time>
      </trkpt>
      <trkpt lat="44.33114" lon="22.52891">
        <ele>35.59</ele>
        <time>2022-06-03T07:52:53.000Z</time>
      </trkpt>
      <trkpt lat="44.33101" lon="22.52881">
        <ele>34.95</ele>
        <time>2022-06-03T07:52:58.000Z</time>
      </trkpt>
      <trkpt lat="44.33086" lon="22.52864">
        <ele>34.34</ele>
        <time>2022-06-03T07:53:03.000Z</time>
      </trkpt>
      <trkpt lat="44.33082" lon="22.52847">
        <ele>34.13</ele>
        <time>2022-06-03T07:53:08.000Z</time>
      </trkpt>
      <trkpt lat="44.33067" lon="22.52823">
        <ele>33.83</ele>
        <time>2022-06-03T07:53:13.000Z</time>
      </trkpt>
      <trkpt lat="44.33054" lon="22.52803">
        <ele>33.14</ele>
        <time>2022-06-03T07:53:18.000Z</time>
      </trkpt>
      <trkpt lat="44.33032" lon="22.52786">
        <ele>32.23</ele>
        <time>2022-06-03T07:53:23.000Z</time>
      </trkpt>
      <trkpt lat="44.33007" lon="22.52789">
        <ele>31.4</ele>
        <time>2022-06-03T07:53:28.000Z</time>
      </trkpt>
      <trkpt lat="44.33" lon="22.52807">
        <ele>31.08</ele>
        <time>2022-06-03T07:53:33.000Z</time>
      </trkpt>
      <trkpt lat="44.33006" lon="22.52824">
        <ele>31.2</ele>
        <time>2022-06-03T07:53:38.000Z</time>
      </trkpt>
      <trkpt lat="44.33022" lon="22.52842">
        <ele>31</ele>
        <time>2022-06-03T07:53:43.000Z</time>
      </trkpt>
      <trkpt lat="44.33038" lon="22.52864">
        <ele>30.99</ele>
        <time>2022-06-03T07:53:48.000Z</time>
      </trkpt>
      <trkpt lat="44.33051" lon="22.52884">
        <ele>31</ele>
        <time>2022-06-03T07:53:53.000Z</time>
      </trkpt>
      <trkpt lat="44.33062" lon="22.52908">
        <ele>31.1</ele>
        <time>2022-06-03T07:53:58.000Z</time>
      </trkpt>
      <trkpt lat="44.33068" lon="22.52918">
        <ele>31.2</ele>
        <time>2022-06-03T07:54:11.000Z</time>
      </trkpt>
      <trkpt lat="44.33072" lon="22.52929">
        <ele>31.4</ele>
        <time>2022-06-03T07:54:18.000Z</time>
      </trkpt>
      <trkpt lat="44.33073" lon="22.52951">
        <ele>31.57</ele>
        <time>2022-06-03T07:54:34.000Z</time>
      </trkpt>
      <trkpt lat="44.33062" lon="22.52981">
        <ele>31.7</ele>
        <time>2022-06-03T07:54:39.000Z</time>
      </trkpt>
      <trkpt lat="44.33063" lon="22.53006">
        <ele>32.47</ele>
        <time>2022-06-03T07:54:44.000Z</time>
      </trkpt>
      <trkpt lat="44.33058" lon="22.53023">
        <ele>32.42</ele>
        <time>2022-06-03T07:54:49.000Z</time>
      </trkpt>
      <trkpt lat="44.33049" lon="22.53039">
        <ele>31.48</ele>
        <time>2022-06-03T07:54:54.000Z</time>
      </trkpt>
      <trkpt lat="44.33036" lon="22.53059">
        <ele>30.45</ele>
        <time>2022-06-03T07:54:59.000Z</time>
      </trkpt>
      <trkpt lat="44.33025" lon="22.53075">
        <ele>30.75</ele>
        <time>2022-06-03T07:55:04.000Z</time>
      </trkpt>
      <trkpt lat="44.33013" lon="22.53083">
        <ele>31.13</ele>
        <time>2022-06-03T07:55:09.000Z</time>
      </trkpt>
      <trkpt lat="44.32999" lon="22.53099">
        <ele>31</ele>
        <time>2022-06-03T07:55:14.000Z</time>
      </trkpt>
      <trkpt lat="44.32984" lon="22.53118">
        <ele>36.51</ele>
        <time>2022-06-03T07:55:19.000Z</time>
      </trkpt>
      <trkpt lat="44.32969" lon="22.53116">
        <ele>38.32</ele>
        <time>2022-06-03T07:55:24.000Z</time>
      </trkpt>
      <trkpt lat="44.32959" lon="22.53102">
        <ele>39.26</ele>
        <time>2022-06-03T07:55:29.000Z</time>
      </trkpt>
      <trkpt lat="44.3295" lon="22.53095">
        <ele>40.27</ele>
        <time>2022-06-03T07:55:36.000Z</time>
      </trkpt>
      <trkpt lat="44.32935" lon="22.53094">
        <ele>41.3</ele>
        <time>2022-06-03T07:55:41.000Z</time>
      </trkpt>
      <trkpt lat="44.3292" lon="22.531">
        <ele>42.62</ele>
        <time>2022-06-03T07:55:46.000Z</time>
      </trkpt>
      <trkpt lat="44.3291" lon="22.53109">
        <ele>44.16</ele>
        <time>2022-06-03T07:55:51.000Z</time>
      </trkpt>
      <trkpt lat="44.329" lon="22.53117">
        <ele>45.8</ele>
        <time>2022-06-03T07:55:58.000Z</time>
      </trkpt>
      <trkpt lat="44.32891" lon="22.53124">
        <ele>46.54</ele>
        <time>2022-06-03T07:56:05.000Z</time>
      </trkpt>
      <trkpt lat="44.32883" lon="22.53132">
        <ele>47.34</ele>
        <time>2022-06-03T07:56:10.000Z</time>
      </trkpt>
      <trkpt lat="44.32872" lon="22.5314">
        <ele>47.86</ele>
        <time>2022-06-03T07:56:15.000Z</time>
      </trkpt>
      <trkpt lat="44.32858" lon="22.53157">
        <ele>47.74</ele>
        <time>2022-06-03T07:56:20.000Z</time>
      </trkpt>
      <trkpt lat="44.32843" lon="22.53165">
        <ele>48.23</ele>
        <time>2022-06-03T07:56:25.000Z</time>
      </trkpt>
      <trkpt lat="44.32828" lon="22.53175">
        <ele>46.44</ele>
        <time>2022-06-03T07:56:30.000Z</time>
      </trkpt>
      <trkpt lat="44.32816" lon="22.53188">
        <ele>44.65</ele>
        <time>2022-06-03T07:56:35.000Z</time>
      </trkpt>
      <trkpt lat="44.32802" lon="22.53198">
        <ele>42.54</ele>
        <time>2022-06-03T07:56:40.000Z</time>
      </trkpt>
      <trkpt lat="44.32781" lon="22.53197">
        <ele>40.9</ele>
        <time>2022-06-03T07:56:45.000Z</time>
      </trkpt>
      <trkpt lat="44.3276" lon="22.532">
        <ele>39.61</ele>
        <time>2022-06-03T07:56:50.000Z</time>
      </trkpt>
      <trkpt lat="44.32751" lon="22.53221">
        <ele>37.69</ele>
        <time>2022-06-03T07:56:55.000Z</time>
      </trkpt>
      <trkpt lat="44.32755" lon="22.53246">
        <ele>36.69</ele>
        <time>2022-06-03T07:57:00.000Z</time>
      </trkpt>
      <trkpt lat="44.32759" lon="22.53276">
        <ele>35.63</ele>
        <time>2022-06-03T07:57:05.000Z</time>
      </trkpt>
      <trkpt lat="44.32753" lon="22.53303">
        <ele>34.48</ele>
        <time>2022-06-03T07:57:10.000Z</time>
      </trkpt>
      <trkpt lat="44.32739" lon="22.53327">
        <ele>32.59</ele>
        <time>2022-06-03T07:57:15.000Z</time>
      </trkpt>
      <trkpt lat="44.32723" lon="22.53337">
        <ele>30.73</ele>
        <time>2022-06-03T07:57:20.000Z</time>
      </trkpt>
      <trkpt lat="44.3271" lon="22.5334">
        <ele>28.89</ele>
        <time>2022-06-03T07:57:25.000Z</time>
      </trkpt>
      <trkpt lat="44.32697" lon="22.53339">
        <ele>27.49</ele>
        <time>2022-06-03T07:57:30.000Z</time>
      </trkpt>
      <trkpt lat="44.32683" lon="22.53339">
        <ele>26.01</ele>
        <time>2022-06-03T07:57:35.000Z</time>
      </trkpt>
      <trkpt lat="44.32671" lon="22.53339">
        <ele>25.52</ele>
        <time>2022-06-03T07:57:40.000Z</time>
      </trkpt>
      <trkpt lat="44.32659" lon="22.5334">
        <ele>25.06</ele>
        <time>2022-06-03T07:57:45.000Z</time>
      </trkpt>
      <trkpt lat="44.32641" lon="22.53345">
        <ele>24.55</ele>
        <time>2022-06-03T07:57:50.000Z</time>
      </trkpt>
      <trkpt lat="44.32618" lon="22.53362">
        <ele>23.53</ele>
        <time>2022-06-03T07:57:55.000Z</time>
      </trkpt>
      <trkpt lat="44.32597" lon="22.53383">
        <ele>22</ele>
        <time>2022-06-03T07:58:00.000Z</time>
      </trkpt>
      <trkpt lat="44.32583" lon="22.53405">
        <ele>22.38</ele>
        <time>2022-06-03T07:58:05.000Z</time>
      </trkpt>
      <trkpt lat="44.3257" lon="22.53429">
        <ele>21.91</ele>
        <time>2022-06-03T07:58:10.000Z</time>
      </trkpt>
      <trkpt lat="44.32554" lon="22.53446">
        <ele>20.58</ele>
        <time>2022-06-03T07:58:15.000Z</time>
      </trkpt>
      <trkpt lat="44.32543" lon="22.53465">
        <ele>20.1</ele>
        <time>2022-06-03T07:58:20.000Z</time>
      </trkpt>
      <trkpt lat="44.3253" lon="22.53477">
        <ele>20.03</ele>
        <time>2022-06-03T07:58:25.000Z</time>
      </trkpt>
      <trkpt lat="44.32519" lon="22.53492">
        <ele>19.34</ele>
        <time>2022-06-03T07:58:30.000Z</time>
      </trkpt>
      <trkpt lat="44.32501" lon="22.5352">
        <ele>17.98</ele>
        <time>2022-06-03T07:58:35.000Z</time>
      </trkpt>
      <trkpt lat="44.32484" lon="22.53546">
        <ele>16.4</ele>
        <time>2022-06-03T07:58:40.000Z</time>
      </trkpt>
      <trkpt lat="44.32469" lon="22.53574">
        <ele>16.59</ele>
        <time>2022-06-03T07:58:45.000Z</time>
      </trkpt>
      <trkpt lat="44.32454" lon="22.53607">
        <ele>15.77</ele>
        <time>2022-06-03T07:58:50.000Z</time>
      </trkpt>
      <trkpt lat="44.32437" lon="22.53638">
        <ele>14.75</ele>
        <time>2022-06-03T07:58:55.000Z</time>
      </trkpt>
      <trkpt lat="44.32424" lon="22.53667">
        <ele>15.74</ele>
        <time>2022-06-03T07:59:00.000Z</time>
      </trkpt>
      <trkpt lat="44.32405" lon="22.53701">
        <ele>14.82</ele>
        <time>2022-06-03T07:59:05.000Z</time>
      </trkpt>
      <trkpt lat="44.32384" lon="22.53736">
        <ele>16.95</ele>
        <time>2022-06-03T07:59:10.000Z</time>
      </trkpt>
      <trkpt lat="44.32366" lon="22.53773">
        <ele>19.93</ele>
        <time>2022-06-03T07:59:15.000Z</time>
      </trkpt>
      <trkpt lat="44.32354" lon="22.53814">
        <ele>20.35</ele>
        <time>2022-06-03T07:59:20.000Z</time>
      </trkpt>
      <trkpt lat="44.32344" lon="22.53861">
        <ele>23.51</ele>
        <time>2022-06-03T07:59:25.000Z</time>
      </trkpt>
      <trkpt lat="44.32328" lon="22.539">
        <ele>25.72</ele>
        <time>2022-06-03T07:59:30.000Z</time>
      </trkpt>
      <trkpt lat="44.32309" lon="22.53928">
        <ele>27.84</ele>
        <time>2022-06-03T07:59:35.000Z</time>
      </trkpt>
      <trkpt lat="44.32293" lon="22.53951">
        <ele>28.87</ele>
        <time>2022-06-03T07:59:40.000Z</time>
      </trkpt>
      <trkpt lat="44.3228" lon="22.53972">
        <ele>33.27</ele>
        <time>2022-06-03T07:59:45.000Z</time>
      </trkpt>
      <trkpt lat="44.32267" lon="22.53991">
        <ele>36.61</ele>
        <time>2022-06-03T07:59:50.000Z</time>
      </trkpt>
      <trkpt lat="44.32255" lon="22.5401">
        <ele>37.98</ele>
        <time>2022-06-03T07:59:55.000Z</time>
      </trkpt>
      <trkpt lat="44.3224" lon="22.54035">
        <ele>39.91</ele>
        <time>2022-06-03T08:00:00.000Z</time>
      </trkpt>
      <trkpt lat="44.3222" lon="22.54064">
        <ele>39.01</ele>
        <time>2022-06-03T08:00:05.000Z</time>
      </trkpt>
      <trkpt lat="44.32205" lon="22.54102">
        <ele>37.24</ele>
        <time>2022-06-03T08:00:10.000Z</time>
      </trkpt>
      <trkpt lat="44.32192" lon="22.5414">
        <ele>36.25</ele>
        <time>2022-06-03T08:00:15.000Z</time>
      </trkpt>
      <trkpt lat="44.32177" lon="22.54178">
        <ele>35.43</ele>
        <time>2022-06-03T08:00:20.000Z</time>
      </trkpt>
      <trkpt lat="44.32154" lon="22.54211">
        <ele>36.36</ele>
        <time>2022-06-03T08:00:25.000Z</time>
      </trkpt>
      <trkpt lat="44.3213" lon="22.54239">
        <ele>37.35</ele>
        <time>2022-06-03T08:00:30.000Z</time>
      </trkpt>
      <trkpt lat="44.32105" lon="22.54262">
        <ele>39.29</ele>
        <time>2022-06-03T08:00:35.000Z</time>
      </trkpt>
      <trkpt lat="44.32087" lon="22.54283">
        <ele>39.87</ele>
        <time>2022-06-03T08:00:40.000Z</time>
      </trkpt>
      <trkpt lat="44.3207" lon="22.54289">
        <ele>40.08</ele>
        <time>2022-06-03T08:00:45.000Z</time>
      </trkpt>
      <trkpt lat="44.32052" lon="22.54286">
        <ele>39.53</ele>
        <time>2022-06-03T08:00:50.000Z</time>
      </trkpt>
      <trkpt lat="44.32036" lon="22.54284">
        <ele>41.11</ele>
        <time>2022-06-03T08:00:55.000Z</time>
      </trkpt>
      <trkpt lat="44.32021" lon="22.54279">
        <ele>42.33</ele>
        <time>2022-06-03T08:01:00.000Z</time>
      </trkpt>
      <trkpt lat="44.32012" lon="22.54274">
        <ele>41.71</ele>
        <time>2022-06-03T08:01:23.000Z</time>
      </trkpt>
      <trkpt lat="44.31997" lon="22.54274">
        <ele>42.17</ele>
        <time>2022-06-03T08:01:28.000Z</time>
      </trkpt>
      <trkpt lat="44.31983" lon="22.54269">
        <ele>42.12</ele>
        <time>2022-06-03T08:01:33.000Z</time>
      </trkpt>
      <trkpt lat="44.31973" lon="22.54275">
        <ele>42.75</ele>
        <time>2022-06-03T08:01:40.000Z</time>
      </trkpt>
      <trkpt lat="44.31962" lon="22.54288">
        <ele>42.88</ele>
        <time>2022-06-03T08:01:45.000Z</time>
      </trkpt>
      <trkpt lat="44.31954" lon="22.54315">
        <ele>41.09</ele>
        <time>2022-06-03T08:01:50.000Z</time>
      </trkpt>
      <trkpt lat="44.3195" lon="22.54345">
        <ele>39.08</ele>
        <time>2022-06-03T08:01:55.000Z</time>
      </trkpt>
      <trkpt lat="44.31942" lon="22.54371">
        <ele>37.17</ele>
        <time>2022-06-03T08:02:00.000Z</time>
      </trkpt>
      <trkpt lat="44.31927" lon="22.54386">
        <ele>36.26</ele>
        <time>2022-06-03T08:02:05.000Z</time>
      </trkpt>
      <trkpt lat="44.31916" lon="22.54398">
        <ele>36.17</ele>
        <time>2022-06-03T08:02:10.000Z</time>
      </trkpt>
      <trkpt lat="44.31904" lon="22.5441">
        <ele>36.46</ele>
        <time>2022-06-03T08:02:15.000Z</time>
      </trkpt>
      <trkpt lat="44.31894" lon="22.5443">
        <ele>36.77</ele>
        <time>2022-06-03T08:02:20.000Z</time>
      </trkpt>
      <trkpt lat="44.31881" lon="22.54462">
        <ele>38.52</ele>
        <time>2022-06-03T08:02:25.000Z</time>
      </trkpt>
      <trkpt lat="44.31855" lon="22.54497">
        <ele>37.67</ele>
        <time>2022-06-03T08:02:30.000Z</time>
      </trkpt>
      <trkpt lat="44.31826" lon="22.54529">
        <ele>37.03</ele>
        <time>2022-06-03T08:02:35.000Z</time>
      </trkpt>
      <trkpt lat="44.31798" lon="22.54555">
        <ele>36.9</ele>
        <time>2022-06-03T08:02:40.000Z</time>
      </trkpt>
      <trkpt lat="44.31769" lon="22.54572">
        <ele>37.47</ele>
        <time>2022-06-03T08:02:45.000Z</time>
      </trkpt>
      <trkpt lat="44.31746" lon="22.54563">
        <ele>37.92</ele>
        <time>2022-06-03T08:02:50.000Z</time>
      </trkpt>
      <trkpt lat="44.31742" lon="22.54543">
        <ele>39.29</ele>
        <time>2022-06-03T08:02:55.000Z</time>
      </trkpt>
      <trkpt lat="44.31741" lon="22.54522">
        <ele>39.92</ele>
        <time>2022-06-03T08:03:00.000Z</time>
      </trkpt>
      <trkpt lat="44.31727" lon="22.54497">
        <ele>40</ele>
        <time>2022-06-03T08:03:05.000Z</time>
      </trkpt>
      <trkpt lat="44.31712" lon="22.54457">
        <ele>38.87</ele>
        <time>2022-06-03T08:03:10.000Z</time>
      </trkpt>
      <trkpt lat="44.31703" lon="22.54408">
        <ele>39.14</ele>
        <time>2022-06-03T08:03:15.000Z</time>
      </trkpt>
      <trkpt lat="44.31701" lon="22.54367">
        <ele>39.5</ele>
        <time>2022-06-03T08:03:20.000Z</time>
      </trkpt>
      <trkpt lat="44.31692" lon="22.54337">
        <ele>39.87</ele>
        <time>2022-06-03T08:03:25.000Z</time>
      </trkpt>
      <trkpt lat="44.31667" lon="22.54347">
        <ele>39.55</ele>
        <time>2022-06-03T08:03:30.000Z</time>
      </trkpt>
      <trkpt lat="44.31658" lon="22.54381">
        <ele>37.88</ele>
        <time>2022-06-03T08:03:35.000Z</time>
      </trkpt>
      <trkpt lat="44.3165" lon="22.54417">
        <ele>35.78</ele>
        <time>2022-06-03T08:03:40.000Z</time>
      </trkpt>
      <trkpt lat="44.31649" lon="22.54456">
        <ele>35.13</ele>
        <time>2022-06-03T08:03:45.000Z</time>
      </trkpt>
      <trkpt lat="44.31652" lon="22.54495">
        <ele>34.44</ele>
        <time>2022-06-03T08:03:50.000Z</time>
      </trkpt>
      <trkpt lat="44.31653" lon="22.54531">
        <ele>34.47</ele>
        <time>2022-06-03T08:03:55.000Z</time>
      </trkpt>
      <trkpt lat="44.31648" lon="22.5457">
        <ele>35.13</ele>
        <time>2022-06-03T08:04:00.000Z</time>
      </trkpt>
      <trkpt lat="44.31646" lon="22.54608">
        <ele>34.7</ele>
        <time>2022-06-03T08:04:05.000Z</time>
      </trkpt>
      <trkpt lat="44.31643" lon="22.54646">
        <ele>35.02</ele>
        <time>2022-06-03T08:04:10.000Z</time>
      </trkpt>
      <trkpt lat="44.31638" lon="22.54683">
        <ele>34.31</ele>
        <time>2022-06-03T08:04:15.000Z</time>
      </trkpt>
      <trkpt lat="44.31623" lon="22.54719">
        <ele>34.47</ele>
        <time>2022-06-03T08:04:20.000Z</time>
      </trkpt>
      <trkpt lat="44.31598" lon="22.54737">
        <ele>34.66</ele>
        <time>2022-06-03T08:04:25.000Z</time>
      </trkpt>
      <trkpt lat="44.31579" lon="22.54746">
        <ele>33.82</ele>
        <time>2022-06-03T08:04:30.000Z</time>
      </trkpt>
      <trkpt lat="44.31563" lon="22.54752">
        <ele>34.66</ele>
        <time>2022-06-03T08:04:35.000Z</time>
      </trkpt>
      <trkpt lat="44.31548" lon="22.54759">
        <ele>33.73</ele>
        <time>2022-06-03T08:04:40.000Z</time>
      </trkpt>
      <trkpt lat="44.31534" lon="22.54766">
        <ele>34.94</ele>
        <time>2022-06-03T08:04:45.000Z</time>
      </trkpt>
      <trkpt lat="44.31521" lon="22.54775">
        <ele>35.78</ele>
        <time>2022-06-03T08:04:50.000Z</time>
      </trkpt>
      <trkpt lat="44.31508" lon="22.54778">
        <ele>37.04</ele>
        <time>2022-06-03T08:04:55.000Z</time>
      </trkpt>
      <trkpt lat="44.31495" lon="22.54784">
        <ele>39.29</ele>
        <time>2022-06-03T08:05:00.000Z</time>
      </trkpt>
      <trkpt lat="44.31482" lon="22.5479">
        <ele>41.66</ele>
        <time>2022-06-03T08:05:05.000Z</time>
      </trkpt>
      <trkpt lat="44.31468" lon="22.54794">
        <ele>42.51</ele>
        <time>2022-06-03T08:05:10.000Z</time>
      </trkpt>
      <trkpt lat="44.31454" lon="22.54798">
        <ele>43.24</ele>
        <time>2022-06-03T08:05:15.000Z</time>
      </trkpt>
      <trkpt lat="44.3144" lon="22.54802">
        <ele>43.32</ele>
        <time>2022-06-03T08:05:20.000Z</time>
      </trkpt>
      <trkpt lat="44.31428" lon="22.54804">
        <ele>43.57</ele>
        <time>2022-06-03T08:05:25.000Z</time>
      </trkpt>
      <trkpt lat="44.31415" lon="22.54809">
        <ele>45.37</ele>
        <time>2022-06-03T08:05:30.000Z</time>
      </trkpt>
      <trkpt lat="44.31401" lon="22.54812">
        <ele>47.41</ele>
        <time>2022-06-03T08:05:35.000Z</time>
      </trkpt>
      <trkpt lat="44.31388" lon="22.54813">
        <ele>47.79</ele>
        <time>2022-06-03T08:05:40.000Z</time>
      </trkpt>
      <trkpt lat="44.31374" lon="22.54813">
        <ele>47.98</ele>
        <time>2022-06-03T08:05:45.000Z</time>
      </trkpt>
      <trkpt lat="44.31361" lon="22.54815">
        <ele>48.42</ele>
        <time>2022-06-03T08:05:50.000Z</time>
      </trkpt>
      <trkpt lat="44.31347" lon="22.54818">
        <ele>49.43</ele>
        <time>2022-06-03T08:05:55.000Z</time>
      </trkpt>
      <trkpt lat="44.31333" lon="22.5482">
        <ele>49.83</ele>
        <time>2022-06-03T08:06:00.000Z</time>
      </trkpt>
      <trkpt lat="44.31318" lon="22.5482">
        <ele>50.06</ele>
        <time>2022-06-03T08:06:05.000Z</time>
      </trkpt>
      <trkpt lat="44.31304" lon="22.54819">
        <ele>50.85</ele>
        <time>2022-06-03T08:06:10.000Z</time>
      </trkpt>
      <trkpt lat="44.3129" lon="22.5482">
        <ele>51.78</ele>
        <time>2022-06-03T08:06:15.000Z</time>
      </trkpt>
      <trkpt lat="44.31275" lon="22.54823">
        <ele>52.23</ele>
        <time>2022-06-03T08:06:20.000Z</time>
      </trkpt>
      <trkpt lat="44.31259" lon="22.54823">
        <ele>53.55</ele>
        <time>2022-06-03T08:06:25.000Z</time>
      </trkpt>
      <trkpt lat="44.31245" lon="22.54826">
        <ele>54.17</ele>
        <time>2022-06-03T08:06:30.000Z</time>
      </trkpt>
      <trkpt lat="44.31229" lon="22.54828">
        <ele>55.09</ele>
        <time>2022-06-03T08:06:35.000Z</time>
      </trkpt>
      <trkpt lat="44.31215" lon="22.5483">
        <ele>55.28</ele>
        <time>2022-06-03T08:06:40.000Z</time>
      </trkpt>
      <trkpt lat="44.31201" lon="22.54831">
        <ele>55.58</ele>
        <time>2022-06-03T08:06:45.000Z</time>
      </trkpt>
      <trkpt lat="44.31189" lon="22.54832">
        <ele>55.52</ele>
        <time>2022-06-03T08:06:50.000Z</time>
      </trkpt>
      <trkpt lat="44.31174" lon="22.54833">
        <ele>56.16</ele>
        <time>2022-06-03T08:06:55.000Z</time>
      </trkpt>
      <trkpt lat="44.31161" lon="22.54837">
        <ele>57.36</ele>
        <time>2022-06-03T08:07:00.000Z</time>
      </trkpt>
      <trkpt lat="44.31149" lon="22.54839">
        <ele>59.37</ele>
        <time>2022-06-03T08:07:05.000Z</time>
      </trkpt>
      <trkpt lat="44.31138" lon="22.5484">
        <ele>61.43</ele>
        <time>2022-06-03T08:07:10.000Z</time>
      </trkpt>
      <trkpt lat="44.31124" lon="22.54842">
        <ele>62.48</ele>
        <time>2022-06-03T08:07:15.000Z</time>
      </trkpt>
      <trkpt lat="44.31107" lon="22.54841">
        <ele>62.31</ele>
        <time>2022-06-03T08:07:20.000Z</time>
      </trkpt>
      <trkpt lat="44.31093" lon="22.5484">
        <ele>62.25</ele>
        <time>2022-06-03T08:07:25.000Z</time>
      </trkpt>
      <trkpt lat="44.31078" lon="22.54839">
        <ele>63.13</ele>
        <time>2022-06-03T08:07:30.000Z</time>
      </trkpt>
      <trkpt lat="44.31063" lon="22.54843">
        <ele>64.12</ele>
        <time>2022-06-03T08:07:35.000Z</time>
      </trkpt>
      <trkpt lat="44.31049" lon="22.54849">
        <ele>64.79</ele>
        <time>2022-06-03T08:07:40.000Z</time>
      </trkpt>
      <trkpt lat="44.31036" lon="22.54855">
        <ele>65.13</ele>
        <time>2022-06-03T08:07:45.000Z</time>
      </trkpt>
      <trkpt lat="44.31024" lon="22.54858">
        <ele>65.02</ele>
        <time>2022-06-03T08:07:50.000Z</time>
      </trkpt>
      <trkpt lat="44.3101" lon="22.5486">
        <ele>64.05</ele>
        <time>2022-06-03T08:07:55.000Z</time>
      </trkpt>
      <trkpt lat="44.30996" lon="22.54865">
        <ele>64.27</ele>
        <time>2022-06-03T08:08:00.000Z</time>
      </trkpt>
      <trkpt lat="44.30982" lon="22.5487">
        <ele>63.85</ele>
        <time>2022-06-03T08:08:05.000Z</time>
      </trkpt>
      <trkpt lat="44.30969" lon="22.54875">
        <ele>62.94</ele>
        <time>2022-06-03T08:08:10.000Z</time>
      </trkpt>
      <trkpt lat="44.30955" lon="22.5488">
        <ele>61.82</ele>
        <time>2022-06-03T08:08:15.000Z</time>
      </trkpt>
      <trkpt lat="44.30946" lon="22.54883">
        <ele>61.5</ele>
        <time>2022-06-03T08:08:20.000Z</time>
      </trkpt>
      <trkpt lat="44.30934" lon="22.54886">
        <ele>61.13</ele>
        <time>2022-06-03T08:08:25.000Z</time>
      </trkpt>
      <trkpt lat="44.30924" lon="22.5489">
        <ele>61.1</ele>
        <time>2022-06-03T08:08:30.000Z</time>
      </trkpt>
      <trkpt lat="44.30914" lon="22.54892">
        <ele>60.98</ele>
        <time>2022-06-03T08:08:35.000Z</time>
      </trkpt>
      <trkpt lat="44.30904" lon="22.54895">
        <ele>62.42</ele>
        <time>2022-06-03T08:08:40.000Z</time>
      </trkpt>
      <trkpt lat="44.30893" lon="22.54899">
        <ele>64.44</ele>
        <time>2022-06-03T08:08:45.000Z</time>
      </trkpt>
      <trkpt lat="44.30882" lon="22.54902">
        <ele>66.18</ele>
        <time>2022-06-03T08:08:50.000Z</time>
      </trkpt>
      <trkpt lat="44.30869" lon="22.54904">
        <ele>67.1</ele>
        <time>2022-06-03T08:08:55.000Z</time>
      </trkpt>
      <trkpt lat="44.30859" lon="22.54905">
        <ele>64.27</ele>
        <time>2022-06-03T08:09:00.000Z</time>
      </trkpt>
      <trkpt lat="44.30849" lon="22.54908">
        <ele>65.13</ele>
        <time>2022-06-03T08:09:05.000Z</time>
      </trkpt>
      <trkpt lat="44.30838" lon="22.5491">
        <ele>65.32</ele>
        <time>2022-06-03T08:09:10.000Z</time>
      </trkpt>
      <trkpt lat="44.30827" lon="22.54916">
        <ele>65.87</ele>
        <time>2022-06-03T08:09:15.000Z</time>
      </trkpt>
      <trkpt lat="44.30816" lon="22.54921">
        <ele>66.93</ele>
        <time>2022-06-03T08:09:20.000Z</time>
      </trkpt>
      <trkpt lat="44.30803" lon="22.54923">
        <ele>68.13</ele>
        <time>2022-06-03T08:09:25.000Z</time>
      </trkpt>
      <trkpt lat="44.30791" lon="22.54924">
        <ele>69.71</ele>
        <time>2022-06-03T08:09:31.000Z</time>
      </trkpt>
      <trkpt lat="44.30778" lon="22.54926">
        <ele>71.01</ele>
        <time>2022-06-03T08:09:36.000Z</time>
      </trkpt>
      <trkpt lat="44.30767" lon="22.54927">
        <ele>71.56</ele>
        <time>2022-06-03T08:09:41.000Z</time>
      </trkpt>
      <trkpt lat="44.30756" lon="22.54928">
        <ele>72.58</ele>
        <time>2022-06-03T08:09:46.000Z</time>
      </trkpt>
      <trkpt lat="44.30747" lon="22.54928">
        <ele>72.76</ele>
        <time>2022-06-03T08:09:51.000Z</time>
      </trkpt>
      <trkpt lat="44.30736" lon="22.54928">
        <ele>72.05</ele>
        <time>2022-06-03T08:09:56.000Z</time>
      </trkpt>
      <trkpt lat="44.30726" lon="22.54927">
        <ele>70.67</ele>
        <time>2022-06-03T08:10:01.000Z</time>
      </trkpt>
      <trkpt lat="44.30716" lon="22.54929">
        <ele>71.51</ele>
        <time>2022-06-03T08:10:06.000Z</time>
      </trkpt>
      <trkpt lat="44.30703" lon="22.54928">
        <ele>72</ele>
        <time>2022-06-03T08:10:11.000Z</time>
      </trkpt>
      <trkpt lat="44.3069" lon="22.54928">
        <ele>72.47</ele>
        <time>2022-06-03T08:10:16.000Z</time>
      </trkpt>
      <trkpt lat="44.30678" lon="22.54928">
        <ele>74.13</ele>
        <time>2022-06-03T08:10:21.000Z</time>
      </trkpt>
      <trkpt lat="44.30667" lon="22.54927">
        <ele>73.78</ele>
        <time>2022-06-03T08:10:26.000Z</time>
      </trkpt>
      <trkpt lat="44.30656" lon="22.54927">
        <ele>74.01</ele>
        <time>2022-06-03T08:10:31.000Z</time>
      </trkpt>
      <trkpt lat="44.30645" lon="22.54928">
        <ele>75.12</ele>
        <time>2022-06-03T08:10:36.000Z</time>
      </trkpt>
      <trkpt lat="44.30633" lon="22.54927">
        <ele>75.09</ele>
        <time>2022-06-03T08:10:41.000Z</time>
      </trkpt>
      <trkpt lat="44.30622" lon="22.5493">
        <ele>76.23</ele>
        <time>2022-06-03T08:10:46.000Z</time>
      </trkpt>
      <trkpt lat="44.30611" lon="22.5493">
        <ele>76.21</ele>
        <time>2022-06-03T08:10:51.000Z</time>
      </trkpt>
      <trkpt lat="44.30599" lon="22.54928">
        <ele>76.81</ele>
        <time>2022-06-03T08:10:56.000Z</time>
      </trkpt>
      <trkpt lat="44.30586" lon="22.54927">
        <ele>76.32</ele>
        <time>2022-06-03T08:11:01.000Z</time>
      </trkpt>
      <trkpt lat="44.30575" lon="22.54926">
        <ele>77.14</ele>
        <time>2022-06-03T08:11:06.000Z</time>
      </trkpt>
      <trkpt lat="44.30563" lon="22.54926">
        <ele>77.07</ele>
        <time>2022-06-03T08:11:11.000Z</time>
      </trkpt>
      <trkpt lat="44.30552" lon="22.54926">
        <ele>77.29</ele>
        <time>2022-06-03T08:11:16.000Z</time>
      </trkpt>
      <trkpt lat="44.30542" lon="22.54927">
        <ele>77.77</ele>
        <time>2022-06-03T08:11:21.000Z</time>
      </trkpt>
      <trkpt lat="44.30528" lon="22.54928">
        <ele>78.63</ele>
        <time>2022-06-03T08:11:26.000Z</time>
      </trkpt>
      <trkpt lat="44.30512" lon="22.54928">
        <ele>78.97</ele>
        <time>2022-06-03T08:11:31.000Z</time>
      </trkpt>
      <trkpt lat="44.30496" lon="22.5493">
        <ele>79.48</ele>
        <time>2022-06-03T08:11:36.000Z</time>
      </trkpt>
      <trkpt lat="44.30479" lon="22.5494">
        <ele>79.48</ele>
        <time>2022-06-03T08:11:41.000Z</time>
      </trkpt>
      <trkpt lat="44.30463" lon="22.54954">
        <ele>80.23</ele>
        <time>2022-06-03T08:11:46.000Z</time>
      </trkpt>
      <trkpt lat="44.30446" lon="22.54968">
        <ele>81.06</ele>
        <time>2022-06-03T08:11:51.000Z</time>
      </trkpt>
      <trkpt lat="44.30429" lon="22.54985">
        <ele>81.76</ele>
        <time>2022-06-03T08:11:56.000Z</time>
      </trkpt>
      <trkpt lat="44.30417" lon="22.55014">
        <ele>81.74</ele>
        <time>2022-06-03T08:12:01.000Z</time>
      </trkpt>
      <trkpt lat="44.30407" lon="22.55049">
        <ele>80.76</ele>
        <time>2022-06-03T08:12:06.000Z</time>
      </trkpt>
      <trkpt lat="44.30397" lon="22.55081">
        <ele>80.15</ele>
        <time>2022-06-03T08:12:11.000Z</time>
      </trkpt>
      <trkpt lat="44.30384" lon="22.55112">
        <ele>79.05</ele>
        <time>2022-06-03T08:12:16.000Z</time>
      </trkpt>
      <trkpt lat="44.30372" lon="22.55142">
        <ele>78.12</ele>
        <time>2022-06-03T08:12:21.000Z</time>
      </trkpt>
      <trkpt lat="44.30356" lon="22.55169">
        <ele>76.78</ele>
        <time>2022-06-03T08:12:26.000Z</time>
      </trkpt>
      <trkpt lat="44.30333" lon="22.55195">
        <ele>73.81</ele>
        <time>2022-06-03T08:12:31.000Z</time>
      </trkpt>
      <trkpt lat="44.30306" lon="22.55227">
        <ele>72.47</ele>
        <time>2022-06-03T08:12:36.000Z</time>
      </trkpt>
      <trkpt lat="44.30271" lon="22.55253">
        <ele>71.31</ele>
        <time>2022-06-03T08:12:41.000Z</time>
      </trkpt>
      <trkpt lat="44.30229" lon="22.55269">
        <ele>70.02</ele>
        <time>2022-06-03T08:12:46.000Z</time>
      </trkpt>
      <trkpt lat="44.30181" lon="22.55279">
        <ele>68.39</ele>
        <time>2022-06-03T08:12:51.000Z</time>
      </trkpt>
      <trkpt lat="44.3013" lon="22.55288">
        <ele>67.01</ele>
        <time>2022-06-03T08:12:56.000Z</time>
      </trkpt>
      <trkpt lat="44.3008" lon="22.55297">
        <ele>63.83</ele>
        <time>2022-06-03T08:13:01.000Z</time>
      </trkpt>
      <trkpt lat="44.30032" lon="22.5531">
        <ele>61.59</ele>
        <time>2022-06-03T08:13:06.000Z</time>
      </trkpt>
      <trkpt lat="44.29986" lon="22.55324">
        <ele>59.34</ele>
        <time>2022-06-03T08:13:11.000Z</time>
      </trkpt>
      <trkpt lat="44.29943" lon="22.5534">
        <ele>57.73</ele>
        <time>2022-06-03T08:13:16.000Z</time>
      </trkpt>
      <trkpt lat="44.29899" lon="22.55359">
        <ele>58.17</ele>
        <time>2022-06-03T08:13:21.000Z</time>
      </trkpt>
      <trkpt lat="44.2986" lon="22.55381">
        <ele>58.47</ele>
        <time>2022-06-03T08:13:26.000Z</time>
      </trkpt>
      <trkpt lat="44.29825" lon="22.55404">
        <ele>57.82</ele>
        <time>2022-06-03T08:13:31.000Z</time>
      </trkpt>
      <trkpt lat="44.29792" lon="22.55426">
        <ele>57.54</ele>
        <time>2022-06-03T08:13:36.000Z</time>
      </trkpt>
      <trkpt lat="44.29763" lon="22.55445">
        <ele>56.03</ele>
        <time>2022-06-03T08:13:41.000Z</time>
      </trkpt>
      <trkpt lat="44.29734" lon="22.55464">
        <ele>57.44</ele>
        <time>2022-06-03T08:13:46.000Z</time>
      </trkpt>
      <trkpt lat="44.29711" lon="22.5548">
        <ele>58.39</ele>
        <time>2022-06-03T08:13:51.000Z</time>
      </trkpt>
      <trkpt lat="44.297" lon="22.55493">
        <ele>57.56</ele>
        <time>2022-06-03T08:13:56.000Z</time>
      </trkpt>
      <trkpt lat="44.29708" lon="22.55485">
        <ele>60.42</ele>
        <time>2022-06-03T08:14:41.000Z</time>
      </trkpt>
      <trkpt lat="44.29719" lon="22.55487">
        <ele>63.4</ele>
        <time>2022-06-03T08:15:11.000Z</time>
      </trkpt>
      <trkpt lat="44.29709" lon="22.55487">
        <ele>65.77</ele>
        <time>2022-06-03T08:15:49.000Z</time>
      </trkpt>
      <trkpt lat="44.29698" lon="22.55487">
        <ele>62.33</ele>
        <time>2022-06-03T08:17:05.000Z</time>
      </trkpt>
      <trkpt lat="44.29676" lon="22.55498">
        <ele>60.93</ele>
        <time>2022-06-03T08:17:10.000Z</time>
      </trkpt>
      <trkpt lat="44.29656" lon="22.55512">
        <ele>59.8</ele>
        <time>2022-06-03T08:17:15.000Z</time>
      </trkpt>
      <trkpt lat="44.29635" lon="22.55527">
        <ele>58.85</ele>
        <time>2022-06-03T08:17:20.000Z</time>
      </trkpt>
      <trkpt lat="44.29615" lon="22.55542">
        <ele>58.68</ele>
        <time>2022-06-03T08:17:25.000Z</time>
      </trkpt>
      <trkpt lat="44.29594" lon="22.55554">
        <ele>58.23</ele>
        <time>2022-06-03T08:17:30.000Z</time>
      </trkpt>
      <trkpt lat="44.29569" lon="22.55567">
        <ele>57.63</ele>
        <time>2022-06-03T08:17:35.000Z</time>
      </trkpt>
      <trkpt lat="44.29546" lon="22.55579">
        <ele>56.98</ele>
        <time>2022-06-03T08:17:40.000Z</time>
      </trkpt>
      <trkpt lat="44.2952" lon="22.55589">
        <ele>56.71</ele>
        <time>2022-06-03T08:17:45.000Z</time>
      </trkpt>
      <trkpt lat="44.29497" lon="22.55603">
        <ele>56.3</ele>
        <time>2022-06-03T08:17:50.000Z</time>
      </trkpt>
      <trkpt lat="44.29472" lon="22.55615">
        <ele>56.5</ele>
        <time>2022-06-03T08:17:55.000Z</time>
      </trkpt>
      <trkpt lat="44.29445" lon="22.55625">
        <ele>55.53</ele>
        <time>2022-06-03T08:18:00.000Z</time>
      </trkpt>
      <trkpt lat="44.29419" lon="22.55636">
        <ele>55.38</ele>
        <time>2022-06-03T08:18:05.000Z</time>
      </trkpt>
      <trkpt lat="44.29392" lon="22.55647">
        <ele>54.61</ele>
        <time>2022-06-03T08:18:10.000Z</time>
      </trkpt>
      <trkpt lat="44.29365" lon="22.55653">
        <ele>52.65</ele>
        <time>2022-06-03T08:18:15.000Z</time>
      </trkpt>
      <trkpt lat="44.29339" lon="22.55663">
        <ele>50.56</ele>
        <time>2022-06-03T08:18:20.000Z</time>
      </trkpt>
      <trkpt lat="44.29313" lon="22.55674">
        <ele>48.3</ele>
        <time>2022-06-03T08:18:25.000Z</time>
      </trkpt>
      <trkpt lat="44.29286" lon="22.55685">
        <ele>47</ele>
        <time>2022-06-03T08:18:30.000Z</time>
      </trkpt>
      <trkpt lat="44.29258" lon="22.55695">
        <ele>45.88</ele>
        <time>2022-06-03T08:18:35.000Z</time>
      </trkpt>
      <trkpt lat="44.29231" lon="22.55705">
        <ele>45.14</ele>
        <time>2022-06-03T08:18:40.000Z</time>
      </trkpt>
      <trkpt lat="44.29204" lon="22.55716">
        <ele>45.04</ele>
        <time>2022-06-03T08:18:45.000Z</time>
      </trkpt>
      <trkpt lat="44.29177" lon="22.55726">
        <ele>46.4</ele>
        <time>2022-06-03T08:18:50.000Z</time>
      </trkpt>
      <trkpt lat="44.29151" lon="22.55735">
        <ele>48.85</ele>
        <time>2022-06-03T08:18:55.000Z</time>
      </trkpt>
      <trkpt lat="44.29124" lon="22.55741">
        <ele>49.92</ele>
        <time>2022-06-03T08:19:00.000Z</time>
      </trkpt>
      <trkpt lat="44.29098" lon="22.55745">
        <ele>49.6</ele>
        <time>2022-06-03T08:19:05.000Z</time>
      </trkpt>
      <trkpt lat="44.29076" lon="22.55749">
        <ele>50.49</ele>
        <time>2022-06-03T08:19:10.000Z</time>
      </trkpt>
      <trkpt lat="44.29053" lon="22.55751">
        <ele>51.09</ele>
        <time>2022-06-03T08:19:15.000Z</time>
      </trkpt>
      <trkpt lat="44.2903" lon="22.55752">
        <ele>51.97</ele>
        <time>2022-06-03T08:19:20.000Z</time>
      </trkpt>
      <trkpt lat="44.29009" lon="22.55752">
        <ele>52.87</ele>
        <time>2022-06-03T08:19:25.000Z</time>
      </trkpt>
      <trkpt lat="44.28988" lon="22.55751">
        <ele>53.45</ele>
        <time>2022-06-03T08:19:30.000Z</time>
      </trkpt>
      <trkpt lat="44.28963" lon="22.55749">
        <ele>54.26</ele>
        <time>2022-06-03T08:19:35.000Z</time>
      </trkpt>
      <trkpt lat="44.28938" lon="22.55746">
        <ele>54.62</ele>
        <time>2022-06-03T08:19:40.000Z</time>
      </trkpt>
      <trkpt lat="44.28914" lon="22.55743">
        <ele>53.91</ele>
        <time>2022-06-03T08:19:45.000Z</time>
      </trkpt>
      <trkpt lat="44.28888" lon="22.55739">
        <ele>53.34</ele>
        <time>2022-06-03T08:19:50.000Z</time>
      </trkpt>
      <trkpt lat="44.28862" lon="22.55736">
        <ele>52.28</ele>
        <time>2022-06-03T08:19:55.000Z</time>
      </trkpt>
      <trkpt lat="44.28837" lon="22.55732">
        <ele>50.65</ele>
        <time>2022-06-03T08:20:00.000Z</time>
      </trkpt>
      <trkpt lat="44.28812" lon="22.55729">
        <ele>49.75</ele>
        <time>2022-06-03T08:20:05.000Z</time>
      </trkpt>
      <trkpt lat="44.28784" lon="22.55726">
        <ele>47.92</ele>
        <time>2022-06-03T08:20:10.000Z</time>
      </trkpt>
      <trkpt lat="44.28757" lon="22.55723">
        <ele>47.29</ele>
        <time>2022-06-03T08:20:15.000Z</time>
      </trkpt>
      <trkpt lat="44.28731" lon="22.5572">
        <ele>47.34</ele>
        <time>2022-06-03T08:20:20.000Z</time>
      </trkpt>
      <trkpt lat="44.28705" lon="22.55717">
        <ele>47.06</ele>
        <time>2022-06-03T08:20:25.000Z</time>
      </trkpt>
      <trkpt lat="44.28679" lon="22.55714">
        <ele>47.47</ele>
        <time>2022-06-03T08:20:30.000Z</time>
      </trkpt>
      <trkpt lat="44.28654" lon="22.55712">
        <ele>48.13</ele>
        <time>2022-06-03T08:20:35.000Z</time>
      </trkpt>
      <trkpt lat="44.28629" lon="22.55709">
        <ele>48.18</ele>
        <time>2022-06-03T08:20:40.000Z</time>
      </trkpt>
      <trkpt lat="44.28603" lon="22.55707">
        <ele>49.02</ele>
        <time>2022-06-03T08:20:45.000Z</time>
      </trkpt>
      <trkpt lat="44.28579" lon="22.55704">
        <ele>49.89</ele>
        <time>2022-06-03T08:20:50.000Z</time>
      </trkpt>
      <trkpt lat="44.28556" lon="22.55702">
        <ele>49.93</ele>
        <time>2022-06-03T08:20:55.000Z</time>
      </trkpt>
      <trkpt lat="44.28532" lon="22.557">
        <ele>51.85</ele>
        <time>2022-06-03T08:21:00.000Z</time>
      </trkpt>
      <trkpt lat="44.28507" lon="22.55696">
        <ele>53.05</ele>
        <time>2022-06-03T08:21:05.000Z</time>
      </trkpt>
      <trkpt lat="44.28479" lon="22.55694">
        <ele>54.75</ele>
        <time>2022-06-03T08:21:10.000Z</time>
      </trkpt>
      <trkpt lat="44.28454" lon="22.55688">
        <ele>54.17</ele>
        <time>2022-06-03T08:21:15.000Z</time>
      </trkpt>
      <trkpt lat="44.28431" lon="22.55685">
        <ele>52.81</ele>
        <time>2022-06-03T08:21:20.000Z</time>
      </trkpt>
      <trkpt lat="44.28406" lon="22.55682">
        <ele>52.9</ele>
        <time>2022-06-03T08:21:25.000Z</time>
      </trkpt>
      <trkpt lat="44.28381" lon="22.5568">
        <ele>54.35</ele>
        <time>2022-06-03T08:21:30.000Z</time>
      </trkpt>
      <trkpt lat="44.28356" lon="22.55677">
        <ele>55.35</ele>
        <time>2022-06-03T08:21:35.000Z</time>
      </trkpt>
      <trkpt lat="44.28331" lon="22.55673">
        <ele>55.81</ele>
        <time>2022-06-03T08:21:40.000Z</time>
      </trkpt>
      <trkpt lat="44.28306" lon="22.55669">
        <ele>55.53</ele>
        <time>2022-06-03T08:21:45.000Z</time>
      </trkpt>
      <trkpt lat="44.28279" lon="22.55666">
        <ele>55.18</ele>
        <time>2022-06-03T08:21:50.000Z</time>
      </trkpt>
      <trkpt lat="44.2825" lon="22.55663">
        <ele>55.11</ele>
        <time>2022-06-03T08:21:55.000Z</time>
      </trkpt>
      <trkpt lat="44.28222" lon="22.5566">
        <ele>54.48</ele>
        <time>2022-06-03T08:22:00.000Z</time>
      </trkpt>
      <trkpt lat="44.28196" lon="22.55658">
        <ele>55.38</ele>
        <time>2022-06-03T08:22:05.000Z</time>
      </trkpt>
      <trkpt lat="44.28169" lon="22.55655">
        <ele>55.23</ele>
        <time>2022-06-03T08:22:10.000Z</time>
      </trkpt>
      <trkpt lat="44.2814" lon="22.55652">
        <ele>55.43</ele>
        <time>2022-06-03T08:22:15.000Z</time>
      </trkpt>
      <trkpt lat="44.28112" lon="22.55649">
        <ele>55.84</ele>
        <time>2022-06-03T08:22:20.000Z</time>
      </trkpt>
      <trkpt lat="44.28085" lon="22.55645">
        <ele>57</ele>
        <time>2022-06-03T08:22:25.000Z</time>
      </trkpt>
      <trkpt lat="44.28059" lon="22.55642">
        <ele>57.03</ele>
        <time>2022-06-03T08:22:30.000Z</time>
      </trkpt>
      <trkpt lat="44.28032" lon="22.55639">
        <ele>57.15</ele>
        <time>2022-06-03T08:22:35.000Z</time>
      </trkpt>
      <trkpt lat="44.28002" lon="22.55636">
        <ele>57.22</ele>
        <time>2022-06-03T08:22:40.000Z</time>
      </trkpt>
      <trkpt lat="44.27971" lon="22.55634">
        <ele>58.1</ele>
        <time>2022-06-03T08:22:45.000Z</time>
      </trkpt>
      <trkpt lat="44.27942" lon="22.55631">
        <ele>57.38</ele>
        <time>2022-06-03T08:22:50.000Z</time>
      </trkpt>
      <trkpt lat="44.27916" lon="22.5563">
        <ele>56.82</ele>
        <time>2022-06-03T08:22:55.000Z</time>
      </trkpt>
      <trkpt lat="44.27891" lon="22.55628">
        <ele>55.64</ele>
        <time>2022-06-03T08:23:00.000Z</time>
      </trkpt>
      <trkpt lat="44.27863" lon="22.55627">
        <ele>55</ele>
        <time>2022-06-03T08:23:05.000Z</time>
      </trkpt>
      <trkpt lat="44.27837" lon="22.55626">
        <ele>55.83</ele>
        <time>2022-06-03T08:23:10.000Z</time>
      </trkpt>
      <trkpt lat="44.27812" lon="22.55624">
        <ele>54.77</ele>
        <time>2022-06-03T08:23:15.000Z</time>
      </trkpt>
      <trkpt lat="44.27783" lon="22.55621">
        <ele>53.72</ele>
        <time>2022-06-03T08:23:20.000Z</time>
      </trkpt>
      <trkpt lat="44.27758" lon="22.55621">
        <ele>52.17</ele>
        <time>2022-06-03T08:23:25.000Z</time>
      </trkpt>
      <trkpt lat="44.27733" lon="22.5562">
        <ele>53.45</ele>
        <time>2022-06-03T08:23:30.000Z</time>
      </trkpt>
      <trkpt lat="44.27708" lon="22.55618">
        <ele>52.07</ele>
        <time>2022-06-03T08:23:35.000Z</time>
      </trkpt>
      <trkpt lat="44.27682" lon="22.55616">
        <ele>51.07</ele>
        <time>2022-06-03T08:23:40.000Z</time>
      </trkpt>
      <trkpt lat="44.27656" lon="22.55613">
        <ele>51.38</ele>
        <time>2022-06-03T08:23:45.000Z</time>
      </trkpt>
      <trkpt lat="44.2763" lon="22.5561">
        <ele>50.98</ele>
        <time>2022-06-03T08:23:50.000Z</time>
      </trkpt>
      <trkpt lat="44.27605" lon="22.55608">
        <ele>51.04</ele>
        <time>2022-06-03T08:23:55.000Z</time>
      </trkpt>
      <trkpt lat="44.27581" lon="22.55607">
        <ele>53.82</ele>
        <time>2022-06-03T08:24:00.000Z</time>
      </trkpt>
      <trkpt lat="44.27556" lon="22.55605">
        <ele>54.52</ele>
        <time>2022-06-03T08:24:05.000Z</time>
      </trkpt>
      <trkpt lat="44.2753" lon="22.55602">
        <ele>53.8</ele>
        <time>2022-06-03T08:24:10.000Z</time>
      </trkpt>
      <trkpt lat="44.27503" lon="22.55597">
        <ele>52.87</ele>
        <time>2022-06-03T08:24:15.000Z</time>
      </trkpt>
      <trkpt lat="44.27475" lon="22.55592">
        <ele>51.64</ele>
        <time>2022-06-03T08:24:20.000Z</time>
      </trkpt>
      <trkpt lat="44.27449" lon="22.55588">
        <ele>51.53</ele>
        <time>2022-06-03T08:24:25.000Z</time>
      </trkpt>
      <trkpt lat="44.27423" lon="22.55584">
        <ele>50.94</ele>
        <time>2022-06-03T08:24:30.000Z</time>
      </trkpt>
      <trkpt lat="44.27397" lon="22.55581">
        <ele>51.98</ele>
        <time>2022-06-03T08:24:35.000Z</time>
      </trkpt>
      <trkpt lat="44.27371" lon="22.55576">
        <ele>50.96</ele>
        <time>2022-06-03T08:24:40.000Z</time>
      </trkpt>
      <trkpt lat="44.27348" lon="22.55572">
        <ele>50.72</ele>
        <time>2022-06-03T08:24:45.000Z</time>
      </trkpt>
      <trkpt lat="44.2733" lon="22.55569">
        <ele>50.67</ele>
        <time>2022-06-03T08:24:50.000Z</time>
      </trkpt>
      <trkpt lat="44.27306" lon="22.55565">
        <ele>51.51</ele>
        <time>2022-06-03T08:24:55.000Z</time>
      </trkpt>
      <trkpt lat="44.27279" lon="22.55561">
        <ele>52.24</ele>
        <time>2022-06-03T08:25:00.000Z</time>
      </trkpt>
      <trkpt lat="44.27255" lon="22.55557">
        <ele>51.87</ele>
        <time>2022-06-03T08:25:05.000Z</time>
      </trkpt>
      <trkpt lat="44.27227" lon="22.55552">
        <ele>52.75</ele>
        <time>2022-06-03T08:25:10.000Z</time>
      </trkpt>
      <trkpt lat="44.27201" lon="22.55547">
        <ele>52.58</ele>
        <time>2022-06-03T08:25:15.000Z</time>
      </trkpt>
      <trkpt lat="44.27172" lon="22.55542">
        <ele>50.99</ele>
        <time>2022-06-03T08:25:20.000Z</time>
      </trkpt>
      <trkpt lat="44.2714" lon="22.55541">
        <ele>51.82</ele>
        <time>2022-06-03T08:25:25.000Z</time>
      </trkpt>
      <trkpt lat="44.2711" lon="22.55535">
        <ele>50.07</ele>
        <time>2022-06-03T08:25:30.000Z</time>
      </trkpt>
      <trkpt lat="44.27082" lon="22.55529">
        <ele>49.01</ele>
        <time>2022-06-03T08:25:35.000Z</time>
      </trkpt>
      <trkpt lat="44.2706" lon="22.55529">
        <ele>48.52</ele>
        <time>2022-06-03T08:25:40.000Z</time>
      </trkpt>
      <trkpt lat="44.27051" lon="22.55524">
        <ele>48.71</ele>
        <time>2022-06-03T08:25:56.000Z</time>
      </trkpt>
      <trkpt lat="44.27027" lon="22.55523">
        <ele>48.06</ele>
        <time>2022-06-03T08:26:01.000Z</time>
      </trkpt>
      <trkpt lat="44.26996" lon="22.55517">
        <ele>47.7</ele>
        <time>2022-06-03T08:26:06.000Z</time>
      </trkpt>
      <trkpt lat="44.26968" lon="22.55513">
        <ele>48.09</ele>
        <time>2022-06-03T08:26:11.000Z</time>
      </trkpt>
      <trkpt lat="44.26941" lon="22.55513">
        <ele>47.79</ele>
        <time>2022-06-03T08:26:16.000Z</time>
      </trkpt>
      <trkpt lat="44.26913" lon="22.55513">
        <ele>47.26</ele>
        <time>2022-06-03T08:26:21.000Z</time>
      </trkpt>
      <trkpt lat="44.26887" lon="22.55516">
        <ele>45.86</ele>
        <time>2022-06-03T08:26:26.000Z</time>
      </trkpt>
      <trkpt lat="44.26869" lon="22.55516">
        <ele>45.92</ele>
        <time>2022-06-03T08:26:31.000Z</time>
      </trkpt>
      <trkpt lat="44.26855" lon="22.55512">
        <ele>45.44</ele>
        <time>2022-06-03T08:26:36.000Z</time>
      </trkpt>
      <trkpt lat="44.26841" lon="22.55508">
        <ele>45.13</ele>
        <time>2022-06-03T08:26:41.000Z</time>
      </trkpt>
      <trkpt lat="44.26854" lon="22.55524">
        <ele>50.99</ele>
        <time>2022-06-03T08:27:00.000Z</time>
      </trkpt>
      <trkpt lat="44.26864" lon="22.55522">
        <ele>46.42</ele>
        <time>2022-06-03T08:27:07.000Z</time>
      </trkpt>
      <trkpt lat="44.26875" lon="22.55518">
        <ele>42.3</ele>
        <time>2022-06-03T08:27:34.000Z</time>
      </trkpt>
      <trkpt lat="44.26882" lon="22.55511">
        <ele>48.72</ele>
        <time>2022-06-03T08:28:11.000Z</time>
      </trkpt>
      <trkpt lat="44.26873" lon="22.55511">
        <ele>49.8</ele>
        <time>2022-06-03T08:36:55.000Z</time>
      </trkpt>
      <trkpt lat="44.26863" lon="22.55511">
        <ele>50.4</ele>
        <time>2022-06-03T08:37:01.000Z</time>
      </trkpt>
      <trkpt lat="44.26851" lon="22.55508">
        <ele>50.13</ele>
        <time>2022-06-03T08:37:06.000Z</time>
      </trkpt>
      <trkpt lat="44.26838" lon="22.555">
        <ele>49.63</ele>
        <time>2022-06-03T08:37:11.000Z</time>
      </trkpt>
      <trkpt lat="44.26824" lon="22.55492">
        <ele>49.14</ele>
        <time>2022-06-03T08:37:16.000Z</time>
      </trkpt>
      <trkpt lat="44.26808" lon="22.5548">
        <ele>48.62</ele>
        <time>2022-06-03T08:37:21.000Z</time>
      </trkpt>
      <trkpt lat="44.26794" lon="22.55467">
        <ele>48.03</ele>
        <time>2022-06-03T08:37:26.000Z</time>
      </trkpt>
      <trkpt lat="44.26779" lon="22.55452">
        <ele>47.63</ele>
        <time>2022-06-03T08:37:31.000Z</time>
      </trkpt>
      <trkpt lat="44.26761" lon="22.55434">
        <ele>47.31</ele>
        <time>2022-06-03T08:37:36.000Z</time>
      </trkpt>
      <trkpt lat="44.26739" lon="22.55414">
        <ele>46.73</ele>
        <time>2022-06-03T08:37:41.000Z</time>
      </trkpt>
      <trkpt lat="44.26717" lon="22.5539">
        <ele>46.23</ele>
        <time>2022-06-03T08:37:46.000Z</time>
      </trkpt>
      <trkpt lat="44.2669" lon="22.55368">
        <ele>46.13</ele>
        <time>2022-06-03T08:37:51.000Z</time>
      </trkpt>
      <trkpt lat="44.26667" lon="22.55341">
        <ele>46.32</ele>
        <time>2022-06-03T08:37:56.000Z</time>
      </trkpt>
      <trkpt lat="44.26643" lon="22.55314">
        <ele>45.98</ele>
        <time>2022-06-03T08:38:01.000Z</time>
      </trkpt>
      <trkpt lat="44.26615" lon="22.55291">
        <ele>45.35</ele>
        <time>2022-06-03T08:38:06.000Z</time>
      </trkpt>
      <trkpt lat="44.26587" lon="22.55266">
        <ele>44.2</ele>
        <time>2022-06-03T08:38:11.000Z</time>
      </trkpt>
      <trkpt lat="44.26558" lon="22.55241">
        <ele>43.27</ele>
        <time>2022-06-03T08:38:16.000Z</time>
      </trkpt>
      <trkpt lat="44.26531" lon="22.55213">
        <ele>42.76</ele>
        <time>2022-06-03T08:38:21.000Z</time>
      </trkpt>
      <trkpt lat="44.26505" lon="22.55187">
        <ele>41.5</ele>
        <time>2022-06-03T08:38:26.000Z</time>
      </trkpt>
      <trkpt lat="44.26479" lon="22.55158">
        <ele>40.34</ele>
        <time>2022-06-03T08:38:31.000Z</time>
      </trkpt>
      <trkpt lat="44.26453" lon="22.55133">
        <ele>40.09</ele>
        <time>2022-06-03T08:38:36.000Z</time>
      </trkpt>
      <trkpt lat="44.26426" lon="22.55108">
        <ele>39.71</ele>
        <time>2022-06-03T08:38:41.000Z</time>
      </trkpt>
      <trkpt lat="44.26398" lon="22.55084">
        <ele>39.68</ele>
        <time>2022-06-03T08:38:46.000Z</time>
      </trkpt>
      <trkpt lat="44.26371" lon="22.55059">
        <ele>38.74</ele>
        <time>2022-06-03T08:38:51.000Z</time>
      </trkpt>
      <trkpt lat="44.26345" lon="22.55033">
        <ele>38.14</ele>
        <time>2022-06-03T08:38:56.000Z</time>
      </trkpt>
      <trkpt lat="44.26321" lon="22.55007">
        <ele>37.11</ele>
        <time>2022-06-03T08:39:01.000Z</time>
      </trkpt>
      <trkpt lat="44.26294" lon="22.54981">
        <ele>36.24</ele>
        <time>2022-06-03T08:39:06.000Z</time>
      </trkpt>
      <trkpt lat="44.26268" lon="22.54956">
        <ele>35.79</ele>
        <time>2022-06-03T08:39:11.000Z</time>
      </trkpt>
      <trkpt lat="44.26243" lon="22.54932">
        <ele>35.51</ele>
        <time>2022-06-03T08:39:16.000Z</time>
      </trkpt>
      <trkpt lat="44.26218" lon="22.54909">
        <ele>35.88</ele>
        <time>2022-06-03T08:39:21.000Z</time>
      </trkpt>
      <trkpt lat="44.26195" lon="22.54884">
        <ele>36.41</ele>
        <time>2022-06-03T08:39:26.000Z</time>
      </trkpt>
      <trkpt lat="44.26173" lon="22.54861">
        <ele>36.98</ele>
        <time>2022-06-03T08:39:31.000Z</time>
      </trkpt>
      <trkpt lat="44.26152" lon="22.54838">
        <ele>37.8</ele>
        <time>2022-06-03T08:39:36.000Z</time>
      </trkpt>
      <trkpt lat="44.26131" lon="22.54817">
        <ele>38.25</ele>
        <time>2022-06-03T08:39:41.000Z</time>
      </trkpt>
      <trkpt lat="44.26107" lon="22.54795">
        <ele>38.14</ele>
        <time>2022-06-03T08:39:46.000Z</time>
      </trkpt>
      <trkpt lat="44.26083" lon="22.54773">
        <ele>38.53</ele>
        <time>2022-06-03T08:39:51.000Z</time>
      </trkpt>
      <trkpt lat="44.26058" lon="22.54756">
        <ele>37.87</ele>
        <time>2022-06-03T08:39:56.000Z</time>
      </trkpt>
      <trkpt lat="44.26033" lon="22.54741">
        <ele>37.04</ele>
        <time>2022-06-03T08:40:01.000Z</time>
      </trkpt>
      <trkpt lat="44.26007" lon="22.54726">
        <ele>36.65</ele>
        <time>2022-06-03T08:40:06.000Z</time>
      </trkpt>
      <trkpt lat="44.25984" lon="22.54712">
        <ele>36.26</ele>
        <time>2022-06-03T08:40:11.000Z</time>
      </trkpt>
      <trkpt lat="44.25959" lon="22.547">
        <ele>36.07</ele>
        <time>2022-06-03T08:40:16.000Z</time>
      </trkpt>
      <trkpt lat="44.25933" lon="22.54685">
        <ele>36.24</ele>
        <time>2022-06-03T08:40:21.000Z</time>
      </trkpt>
      <trkpt lat="44.25908" lon="22.54671">
        <ele>36.98</ele>
        <time>2022-06-03T08:40:26.000Z</time>
      </trkpt>
      <trkpt lat="44.25882" lon="22.54655">
        <ele>36.88</ele>
        <time>2022-06-03T08:40:31.000Z</time>
      </trkpt>
      <trkpt lat="44.25858" lon="22.5464">
        <ele>37.1</ele>
        <time>2022-06-03T08:40:36.000Z</time>
      </trkpt>
      <trkpt lat="44.25831" lon="22.54626">
        <ele>36.86</ele>
        <time>2022-06-03T08:40:41.000Z</time>
      </trkpt>
      <trkpt lat="44.25802" lon="22.54613">
        <ele>36.41</ele>
        <time>2022-06-03T08:40:46.000Z</time>
      </trkpt>
      <trkpt lat="44.25775" lon="22.54601">
        <ele>36.96</ele>
        <time>2022-06-03T08:40:51.000Z</time>
      </trkpt>
      <trkpt lat="44.25751" lon="22.54586">
        <ele>37.09</ele>
        <time>2022-06-03T08:40:56.000Z</time>
      </trkpt>
      <trkpt lat="44.25725" lon="22.54575">
        <ele>37.29</ele>
        <time>2022-06-03T08:41:01.000Z</time>
      </trkpt>
      <trkpt lat="44.25701" lon="22.54562">
        <ele>37.21</ele>
        <time>2022-06-03T08:41:06.000Z</time>
      </trkpt>
      <trkpt lat="44.25677" lon="22.54551">
        <ele>36.49</ele>
        <time>2022-06-03T08:41:11.000Z</time>
      </trkpt>
      <trkpt lat="44.25652" lon="22.54539">
        <ele>36.14</ele>
        <time>2022-06-03T08:41:16.000Z</time>
      </trkpt>
      <trkpt lat="44.25627" lon="22.54524">
        <ele>36.17</ele>
        <time>2022-06-03T08:41:21.000Z</time>
      </trkpt>
      <trkpt lat="44.25604" lon="22.5451">
        <ele>36.22</ele>
        <time>2022-06-03T08:41:26.000Z</time>
      </trkpt>
      <trkpt lat="44.25582" lon="22.54498">
        <ele>36.06</ele>
        <time>2022-06-03T08:41:31.000Z</time>
      </trkpt>
      <trkpt lat="44.25558" lon="22.54485">
        <ele>36.4</ele>
        <time>2022-06-03T08:41:36.000Z</time>
      </trkpt>
      <trkpt lat="44.25537" lon="22.54471">
        <ele>36.03</ele>
        <time>2022-06-03T08:41:41.000Z</time>
      </trkpt>
      <trkpt lat="44.25511" lon="22.5446">
        <ele>36.03</ele>
        <time>2022-06-03T08:41:46.000Z</time>
      </trkpt>
      <trkpt lat="44.25486" lon="22.54445">
        <ele>36.37</ele>
        <time>2022-06-03T08:41:51.000Z</time>
      </trkpt>
      <trkpt lat="44.25461" lon="22.54431">
        <ele>35.96</ele>
        <time>2022-06-03T08:41:56.000Z</time>
      </trkpt>
      <trkpt lat="44.25436" lon="22.54416">
        <ele>35.16</ele>
        <time>2022-06-03T08:42:01.000Z</time>
      </trkpt>
      <trkpt lat="44.2541" lon="22.54399">
        <ele>34.51</ele>
        <time>2022-06-03T08:42:06.000Z</time>
      </trkpt>
      <trkpt lat="44.25386" lon="22.54383">
        <ele>34.54</ele>
        <time>2022-06-03T08:42:11.000Z</time>
      </trkpt>
      <trkpt lat="44.25358" lon="22.54368">
        <ele>34.28</ele>
        <time>2022-06-03T08:42:16.000Z</time>
      </trkpt>
      <trkpt lat="44.25329" lon="22.54354">
        <ele>34.03</ele>
        <time>2022-06-03T08:42:21.000Z</time>
      </trkpt>
      <trkpt lat="44.25304" lon="22.5434">
        <ele>33.32</ele>
        <time>2022-06-03T08:42:26.000Z</time>
      </trkpt>
      <trkpt lat="44.25276" lon="22.54325">
        <ele>32.98</ele>
        <time>2022-06-03T08:42:31.000Z</time>
      </trkpt>
      <trkpt lat="44.25249" lon="22.54311">
        <ele>33.66</ele>
        <time>2022-06-03T08:42:36.000Z</time>
      </trkpt>
      <trkpt lat="44.25224" lon="22.54298">
        <ele>33.78</ele>
        <time>2022-06-03T08:42:41.000Z</time>
      </trkpt>
      <trkpt lat="44.25198" lon="22.54284">
        <ele>34.29</ele>
        <time>2022-06-03T08:42:46.000Z</time>
      </trkpt>
      <trkpt lat="44.2517" lon="22.54272">
        <ele>34.54</ele>
        <time>2022-06-03T08:42:51.000Z</time>
      </trkpt>
      <trkpt lat="44.25143" lon="22.54258">
        <ele>34.87</ele>
        <time>2022-06-03T08:42:56.000Z</time>
      </trkpt>
      <trkpt lat="44.25118" lon="22.54245">
        <ele>34.92</ele>
        <time>2022-06-03T08:43:01.000Z</time>
      </trkpt>
      <trkpt lat="44.25093" lon="22.54232">
        <ele>34.43</ele>
        <time>2022-06-03T08:43:06.000Z</time>
      </trkpt>
      <trkpt lat="44.25068" lon="22.54218">
        <ele>33.96</ele>
        <time>2022-06-03T08:43:11.000Z</time>
      </trkpt>
      <trkpt lat="44.25043" lon="22.54204">
        <ele>34.1</ele>
        <time>2022-06-03T08:43:16.000Z</time>
      </trkpt>
      <trkpt lat="44.25017" lon="22.5419">
        <ele>33.76</ele>
        <time>2022-06-03T08:43:21.000Z</time>
      </trkpt>
      <trkpt lat="44.24989" lon="22.54177">
        <ele>33.53</ele>
        <time>2022-06-03T08:43:26.000Z</time>
      </trkpt>
      <trkpt lat="44.24962" lon="22.54162">
        <ele>33.5</ele>
        <time>2022-06-03T08:43:31.000Z</time>
      </trkpt>
      <trkpt lat="44.24936" lon="22.54148">
        <ele>33.93</ele>
        <time>2022-06-03T08:43:36.000Z</time>
      </trkpt>
      <trkpt lat="44.24907" lon="22.54133">
        <ele>34.71</ele>
        <time>2022-06-03T08:43:41.000Z</time>
      </trkpt>
      <trkpt lat="44.24879" lon="22.54118">
        <ele>34.41</ele>
        <time>2022-06-03T08:43:46.000Z</time>
      </trkpt>
      <trkpt lat="44.2485" lon="22.54103">
        <ele>34.67</ele>
        <time>2022-06-03T08:43:51.000Z</time>
      </trkpt>
      <trkpt lat="44.24822" lon="22.54089">
        <ele>35.55</ele>
        <time>2022-06-03T08:43:56.000Z</time>
      </trkpt>
      <trkpt lat="44.24793" lon="22.54077">
        <ele>35.97</ele>
        <time>2022-06-03T08:44:01.000Z</time>
      </trkpt>
      <trkpt lat="44.24762" lon="22.54065">
        <ele>35.73</ele>
        <time>2022-06-03T08:44:06.000Z</time>
      </trkpt>
      <trkpt lat="44.24732" lon="22.54048">
        <ele>36.24</ele>
        <time>2022-06-03T08:44:11.000Z</time>
      </trkpt>
      <trkpt lat="44.24702" lon="22.54033">
        <ele>36.96</ele>
        <time>2022-06-03T08:44:16.000Z</time>
      </trkpt>
      <trkpt lat="44.24673" lon="22.54018">
        <ele>36.98</ele>
        <time>2022-06-03T08:44:21.000Z</time>
      </trkpt>
      <trkpt lat="44.24643" lon="22.54004">
        <ele>37.08</ele>
        <time>2022-06-03T08:44:26.000Z</time>
      </trkpt>
      <trkpt lat="44.24614" lon="22.5399">
        <ele>36.83</ele>
        <time>2022-06-03T08:44:31.000Z</time>
      </trkpt>
      <trkpt lat="44.24585" lon="22.53979">
        <ele>36.45</ele>
        <time>2022-06-03T08:44:36.000Z</time>
      </trkpt>
      <trkpt lat="44.24561" lon="22.53965">
        <ele>38.08</ele>
        <time>2022-06-03T08:44:41.000Z</time>
      </trkpt>
      <trkpt lat="44.24536" lon="22.53955">
        <ele>39.25</ele>
        <time>2022-06-03T08:44:46.000Z</time>
      </trkpt>
      <trkpt lat="44.24514" lon="22.53946">
        <ele>41.37</ele>
        <time>2022-06-03T08:44:51.000Z</time>
      </trkpt>
      <trkpt lat="44.24495" lon="22.53939">
        <ele>42.56</ele>
        <time>2022-06-03T08:44:56.000Z</time>
      </trkpt>
      <trkpt lat="44.24475" lon="22.5393">
        <ele>43.03</ele>
        <time>2022-06-03T08:45:01.000Z</time>
      </trkpt>
      <trkpt lat="44.24455" lon="22.5392">
        <ele>43.13</ele>
        <time>2022-06-03T08:45:06.000Z</time>
      </trkpt>
      <trkpt lat="44.24429" lon="22.53909">
        <ele>42.54</ele>
        <time>2022-06-03T08:45:11.000Z</time>
      </trkpt>
      <trkpt lat="44.24402" lon="22.53898">
        <ele>42.97</ele>
        <time>2022-06-03T08:45:16.000Z</time>
      </trkpt>
      <trkpt lat="44.24377" lon="22.53885">
        <ele>42.59</ele>
        <time>2022-06-03T08:45:21.000Z</time>
      </trkpt>
      <trkpt lat="44.24352" lon="22.53873">
        <ele>41.52</ele>
        <time>2022-06-03T08:45:26.000Z</time>
      </trkpt>
      <trkpt lat="44.24324" lon="22.53862">
        <ele>41.05</ele>
        <time>2022-06-03T08:45:31.000Z</time>
      </trkpt>
      <trkpt lat="44.24299" lon="22.5385">
        <ele>40.91</ele>
        <time>2022-06-03T08:45:36.000Z</time>
      </trkpt>
      <trkpt lat="44.24273" lon="22.53837">
        <ele>40.58</ele>
        <time>2022-06-03T08:45:41.000Z</time>
      </trkpt>
      <trkpt lat="44.24243" lon="22.53823">
        <ele>39.86</ele>
        <time>2022-06-03T08:45:46.000Z</time>
      </trkpt>
      <trkpt lat="44.24212" lon="22.53808">
        <ele>37.3</ele>
        <time>2022-06-03T08:45:51.000Z</time>
      </trkpt>
      <trkpt lat="44.24182" lon="22.53796">
        <ele>35.57</ele>
        <time>2022-06-03T08:45:56.000Z</time>
      </trkpt>
      <trkpt lat="44.24155" lon="22.53785">
        <ele>33.62</ele>
        <time>2022-06-03T08:46:01.000Z</time>
      </trkpt>
      <trkpt lat="44.24129" lon="22.53775">
        <ele>34.59</ele>
        <time>2022-06-03T08:46:06.000Z</time>
      </trkpt>
      <trkpt lat="44.24103" lon="22.53763">
        <ele>36.23</ele>
        <time>2022-06-03T08:46:11.000Z</time>
      </trkpt>
      <trkpt lat="44.24074" lon="22.53751">
        <ele>36.57</ele>
        <time>2022-06-03T08:46:16.000Z</time>
      </trkpt>
      <trkpt lat="44.24047" lon="22.53738">
        <ele>37.41</ele>
        <time>2022-06-03T08:46:21.000Z</time>
      </trkpt>
      <trkpt lat="44.24021" lon="22.53724">
        <ele>39.92</ele>
        <time>2022-06-03T08:46:26.000Z</time>
      </trkpt>
      <trkpt lat="44.23996" lon="22.53715">
        <ele>40.23</ele>
        <time>2022-06-03T08:46:31.000Z</time>
      </trkpt>
      <trkpt lat="44.23974" lon="22.53705">
        <ele>40.37</ele>
        <time>2022-06-03T08:46:36.000Z</time>
      </trkpt>
      <trkpt lat="44.2395" lon="22.53693">
        <ele>39.32</ele>
        <time>2022-06-03T08:46:41.000Z</time>
      </trkpt>
      <trkpt lat="44.23925" lon="22.53681">
        <ele>38.15</ele>
        <time>2022-06-03T08:46:46.000Z</time>
      </trkpt>
      <trkpt lat="44.23897" lon="22.53668">
        <ele>37.85</ele>
        <time>2022-06-03T08:46:51.000Z</time>
      </trkpt>
      <trkpt lat="44.23867" lon="22.53657">
        <ele>36.96</ele>
        <time>2022-06-03T08:46:56.000Z</time>
      </trkpt>
      <trkpt lat="44.23838" lon="22.53644">
        <ele>36.13</ele>
        <time>2022-06-03T08:47:01.000Z</time>
      </trkpt>
      <trkpt lat="44.23809" lon="22.5363">
        <ele>36.54</ele>
        <time>2022-06-03T08:47:06.000Z</time>
      </trkpt>
      <trkpt lat="44.23781" lon="22.53618">
        <ele>36.55</ele>
        <time>2022-06-03T08:47:11.000Z</time>
      </trkpt>
      <trkpt lat="44.23752" lon="22.53606">
        <ele>36.8</ele>
        <time>2022-06-03T08:47:16.000Z</time>
      </trkpt>
      <trkpt lat="44.23721" lon="22.53597">
        <ele>36.51</ele>
        <time>2022-06-03T08:47:21.000Z</time>
      </trkpt>
      <trkpt lat="44.23688" lon="22.53583">
        <ele>36.3</ele>
        <time>2022-06-03T08:47:26.000Z</time>
      </trkpt>
      <trkpt lat="44.23656" lon="22.5357">
        <ele>36.99</ele>
        <time>2022-06-03T08:47:31.000Z</time>
      </trkpt>
      <trkpt lat="44.23627" lon="22.53557">
        <ele>36.41</ele>
        <time>2022-06-03T08:47:36.000Z</time>
      </trkpt>
      <trkpt lat="44.23598" lon="22.53541">
        <ele>36.07</ele>
        <time>2022-06-03T08:47:41.000Z</time>
      </trkpt>
      <trkpt lat="44.23568" lon="22.53527">
        <ele>35.4</ele>
        <time>2022-06-03T08:47:46.000Z</time>
      </trkpt>
      <trkpt lat="44.23539" lon="22.53513">
        <ele>34.29</ele>
        <time>2022-06-03T08:47:51.000Z</time>
      </trkpt>
      <trkpt lat="44.23511" lon="22.53499">
        <ele>33.05</ele>
        <time>2022-06-03T08:47:56.000Z</time>
      </trkpt>
      <trkpt lat="44.23482" lon="22.53486">
        <ele>33.44</ele>
        <time>2022-06-03T08:48:01.000Z</time>
      </trkpt>
      <trkpt lat="44.23453" lon="22.53475">
        <ele>32.1</ele>
        <time>2022-06-03T08:48:06.000Z</time>
      </trkpt>
      <trkpt lat="44.23429" lon="22.53462">
        <ele>30.66</ele>
        <time>2022-06-03T08:48:11.000Z</time>
      </trkpt>
      <trkpt lat="44.23402" lon="22.53453">
        <ele>28.84</ele>
        <time>2022-06-03T08:48:16.000Z</time>
      </trkpt>
      <trkpt lat="44.23373" lon="22.53441">
        <ele>28.23</ele>
        <time>2022-06-03T08:48:21.000Z</time>
      </trkpt>
      <trkpt lat="44.23343" lon="22.5343">
        <ele>28.23</ele>
        <time>2022-06-03T08:48:26.000Z</time>
      </trkpt>
      <trkpt lat="44.23315" lon="22.53419">
        <ele>28.23</ele>
        <time>2022-06-03T08:48:31.000Z</time>
      </trkpt>
      <trkpt lat="44.23291" lon="22.53407">
        <ele>27.83</ele>
        <time>2022-06-03T08:48:36.000Z</time>
      </trkpt>
      <trkpt lat="44.23271" lon="22.53396">
        <ele>27.43</ele>
        <time>2022-06-03T08:48:41.000Z</time>
      </trkpt>
      <trkpt lat="44.23253" lon="22.53388">
        <ele>27.2</ele>
        <time>2022-06-03T08:48:46.000Z</time>
      </trkpt>
      <trkpt lat="44.23238" lon="22.53379">
        <ele>26.83</ele>
        <time>2022-06-03T08:48:51.000Z</time>
      </trkpt>
      <trkpt lat="44.23223" lon="22.53374">
        <ele>26.43</ele>
        <time>2022-06-03T08:48:56.000Z</time>
      </trkpt>
      <trkpt lat="44.23208" lon="22.53371">
        <ele>26.03</ele>
        <time>2022-06-03T08:49:01.000Z</time>
      </trkpt>
      <trkpt lat="44.23206" lon="22.53356">
        <ele>26.23</ele>
        <time>2022-06-03T08:49:07.000Z</time>
      </trkpt>
      <trkpt lat="44.23199" lon="22.53348">
        <ele>27.32</ele>
        <time>2022-06-03T08:49:21.000Z</time>
      </trkpt>
      <trkpt lat="44.23187" lon="22.53343">
        <ele>28.21</ele>
        <time>2022-06-03T08:49:26.000Z</time>
      </trkpt>
      <trkpt lat="44.23179" lon="22.53351">
        <ele>30.58</ele>
        <time>2022-06-03T08:50:21.000Z</time>
      </trkpt>
      <trkpt lat="44.23177" lon="22.53367">
        <ele>44.6</ele>
        <time>2022-06-03T08:52:42.000Z</time>
      </trkpt>
      <trkpt lat="44.23186" lon="22.53367">
        <ele>50.68</ele>
        <time>2022-06-03T08:58:20.000Z</time>
      </trkpt>
      <trkpt lat="44.23177" lon="22.53364">
        <ele>48.8</ele>
        <time>2022-06-03T09:01:34.000Z</time>
      </trkpt>
      <trkpt lat="44.23171" lon="22.53355">
        <ele>48.4</ele>
        <time>2022-06-03T09:09:16.000Z</time>
      </trkpt>
      <trkpt lat="44.23169" lon="22.5334">
        <ele>48.33</ele>
        <time>2022-06-03T09:09:24.000Z</time>
      </trkpt>
      <trkpt lat="44.23157" lon="22.53329">
        <ele>48.2</ele>
        <time>2022-06-03T09:09:29.000Z</time>
      </trkpt>
      <trkpt lat="44.23136" lon="22.53326">
        <ele>48.08</ele>
        <time>2022-06-03T09:09:34.000Z</time>
      </trkpt>
      <trkpt lat="44.23117" lon="22.53321">
        <ele>48.17</ele>
        <time>2022-06-03T09:09:39.000Z</time>
      </trkpt>
      <trkpt lat="44.23098" lon="22.53315">
        <ele>48.3</ele>
        <time>2022-06-03T09:09:44.000Z</time>
      </trkpt>
      <trkpt lat="44.23079" lon="22.53308">
        <ele>48.47</ele>
        <time>2022-06-03T09:09:49.000Z</time>
      </trkpt>
      <trkpt lat="44.23061" lon="22.53303">
        <ele>48.33</ele>
        <time>2022-06-03T09:09:54.000Z</time>
      </trkpt>
      <trkpt lat="44.23044" lon="22.53299">
        <ele>48</ele>
        <time>2022-06-03T09:09:59.000Z</time>
      </trkpt>
      <trkpt lat="44.23022" lon="22.53295">
        <ele>47.71</ele>
        <time>2022-06-03T09:10:04.000Z</time>
      </trkpt>
      <trkpt lat="44.22997" lon="22.53291">
        <ele>47.53</ele>
        <time>2022-06-03T09:10:09.000Z</time>
      </trkpt>
      <trkpt lat="44.22975" lon="22.53287">
        <ele>47.67</ele>
        <time>2022-06-03T09:10:14.000Z</time>
      </trkpt>
      <trkpt lat="44.22952" lon="22.53284">
        <ele>47.6</ele>
        <time>2022-06-03T09:10:19.000Z</time>
      </trkpt>
      <trkpt lat="44.22932" lon="22.53274">
        <ele>48.16</ele>
        <time>2022-06-03T09:10:24.000Z</time>
      </trkpt>
      <trkpt lat="44.22913" lon="22.53274">
        <ele>48.57</ele>
        <time>2022-06-03T09:10:29.000Z</time>
      </trkpt>
      <trkpt lat="44.22901" lon="22.53273">
        <ele>48.77</ele>
        <time>2022-06-03T09:10:34.000Z</time>
      </trkpt>
      <trkpt lat="44.22892" lon="22.53273">
        <ele>48.92</ele>
        <time>2022-06-03T09:10:41.000Z</time>
      </trkpt>
      <trkpt lat="44.22882" lon="22.53283">
        <ele>47.11</ele>
        <time>2022-06-03T09:10:46.000Z</time>
      </trkpt>
      <trkpt lat="44.22875" lon="22.53297">
        <ele>46.63</ele>
        <time>2022-06-03T09:10:51.000Z</time>
      </trkpt>
      <trkpt lat="44.22869" lon="22.53309">
        <ele>47.53</ele>
        <time>2022-06-03T09:10:56.000Z</time>
      </trkpt>
      <trkpt lat="44.22862" lon="22.53323">
        <ele>47.69</ele>
        <time>2022-06-03T09:11:01.000Z</time>
      </trkpt>
      <trkpt lat="44.22857" lon="22.53337">
        <ele>47.99</ele>
        <time>2022-06-03T09:11:06.000Z</time>
      </trkpt>
      <trkpt lat="44.2285" lon="22.53351">
        <ele>47.91</ele>
        <time>2022-06-03T09:11:11.000Z</time>
      </trkpt>
      <trkpt lat="44.22837" lon="22.53373">
        <ele>47.37</ele>
        <time>2022-06-03T09:11:16.000Z</time>
      </trkpt>
      <trkpt lat="44.22822" lon="22.53399">
        <ele>45.7</ele>
        <time>2022-06-03T09:11:21.000Z</time>
      </trkpt>
      <trkpt lat="44.22806" lon="22.53426">
        <ele>44.18</ele>
        <time>2022-06-03T09:11:26.000Z</time>
      </trkpt>
      <trkpt lat="44.22786" lon="22.53452">
        <ele>42.97</ele>
        <time>2022-06-03T09:11:31.000Z</time>
      </trkpt>
      <trkpt lat="44.22768" lon="22.5348">
        <ele>42.23</ele>
        <time>2022-06-03T09:11:36.000Z</time>
      </trkpt>
      <trkpt lat="44.22755" lon="22.53506">
        <ele>40.91</ele>
        <time>2022-06-03T09:11:41.000Z</time>
      </trkpt>
      <trkpt lat="44.22741" lon="22.53529">
        <ele>40.46</ele>
        <time>2022-06-03T09:11:46.000Z</time>
      </trkpt>
      <trkpt lat="44.22734" lon="22.53544">
        <ele>40.04</ele>
        <time>2022-06-03T09:11:51.000Z</time>
      </trkpt>
      <trkpt lat="44.22724" lon="22.5356">
        <ele>39.53</ele>
        <time>2022-06-03T09:11:56.000Z</time>
      </trkpt>
      <trkpt lat="44.22713" lon="22.53582">
        <ele>40.21</ele>
        <time>2022-06-03T09:12:01.000Z</time>
      </trkpt>
      <trkpt lat="44.22701" lon="22.53601">
        <ele>40.91</ele>
        <time>2022-06-03T09:12:06.000Z</time>
      </trkpt>
      <trkpt lat="44.22686" lon="22.53622">
        <ele>40.73</ele>
        <time>2022-06-03T09:12:11.000Z</time>
      </trkpt>
      <trkpt lat="44.22674" lon="22.53646">
        <ele>39.14</ele>
        <time>2022-06-03T09:12:16.000Z</time>
      </trkpt>
      <trkpt lat="44.22659" lon="22.53669">
        <ele>37.78</ele>
        <time>2022-06-03T09:12:21.000Z</time>
      </trkpt>
      <trkpt lat="44.22644" lon="22.53691">
        <ele>37.77</ele>
        <time>2022-06-03T09:12:26.000Z</time>
      </trkpt>
      <trkpt lat="44.22632" lon="22.53718">
        <ele>38.02</ele>
        <time>2022-06-03T09:12:31.000Z</time>
      </trkpt>
      <trkpt lat="44.22619" lon="22.53745">
        <ele>37.35</ele>
        <time>2022-06-03T09:12:36.000Z</time>
      </trkpt>
      <trkpt lat="44.22605" lon="22.53771">
        <ele>35.83</ele>
        <time>2022-06-03T09:12:41.000Z</time>
      </trkpt>
      <trkpt lat="44.22594" lon="22.53796">
        <ele>34.67</ele>
        <time>2022-06-03T09:12:46.000Z</time>
      </trkpt>
      <trkpt lat="44.22583" lon="22.53812">
        <ele>33.97</ele>
        <time>2022-06-03T09:12:51.000Z</time>
      </trkpt>
      <trkpt lat="44.22575" lon="22.53821">
        <ele>33.63</ele>
        <time>2022-06-03T09:12:56.000Z</time>
      </trkpt>
      <trkpt lat="44.2257" lon="22.53833">
        <ele>33.26</ele>
        <time>2022-06-03T09:13:01.000Z</time>
      </trkpt>
      <trkpt lat="44.22569" lon="22.53847">
        <ele>32.84</ele>
        <time>2022-06-03T09:13:06.000Z</time>
      </trkpt>
      <trkpt lat="44.2257" lon="22.53861">
        <ele>33.1</ele>
        <time>2022-06-03T09:13:20.000Z</time>
      </trkpt>
      <trkpt lat="44.22571" lon="22.53877">
        <ele>34.62</ele>
        <time>2022-06-03T09:13:25.000Z</time>
      </trkpt>
      <trkpt lat="44.22574" lon="22.53898">
        <ele>35.12</ele>
        <time>2022-06-03T09:13:30.000Z</time>
      </trkpt>
      <trkpt lat="44.22576" lon="22.53917">
        <ele>36.03</ele>
        <time>2022-06-03T09:13:35.000Z</time>
      </trkpt>
      <trkpt lat="44.22576" lon="22.53942">
        <ele>36.16</ele>
        <time>2022-06-03T09:13:40.000Z</time>
      </trkpt>
      <trkpt lat="44.22575" lon="22.53968">
        <ele>38.36</ele>
        <time>2022-06-03T09:13:45.000Z</time>
      </trkpt>
      <trkpt lat="44.22576" lon="22.53991">
        <ele>39.74</ele>
        <time>2022-06-03T09:13:50.000Z</time>
      </trkpt>
      <trkpt lat="44.22577" lon="22.54013">
        <ele>40.46</ele>
        <time>2022-06-03T09:13:55.000Z</time>
      </trkpt>
      <trkpt lat="44.22574" lon="22.54037">
        <ele>41.44</ele>
        <time>2022-06-03T09:14:00.000Z</time>
      </trkpt>
      <trkpt lat="44.22572" lon="22.54065">
        <ele>42.46</ele>
        <time>2022-06-03T09:14:05.000Z</time>
      </trkpt>
      <trkpt lat="44.2257" lon="22.54099">
        <ele>43.56</ele>
        <time>2022-06-03T09:14:10.000Z</time>
      </trkpt>
      <trkpt lat="44.22569" lon="22.54137">
        <ele>45.13</ele>
        <time>2022-06-03T09:14:15.000Z</time>
      </trkpt>
      <trkpt lat="44.2257" lon="22.54171">
        <ele>48.52</ele>
        <time>2022-06-03T09:14:20.000Z</time>
      </trkpt>
      <trkpt lat="44.22568" lon="22.54209">
        <ele>49.47</ele>
        <time>2022-06-03T09:14:25.000Z</time>
      </trkpt>
      <trkpt lat="44.22563" lon="22.5424">
        <ele>48.21</ele>
        <time>2022-06-03T09:14:30.000Z</time>
      </trkpt>
      <trkpt lat="44.22557" lon="22.54269">
        <ele>47.7</ele>
        <time>2022-06-03T09:14:35.000Z</time>
      </trkpt>
      <trkpt lat="44.22553" lon="22.54296">
        <ele>46.82</ele>
        <time>2022-06-03T09:14:40.000Z</time>
      </trkpt>
      <trkpt lat="44.22546" lon="22.5433">
        <ele>46.13</ele>
        <time>2022-06-03T09:14:45.000Z</time>
      </trkpt>
      <trkpt lat="44.22542" lon="22.54365">
        <ele>45.09</ele>
        <time>2022-06-03T09:14:50.000Z</time>
      </trkpt>
      <trkpt lat="44.2254" lon="22.54403">
        <ele>43.65</ele>
        <time>2022-06-03T09:14:55.000Z</time>
      </trkpt>
      <trkpt lat="44.22534" lon="22.54438">
        <ele>41.1</ele>
        <time>2022-06-03T09:15:00.000Z</time>
      </trkpt>
      <trkpt lat="44.22527" lon="22.54472">
        <ele>39.37</ele>
        <time>2022-06-03T09:15:05.000Z</time>
      </trkpt>
      <trkpt lat="44.22518" lon="22.54505">
        <ele>37.61</ele>
        <time>2022-06-03T09:15:10.000Z</time>
      </trkpt>
      <trkpt lat="44.22512" lon="22.54536">
        <ele>36.58</ele>
        <time>2022-06-03T09:15:15.000Z</time>
      </trkpt>
      <trkpt lat="44.22503" lon="22.5457">
        <ele>36.39</ele>
        <time>2022-06-03T09:15:20.000Z</time>
      </trkpt>
      <trkpt lat="44.22489" lon="22.54601">
        <ele>37.93</ele>
        <time>2022-06-03T09:15:25.000Z</time>
      </trkpt>
      <trkpt lat="44.22477" lon="22.54631">
        <ele>38.58</ele>
        <time>2022-06-03T09:15:30.000Z</time>
      </trkpt>
      <trkpt lat="44.22474" lon="22.54664">
        <ele>38.08</ele>
        <time>2022-06-03T09:15:35.000Z</time>
      </trkpt>
      <trkpt lat="44.22481" lon="22.54694">
        <ele>38.39</ele>
        <time>2022-06-03T09:15:40.000Z</time>
      </trkpt>
      <trkpt lat="44.22479" lon="22.54725">
        <ele>38.7</ele>
        <time>2022-06-03T09:15:45.000Z</time>
      </trkpt>
      <trkpt lat="44.22471" lon="22.54753">
        <ele>39.07</ele>
        <time>2022-06-03T09:15:50.000Z</time>
      </trkpt>
      <trkpt lat="44.22462" lon="22.54782">
        <ele>39.57</ele>
        <time>2022-06-03T09:15:55.000Z</time>
      </trkpt>
      <trkpt lat="44.22454" lon="22.54812">
        <ele>39.8</ele>
        <time>2022-06-03T09:16:00.000Z</time>
      </trkpt>
      <trkpt lat="44.22444" lon="22.54844">
        <ele>40.19</ele>
        <time>2022-06-03T09:16:05.000Z</time>
      </trkpt>
      <trkpt lat="44.22435" lon="22.54877">
        <ele>40.34</ele>
        <time>2022-06-03T09:16:10.000Z</time>
      </trkpt>
      <trkpt lat="44.22427" lon="22.54906">
        <ele>39.93</ele>
        <time>2022-06-03T09:16:15.000Z</time>
      </trkpt>
      <trkpt lat="44.22423" lon="22.54923">
        <ele>40.46</ele>
        <time>2022-06-03T09:16:20.000Z</time>
      </trkpt>
      <trkpt lat="44.22422" lon="22.54936">
        <ele>40.12</ele>
        <time>2022-06-03T09:16:25.000Z</time>
      </trkpt>
      <trkpt lat="44.22419" lon="22.54952">
        <ele>40.31</ele>
        <time>2022-06-03T09:16:30.000Z</time>
      </trkpt>
      <trkpt lat="44.22414" lon="22.54975">
        <ele>40.9</ele>
        <time>2022-06-03T09:16:35.000Z</time>
      </trkpt>
      <trkpt lat="44.22407" lon="22.55">
        <ele>40.13</ele>
        <time>2022-06-03T09:16:40.000Z</time>
      </trkpt>
      <trkpt lat="44.224" lon="22.55028">
        <ele>41</ele>
        <time>2022-06-03T09:16:45.000Z</time>
      </trkpt>
      <trkpt lat="44.22393" lon="22.55059">
        <ele>41.59</ele>
        <time>2022-06-03T09:16:50.000Z</time>
      </trkpt>
      <trkpt lat="44.22382" lon="22.5509">
        <ele>41.11</ele>
        <time>2022-06-03T09:16:55.000Z</time>
      </trkpt>
      <trkpt lat="44.22375" lon="22.55122">
        <ele>40.76</ele>
        <time>2022-06-03T09:17:00.000Z</time>
      </trkpt>
      <trkpt lat="44.22367" lon="22.55154">
        <ele>40.36</ele>
        <time>2022-06-03T09:17:05.000Z</time>
      </trkpt>
      <trkpt lat="44.2236" lon="22.55187">
        <ele>39.12</ele>
        <time>2022-06-03T09:17:10.000Z</time>
      </trkpt>
      <trkpt lat="44.2235" lon="22.55218">
        <ele>38.74</ele>
        <time>2022-06-03T09:17:15.000Z</time>
      </trkpt>
      <trkpt lat="44.22344" lon="22.55251">
        <ele>38.62</ele>
        <time>2022-06-03T09:17:20.000Z</time>
      </trkpt>
      <trkpt lat="44.22336" lon="22.55286">
        <ele>38.89</ele>
        <time>2022-06-03T09:17:25.000Z</time>
      </trkpt>
      <trkpt lat="44.22329" lon="22.55319">
        <ele>38.76</ele>
        <time>2022-06-03T09:17:30.000Z</time>
      </trkpt>
      <trkpt lat="44.2232" lon="22.55354">
        <ele>38.69</ele>
        <time>2022-06-03T09:17:35.000Z</time>
      </trkpt>
      <trkpt lat="44.22311" lon="22.55393">
        <ele>40.42</ele>
        <time>2022-06-03T09:17:40.000Z</time>
      </trkpt>
      <trkpt lat="44.22301" lon="22.55433">
        <ele>41.92</ele>
        <time>2022-06-03T09:17:45.000Z</time>
      </trkpt>
      <trkpt lat="44.22294" lon="22.55473">
        <ele>41.76</ele>
        <time>2022-06-03T09:17:50.000Z</time>
      </trkpt>
      <trkpt lat="44.22284" lon="22.5551">
        <ele>40.77</ele>
        <time>2022-06-03T09:17:55.000Z</time>
      </trkpt>
      <trkpt lat="44.22278" lon="22.55527">
        <ele>40.08</ele>
        <time>2022-06-03T09:18:00.000Z</time>
      </trkpt>
      <trkpt lat="44.22276" lon="22.5554">
        <ele>41.11</ele>
        <time>2022-06-03T09:18:09.000Z</time>
      </trkpt>
      <trkpt lat="44.2227" lon="22.55565">
        <ele>40.74</ele>
        <time>2022-06-03T09:18:14.000Z</time>
      </trkpt>
      <trkpt lat="44.22262" lon="22.55594">
        <ele>39.97</ele>
        <time>2022-06-03T09:18:19.000Z</time>
      </trkpt>
      <trkpt lat="44.22253" lon="22.55627">
        <ele>38.49</ele>
        <time>2022-06-03T09:18:24.000Z</time>
      </trkpt>
      <trkpt lat="44.22248" lon="22.55658">
        <ele>38.37</ele>
        <time>2022-06-03T09:18:29.000Z</time>
      </trkpt>
      <trkpt lat="44.22241" lon="22.55691">
        <ele>38.63</ele>
        <time>2022-06-03T09:18:34.000Z</time>
      </trkpt>
      <trkpt lat="44.22233" lon="22.55722">
        <ele>38.54</ele>
        <time>2022-06-03T09:18:39.000Z</time>
      </trkpt>
      <trkpt lat="44.22224" lon="22.55756">
        <ele>37.34</ele>
        <time>2022-06-03T09:18:44.000Z</time>
      </trkpt>
      <trkpt lat="44.22218" lon="22.55784">
        <ele>37.56</ele>
        <time>2022-06-03T09:18:49.000Z</time>
      </trkpt>
      <trkpt lat="44.22213" lon="22.55814">
        <ele>38.54</ele>
        <time>2022-06-03T09:18:54.000Z</time>
      </trkpt>
      <trkpt lat="44.22207" lon="22.55846">
        <ele>39.12</ele>
        <time>2022-06-03T09:18:59.000Z</time>
      </trkpt>
      <trkpt lat="44.222" lon="22.55879">
        <ele>40.12</ele>
        <time>2022-06-03T09:19:04.000Z</time>
      </trkpt>
      <trkpt lat="44.22191" lon="22.5591">
        <ele>37.81</ele>
        <time>2022-06-03T09:19:09.000Z</time>
      </trkpt>
      <trkpt lat="44.22184" lon="22.5594">
        <ele>36.57</ele>
        <time>2022-06-03T09:19:14.000Z</time>
      </trkpt>
      <trkpt lat="44.22177" lon="22.55966">
        <ele>36.98</ele>
        <time>2022-06-03T09:19:19.000Z</time>
      </trkpt>
      <trkpt lat="44.22168" lon="22.55997">
        <ele>38.44</ele>
        <time>2022-06-03T09:19:24.000Z</time>
      </trkpt>
      <trkpt lat="44.22162" lon="22.56027">
        <ele>39.84</ele>
        <time>2022-06-03T09:19:29.000Z</time>
      </trkpt>
      <trkpt lat="44.22156" lon="22.56055">
        <ele>40.14</ele>
        <time>2022-06-03T09:19:34.000Z</time>
      </trkpt>
      <trkpt lat="44.22149" lon="22.56082">
        <ele>39.03</ele>
        <time>2022-06-03T09:19:39.000Z</time>
      </trkpt>
      <trkpt lat="44.22143" lon="22.56109">
        <ele>38.9</ele>
        <time>2022-06-03T09:19:44.000Z</time>
      </trkpt>
      <trkpt lat="44.22138" lon="22.56134">
        <ele>38.8</ele>
        <time>2022-06-03T09:19:49.000Z</time>
      </trkpt>
      <trkpt lat="44.22132" lon="22.56163">
        <ele>38.79</ele>
        <time>2022-06-03T09:19:54.000Z</time>
      </trkpt>
      <trkpt lat="44.22123" lon="22.56192">
        <ele>38.87</ele>
        <time>2022-06-03T09:19:59.000Z</time>
      </trkpt>
      <trkpt lat="44.22115" lon="22.56222">
        <ele>39.17</ele>
        <time>2022-06-03T09:20:04.000Z</time>
      </trkpt>
      <trkpt lat="44.22108" lon="22.56252">
        <ele>38.84</ele>
        <time>2022-06-03T09:20:09.000Z</time>
      </trkpt>
      <trkpt lat="44.22096" lon="22.56282">
        <ele>38.33</ele>
        <time>2022-06-03T09:20:14.000Z</time>
      </trkpt>
      <trkpt lat="44.2209" lon="22.56311">
        <ele>38.09</ele>
        <time>2022-06-03T09:20:19.000Z</time>
      </trkpt>
      <trkpt lat="44.22084" lon="22.56339">
        <ele>36.97</ele>
        <time>2022-06-03T09:20:24.000Z</time>
      </trkpt>
      <trkpt lat="44.22077" lon="22.56367">
        <ele>36.77</ele>
        <time>2022-06-03T09:20:29.000Z</time>
      </trkpt>
      <trkpt lat="44.22071" lon="22.56394">
        <ele>36.35</ele>
        <time>2022-06-03T09:20:34.000Z</time>
      </trkpt>
      <trkpt lat="44.22064" lon="22.56423">
        <ele>36.15</ele>
        <time>2022-06-03T09:20:39.000Z</time>
      </trkpt>
      <trkpt lat="44.22057" lon="22.56451">
        <ele>36.21</ele>
        <time>2022-06-03T09:20:44.000Z</time>
      </trkpt>
      <trkpt lat="44.22051" lon="22.56482">
        <ele>36.37</ele>
        <time>2022-06-03T09:20:49.000Z</time>
      </trkpt>
      <trkpt lat="44.22047" lon="22.56512">
        <ele>35.39</ele>
        <time>2022-06-03T09:20:54.000Z</time>
      </trkpt>
      <trkpt lat="44.2204" lon="22.56541">
        <ele>35.61</ele>
        <time>2022-06-03T09:20:59.000Z</time>
      </trkpt>
      <trkpt lat="44.22033" lon="22.56566">
        <ele>35.3</ele>
        <time>2022-06-03T09:21:04.000Z</time>
      </trkpt>
      <trkpt lat="44.22028" lon="22.56589">
        <ele>36.51</ele>
        <time>2022-06-03T09:21:09.000Z</time>
      </trkpt>
      <trkpt lat="44.22021" lon="22.56608">
        <ele>39.33</ele>
        <time>2022-06-03T09:21:14.000Z</time>
      </trkpt>
      <trkpt lat="44.22018" lon="22.56624">
        <ele>38.27</ele>
        <time>2022-06-03T09:21:19.000Z</time>
      </trkpt>
      <trkpt lat="44.22017" lon="22.56636">
        <ele>39.05</ele>
        <time>2022-06-03T09:21:25.000Z</time>
      </trkpt>
      <trkpt lat="44.22014" lon="22.5665">
        <ele>41.04</ele>
        <time>2022-06-03T09:21:30.000Z</time>
      </trkpt>
      <trkpt lat="44.22011" lon="22.56662">
        <ele>42.15</ele>
        <time>2022-06-03T09:21:35.000Z</time>
      </trkpt>
      <trkpt lat="44.22008" lon="22.56674">
        <ele>42.74</ele>
        <time>2022-06-03T09:21:40.000Z</time>
      </trkpt>
      <trkpt lat="44.22006" lon="22.56687">
        <ele>44.55</ele>
        <time>2022-06-03T09:21:45.000Z</time>
      </trkpt>
      <trkpt lat="44.22002" lon="22.567">
        <ele>46.04</ele>
        <time>2022-06-03T09:21:51.000Z</time>
      </trkpt>
      <trkpt lat="44.21998" lon="22.56713">
        <ele>47.23</ele>
        <time>2022-06-03T09:21:57.000Z</time>
      </trkpt>
      <trkpt lat="44.21994" lon="22.56726">
        <ele>48.33</ele>
        <time>2022-06-03T09:22:03.000Z</time>
      </trkpt>
      <trkpt lat="44.21991" lon="22.5674">
        <ele>49.61</ele>
        <time>2022-06-03T09:22:09.000Z</time>
      </trkpt>
      <trkpt lat="44.21986" lon="22.56752">
        <ele>50.07</ele>
        <time>2022-06-03T09:22:14.000Z</time>
      </trkpt>
      <trkpt lat="44.21982" lon="22.56765">
        <ele>50.27</ele>
        <time>2022-06-03T09:22:20.000Z</time>
      </trkpt>
      <trkpt lat="44.21976" lon="22.56777">
        <ele>50.28</ele>
        <time>2022-06-03T09:22:25.000Z</time>
      </trkpt>
      <trkpt lat="44.2197" lon="22.56789">
        <ele>50.36</ele>
        <time>2022-06-03T09:22:30.000Z</time>
      </trkpt>
      <trkpt lat="44.21966" lon="22.56803">
        <ele>50.38</ele>
        <time>2022-06-03T09:22:36.000Z</time>
      </trkpt>
      <trkpt lat="44.21961" lon="22.56815">
        <ele>50.7</ele>
        <time>2022-06-03T09:22:42.000Z</time>
      </trkpt>
      <trkpt lat="44.21954" lon="22.56824">
        <ele>50.83</ele>
        <time>2022-06-03T09:22:47.000Z</time>
      </trkpt>
      <trkpt lat="44.21948" lon="22.56834">
        <ele>51.61</ele>
        <time>2022-06-03T09:22:52.000Z</time>
      </trkpt>
      <trkpt lat="44.21943" lon="22.56845">
        <ele>52.73</ele>
        <time>2022-06-03T09:22:57.000Z</time>
      </trkpt>
      <trkpt lat="44.21936" lon="22.56855">
        <ele>53.7</ele>
        <time>2022-06-03T09:23:02.000Z</time>
      </trkpt>
      <trkpt lat="44.2193" lon="22.56866">
        <ele>54.3</ele>
        <time>2022-06-03T09:23:07.000Z</time>
      </trkpt>
      <trkpt lat="44.21922" lon="22.56875">
        <ele>55.01</ele>
        <time>2022-06-03T09:23:13.000Z</time>
      </trkpt>
      <trkpt lat="44.21915" lon="22.56884">
        <ele>56.07</ele>
        <time>2022-06-03T09:23:18.000Z</time>
      </trkpt>
      <trkpt lat="44.21908" lon="22.56895">
        <ele>56.49</ele>
        <time>2022-06-03T09:23:23.000Z</time>
      </trkpt>
      <trkpt lat="44.219" lon="22.56905">
        <ele>56.36</ele>
        <time>2022-06-03T09:23:29.000Z</time>
      </trkpt>
      <trkpt lat="44.21893" lon="22.56917">
        <ele>57.66</ele>
        <time>2022-06-03T09:23:34.000Z</time>
      </trkpt>
      <trkpt lat="44.21885" lon="22.56933">
        <ele>58.97</ele>
        <time>2022-06-03T09:23:39.000Z</time>
      </trkpt>
      <trkpt lat="44.21877" lon="22.56948">
        <ele>60.31</ele>
        <time>2022-06-03T09:23:44.000Z</time>
      </trkpt>
      <trkpt lat="44.21867" lon="22.56962">
        <ele>60.13</ele>
        <time>2022-06-03T09:23:49.000Z</time>
      </trkpt>
      <trkpt lat="44.21854" lon="22.56978">
        <ele>60.79</ele>
        <time>2022-06-03T09:23:54.000Z</time>
      </trkpt>
      <trkpt lat="44.21842" lon="22.56996">
        <ele>61.05</ele>
        <time>2022-06-03T09:23:59.000Z</time>
      </trkpt>
      <trkpt lat="44.21829" lon="22.57015">
        <ele>62.12</ele>
        <time>2022-06-03T09:24:04.000Z</time>
      </trkpt>
      <trkpt lat="44.21816" lon="22.57034">
        <ele>62.99</ele>
        <time>2022-06-03T09:24:09.000Z</time>
      </trkpt>
      <trkpt lat="44.21804" lon="22.57054">
        <ele>63.13</ele>
        <time>2022-06-03T09:24:14.000Z</time>
      </trkpt>
      <trkpt lat="44.21791" lon="22.57073">
        <ele>63.51</ele>
        <time>2022-06-03T09:24:19.000Z</time>
      </trkpt>
      <trkpt lat="44.21778" lon="22.57094">
        <ele>64.41</ele>
        <time>2022-06-03T09:24:24.000Z</time>
      </trkpt>
      <trkpt lat="44.21764" lon="22.57116">
        <ele>65.86</ele>
        <time>2022-06-03T09:24:29.000Z</time>
      </trkpt>
      <trkpt lat="44.21749" lon="22.57139">
        <ele>66.59</ele>
        <time>2022-06-03T09:24:34.000Z</time>
      </trkpt>
      <trkpt lat="44.21733" lon="22.57163">
        <ele>66.34</ele>
        <time>2022-06-03T09:24:39.000Z</time>
      </trkpt>
      <trkpt lat="44.21715" lon="22.57189">
        <ele>64.28</ele>
        <time>2022-06-03T09:24:44.000Z</time>
      </trkpt>
      <trkpt lat="44.21697" lon="22.57215">
        <ele>62.16</ele>
        <time>2022-06-03T09:24:49.000Z</time>
      </trkpt>
      <trkpt lat="44.21678" lon="22.57241">
        <ele>61.02</ele>
        <time>2022-06-03T09:24:54.000Z</time>
      </trkpt>
      <trkpt lat="44.21659" lon="22.57268">
        <ele>60.77</ele>
        <time>2022-06-03T09:24:59.000Z</time>
      </trkpt>
      <trkpt lat="44.21641" lon="22.57294">
        <ele>60.52</ele>
        <time>2022-06-03T09:25:04.000Z</time>
      </trkpt>
      <trkpt lat="44.21623" lon="22.57318">
        <ele>61.19</ele>
        <time>2022-06-03T09:25:09.000Z</time>
      </trkpt>
      <trkpt lat="44.21606" lon="22.57343">
        <ele>61.63</ele>
        <time>2022-06-03T09:25:14.000Z</time>
      </trkpt>
      <trkpt lat="44.21588" lon="22.57368">
        <ele>61.88</ele>
        <time>2022-06-03T09:25:19.000Z</time>
      </trkpt>
      <trkpt lat="44.21573" lon="22.57389">
        <ele>62.42</ele>
        <time>2022-06-03T09:25:24.000Z</time>
      </trkpt>
      <trkpt lat="44.21557" lon="22.57414">
        <ele>61.74</ele>
        <time>2022-06-03T09:25:29.000Z</time>
      </trkpt>
      <trkpt lat="44.21541" lon="22.5744">
        <ele>61.16</ele>
        <time>2022-06-03T09:25:34.000Z</time>
      </trkpt>
      <trkpt lat="44.21525" lon="22.57465">
        <ele>60.38</ele>
        <time>2022-06-03T09:25:39.000Z</time>
      </trkpt>
      <trkpt lat="44.21511" lon="22.57489">
        <ele>59.39</ele>
        <time>2022-06-03T09:25:44.000Z</time>
      </trkpt>
      <trkpt lat="44.21496" lon="22.57511">
        <ele>59.17</ele>
        <time>2022-06-03T09:25:49.000Z</time>
      </trkpt>
      <trkpt lat="44.21481" lon="22.57532">
        <ele>57.91</ele>
        <time>2022-06-03T09:25:54.000Z</time>
      </trkpt>
      <trkpt lat="44.21466" lon="22.57556">
        <ele>59.22</ele>
        <time>2022-06-03T09:25:59.000Z</time>
      </trkpt>
      <trkpt lat="44.2145" lon="22.57577">
        <ele>60.02</ele>
        <time>2022-06-03T09:26:04.000Z</time>
      </trkpt>
      <trkpt lat="44.21436" lon="22.57599">
        <ele>60.13</ele>
        <time>2022-06-03T09:26:09.000Z</time>
      </trkpt>
      <trkpt lat="44.2142" lon="22.57621">
        <ele>60.85</ele>
        <time>2022-06-03T09:26:14.000Z</time>
      </trkpt>
      <trkpt lat="44.21406" lon="22.57643">
        <ele>61.09</ele>
        <time>2022-06-03T09:26:19.000Z</time>
      </trkpt>
      <trkpt lat="44.21392" lon="22.57663">
        <ele>61.48</ele>
        <time>2022-06-03T09:26:24.000Z</time>
      </trkpt>
      <trkpt lat="44.21379" lon="22.57684">
        <ele>61.49</ele>
        <time>2022-06-03T09:26:29.000Z</time>
      </trkpt>
      <trkpt lat="44.2137" lon="22.57698">
        <ele>60.86</ele>
        <time>2022-06-03T09:26:34.000Z</time>
      </trkpt>
      <trkpt lat="44.21361" lon="22.57713">
        <ele>61.87</ele>
        <time>2022-06-03T09:26:39.000Z</time>
      </trkpt>
      <trkpt lat="44.21352" lon="22.57729">
        <ele>62.46</ele>
        <time>2022-06-03T09:26:44.000Z</time>
      </trkpt>
      <trkpt lat="44.21341" lon="22.57746">
        <ele>61.88</ele>
        <time>2022-06-03T09:26:49.000Z</time>
      </trkpt>
      <trkpt lat="44.21329" lon="22.57763">
        <ele>60.23</ele>
        <time>2022-06-03T09:26:54.000Z</time>
      </trkpt>
      <trkpt lat="44.21316" lon="22.57778">
        <ele>58.94</ele>
        <time>2022-06-03T09:26:59.000Z</time>
      </trkpt>
      <trkpt lat="44.21303" lon="22.57798">
        <ele>57.45</ele>
        <time>2022-06-03T09:27:04.000Z</time>
      </trkpt>
      <trkpt lat="44.21289" lon="22.5782">
        <ele>56.83</ele>
        <time>2022-06-03T09:27:09.000Z</time>
      </trkpt>
      <trkpt lat="44.21275" lon="22.5784">
        <ele>57.47</ele>
        <time>2022-06-03T09:27:14.000Z</time>
      </trkpt>
      <trkpt lat="44.21262" lon="22.57861">
        <ele>57.2</ele>
        <time>2022-06-03T09:27:19.000Z</time>
      </trkpt>
      <trkpt lat="44.21248" lon="22.5788">
        <ele>57.36</ele>
        <time>2022-06-03T09:27:24.000Z</time>
      </trkpt>
      <trkpt lat="44.21233" lon="22.57903">
        <ele>56.88</ele>
        <time>2022-06-03T09:27:29.000Z</time>
      </trkpt>
      <trkpt lat="44.21216" lon="22.57926">
        <ele>56.7</ele>
        <time>2022-06-03T09:27:34.000Z</time>
      </trkpt>
      <trkpt lat="44.212" lon="22.5795">
        <ele>55.79</ele>
        <time>2022-06-03T09:27:39.000Z</time>
      </trkpt>
      <trkpt lat="44.21185" lon="22.57972">
        <ele>55.09</ele>
        <time>2022-06-03T09:27:44.000Z</time>
      </trkpt>
      <trkpt lat="44.2117" lon="22.57995">
        <ele>54.71</ele>
        <time>2022-06-03T09:27:49.000Z</time>
      </trkpt>
      <trkpt lat="44.21154" lon="22.58019">
        <ele>54.22</ele>
        <time>2022-06-03T09:27:54.000Z</time>
      </trkpt>
      <trkpt lat="44.21137" lon="22.58043">
        <ele>54.96</ele>
        <time>2022-06-03T09:27:59.000Z</time>
      </trkpt>
      <trkpt lat="44.21122" lon="22.58067">
        <ele>55.61</ele>
        <time>2022-06-03T09:28:04.000Z</time>
      </trkpt>
      <trkpt lat="44.21105" lon="22.5809">
        <ele>56.98</ele>
        <time>2022-06-03T09:28:09.000Z</time>
      </trkpt>
      <trkpt lat="44.2109" lon="22.58112">
        <ele>57.29</ele>
        <time>2022-06-03T09:28:14.000Z</time>
      </trkpt>
      <trkpt lat="44.21074" lon="22.58135">
        <ele>58.07</ele>
        <time>2022-06-03T09:28:19.000Z</time>
      </trkpt>
      <trkpt lat="44.21058" lon="22.58158">
        <ele>57.46</ele>
        <time>2022-06-03T09:28:24.000Z</time>
      </trkpt>
      <trkpt lat="44.21042" lon="22.58179">
        <ele>58.31</ele>
        <time>2022-06-03T09:28:29.000Z</time>
      </trkpt>
      <trkpt lat="44.2103" lon="22.582">
        <ele>59.69</ele>
        <time>2022-06-03T09:28:34.000Z</time>
      </trkpt>
      <trkpt lat="44.21018" lon="22.58219">
        <ele>59.2</ele>
        <time>2022-06-03T09:28:39.000Z</time>
      </trkpt>
      <trkpt lat="44.21006" lon="22.58237">
        <ele>59.26</ele>
        <time>2022-06-03T09:28:44.000Z</time>
      </trkpt>
      <trkpt lat="44.20993" lon="22.58251">
        <ele>60.03</ele>
        <time>2022-06-03T09:28:49.000Z</time>
      </trkpt>
      <trkpt lat="44.20978" lon="22.5827">
        <ele>58.31</ele>
        <time>2022-06-03T09:28:54.000Z</time>
      </trkpt>
      <trkpt lat="44.20965" lon="22.58293">
        <ele>55.99</ele>
        <time>2022-06-03T09:28:59.000Z</time>
      </trkpt>
      <trkpt lat="44.20951" lon="22.58314">
        <ele>55.43</ele>
        <time>2022-06-03T09:29:04.000Z</time>
      </trkpt>
      <trkpt lat="44.20937" lon="22.58333">
        <ele>54.83</ele>
        <time>2022-06-03T09:29:09.000Z</time>
      </trkpt>
      <trkpt lat="44.20924" lon="22.58354">
        <ele>54.97</ele>
        <time>2022-06-03T09:29:14.000Z</time>
      </trkpt>
      <trkpt lat="44.20912" lon="22.58372">
        <ele>54.93</ele>
        <time>2022-06-03T09:29:19.000Z</time>
      </trkpt>
      <trkpt lat="44.20898" lon="22.58393">
        <ele>54.32</ele>
        <time>2022-06-03T09:29:24.000Z</time>
      </trkpt>
      <trkpt lat="44.20882" lon="22.58415">
        <ele>55.04</ele>
        <time>2022-06-03T09:29:29.000Z</time>
      </trkpt>
      <trkpt lat="44.20867" lon="22.58437">
        <ele>55.3</ele>
        <time>2022-06-03T09:29:34.000Z</time>
      </trkpt>
      <trkpt lat="44.20856" lon="22.58454">
        <ele>56.61</ele>
        <time>2022-06-03T09:29:39.000Z</time>
      </trkpt>
      <trkpt lat="44.20843" lon="22.5847">
        <ele>57.73</ele>
        <time>2022-06-03T09:29:44.000Z</time>
      </trkpt>
      <trkpt lat="44.20827" lon="22.58484">
        <ele>59.13</ele>
        <time>2022-06-03T09:29:49.000Z</time>
      </trkpt>
      <trkpt lat="44.20811" lon="22.58491">
        <ele>61.37</ele>
        <time>2022-06-03T09:29:54.000Z</time>
      </trkpt>
      <trkpt lat="44.20797" lon="22.58494">
        <ele>63.2</ele>
        <time>2022-06-03T09:29:59.000Z</time>
      </trkpt>
      <trkpt lat="44.20781" lon="22.58499">
        <ele>64.63</ele>
        <time>2022-06-03T09:30:04.000Z</time>
      </trkpt>
      <trkpt lat="44.20768" lon="22.58503">
        <ele>66.34</ele>
        <time>2022-06-03T09:30:09.000Z</time>
      </trkpt>
      <trkpt lat="44.20756" lon="22.58507">
        <ele>67.5</ele>
        <time>2022-06-03T09:30:14.000Z</time>
      </trkpt>
      <trkpt lat="44.20746" lon="22.58511">
        <ele>69.15</ele>
        <time>2022-06-03T09:30:19.000Z</time>
      </trkpt>
      <trkpt lat="44.20731" lon="22.58515">
        <ele>63.98</ele>
        <time>2022-06-03T09:30:53.000Z</time>
      </trkpt>
      <trkpt lat="44.2072" lon="22.58517">
        <ele>59.38</ele>
        <time>2022-06-03T09:31:46.000Z</time>
      </trkpt>
      <trkpt lat="44.20703" lon="22.58522">
        <ele>59.03</ele>
        <time>2022-06-03T09:31:51.000Z</time>
      </trkpt>
      <trkpt lat="44.20685" lon="22.58527">
        <ele>58.71</ele>
        <time>2022-06-03T09:31:56.000Z</time>
      </trkpt>
      <trkpt lat="44.20665" lon="22.58535">
        <ele>59.14</ele>
        <time>2022-06-03T09:32:01.000Z</time>
      </trkpt>
      <trkpt lat="44.20646" lon="22.58539">
        <ele>58.9</ele>
        <time>2022-06-03T09:32:06.000Z</time>
      </trkpt>
      <trkpt lat="44.20626" lon="22.58544">
        <ele>60.15</ele>
        <time>2022-06-03T09:32:11.000Z</time>
      </trkpt>
      <trkpt lat="44.20607" lon="22.58548">
        <ele>59.94</ele>
        <time>2022-06-03T09:32:16.000Z</time>
      </trkpt>
      <trkpt lat="44.20589" lon="22.58554">
        <ele>60.32</ele>
        <time>2022-06-03T09:32:21.000Z</time>
      </trkpt>
      <trkpt lat="44.20569" lon="22.58559">
        <ele>60.31</ele>
        <time>2022-06-03T09:32:26.000Z</time>
      </trkpt>
      <trkpt lat="44.20547" lon="22.58565">
        <ele>61.82</ele>
        <time>2022-06-03T09:32:31.000Z</time>
      </trkpt>
      <trkpt lat="44.20524" lon="22.58573">
        <ele>62</ele>
        <time>2022-06-03T09:32:36.000Z</time>
      </trkpt>
      <trkpt lat="44.20502" lon="22.5858">
        <ele>62.06</ele>
        <time>2022-06-03T09:32:41.000Z</time>
      </trkpt>
      <trkpt lat="44.20481" lon="22.58584">
        <ele>61.67</ele>
        <time>2022-06-03T09:32:46.000Z</time>
      </trkpt>
      <trkpt lat="44.20457" lon="22.5859">
        <ele>59.7</ele>
        <time>2022-06-03T09:32:51.000Z</time>
      </trkpt>
      <trkpt lat="44.20429" lon="22.58598">
        <ele>58.96</ele>
        <time>2022-06-03T09:32:56.000Z</time>
      </trkpt>
      <trkpt lat="44.20402" lon="22.58607">
        <ele>58.83</ele>
        <time>2022-06-03T09:33:01.000Z</time>
      </trkpt>
      <trkpt lat="44.20374" lon="22.58616">
        <ele>57.53</ele>
        <time>2022-06-03T09:33:06.000Z</time>
      </trkpt>
      <trkpt lat="44.20348" lon="22.58624">
        <ele>56.7</ele>
        <time>2022-06-03T09:33:11.000Z</time>
      </trkpt>
      <trkpt lat="44.20323" lon="22.5863">
        <ele>56.24</ele>
        <time>2022-06-03T09:33:16.000Z</time>
      </trkpt>
      <trkpt lat="44.20301" lon="22.58636">
        <ele>56.31</ele>
        <time>2022-06-03T09:33:21.000Z</time>
      </trkpt>
      <trkpt lat="44.2028" lon="22.58641">
        <ele>56.3</ele>
        <time>2022-06-03T09:33:26.000Z</time>
      </trkpt>
      <trkpt lat="44.20261" lon="22.58646">
        <ele>56.27</ele>
        <time>2022-06-03T09:33:31.000Z</time>
      </trkpt>
      <trkpt lat="44.20239" lon="22.58649">
        <ele>55.96</ele>
        <time>2022-06-03T09:33:36.000Z</time>
      </trkpt>
      <trkpt lat="44.20216" lon="22.58655">
        <ele>55.37</ele>
        <time>2022-06-03T09:33:41.000Z</time>
      </trkpt>
      <trkpt lat="44.20192" lon="22.58661">
        <ele>55.03</ele>
        <time>2022-06-03T09:33:46.000Z</time>
      </trkpt>
      <trkpt lat="44.20166" lon="22.58668">
        <ele>55.21</ele>
        <time>2022-06-03T09:33:51.000Z</time>
      </trkpt>
      <trkpt lat="44.20141" lon="22.58674">
        <ele>53.7</ele>
        <time>2022-06-03T09:33:56.000Z</time>
      </trkpt>
      <trkpt lat="44.20116" lon="22.5868">
        <ele>52.26</ele>
        <time>2022-06-03T09:34:01.000Z</time>
      </trkpt>
      <trkpt lat="44.2009" lon="22.58687">
        <ele>51.74</ele>
        <time>2022-06-03T09:34:06.000Z</time>
      </trkpt>
      <trkpt lat="44.20064" lon="22.58697">
        <ele>50.89</ele>
        <time>2022-06-03T09:34:11.000Z</time>
      </trkpt>
      <trkpt lat="44.20036" lon="22.58705">
        <ele>50.45</ele>
        <time>2022-06-03T09:34:16.000Z</time>
      </trkpt>
      <trkpt lat="44.20008" lon="22.58709">
        <ele>51.18</ele>
        <time>2022-06-03T09:34:21.000Z</time>
      </trkpt>
      <trkpt lat="44.19982" lon="22.5871">
        <ele>50.53</ele>
        <time>2022-06-03T09:34:26.000Z</time>
      </trkpt>
      <trkpt lat="44.19957" lon="22.58709">
        <ele>50.45</ele>
        <time>2022-06-03T09:34:31.000Z</time>
      </trkpt>
      <trkpt lat="44.19933" lon="22.58715">
        <ele>50.95</ele>
        <time>2022-06-03T09:34:36.000Z</time>
      </trkpt>
      <trkpt lat="44.19909" lon="22.58729">
        <ele>50.67</ele>
        <time>2022-06-03T09:34:41.000Z</time>
      </trkpt>
      <trkpt lat="44.19888" lon="22.58745">
        <ele>51.1</ele>
        <time>2022-06-03T09:34:46.000Z</time>
      </trkpt>
      <trkpt lat="44.19867" lon="22.58764">
        <ele>50.68</ele>
        <time>2022-06-03T09:34:51.000Z</time>
      </trkpt>
      <trkpt lat="44.19848" lon="22.58782">
        <ele>49.76</ele>
        <time>2022-06-03T09:34:56.000Z</time>
      </trkpt>
      <trkpt lat="44.1983" lon="22.58801">
        <ele>49.12</ele>
        <time>2022-06-03T09:35:01.000Z</time>
      </trkpt>
      <trkpt lat="44.1981" lon="22.58822">
        <ele>48.99</ele>
        <time>2022-06-03T09:35:06.000Z</time>
      </trkpt>
      <trkpt lat="44.19792" lon="22.58845">
        <ele>50.22</ele>
        <time>2022-06-03T09:35:11.000Z</time>
      </trkpt>
      <trkpt lat="44.19774" lon="22.58866">
        <ele>48.95</ele>
        <time>2022-06-03T09:35:16.000Z</time>
      </trkpt>
      <trkpt lat="44.19755" lon="22.58889">
        <ele>48.71</ele>
        <time>2022-06-03T09:35:21.000Z</time>
      </trkpt>
      <trkpt lat="44.19735" lon="22.58902">
        <ele>49.5</ele>
        <time>2022-06-03T09:35:26.000Z</time>
      </trkpt>
      <trkpt lat="44.19715" lon="22.58918">
        <ele>49.55</ele>
        <time>2022-06-03T09:35:31.000Z</time>
      </trkpt>
      <trkpt lat="44.19699" lon="22.58936">
        <ele>50.26</ele>
        <time>2022-06-03T09:35:36.000Z</time>
      </trkpt>
      <trkpt lat="44.19679" lon="22.58952">
        <ele>51.42</ele>
        <time>2022-06-03T09:35:41.000Z</time>
      </trkpt>
      <trkpt lat="44.19662" lon="22.58968">
        <ele>51.97</ele>
        <time>2022-06-03T09:35:46.000Z</time>
      </trkpt>
      <trkpt lat="44.19644" lon="22.58985">
        <ele>52.64</ele>
        <time>2022-06-03T09:35:51.000Z</time>
      </trkpt>
      <trkpt lat="44.19627" lon="22.58999">
        <ele>53.22</ele>
        <time>2022-06-03T09:35:56.000Z</time>
      </trkpt>
      <trkpt lat="44.19607" lon="22.59011">
        <ele>53.3</ele>
        <time>2022-06-03T09:36:01.000Z</time>
      </trkpt>
      <trkpt lat="44.19588" lon="22.59026">
        <ele>53.18</ele>
        <time>2022-06-03T09:36:06.000Z</time>
      </trkpt>
      <trkpt lat="44.19572" lon="22.5904">
        <ele>54.16</ele>
        <time>2022-06-03T09:36:11.000Z</time>
      </trkpt>
      <trkpt lat="44.19557" lon="22.59059">
        <ele>53.58</ele>
        <time>2022-06-03T09:36:16.000Z</time>
      </trkpt>
      <trkpt lat="44.19544" lon="22.59082">
        <ele>53.12</ele>
        <time>2022-06-03T09:36:21.000Z</time>
      </trkpt>
      <trkpt lat="44.19535" lon="22.59106">
        <ele>51.75</ele>
        <time>2022-06-03T09:36:26.000Z</time>
      </trkpt>
      <trkpt lat="44.19524" lon="22.59129">
        <ele>51.11</ele>
        <time>2022-06-03T09:36:31.000Z</time>
      </trkpt>
      <trkpt lat="44.19514" lon="22.59151">
        <ele>51.03</ele>
        <time>2022-06-03T09:36:36.000Z</time>
      </trkpt>
      <trkpt lat="44.19503" lon="22.59176">
        <ele>50.24</ele>
        <time>2022-06-03T09:36:41.000Z</time>
      </trkpt>
      <trkpt lat="44.19493" lon="22.592">
        <ele>49.37</ele>
        <time>2022-06-03T09:36:46.000Z</time>
      </trkpt>
      <trkpt lat="44.19484" lon="22.59224">
        <ele>48.68</ele>
        <time>2022-06-03T09:36:51.000Z</time>
      </trkpt>
      <trkpt lat="44.19474" lon="22.59249">
        <ele>48.62</ele>
        <time>2022-06-03T09:36:56.000Z</time>
      </trkpt>
      <trkpt lat="44.19463" lon="22.59272">
        <ele>48.05</ele>
        <time>2022-06-03T09:37:01.000Z</time>
      </trkpt>
      <trkpt lat="44.19449" lon="22.59297">
        <ele>47.43</ele>
        <time>2022-06-03T09:37:06.000Z</time>
      </trkpt>
      <trkpt lat="44.19434" lon="22.59321">
        <ele>47.03</ele>
        <time>2022-06-03T09:37:11.000Z</time>
      </trkpt>
      <trkpt lat="44.19424" lon="22.59341">
        <ele>46.49</ele>
        <time>2022-06-03T09:37:16.000Z</time>
      </trkpt>
      <trkpt lat="44.19414" lon="22.59361">
        <ele>46.08</ele>
        <time>2022-06-03T09:37:21.000Z</time>
      </trkpt>
      <trkpt lat="44.19403" lon="22.59383">
        <ele>45.87</ele>
        <time>2022-06-03T09:37:26.000Z</time>
      </trkpt>
      <trkpt lat="44.19393" lon="22.59403">
        <ele>45.58</ele>
        <time>2022-06-03T09:37:31.000Z</time>
      </trkpt>
      <trkpt lat="44.19382" lon="22.59424">
        <ele>45.23</ele>
        <time>2022-06-03T09:37:36.000Z</time>
      </trkpt>
      <trkpt lat="44.19375" lon="22.59451">
        <ele>45.37</ele>
        <time>2022-06-03T09:37:41.000Z</time>
      </trkpt>
      <trkpt lat="44.1937" lon="22.59464">
        <ele>48.52</ele>
        <time>2022-06-03T09:39:56.000Z</time>
      </trkpt>
      <trkpt lat="44.19359" lon="22.59472">
        <ele>50.09</ele>
        <time>2022-06-03T09:40:01.000Z</time>
      </trkpt>
      <trkpt lat="44.19346" lon="22.59483">
        <ele>50.02</ele>
        <time>2022-06-03T09:40:06.000Z</time>
      </trkpt>
      <trkpt lat="44.19335" lon="22.59491">
        <ele>50.02</ele>
        <time>2022-06-03T09:40:11.000Z</time>
      </trkpt>
      <trkpt lat="44.19323" lon="22.59494">
        <ele>50.25</ele>
        <time>2022-06-03T09:40:16.000Z</time>
      </trkpt>
      <trkpt lat="44.19309" lon="22.59489">
        <ele>51.08</ele>
        <time>2022-06-03T09:40:21.000Z</time>
      </trkpt>
      <trkpt lat="44.19293" lon="22.59483">
        <ele>50.97</ele>
        <time>2022-06-03T09:40:26.000Z</time>
      </trkpt>
      <trkpt lat="44.19277" lon="22.59473">
        <ele>51.2</ele>
        <time>2022-06-03T09:40:31.000Z</time>
      </trkpt>
      <trkpt lat="44.19261" lon="22.59472">
        <ele>51.44</ele>
        <time>2022-06-03T09:40:36.000Z</time>
      </trkpt>
      <trkpt lat="44.19248" lon="22.59473">
        <ele>51.66</ele>
        <time>2022-06-03T09:40:41.000Z</time>
      </trkpt>
      <trkpt lat="44.19231" lon="22.59473">
        <ele>51.97</ele>
        <time>2022-06-03T09:40:46.000Z</time>
      </trkpt>
      <trkpt lat="44.19211" lon="22.5947">
        <ele>52.46</ele>
        <time>2022-06-03T09:40:51.000Z</time>
      </trkpt>
      <trkpt lat="44.19182" lon="22.59451">
        <ele>52.72</ele>
        <time>2022-06-03T09:40:56.000Z</time>
      </trkpt>
      <trkpt lat="44.1914" lon="22.59439">
        <ele>51.76</ele>
        <time>2022-06-03T09:41:01.000Z</time>
      </trkpt>
      <trkpt lat="44.19102" lon="22.59462">
        <ele>51.3</ele>
        <time>2022-06-03T09:41:06.000Z</time>
      </trkpt>
      <trkpt lat="44.1907" lon="22.59484">
        <ele>49.67</ele>
        <time>2022-06-03T09:41:11.000Z</time>
      </trkpt>
      <trkpt lat="44.19035" lon="22.59501">
        <ele>49.04</ele>
        <time>2022-06-03T09:41:16.000Z</time>
      </trkpt>
      <trkpt lat="44.19004" lon="22.59511">
        <ele>47.28</ele>
        <time>2022-06-03T09:41:21.000Z</time>
      </trkpt>
      <trkpt lat="44.18977" lon="22.59517">
        <ele>46.76</ele>
        <time>2022-06-03T09:41:26.000Z</time>
      </trkpt>
      <trkpt lat="44.18955" lon="22.59521">
        <ele>46.94</ele>
        <time>2022-06-03T09:41:31.000Z</time>
      </trkpt>
      <trkpt lat="44.18937" lon="22.5952">
        <ele>47.31</ele>
        <time>2022-06-03T09:41:36.000Z</time>
      </trkpt>
      <trkpt lat="44.18916" lon="22.59516">
        <ele>46.64</ele>
        <time>2022-06-03T09:41:41.000Z</time>
      </trkpt>
      <trkpt lat="44.18895" lon="22.59511">
        <ele>46.86</ele>
        <time>2022-06-03T09:41:46.000Z</time>
      </trkpt>
      <trkpt lat="44.18877" lon="22.59508">
        <ele>47.13</ele>
        <time>2022-06-03T09:41:51.000Z</time>
      </trkpt>
      <trkpt lat="44.18859" lon="22.59505">
        <ele>48.27</ele>
        <time>2022-06-03T09:41:56.000Z</time>
      </trkpt>
      <trkpt lat="44.18841" lon="22.59505">
        <ele>49.09</ele>
        <time>2022-06-03T09:42:01.000Z</time>
      </trkpt>
      <trkpt lat="44.18823" lon="22.59507">
        <ele>49.39</ele>
        <time>2022-06-03T09:42:06.000Z</time>
      </trkpt>
      <trkpt lat="44.18809" lon="22.59507">
        <ele>49.18</ele>
        <time>2022-06-03T09:42:11.000Z</time>
      </trkpt>
      <trkpt lat="44.18798" lon="22.59502">
        <ele>48</ele>
        <time>2022-06-03T09:42:16.000Z</time>
      </trkpt>
      <trkpt lat="44.18789" lon="22.59509">
        <ele>45.2</ele>
        <time>2022-06-03T09:42:33.000Z</time>
      </trkpt>
      <trkpt lat="44.18798" lon="22.59508">
        <ele>44.9</ele>
        <time>2022-06-03T09:42:55.000Z</time>
      </trkpt>
      <trkpt lat="44.18789" lon="22.59508">
        <ele>44.13</ele>
        <time>2022-06-03T09:43:23.000Z</time>
      </trkpt>
      <trkpt lat="44.18788" lon="22.59494">
        <ele>37.67</ele>
        <time>2022-06-03T09:46:43.000Z</time>
      </trkpt>
      <trkpt lat="44.18775" lon="22.59487">
        <ele>38.07</ele>
        <time>2022-06-03T09:46:48.000Z</time>
      </trkpt>
      <trkpt lat="44.18757" lon="22.59488">
        <ele>38.35</ele>
        <time>2022-06-03T09:46:53.000Z</time>
      </trkpt>
      <trkpt lat="44.18737" lon="22.5949">
        <ele>39.07</ele>
        <time>2022-06-03T09:46:58.000Z</time>
      </trkpt>
      <trkpt lat="44.18717" lon="22.59489">
        <ele>39.24</ele>
        <time>2022-06-03T09:47:03.000Z</time>
      </trkpt>
      <trkpt lat="44.18695" lon="22.59487">
        <ele>39.05</ele>
        <time>2022-06-03T09:47:08.000Z</time>
      </trkpt>
      <trkpt lat="44.18672" lon="22.59485">
        <ele>39.59</ele>
        <time>2022-06-03T09:47:13.000Z</time>
      </trkpt>
      <trkpt lat="44.18648" lon="22.59483">
        <ele>41.62</ele>
        <time>2022-06-03T09:47:18.000Z</time>
      </trkpt>
      <trkpt lat="44.18625" lon="22.59481">
        <ele>42.27</ele>
        <time>2022-06-03T09:47:23.000Z</time>
      </trkpt>
      <trkpt lat="44.18603" lon="22.59479">
        <ele>43.21</ele>
        <time>2022-06-03T09:47:28.000Z</time>
      </trkpt>
      <trkpt lat="44.1858" lon="22.59476">
        <ele>43.32</ele>
        <time>2022-06-03T09:47:33.000Z</time>
      </trkpt>
      <trkpt lat="44.18555" lon="22.59473">
        <ele>42.71</ele>
        <time>2022-06-03T09:47:38.000Z</time>
      </trkpt>
      <trkpt lat="44.18532" lon="22.59469">
        <ele>42.91</ele>
        <time>2022-06-03T09:47:43.000Z</time>
      </trkpt>
      <trkpt lat="44.18512" lon="22.59465">
        <ele>42.78</ele>
        <time>2022-06-03T09:47:48.000Z</time>
      </trkpt>
      <trkpt lat="44.18491" lon="22.59463">
        <ele>42.83</ele>
        <time>2022-06-03T09:47:53.000Z</time>
      </trkpt>
      <trkpt lat="44.18469" lon="22.59457">
        <ele>43.36</ele>
        <time>2022-06-03T09:47:58.000Z</time>
      </trkpt>
      <trkpt lat="44.18448" lon="22.59455">
        <ele>44.53</ele>
        <time>2022-06-03T09:48:03.000Z</time>
      </trkpt>
      <trkpt lat="44.18426" lon="22.59451">
        <ele>44.28</ele>
        <time>2022-06-03T09:48:08.000Z</time>
      </trkpt>
      <trkpt lat="44.18404" lon="22.59448">
        <ele>44.11</ele>
        <time>2022-06-03T09:48:13.000Z</time>
      </trkpt>
      <trkpt lat="44.18381" lon="22.59446">
        <ele>44.41</ele>
        <time>2022-06-03T09:48:18.000Z</time>
      </trkpt>
      <trkpt lat="44.18357" lon="22.59443">
        <ele>43.31</ele>
        <time>2022-06-03T09:48:23.000Z</time>
      </trkpt>
      <trkpt lat="44.18332" lon="22.59438">
        <ele>42.19</ele>
        <time>2022-06-03T09:48:28.000Z</time>
      </trkpt>
      <trkpt lat="44.18307" lon="22.59437">
        <ele>41.91</ele>
        <time>2022-06-03T09:48:33.000Z</time>
      </trkpt>
      <trkpt lat="44.18281" lon="22.59434">
        <ele>43.21</ele>
        <time>2022-06-03T09:48:38.000Z</time>
      </trkpt>
      <trkpt lat="44.18256" lon="22.5943">
        <ele>43.01</ele>
        <time>2022-06-03T09:48:43.000Z</time>
      </trkpt>
      <trkpt lat="44.18231" lon="22.59428">
        <ele>42.03</ele>
        <time>2022-06-03T09:48:48.000Z</time>
      </trkpt>
      <trkpt lat="44.18205" lon="22.59424">
        <ele>42.04</ele>
        <time>2022-06-03T09:48:53.000Z</time>
      </trkpt>
      <trkpt lat="44.18179" lon="22.59418">
        <ele>41.28</ele>
        <time>2022-06-03T09:48:58.000Z</time>
      </trkpt>
      <trkpt lat="44.18154" lon="22.59414">
        <ele>40.49</ele>
        <time>2022-06-03T09:49:03.000Z</time>
      </trkpt>
      <trkpt lat="44.18128" lon="22.59409">
        <ele>40.74</ele>
        <time>2022-06-03T09:49:08.000Z</time>
      </trkpt>
      <trkpt lat="44.181" lon="22.59405">
        <ele>42.46</ele>
        <time>2022-06-03T09:49:13.000Z</time>
      </trkpt>
      <trkpt lat="44.18074" lon="22.59399">
        <ele>43.56</ele>
        <time>2022-06-03T09:49:18.000Z</time>
      </trkpt>
      <trkpt lat="44.18047" lon="22.59392">
        <ele>44</ele>
        <time>2022-06-03T09:49:23.000Z</time>
      </trkpt>
      <trkpt lat="44.18021" lon="22.59386">
        <ele>44.35</ele>
        <time>2022-06-03T09:49:28.000Z</time>
      </trkpt>
      <trkpt lat="44.17991" lon="22.59379">
        <ele>43.82</ele>
        <time>2022-06-03T09:49:33.000Z</time>
      </trkpt>
      <trkpt lat="44.17962" lon="22.59372">
        <ele>43.1</ele>
        <time>2022-06-03T09:49:38.000Z</time>
      </trkpt>
      <trkpt lat="44.17932" lon="22.59363">
        <ele>43.23</ele>
        <time>2022-06-03T09:49:43.000Z</time>
      </trkpt>
      <trkpt lat="44.17903" lon="22.59354">
        <ele>42.88</ele>
        <time>2022-06-03T09:49:48.000Z</time>
      </trkpt>
      <trkpt lat="44.17873" lon="22.59347">
        <ele>41.41</ele>
        <time>2022-06-03T09:49:53.000Z</time>
      </trkpt>
      <trkpt lat="44.17845" lon="22.59339">
        <ele>40.96</ele>
        <time>2022-06-03T09:49:58.000Z</time>
      </trkpt>
      <trkpt lat="44.17821" lon="22.59333">
        <ele>39.83</ele>
        <time>2022-06-03T09:50:03.000Z</time>
      </trkpt>
      <trkpt lat="44.17796" lon="22.5933">
        <ele>40.22</ele>
        <time>2022-06-03T09:50:08.000Z</time>
      </trkpt>
      <trkpt lat="44.17772" lon="22.59324">
        <ele>42.3</ele>
        <time>2022-06-03T09:50:13.000Z</time>
      </trkpt>
      <trkpt lat="44.17749" lon="22.59317">
        <ele>42.99</ele>
        <time>2022-06-03T09:50:18.000Z</time>
      </trkpt>
      <trkpt lat="44.17724" lon="22.5931">
        <ele>44.15</ele>
        <time>2022-06-03T09:50:23.000Z</time>
      </trkpt>
      <trkpt lat="44.17699" lon="22.59301">
        <ele>44.65</ele>
        <time>2022-06-03T09:50:28.000Z</time>
      </trkpt>
      <trkpt lat="44.17676" lon="22.59294">
        <ele>44.56</ele>
        <time>2022-06-03T09:50:33.000Z</time>
      </trkpt>
      <trkpt lat="44.17652" lon="22.59286">
        <ele>44.47</ele>
        <time>2022-06-03T09:50:38.000Z</time>
      </trkpt>
      <trkpt lat="44.17629" lon="22.59277">
        <ele>44.16</ele>
        <time>2022-06-03T09:50:43.000Z</time>
      </trkpt>
      <trkpt lat="44.17606" lon="22.59267">
        <ele>43.34</ele>
        <time>2022-06-03T09:50:48.000Z</time>
      </trkpt>
      <trkpt lat="44.17583" lon="22.59256">
        <ele>43.93</ele>
        <time>2022-06-03T09:50:53.000Z</time>
      </trkpt>
      <trkpt lat="44.17558" lon="22.5925">
        <ele>44.87</ele>
        <time>2022-06-03T09:50:58.000Z</time>
      </trkpt>
      <trkpt lat="44.17534" lon="22.5924">
        <ele>44.64</ele>
        <time>2022-06-03T09:51:03.000Z</time>
      </trkpt>
      <trkpt lat="44.17509" lon="22.59232">
        <ele>44.44</ele>
        <time>2022-06-03T09:51:08.000Z</time>
      </trkpt>
      <trkpt lat="44.17483" lon="22.59222">
        <ele>44.52</ele>
        <time>2022-06-03T09:51:13.000Z</time>
      </trkpt>
      <trkpt lat="44.17457" lon="22.59212">
        <ele>44.4</ele>
        <time>2022-06-03T09:51:18.000Z</time>
      </trkpt>
      <trkpt lat="44.1743" lon="22.592">
        <ele>44.4</ele>
        <time>2022-06-03T09:51:23.000Z</time>
      </trkpt>
      <trkpt lat="44.17405" lon="22.59187">
        <ele>43.91</ele>
        <time>2022-06-03T09:51:28.000Z</time>
      </trkpt>
      <trkpt lat="44.17379" lon="22.59172">
        <ele>43.51</ele>
        <time>2022-06-03T09:51:33.000Z</time>
      </trkpt>
      <trkpt lat="44.17353" lon="22.59156">
        <ele>42.96</ele>
        <time>2022-06-03T09:51:38.000Z</time>
      </trkpt>
      <trkpt lat="44.17327" lon="22.5914">
        <ele>41.37</ele>
        <time>2022-06-03T09:51:43.000Z</time>
      </trkpt>
      <trkpt lat="44.173" lon="22.59125">
        <ele>40.28</ele>
        <time>2022-06-03T09:51:48.000Z</time>
      </trkpt>
      <trkpt lat="44.17273" lon="22.59108">
        <ele>41.49</ele>
        <time>2022-06-03T09:51:53.000Z</time>
      </trkpt>
      <trkpt lat="44.17245" lon="22.59095">
        <ele>40.95</ele>
        <time>2022-06-03T09:51:58.000Z</time>
      </trkpt>
      <trkpt lat="44.17218" lon="22.59079">
        <ele>42.21</ele>
        <time>2022-06-03T09:52:03.000Z</time>
      </trkpt>
      <trkpt lat="44.17189" lon="22.59064">
        <ele>43.83</ele>
        <time>2022-06-03T09:52:08.000Z</time>
      </trkpt>
      <trkpt lat="44.1716" lon="22.59047">
        <ele>45</ele>
        <time>2022-06-03T09:52:13.000Z</time>
      </trkpt>
      <trkpt lat="44.17131" lon="22.59033">
        <ele>46.67</ele>
        <time>2022-06-03T09:52:18.000Z</time>
      </trkpt>
      <trkpt lat="44.17105" lon="22.59015">
        <ele>46.33</ele>
        <time>2022-06-03T09:52:23.000Z</time>
      </trkpt>
      <trkpt lat="44.17078" lon="22.58999">
        <ele>45.78</ele>
        <time>2022-06-03T09:52:28.000Z</time>
      </trkpt>
      <trkpt lat="44.1705" lon="22.58986">
        <ele>44.16</ele>
        <time>2022-06-03T09:52:33.000Z</time>
      </trkpt>
      <trkpt lat="44.17025" lon="22.58971">
        <ele>41.62</ele>
        <time>2022-06-03T09:52:38.000Z</time>
      </trkpt>
      <trkpt lat="44.17" lon="22.58956">
        <ele>40.16</ele>
        <time>2022-06-03T09:52:43.000Z</time>
      </trkpt>
      <trkpt lat="44.16976" lon="22.58941">
        <ele>40.27</ele>
        <time>2022-06-03T09:52:48.000Z</time>
      </trkpt>
      <trkpt lat="44.16951" lon="22.58929">
        <ele>40.59</ele>
        <time>2022-06-03T09:52:53.000Z</time>
      </trkpt>
      <trkpt lat="44.16924" lon="22.58916">
        <ele>39.77</ele>
        <time>2022-06-03T09:52:58.000Z</time>
      </trkpt>
      <trkpt lat="44.16901" lon="22.58902">
        <ele>40.13</ele>
        <time>2022-06-03T09:53:03.000Z</time>
      </trkpt>
      <trkpt lat="44.16877" lon="22.58889">
        <ele>40.7</ele>
        <time>2022-06-03T09:53:08.000Z</time>
      </trkpt>
      <trkpt lat="44.16853" lon="22.58878">
        <ele>40.77</ele>
        <time>2022-06-03T09:53:13.000Z</time>
      </trkpt>
      <trkpt lat="44.16828" lon="22.58866">
        <ele>41.42</ele>
        <time>2022-06-03T09:53:18.000Z</time>
      </trkpt>
      <trkpt lat="44.16803" lon="22.58857">
        <ele>43.82</ele>
        <time>2022-06-03T09:53:23.000Z</time>
      </trkpt>
      <trkpt lat="44.16779" lon="22.58849">
        <ele>45.9</ele>
        <time>2022-06-03T09:53:28.000Z</time>
      </trkpt>
      <trkpt lat="44.16756" lon="22.58851">
        <ele>47.4</ele>
        <time>2022-06-03T09:53:33.000Z</time>
      </trkpt>
      <trkpt lat="44.16734" lon="22.58859">
        <ele>48.99</ele>
        <time>2022-06-03T09:53:38.000Z</time>
      </trkpt>
      <trkpt lat="44.16715" lon="22.5887">
        <ele>49.57</ele>
        <time>2022-06-03T09:53:43.000Z</time>
      </trkpt>
      <trkpt lat="44.16695" lon="22.58886">
        <ele>50.73</ele>
        <time>2022-06-03T09:53:48.000Z</time>
      </trkpt>
      <trkpt lat="44.16675" lon="22.58901">
        <ele>51.45</ele>
        <time>2022-06-03T09:53:53.000Z</time>
      </trkpt>
      <trkpt lat="44.16654" lon="22.58916">
        <ele>51.14</ele>
        <time>2022-06-03T09:53:58.000Z</time>
      </trkpt>
      <trkpt lat="44.16632" lon="22.58935">
        <ele>51.37</ele>
        <time>2022-06-03T09:54:03.000Z</time>
      </trkpt>
      <trkpt lat="44.16608" lon="22.58955">
        <ele>52.15</ele>
        <time>2022-06-03T09:54:08.000Z</time>
      </trkpt>
      <trkpt lat="44.16586" lon="22.58975">
        <ele>51.36</ele>
        <time>2022-06-03T09:54:13.000Z</time>
      </trkpt>
      <trkpt lat="44.16565" lon="22.59001">
        <ele>51.02</ele>
        <time>2022-06-03T09:54:18.000Z</time>
      </trkpt>
      <trkpt lat="44.16548" lon="22.59028">
        <ele>50.43</ele>
        <time>2022-06-03T09:54:23.000Z</time>
      </trkpt>
      <trkpt lat="44.16533" lon="22.59057">
        <ele>50.52</ele>
        <time>2022-06-03T09:54:28.000Z</time>
      </trkpt>
      <trkpt lat="44.16519" lon="22.59081">
        <ele>50.87</ele>
        <time>2022-06-03T09:54:33.000Z</time>
      </trkpt>
      <trkpt lat="44.16504" lon="22.59109">
        <ele>50.91</ele>
        <time>2022-06-03T09:54:38.000Z</time>
      </trkpt>
      <trkpt lat="44.1649" lon="22.59135">
        <ele>51.2</ele>
        <time>2022-06-03T09:54:43.000Z</time>
      </trkpt>
      <trkpt lat="44.16476" lon="22.59162">
        <ele>50.83</ele>
        <time>2022-06-03T09:54:48.000Z</time>
      </trkpt>
      <trkpt lat="44.16465" lon="22.59187">
        <ele>49.87</ele>
        <time>2022-06-03T09:54:53.000Z</time>
      </trkpt>
      <trkpt lat="44.16453" lon="22.59212">
        <ele>48.78</ele>
        <time>2022-06-03T09:54:58.000Z</time>
      </trkpt>
      <trkpt lat="44.1644" lon="22.59238">
        <ele>47.46</ele>
        <time>2022-06-03T09:55:03.000Z</time>
      </trkpt>
      <trkpt lat="44.16425" lon="22.59265">
        <ele>46.84</ele>
        <time>2022-06-03T09:55:08.000Z</time>
      </trkpt>
      <trkpt lat="44.16411" lon="22.59292">
        <ele>46.3</ele>
        <time>2022-06-03T09:55:13.000Z</time>
      </trkpt>
      <trkpt lat="44.16394" lon="22.59322">
        <ele>46.37</ele>
        <time>2022-06-03T09:55:18.000Z</time>
      </trkpt>
      <trkpt lat="44.1638" lon="22.59349">
        <ele>46.01</ele>
        <time>2022-06-03T09:55:23.000Z</time>
      </trkpt>
      <trkpt lat="44.16362" lon="22.59377">
        <ele>45.58</ele>
        <time>2022-06-03T09:55:28.000Z</time>
      </trkpt>
      <trkpt lat="44.16347" lon="22.59404">
        <ele>44.93</ele>
        <time>2022-06-03T09:55:33.000Z</time>
      </trkpt>
      <trkpt lat="44.16335" lon="22.59427">
        <ele>44.66</ele>
        <time>2022-06-03T09:55:38.000Z</time>
      </trkpt>
      <trkpt lat="44.16318" lon="22.59451">
        <ele>44.43</ele>
        <time>2022-06-03T09:55:43.000Z</time>
      </trkpt>
      <trkpt lat="44.16306" lon="22.59474">
        <ele>43.99</ele>
        <time>2022-06-03T09:55:48.000Z</time>
      </trkpt>
      <trkpt lat="44.16293" lon="22.595">
        <ele>43.98</ele>
        <time>2022-06-03T09:55:53.000Z</time>
      </trkpt>
      <trkpt lat="44.16279" lon="22.59527">
        <ele>43.78</ele>
        <time>2022-06-03T09:55:58.000Z</time>
      </trkpt>
      <trkpt lat="44.16265" lon="22.59557">
        <ele>43.68</ele>
        <time>2022-06-03T09:56:03.000Z</time>
      </trkpt>
      <trkpt lat="44.16253" lon="22.59585">
        <ele>43.33</ele>
        <time>2022-06-03T09:56:08.000Z</time>
      </trkpt>
      <trkpt lat="44.16237" lon="22.59611">
        <ele>43.19</ele>
        <time>2022-06-03T09:56:13.000Z</time>
      </trkpt>
      <trkpt lat="44.16224" lon="22.59639">
        <ele>43</ele>
        <time>2022-06-03T09:56:18.000Z</time>
      </trkpt>
      <trkpt lat="44.1621" lon="22.59665">
        <ele>43.27</ele>
        <time>2022-06-03T09:56:23.000Z</time>
      </trkpt>
      <trkpt lat="44.16198" lon="22.59692">
        <ele>44.53</ele>
        <time>2022-06-03T09:56:28.000Z</time>
      </trkpt>
      <trkpt lat="44.16183" lon="22.59721">
        <ele>45.19</ele>
        <time>2022-06-03T09:56:33.000Z</time>
      </trkpt>
      <trkpt lat="44.16169" lon="22.59748">
        <ele>45</ele>
        <time>2022-06-03T09:56:38.000Z</time>
      </trkpt>
      <trkpt lat="44.16156" lon="22.59775">
        <ele>45.2</ele>
        <time>2022-06-03T09:56:43.000Z</time>
      </trkpt>
      <trkpt lat="44.16147" lon="22.598">
        <ele>45.57</ele>
        <time>2022-06-03T09:56:48.000Z</time>
      </trkpt>
      <trkpt lat="44.1613" lon="22.59834">
        <ele>46.19</ele>
        <time>2022-06-03T09:56:53.000Z</time>
      </trkpt>
      <trkpt lat="44.16116" lon="22.59864">
        <ele>46.49</ele>
        <time>2022-06-03T09:56:58.000Z</time>
      </trkpt>
      <trkpt lat="44.16097" lon="22.59895">
        <ele>45.47</ele>
        <time>2022-06-03T09:57:03.000Z</time>
      </trkpt>
      <trkpt lat="44.16086" lon="22.59919">
        <ele>45.24</ele>
        <time>2022-06-03T09:57:08.000Z</time>
      </trkpt>
      <trkpt lat="44.16072" lon="22.59946">
        <ele>45.31</ele>
        <time>2022-06-03T09:57:13.000Z</time>
      </trkpt>
      <trkpt lat="44.16061" lon="22.59969">
        <ele>44.93</ele>
        <time>2022-06-03T09:57:18.000Z</time>
      </trkpt>
      <trkpt lat="44.16051" lon="22.59988">
        <ele>44.34</ele>
        <time>2022-06-03T09:57:23.000Z</time>
      </trkpt>
      <trkpt lat="44.16043" lon="22.60006">
        <ele>43.79</ele>
        <time>2022-06-03T09:57:28.000Z</time>
      </trkpt>
      <trkpt lat="44.16036" lon="22.60024">
        <ele>43.9</ele>
        <time>2022-06-03T09:57:33.000Z</time>
      </trkpt>
      <trkpt lat="44.16026" lon="22.60042">
        <ele>43.78</ele>
        <time>2022-06-03T09:57:38.000Z</time>
      </trkpt>
      <trkpt lat="44.16017" lon="22.60056">
        <ele>43.26</ele>
        <time>2022-06-03T09:57:43.000Z</time>
      </trkpt>
      <trkpt lat="44.16004" lon="22.60063">
        <ele>42.44</ele>
        <time>2022-06-03T09:57:48.000Z</time>
      </trkpt>
      <trkpt lat="44.1599" lon="22.60063">
        <ele>43.42</ele>
        <time>2022-06-03T09:57:53.000Z</time>
      </trkpt>
      <trkpt lat="44.15978" lon="22.6007">
        <ele>43.9</ele>
        <time>2022-06-03T09:57:58.000Z</time>
      </trkpt>
      <trkpt lat="44.15965" lon="22.60082">
        <ele>45.48</ele>
        <time>2022-06-03T09:58:03.000Z</time>
      </trkpt>
      <trkpt lat="44.15956" lon="22.60093">
        <ele>47.37</ele>
        <time>2022-06-03T09:58:08.000Z</time>
      </trkpt>
      <trkpt lat="44.15949" lon="22.60111">
        <ele>48.46</ele>
        <time>2022-06-03T09:58:13.000Z</time>
      </trkpt>
      <trkpt lat="44.15943" lon="22.60129">
        <ele>49.43</ele>
        <time>2022-06-03T09:58:18.000Z</time>
      </trkpt>
      <trkpt lat="44.15938" lon="22.60148">
        <ele>51.44</ele>
        <time>2022-06-03T09:58:23.000Z</time>
      </trkpt>
      <trkpt lat="44.15933" lon="22.60167">
        <ele>52.86</ele>
        <time>2022-06-03T09:58:28.000Z</time>
      </trkpt>
      <trkpt lat="44.15925" lon="22.60189">
        <ele>54.17</ele>
        <time>2022-06-03T09:58:33.000Z</time>
      </trkpt>
      <trkpt lat="44.15921" lon="22.60208">
        <ele>55.53</ele>
        <time>2022-06-03T09:58:38.000Z</time>
      </trkpt>
      <trkpt lat="44.15916" lon="22.60223">
        <ele>56.04</ele>
        <time>2022-06-03T09:58:43.000Z</time>
      </trkpt>
      <trkpt lat="44.15909" lon="22.60233">
        <ele>57.55</ele>
        <time>2022-06-03T10:00:39.000Z</time>
      </trkpt>
      <trkpt lat="44.15906" lon="22.60246">
        <ele>57.61</ele>
        <time>2022-06-03T10:00:44.000Z</time>
      </trkpt>
      <trkpt lat="44.15902" lon="22.60265">
        <ele>57.31</ele>
        <time>2022-06-03T10:00:49.000Z</time>
      </trkpt>
      <trkpt lat="44.15899" lon="22.60284">
        <ele>57.69</ele>
        <time>2022-06-03T10:00:54.000Z</time>
      </trkpt>
      <trkpt lat="44.15895" lon="22.60305">
        <ele>57.32</ele>
        <time>2022-06-03T10:00:59.000Z</time>
      </trkpt>
      <trkpt lat="44.15891" lon="22.6033">
        <ele>56.34</ele>
        <time>2022-06-03T10:01:04.000Z</time>
      </trkpt>
      <trkpt lat="44.15885" lon="22.60361">
        <ele>55.21</ele>
        <time>2022-06-03T10:01:09.000Z</time>
      </trkpt>
      <trkpt lat="44.15881" lon="22.60393">
        <ele>55</ele>
        <time>2022-06-03T10:01:14.000Z</time>
      </trkpt>
      <trkpt lat="44.15877" lon="22.60428">
        <ele>55.29</ele>
        <time>2022-06-03T10:01:19.000Z</time>
      </trkpt>
      <trkpt lat="44.15871" lon="22.60463">
        <ele>54.74</ele>
        <time>2022-06-03T10:01:24.000Z</time>
      </trkpt>
      <trkpt lat="44.15865" lon="22.60499">
        <ele>52.59</ele>
        <time>2022-06-03T10:01:29.000Z</time>
      </trkpt>
      <trkpt lat="44.1586" lon="22.60535">
        <ele>52.04</ele>
        <time>2022-06-03T10:01:34.000Z</time>
      </trkpt>
      <trkpt lat="44.15855" lon="22.60573">
        <ele>52.18</ele>
        <time>2022-06-03T10:01:39.000Z</time>
      </trkpt>
      <trkpt lat="44.15847" lon="22.60614">
        <ele>52.25</ele>
        <time>2022-06-03T10:01:44.000Z</time>
      </trkpt>
      <trkpt lat="44.15838" lon="22.60657">
        <ele>51.26</ele>
        <time>2022-06-03T10:01:49.000Z</time>
      </trkpt>
      <trkpt lat="44.15829" lon="22.60701">
        <ele>50.54</ele>
        <time>2022-06-03T10:01:54.000Z</time>
      </trkpt>
      <trkpt lat="44.15821" lon="22.60743">
        <ele>49.3</ele>
        <time>2022-06-03T10:01:59.000Z</time>
      </trkpt>
      <trkpt lat="44.15812" lon="22.60786">
        <ele>47.88</ele>
        <time>2022-06-03T10:02:04.000Z</time>
      </trkpt>
      <trkpt lat="44.15803" lon="22.60827">
        <ele>47.58</ele>
        <time>2022-06-03T10:02:09.000Z</time>
      </trkpt>
      <trkpt lat="44.15794" lon="22.60862">
        <ele>47.13</ele>
        <time>2022-06-03T10:02:14.000Z</time>
      </trkpt>
      <trkpt lat="44.15785" lon="22.60896">
        <ele>46.09</ele>
        <time>2022-06-03T10:02:19.000Z</time>
      </trkpt>
      <trkpt lat="44.15778" lon="22.60928">
        <ele>45.83</ele>
        <time>2022-06-03T10:02:24.000Z</time>
      </trkpt>
      <trkpt lat="44.15771" lon="22.60957">
        <ele>45.34</ele>
        <time>2022-06-03T10:02:29.000Z</time>
      </trkpt>
      <trkpt lat="44.15766" lon="22.60986">
        <ele>45.45</ele>
        <time>2022-06-03T10:02:34.000Z</time>
      </trkpt>
      <trkpt lat="44.1576" lon="22.61017">
        <ele>45.33</ele>
        <time>2022-06-03T10:02:39.000Z</time>
      </trkpt>
      <trkpt lat="44.15752" lon="22.61051">
        <ele>44.48</ele>
        <time>2022-06-03T10:02:44.000Z</time>
      </trkpt>
      <trkpt lat="44.15743" lon="22.61082">
        <ele>44.2</ele>
        <time>2022-06-03T10:02:49.000Z</time>
      </trkpt>
      <trkpt lat="44.15737" lon="22.61116">
        <ele>43.68</ele>
        <time>2022-06-03T10:02:54.000Z</time>
      </trkpt>
      <trkpt lat="44.15731" lon="22.61148">
        <ele>43.62</ele>
        <time>2022-06-03T10:02:59.000Z</time>
      </trkpt>
      <trkpt lat="44.15723" lon="22.61181">
        <ele>43.89</ele>
        <time>2022-06-03T10:03:04.000Z</time>
      </trkpt>
      <trkpt lat="44.15715" lon="22.61216">
        <ele>44.5</ele>
        <time>2022-06-03T10:03:09.000Z</time>
      </trkpt>
      <trkpt lat="44.15709" lon="22.6125">
        <ele>45.48</ele>
        <time>2022-06-03T10:03:14.000Z</time>
      </trkpt>
      <trkpt lat="44.15702" lon="22.61284">
        <ele>46.27</ele>
        <time>2022-06-03T10:03:19.000Z</time>
      </trkpt>
      <trkpt lat="44.15694" lon="22.61318">
        <ele>46.65</ele>
        <time>2022-06-03T10:03:24.000Z</time>
      </trkpt>
      <trkpt lat="44.15687" lon="22.6135">
        <ele>46.49</ele>
        <time>2022-06-03T10:03:29.000Z</time>
      </trkpt>
      <trkpt lat="44.1568" lon="22.61381">
        <ele>46.53</ele>
        <time>2022-06-03T10:03:34.000Z</time>
      </trkpt>
      <trkpt lat="44.15673" lon="22.61409">
        <ele>47.38</ele>
        <time>2022-06-03T10:03:39.000Z</time>
      </trkpt>
      <trkpt lat="44.15668" lon="22.61436">
        <ele>46.83</ele>
        <time>2022-06-03T10:03:44.000Z</time>
      </trkpt>
      <trkpt lat="44.15663" lon="22.61466">
        <ele>47.57</ele>
        <time>2022-06-03T10:03:49.000Z</time>
      </trkpt>
      <trkpt lat="44.15657" lon="22.61498">
        <ele>48.46</ele>
        <time>2022-06-03T10:03:54.000Z</time>
      </trkpt>
      <trkpt lat="44.15649" lon="22.61531">
        <ele>48.99</ele>
        <time>2022-06-03T10:03:59.000Z</time>
      </trkpt>
      <trkpt lat="44.15643" lon="22.6156">
        <ele>48.71</ele>
        <time>2022-06-03T10:04:04.000Z</time>
      </trkpt>
      <trkpt lat="44.15638" lon="22.61586">
        <ele>48.58</ele>
        <time>2022-06-03T10:04:09.000Z</time>
      </trkpt>
      <trkpt lat="44.15633" lon="22.61613">
        <ele>49.07</ele>
        <time>2022-06-03T10:04:14.000Z</time>
      </trkpt>
      <trkpt lat="44.15628" lon="22.61645">
        <ele>50.3</ele>
        <time>2022-06-03T10:04:19.000Z</time>
      </trkpt>
      <trkpt lat="44.15616" lon="22.61682">
        <ele>49.84</ele>
        <time>2022-06-03T10:04:24.000Z</time>
      </trkpt>
      <trkpt lat="44.15608" lon="22.61714">
        <ele>49.61</ele>
        <time>2022-06-03T10:04:29.000Z</time>
      </trkpt>
      <trkpt lat="44.15599" lon="22.61748">
        <ele>49.44</ele>
        <time>2022-06-03T10:04:34.000Z</time>
      </trkpt>
      <trkpt lat="44.15592" lon="22.61781">
        <ele>48.93</ele>
        <time>2022-06-03T10:04:39.000Z</time>
      </trkpt>
      <trkpt lat="44.15584" lon="22.61812">
        <ele>48.55</ele>
        <time>2022-06-03T10:04:44.000Z</time>
      </trkpt>
      <trkpt lat="44.15577" lon="22.61843">
        <ele>47.96</ele>
        <time>2022-06-03T10:04:49.000Z</time>
      </trkpt>
      <trkpt lat="44.15571" lon="22.61873">
        <ele>47.27</ele>
        <time>2022-06-03T10:04:54.000Z</time>
      </trkpt>
      <trkpt lat="44.15566" lon="22.61906">
        <ele>46.92</ele>
        <time>2022-06-03T10:04:59.000Z</time>
      </trkpt>
      <trkpt lat="44.15559" lon="22.6194">
        <ele>46.65</ele>
        <time>2022-06-03T10:05:04.000Z</time>
      </trkpt>
      <trkpt lat="44.15552" lon="22.61969">
        <ele>46.13</ele>
        <time>2022-06-03T10:05:09.000Z</time>
      </trkpt>
      <trkpt lat="44.15546" lon="22.62001">
        <ele>46.01</ele>
        <time>2022-06-03T10:05:14.000Z</time>
      </trkpt>
      <trkpt lat="44.15538" lon="22.62031">
        <ele>45.83</ele>
        <time>2022-06-03T10:05:19.000Z</time>
      </trkpt>
      <trkpt lat="44.15535" lon="22.62047">
        <ele>46.33</ele>
        <time>2022-06-03T10:05:24.000Z</time>
      </trkpt>
      <trkpt lat="44.15532" lon="22.62061">
        <ele>45.7</ele>
        <time>2022-06-03T10:05:38.000Z</time>
      </trkpt>
      <trkpt lat="44.1553" lon="22.62076">
        <ele>44.81</ele>
        <time>2022-06-03T10:05:44.000Z</time>
      </trkpt>
      <trkpt lat="44.15525" lon="22.62095">
        <ele>45.17</ele>
        <time>2022-06-03T10:05:49.000Z</time>
      </trkpt>
      <trkpt lat="44.15518" lon="22.62119">
        <ele>45.47</ele>
        <time>2022-06-03T10:05:54.000Z</time>
      </trkpt>
      <trkpt lat="44.15511" lon="22.62146">
        <ele>46.26</ele>
        <time>2022-06-03T10:05:59.000Z</time>
      </trkpt>
      <trkpt lat="44.15506" lon="22.62175">
        <ele>47.24</ele>
        <time>2022-06-03T10:06:04.000Z</time>
      </trkpt>
      <trkpt lat="44.15497" lon="22.62202">
        <ele>48.58</ele>
        <time>2022-06-03T10:06:09.000Z</time>
      </trkpt>
      <trkpt lat="44.15491" lon="22.62222">
        <ele>48.96</ele>
        <time>2022-06-03T10:06:14.000Z</time>
      </trkpt>
      <trkpt lat="44.15487" lon="22.62235">
        <ele>48.58</ele>
        <time>2022-06-03T10:06:19.000Z</time>
      </trkpt>
      <trkpt lat="44.1548" lon="22.62227">
        <ele>49.52</ele>
        <time>2022-06-03T10:07:18.000Z</time>
      </trkpt>
      <trkpt lat="44.15472" lon="22.62237">
        <ele>49.62</ele>
        <time>2022-06-03T10:08:10.000Z</time>
      </trkpt>
      <trkpt lat="44.15478" lon="22.62247">
        <ele>52.44</ele>
        <time>2022-06-03T10:10:48.000Z</time>
      </trkpt>
      <trkpt lat="44.1547" lon="22.62241">
        <ele>41.78</ele>
        <time>2022-06-03T10:14:26.000Z</time>
      </trkpt>
      <trkpt lat="44.15478" lon="22.62245">
        <ele>39.87</ele>
        <time>2022-06-03T10:14:51.000Z</time>
      </trkpt>
      <trkpt lat="44.15489" lon="22.62253">
        <ele>40.3</ele>
        <time>2022-06-03T10:14:56.000Z</time>
      </trkpt>
      <trkpt lat="44.15481" lon="22.62259">
        <ele>45.62</ele>
        <time>2022-06-03T10:15:49.000Z</time>
      </trkpt>
      <trkpt lat="44.15479" lon="22.62278">
        <ele>46.2</ele>
        <time>2022-06-03T10:15:54.000Z</time>
      </trkpt>
      <trkpt lat="44.15472" lon="22.62298">
        <ele>46.08</ele>
        <time>2022-06-03T10:15:59.000Z</time>
      </trkpt>
      <trkpt lat="44.15464" lon="22.62321">
        <ele>46.59</ele>
        <time>2022-06-03T10:16:04.000Z</time>
      </trkpt>
      <trkpt lat="44.15456" lon="22.62348">
        <ele>47.41</ele>
        <time>2022-06-03T10:16:09.000Z</time>
      </trkpt>
      <trkpt lat="44.1545" lon="22.62375">
        <ele>49.1</ele>
        <time>2022-06-03T10:16:14.000Z</time>
      </trkpt>
      <trkpt lat="44.15442" lon="22.62405">
        <ele>50.04</ele>
        <time>2022-06-03T10:16:19.000Z</time>
      </trkpt>
      <trkpt lat="44.15434" lon="22.62433">
        <ele>50.78</ele>
        <time>2022-06-03T10:16:24.000Z</time>
      </trkpt>
      <trkpt lat="44.15429" lon="22.62462">
        <ele>51.67</ele>
        <time>2022-06-03T10:16:29.000Z</time>
      </trkpt>
      <trkpt lat="44.15425" lon="22.62492">
        <ele>51.63</ele>
        <time>2022-06-03T10:16:34.000Z</time>
      </trkpt>
      <trkpt lat="44.15422" lon="22.62521">
        <ele>52.92</ele>
        <time>2022-06-03T10:16:39.000Z</time>
      </trkpt>
      <trkpt lat="44.15417" lon="22.62553">
        <ele>53.15</ele>
        <time>2022-06-03T10:16:44.000Z</time>
      </trkpt>
      <trkpt lat="44.15415" lon="22.62586">
        <ele>49.52</ele>
        <time>2022-06-03T10:16:49.000Z</time>
      </trkpt>
      <trkpt lat="44.1541" lon="22.62616">
        <ele>47.56</ele>
        <time>2022-06-03T10:16:54.000Z</time>
      </trkpt>
      <trkpt lat="44.15407" lon="22.62648">
        <ele>46.02</ele>
        <time>2022-06-03T10:16:59.000Z</time>
      </trkpt>
      <trkpt lat="44.15407" lon="22.62683">
        <ele>48.18</ele>
        <time>2022-06-03T10:17:04.000Z</time>
      </trkpt>
      <trkpt lat="44.15404" lon="22.62716">
        <ele>49.23</ele>
        <time>2022-06-03T10:17:09.000Z</time>
      </trkpt>
      <trkpt lat="44.15402" lon="22.62749">
        <ele>46.82</ele>
        <time>2022-06-03T10:17:14.000Z</time>
      </trkpt>
      <trkpt lat="44.15397" lon="22.62784">
        <ele>44.23</ele>
        <time>2022-06-03T10:17:19.000Z</time>
      </trkpt>
      <trkpt lat="44.15393" lon="22.62818">
        <ele>41.8</ele>
        <time>2022-06-03T10:17:24.000Z</time>
      </trkpt>
      <trkpt lat="44.15387" lon="22.62846">
        <ele>41.35</ele>
        <time>2022-06-03T10:17:29.000Z</time>
      </trkpt>
      <trkpt lat="44.1539" lon="22.62867">
        <ele>43.69</ele>
        <time>2022-06-03T10:17:34.000Z</time>
      </trkpt>
      <trkpt lat="44.15394" lon="22.62888">
        <ele>43.24</ele>
        <time>2022-06-03T10:17:39.000Z</time>
      </trkpt>
      <trkpt lat="44.15397" lon="22.62921">
        <ele>43.11</ele>
        <time>2022-06-03T10:17:44.000Z</time>
      </trkpt>
      <trkpt lat="44.15391" lon="22.62964">
        <ele>42.81</ele>
        <time>2022-06-03T10:17:49.000Z</time>
      </trkpt>
      <trkpt lat="44.15387" lon="22.63008">
        <ele>42.69</ele>
        <time>2022-06-03T10:17:54.000Z</time>
      </trkpt>
      <trkpt lat="44.15384" lon="22.6305">
        <ele>42.82</ele>
        <time>2022-06-03T10:17:59.000Z</time>
      </trkpt>
      <trkpt lat="44.15379" lon="22.63095">
        <ele>42.1</ele>
        <time>2022-06-03T10:18:04.000Z</time>
      </trkpt>
      <trkpt lat="44.15375" lon="22.63135">
        <ele>42.12</ele>
        <time>2022-06-03T10:18:09.000Z</time>
      </trkpt>
      <trkpt lat="44.15374" lon="22.63169">
        <ele>42.07</ele>
        <time>2022-06-03T10:18:14.000Z</time>
      </trkpt>
      <trkpt lat="44.15373" lon="22.63198">
        <ele>42.86</ele>
        <time>2022-06-03T10:18:19.000Z</time>
      </trkpt>
      <trkpt lat="44.15369" lon="22.63224">
        <ele>43.29</ele>
        <time>2022-06-03T10:18:24.000Z</time>
      </trkpt>
      <trkpt lat="44.15366" lon="22.63246">
        <ele>43.77</ele>
        <time>2022-06-03T10:18:29.000Z</time>
      </trkpt>
      <trkpt lat="44.15363" lon="22.63266">
        <ele>44.07</ele>
        <time>2022-06-03T10:18:34.000Z</time>
      </trkpt>
      <trkpt lat="44.1536" lon="22.6328">
        <ele>44.47</ele>
        <time>2022-06-03T10:18:39.000Z</time>
      </trkpt>
      <trkpt lat="44.15359" lon="22.63295">
        <ele>44.97</ele>
        <time>2022-06-03T10:18:45.000Z</time>
      </trkpt>
      <trkpt lat="44.15366" lon="22.63306">
        <ele>45.47</ele>
        <time>2022-06-03T10:18:54.000Z</time>
      </trkpt>
      <trkpt lat="44.15378" lon="22.6332">
        <ele>46.16</ele>
        <time>2022-06-03T10:18:59.000Z</time>
      </trkpt>
      <trkpt lat="44.15362" lon="22.63311">
        <ele>46.77</ele>
        <time>2022-06-03T10:19:11.000Z</time>
      </trkpt>
      <trkpt lat="44.15352" lon="22.63308">
        <ele>46.9</ele>
        <time>2022-06-03T10:19:22.000Z</time>
      </trkpt>
      <trkpt lat="44.15347" lon="22.63297">
        <ele>48.07</ele>
        <time>2022-06-03T10:20:52.000Z</time>
      </trkpt>
      <trkpt lat="44.15337" lon="22.633">
        <ele>48.95</ele>
        <time>2022-06-03T10:26:16.000Z</time>
      </trkpt>
      <trkpt lat="44.15342" lon="22.6331">
        <ele>44.28</ele>
        <time>2022-06-03T10:27:23.000Z</time>
      </trkpt>
      <trkpt lat="44.15341" lon="22.63325">
        <ele>44.29</ele>
        <time>2022-06-03T10:27:28.000Z</time>
      </trkpt>
      <trkpt lat="44.15331" lon="22.63325">
        <ele>45.47</ele>
        <time>2022-06-03T10:27:35.000Z</time>
      </trkpt>
      <trkpt lat="44.15318" lon="22.63318">
        <ele>45.82</ele>
        <time>2022-06-03T10:27:40.000Z</time>
      </trkpt>
      <trkpt lat="44.15303" lon="22.63314">
        <ele>46.38</ele>
        <time>2022-06-03T10:27:45.000Z</time>
      </trkpt>
      <trkpt lat="44.1529" lon="22.63324">
        <ele>46.42</ele>
        <time>2022-06-03T10:27:50.000Z</time>
      </trkpt>
      <trkpt lat="44.15275" lon="22.63339">
        <ele>46.04</ele>
        <time>2022-06-03T10:27:55.000Z</time>
      </trkpt>
      <trkpt lat="44.1526" lon="22.63354">
        <ele>45.68</ele>
        <time>2022-06-03T10:28:00.000Z</time>
      </trkpt>
      <trkpt lat="44.15245" lon="22.6337">
        <ele>45.62</ele>
        <time>2022-06-03T10:28:05.000Z</time>
      </trkpt>
      <trkpt lat="44.15226" lon="22.6339">
        <ele>45.6</ele>
        <time>2022-06-03T10:28:10.000Z</time>
      </trkpt>
      <trkpt lat="44.15205" lon="22.63407">
        <ele>45.3</ele>
        <time>2022-06-03T10:28:15.000Z</time>
      </trkpt>
      <trkpt lat="44.15187" lon="22.63428">
        <ele>45.1</ele>
        <time>2022-06-03T10:28:20.000Z</time>
      </trkpt>
      <trkpt lat="44.15164" lon="22.63448">
        <ele>45.68</ele>
        <time>2022-06-03T10:28:25.000Z</time>
      </trkpt>
      <trkpt lat="44.15143" lon="22.63472">
        <ele>46.16</ele>
        <time>2022-06-03T10:28:30.000Z</time>
      </trkpt>
      <trkpt lat="44.15131" lon="22.63487">
        <ele>46.57</ele>
        <time>2022-06-03T10:28:35.000Z</time>
      </trkpt>
      <trkpt lat="44.15119" lon="22.6349">
        <ele>47.39</ele>
        <time>2022-06-03T10:28:40.000Z</time>
      </trkpt>
      <trkpt lat="44.15116" lon="22.63502">
        <ele>50.63</ele>
        <time>2022-06-03T10:28:55.000Z</time>
      </trkpt>
      <trkpt lat="44.15111" lon="22.63513">
        <ele>51.54</ele>
        <time>2022-06-03T10:29:00.000Z</time>
      </trkpt>
      <trkpt lat="44.15104" lon="22.63523">
        <ele>52.29</ele>
        <time>2022-06-03T10:29:05.000Z</time>
      </trkpt>
      <trkpt lat="44.15101" lon="22.63536">
        <ele>52.67</ele>
        <time>2022-06-03T10:29:10.000Z</time>
      </trkpt>
      <trkpt lat="44.15096" lon="22.63551">
        <ele>53.26</ele>
        <time>2022-06-03T10:29:15.000Z</time>
      </trkpt>
      <trkpt lat="44.15092" lon="22.63572">
        <ele>53.67</ele>
        <time>2022-06-03T10:29:20.000Z</time>
      </trkpt>
      <trkpt lat="44.15089" lon="22.63592">
        <ele>54.19</ele>
        <time>2022-06-03T10:29:25.000Z</time>
      </trkpt>
      <trkpt lat="44.15081" lon="22.63614">
        <ele>54.78</ele>
        <time>2022-06-03T10:29:30.000Z</time>
      </trkpt>
      <trkpt lat="44.15076" lon="22.63639">
        <ele>55.25</ele>
        <time>2022-06-03T10:29:35.000Z</time>
      </trkpt>
      <trkpt lat="44.15069" lon="22.63663">
        <ele>56.04</ele>
        <time>2022-06-03T10:29:40.000Z</time>
      </trkpt>
      <trkpt lat="44.15061" lon="22.63687">
        <ele>57.02</ele>
        <time>2022-06-03T10:29:45.000Z</time>
      </trkpt>
      <trkpt lat="44.15053" lon="22.63713">
        <ele>57.36</ele>
        <time>2022-06-03T10:29:50.000Z</time>
      </trkpt>
      <trkpt lat="44.15047" lon="22.63737">
        <ele>57.43</ele>
        <time>2022-06-03T10:29:55.000Z</time>
      </trkpt>
      <trkpt lat="44.15041" lon="22.63758">
        <ele>57.16</ele>
        <time>2022-06-03T10:30:00.000Z</time>
      </trkpt>
      <trkpt lat="44.15031" lon="22.63775">
        <ele>55.68</ele>
        <time>2022-06-03T10:30:05.000Z</time>
      </trkpt>
      <trkpt lat="44.15028" lon="22.63791">
        <ele>53.41</ele>
        <time>2022-06-03T10:30:10.000Z</time>
      </trkpt>
      <trkpt lat="44.15033" lon="22.63807">
        <ele>51.82</ele>
        <time>2022-06-03T10:30:15.000Z</time>
      </trkpt>
      <trkpt lat="44.15039" lon="22.63825">
        <ele>51.12</ele>
        <time>2022-06-03T10:30:20.000Z</time>
      </trkpt>
      <trkpt lat="44.15045" lon="22.63842">
        <ele>51.2</ele>
        <time>2022-06-03T10:30:25.000Z</time>
      </trkpt>
      <trkpt lat="44.15052" lon="22.6386">
        <ele>50.7</ele>
        <time>2022-06-03T10:30:30.000Z</time>
      </trkpt>
      <trkpt lat="44.15057" lon="22.63877">
        <ele>50.91</ele>
        <time>2022-06-03T10:30:35.000Z</time>
      </trkpt>
      <trkpt lat="44.1506" lon="22.63895">
        <ele>49.53</ele>
        <time>2022-06-03T10:30:40.000Z</time>
      </trkpt>
      <trkpt lat="44.15067" lon="22.6391">
        <ele>49.12</ele>
        <time>2022-06-03T10:30:45.000Z</time>
      </trkpt>
      <trkpt lat="44.15075" lon="22.63922">
        <ele>49.06</ele>
        <time>2022-06-03T10:30:50.000Z</time>
      </trkpt>
      <trkpt lat="44.15089" lon="22.63927">
        <ele>49.58</ele>
        <time>2022-06-03T10:30:55.000Z</time>
      </trkpt>
      <trkpt lat="44.15102" lon="22.63928">
        <ele>49.97</ele>
        <time>2022-06-03T10:31:00.000Z</time>
      </trkpt>
      <trkpt lat="44.15117" lon="22.63929">
        <ele>53.54</ele>
        <time>2022-06-03T10:31:05.000Z</time>
      </trkpt>
      <trkpt lat="44.15127" lon="22.63932">
        <ele>56.45</ele>
        <time>2022-06-03T10:31:10.000Z</time>
      </trkpt>
      <trkpt lat="44.15136" lon="22.63932">
        <ele>54.97</ele>
        <time>2022-06-03T10:31:31.000Z</time>
      </trkpt>
      <trkpt lat="44.15144" lon="22.63924">
        <ele>53.76</ele>
        <time>2022-06-03T10:31:37.000Z</time>
      </trkpt>
      <trkpt lat="44.15151" lon="22.63911">
        <ele>52.51</ele>
        <time>2022-06-03T10:31:42.000Z</time>
      </trkpt>
      <trkpt lat="44.15156" lon="22.63898">
        <ele>51</ele>
        <time>2022-06-03T10:31:47.000Z</time>
      </trkpt>
      <trkpt lat="44.15155" lon="22.6388">
        <ele>51.26</ele>
        <time>2022-06-03T10:31:52.000Z</time>
      </trkpt>
      <trkpt lat="44.15156" lon="22.63864">
        <ele>51.47</ele>
        <time>2022-06-03T10:31:57.000Z</time>
      </trkpt>
      <trkpt lat="44.15155" lon="22.63851">
        <ele>50.18</ele>
        <time>2022-06-03T10:32:08.000Z</time>
      </trkpt>
      <trkpt lat="44.15162" lon="22.63841">
        <ele>51.39</ele>
        <time>2022-06-03T10:32:21.000Z</time>
      </trkpt>
      <trkpt lat="44.15171" lon="22.63827">
        <ele>51.32</ele>
        <time>2022-06-03T10:32:43.000Z</time>
      </trkpt>
      <trkpt lat="44.15167" lon="22.6384">
        <ele>50.88</ele>
        <time>2022-06-03T10:33:22.000Z</time>
      </trkpt>
      <trkpt lat="44.15163" lon="22.63852">
        <ele>47.62</ele>
        <time>2022-06-03T10:36:03.000Z</time>
      </trkpt>
      <trkpt lat="44.15164" lon="22.63865">
        <ele>48.58</ele>
        <time>2022-06-03T10:36:59.000Z</time>
      </trkpt>
      <trkpt lat="44.15161" lon="22.63877">
        <ele>46.23</ele>
        <time>2022-06-03T10:37:15.000Z</time>
      </trkpt>
      <trkpt lat="44.15161" lon="22.63863">
        <ele>46.61</ele>
        <time>2022-06-03T10:37:25.000Z</time>
      </trkpt>
      <trkpt lat="44.15164" lon="22.6385">
        <ele>47.13</ele>
        <time>2022-06-03T10:37:39.000Z</time>
      </trkpt>
      <trkpt lat="44.15154" lon="22.63849">
        <ele>47.08</ele>
        <time>2022-06-03T10:38:02.000Z</time>
      </trkpt>
      <trkpt lat="44.1515" lon="22.63863">
        <ele>47.7</ele>
        <time>2022-06-03T10:38:27.000Z</time>
      </trkpt>
      <trkpt lat="44.1516" lon="22.63867">
        <ele>48.95</ele>
        <time>2022-06-03T10:38:51.000Z</time>
      </trkpt>
      <trkpt lat="44.15161" lon="22.63854">
        <ele>48.9</ele>
        <time>2022-06-03T10:39:01.000Z</time>
      </trkpt>
      <trkpt lat="44.15163" lon="22.63839">
        <ele>48.65</ele>
        <time>2022-06-03T10:39:06.000Z</time>
      </trkpt>
      <trkpt lat="44.15156" lon="22.6385">
        <ele>47.71</ele>
        <time>2022-06-03T10:39:26.000Z</time>
      </trkpt>
      <trkpt lat="44.15153" lon="22.63863">
        <ele>47.67</ele>
        <time>2022-06-03T10:39:31.000Z</time>
      </trkpt>
      <trkpt lat="44.15145" lon="22.63871">
        <ele>47.8</ele>
        <time>2022-06-03T10:39:41.000Z</time>
      </trkpt>
      <trkpt lat="44.15147" lon="22.63857">
        <ele>47.58</ele>
        <time>2022-06-03T10:40:48.000Z</time>
      </trkpt>
      <trkpt lat="44.15138" lon="22.63864">
        <ele>48.2</ele>
        <time>2022-06-03T10:41:39.000Z</time>
      </trkpt>
      <trkpt lat="44.15128" lon="22.6386">
        <ele>48.6</ele>
        <time>2022-06-03T10:42:24.000Z</time>
      </trkpt>
      <trkpt lat="44.15138" lon="22.63863">
        <ele>49.38</ele>
        <time>2022-06-03T10:43:23.000Z</time>
      </trkpt>
      <trkpt lat="44.15151" lon="22.63867">
        <ele>51.05</ele>
        <time>2022-06-03T10:44:11.000Z</time>
      </trkpt>
      <trkpt lat="44.15154" lon="22.63882">
        <ele>51.23</ele>
        <time>2022-06-03T10:44:22.000Z</time>
      </trkpt>
      <trkpt lat="44.15157" lon="22.63899">
        <ele>52.44</ele>
        <time>2022-06-03T10:44:27.000Z</time>
      </trkpt>
      <trkpt lat="44.15158" lon="22.63918">
        <ele>53.89</ele>
        <time>2022-06-03T10:44:32.000Z</time>
      </trkpt>
      <trkpt lat="44.15159" lon="22.63933">
        <ele>54.89</ele>
        <time>2022-06-03T10:44:37.000Z</time>
      </trkpt>
      <trkpt lat="44.15164" lon="22.63946">
        <ele>55.01</ele>
        <time>2022-06-03T10:44:44.000Z</time>
      </trkpt>
      <trkpt lat="44.15172" lon="22.63955">
        <ele>54.7</ele>
        <time>2022-06-03T10:44:50.000Z</time>
      </trkpt>
      <trkpt lat="44.15176" lon="22.63966">
        <ele>54.78</ele>
        <time>2022-06-03T10:44:56.000Z</time>
      </trkpt>
      <trkpt lat="44.1519" lon="22.63971">
        <ele>57.75</ele>
        <time>2022-06-03T10:47:55.000Z</time>
      </trkpt>
      <trkpt lat="44.15198" lon="22.63979">
        <ele>55.82</ele>
        <time>2022-06-03T10:48:50.000Z</time>
      </trkpt>
      <trkpt lat="44.15185" lon="22.63971">
        <ele>55.7</ele>
        <time>2022-06-03T10:50:49.000Z</time>
      </trkpt>
      <trkpt lat="44.15196" lon="22.63981">
        <ele>57.38</ele>
        <time>2022-06-03T10:55:01.000Z</time>
      </trkpt>
      <trkpt lat="44.15188" lon="22.63976">
        <ele>56.68</ele>
        <time>2022-06-03T10:56:59.000Z</time>
      </trkpt>
      <trkpt lat="44.15196" lon="22.63981">
        <ele>57.75</ele>
        <time>2022-06-03T10:58:52.000Z</time>
      </trkpt>
      <trkpt lat="44.15179" lon="22.63978">
        <ele>56.5</ele>
        <time>2022-06-03T11:06:30.000Z</time>
      </trkpt>
      <trkpt lat="44.15187" lon="22.63984">
        <ele>56.45</ele>
        <time>2022-06-03T11:07:54.000Z</time>
      </trkpt>
      <trkpt lat="44.1518" lon="22.63975">
        <ele>53.7</ele>
        <time>2022-06-03T11:20:11.000Z</time>
      </trkpt>
      <trkpt lat="44.15188" lon="22.63981">
        <ele>53.62</ele>
        <time>2022-06-03T11:21:38.000Z</time>
      </trkpt>
      <trkpt lat="44.1518" lon="22.63979">
        <ele>53.53</ele>
        <time>2022-06-03T11:21:55.000Z</time>
      </trkpt>
      <trkpt lat="44.15171" lon="22.63978">
        <ele>53.58</ele>
        <time>2022-06-03T11:22:11.000Z</time>
      </trkpt>
      <trkpt lat="44.15161" lon="22.63976">
        <ele>53.5</ele>
        <time>2022-06-03T11:22:24.000Z</time>
      </trkpt>
      <trkpt lat="44.1515" lon="22.63976">
        <ele>64.69</ele>
        <time>2022-06-03T11:25:24.000Z</time>
      </trkpt>
      <trkpt lat="44.15136" lon="22.63977">
        <ele>65.04</ele>
        <time>2022-06-03T11:25:29.000Z</time>
      </trkpt>
      <trkpt lat="44.15129" lon="22.63987">
        <ele>63.98</ele>
        <time>2022-06-03T11:25:34.000Z</time>
      </trkpt>
      <trkpt lat="44.15138" lon="22.63983">
        <ele>62.67</ele>
        <time>2022-06-03T11:25:48.000Z</time>
      </trkpt>
      <trkpt lat="44.15144" lon="22.63974">
        <ele>62.41</ele>
        <time>2022-06-03T11:25:53.000Z</time>
      </trkpt>
      <trkpt lat="44.15154" lon="22.63971">
        <ele>62.77</ele>
        <time>2022-06-03T11:26:00.000Z</time>
      </trkpt>
      <trkpt lat="44.15163" lon="22.63978">
        <ele>63.07</ele>
        <time>2022-06-03T11:26:07.000Z</time>
      </trkpt>
      <trkpt lat="44.15173" lon="22.63983">
        <ele>63.37</ele>
        <time>2022-06-03T11:26:12.000Z</time>
      </trkpt>
      <trkpt lat="44.15182" lon="22.63991">
        <ele>63.67</ele>
        <time>2022-06-03T11:26:17.000Z</time>
      </trkpt>
      <trkpt lat="44.15194" lon="22.64003">
        <ele>64.12</ele>
        <time>2022-06-03T11:26:22.000Z</time>
      </trkpt>
      <trkpt lat="44.15202" lon="22.64014">
        <ele>64.38</ele>
        <time>2022-06-03T11:26:27.000Z</time>
      </trkpt>
      <trkpt lat="44.15209" lon="22.64022">
        <ele>65.02</ele>
        <time>2022-06-03T11:26:39.000Z</time>
      </trkpt>
      <trkpt lat="44.15213" lon="22.64036">
        <ele>65.17</ele>
        <time>2022-06-03T11:26:44.000Z</time>
      </trkpt>
      <trkpt lat="44.15217" lon="22.64049">
        <ele>65.64</ele>
        <time>2022-06-03T11:26:50.000Z</time>
      </trkpt>
      <trkpt lat="44.15219" lon="22.64033">
        <ele>66.8</ele>
        <time>2022-06-03T11:26:59.000Z</time>
      </trkpt>
      <trkpt lat="44.15227" lon="22.64014">
        <ele>66.63</ele>
        <time>2022-06-03T11:27:04.000Z</time>
      </trkpt>
      <trkpt lat="44.15232" lon="22.63992">
        <ele>66.23</ele>
        <time>2022-06-03T11:27:09.000Z</time>
      </trkpt>
      <trkpt lat="44.15237" lon="22.6397">
        <ele>66.11</ele>
        <time>2022-06-03T11:27:14.000Z</time>
      </trkpt>
      <trkpt lat="44.15239" lon="22.63944">
        <ele>65.55</ele>
        <time>2022-06-03T11:27:19.000Z</time>
      </trkpt>
      <trkpt lat="44.15243" lon="22.63918">
        <ele>65.58</ele>
        <time>2022-06-03T11:27:24.000Z</time>
      </trkpt>
      <trkpt lat="44.15257" lon="22.63899">
        <ele>65.21</ele>
        <time>2022-06-03T11:27:29.000Z</time>
      </trkpt>
      <trkpt lat="44.15276" lon="22.6389">
        <ele>64.37</ele>
        <time>2022-06-03T11:27:34.000Z</time>
      </trkpt>
      <trkpt lat="44.15297" lon="22.63887">
        <ele>63.64</ele>
        <time>2022-06-03T11:27:39.000Z</time>
      </trkpt>
      <trkpt lat="44.15315" lon="22.6388">
        <ele>63.04</ele>
        <time>2022-06-03T11:27:44.000Z</time>
      </trkpt>
      <trkpt lat="44.15333" lon="22.63874">
        <ele>62.85</ele>
        <time>2022-06-03T11:27:49.000Z</time>
      </trkpt>
      <trkpt lat="44.15354" lon="22.63869">
        <ele>62.58</ele>
        <time>2022-06-03T11:27:54.000Z</time>
      </trkpt>
      <trkpt lat="44.15377" lon="22.63867">
        <ele>62.09</ele>
        <time>2022-06-03T11:27:59.000Z</time>
      </trkpt>
      <trkpt lat="44.15398" lon="22.63862">
        <ele>61.92</ele>
        <time>2022-06-03T11:28:04.000Z</time>
      </trkpt>
      <trkpt lat="44.15419" lon="22.63859">
        <ele>61.79</ele>
        <time>2022-06-03T11:28:09.000Z</time>
      </trkpt>
      <trkpt lat="44.1544" lon="22.63856">
        <ele>60.65</ele>
        <time>2022-06-03T11:28:14.000Z</time>
      </trkpt>
      <trkpt lat="44.15457" lon="22.63854">
        <ele>61.15</ele>
        <time>2022-06-03T11:28:19.000Z</time>
      </trkpt>
      <trkpt lat="44.15473" lon="22.63851">
        <ele>60.81</ele>
        <time>2022-06-03T11:28:24.000Z</time>
      </trkpt>
      <trkpt lat="44.15488" lon="22.63848">
        <ele>61.56</ele>
        <time>2022-06-03T11:28:29.000Z</time>
      </trkpt>
      <trkpt lat="44.15505" lon="22.63847">
        <ele>59.6</ele>
        <time>2022-06-03T11:28:34.000Z</time>
      </trkpt>
      <trkpt lat="44.15523" lon="22.63845">
        <ele>58.97</ele>
        <time>2022-06-03T11:28:39.000Z</time>
      </trkpt>
      <trkpt lat="44.15542" lon="22.63851">
        <ele>56.89</ele>
        <time>2022-06-03T11:28:44.000Z</time>
      </trkpt>
      <trkpt lat="44.15556" lon="22.63858">
        <ele>55.29</ele>
        <time>2022-06-03T11:28:49.000Z</time>
      </trkpt>
      <trkpt lat="44.15572" lon="22.63867">
        <ele>54.81</ele>
        <time>2022-06-03T11:28:54.000Z</time>
      </trkpt>
      <trkpt lat="44.15591" lon="22.63874">
        <ele>55.12</ele>
        <time>2022-06-03T11:28:59.000Z</time>
      </trkpt>
      <trkpt lat="44.15614" lon="22.63879">
        <ele>54.22</ele>
        <time>2022-06-03T11:29:04.000Z</time>
      </trkpt>
      <trkpt lat="44.15635" lon="22.63886">
        <ele>53.52</ele>
        <time>2022-06-03T11:29:09.000Z</time>
      </trkpt>
      <trkpt lat="44.15654" lon="22.63891">
        <ele>54.3</ele>
        <time>2022-06-03T11:29:14.000Z</time>
      </trkpt>
      <trkpt lat="44.15673" lon="22.63899">
        <ele>54.58</ele>
        <time>2022-06-03T11:29:19.000Z</time>
      </trkpt>
      <trkpt lat="44.15693" lon="22.63907">
        <ele>54.51</ele>
        <time>2022-06-03T11:29:24.000Z</time>
      </trkpt>
      <trkpt lat="44.15714" lon="22.63918">
        <ele>55.26</ele>
        <time>2022-06-03T11:29:29.000Z</time>
      </trkpt>
      <trkpt lat="44.15733" lon="22.63925">
        <ele>56.31</ele>
        <time>2022-06-03T11:29:34.000Z</time>
      </trkpt>
      <trkpt lat="44.15753" lon="22.63934">
        <ele>58.12</ele>
        <time>2022-06-03T11:29:39.000Z</time>
      </trkpt>
      <trkpt lat="44.15775" lon="22.6394">
        <ele>59.02</ele>
        <time>2022-06-03T11:29:44.000Z</time>
      </trkpt>
      <trkpt lat="44.15792" lon="22.63949">
        <ele>59.92</ele>
        <time>2022-06-03T11:29:49.000Z</time>
      </trkpt>
      <trkpt lat="44.15808" lon="22.63957">
        <ele>59.48</ele>
        <time>2022-06-03T11:29:54.000Z</time>
      </trkpt>
      <trkpt lat="44.15828" lon="22.63967">
        <ele>59.97</ele>
        <time>2022-06-03T11:29:59.000Z</time>
      </trkpt>
      <trkpt lat="44.15843" lon="22.63977">
        <ele>59.84</ele>
        <time>2022-06-03T11:30:04.000Z</time>
      </trkpt>
      <trkpt lat="44.15862" lon="22.63991">
        <ele>60.53</ele>
        <time>2022-06-03T11:30:09.000Z</time>
      </trkpt>
      <trkpt lat="44.15878" lon="22.64003">
        <ele>61.6</ele>
        <time>2022-06-03T11:30:14.000Z</time>
      </trkpt>
      <trkpt lat="44.15901" lon="22.64017">
        <ele>62.17</ele>
        <time>2022-06-03T11:30:19.000Z</time>
      </trkpt>
      <trkpt lat="44.15924" lon="22.6403">
        <ele>62.18</ele>
        <time>2022-06-03T11:30:24.000Z</time>
      </trkpt>
      <trkpt lat="44.15958" lon="22.64052">
        <ele>62.37</ele>
        <time>2022-06-03T11:30:29.000Z</time>
      </trkpt>
      <trkpt lat="44.15991" lon="22.64074">
        <ele>63.02</ele>
        <time>2022-06-03T11:30:34.000Z</time>
      </trkpt>
      <trkpt lat="44.16024" lon="22.64096">
        <ele>62.63</ele>
        <time>2022-06-03T11:30:39.000Z</time>
      </trkpt>
      <trkpt lat="44.16058" lon="22.64118">
        <ele>62.23</ele>
        <time>2022-06-03T11:30:44.000Z</time>
      </trkpt>
      <trkpt lat="44.16092" lon="22.64139">
        <ele>62.28</ele>
        <time>2022-06-03T11:30:49.000Z</time>
      </trkpt>
      <trkpt lat="44.16125" lon="22.6416">
        <ele>61.87</ele>
        <time>2022-06-03T11:30:54.000Z</time>
      </trkpt>
      <trkpt lat="44.16152" lon="22.64178">
        <ele>60.95</ele>
        <time>2022-06-03T11:30:59.000Z</time>
      </trkpt>
      <trkpt lat="44.16183" lon="22.64195">
        <ele>60.14</ele>
        <time>2022-06-03T11:31:04.000Z</time>
      </trkpt>
      <trkpt lat="44.16207" lon="22.64205">
        <ele>59.27</ele>
        <time>2022-06-03T11:31:09.000Z</time>
      </trkpt>
      <trkpt lat="44.16227" lon="22.64214">
        <ele>57.99</ele>
        <time>2022-06-03T11:31:14.000Z</time>
      </trkpt>
      <trkpt lat="44.16238" lon="22.64216">
        <ele>57.27</ele>
        <time>2022-06-03T11:31:19.000Z</time>
      </trkpt>
      <trkpt lat="44.16228" lon="22.64213">
        <ele>57.87</ele>
        <time>2022-06-03T11:31:25.000Z</time>
      </trkpt>
      <trkpt lat="44.16216" lon="22.64211">
        <ele>58</ele>
        <time>2022-06-03T11:31:30.000Z</time>
      </trkpt>
      <trkpt lat="44.16212" lon="22.64224">
        <ele>57.51</ele>
        <time>2022-06-03T11:31:36.000Z</time>
      </trkpt>
      <trkpt lat="44.16206" lon="22.64234">
        <ele>56.93</ele>
        <time>2022-06-03T11:31:45.000Z</time>
      </trkpt>
      <trkpt lat="44.16206" lon="22.64247">
        <ele>56.89</ele>
        <time>2022-06-03T11:31:56.000Z</time>
      </trkpt>
      <trkpt lat="44.16202" lon="22.64259">
        <ele>57.5</ele>
        <time>2022-06-03T11:32:04.000Z</time>
      </trkpt>
      <trkpt lat="44.16192" lon="22.64273">
        <ele>57.42</ele>
        <time>2022-06-03T11:32:25.000Z</time>
      </trkpt>
      <trkpt lat="44.16198" lon="22.64261">
        <ele>57.55</ele>
        <time>2022-06-03T11:33:08.000Z</time>
      </trkpt>
      <trkpt lat="44.16204" lon="22.64249">
        <ele>58.36</ele>
        <time>2022-06-03T11:33:15.000Z</time>
      </trkpt>
      <trkpt lat="44.16207" lon="22.64237">
        <ele>58.36</ele>
        <time>2022-06-03T11:33:24.000Z</time>
      </trkpt>
      <trkpt lat="44.16211" lon="22.64224">
        <ele>58.18</ele>
        <time>2022-06-03T11:33:38.000Z</time>
      </trkpt>
      <trkpt lat="44.16219" lon="22.64228">
        <ele>59.99</ele>
        <time>2022-06-03T11:34:07.000Z</time>
      </trkpt>
      <trkpt lat="44.16211" lon="22.64221">
        <ele>52.95</ele>
        <time>2022-06-03T11:35:33.000Z</time>
      </trkpt>
      <trkpt lat="44.16218" lon="22.6423">
        <ele>47.94</ele>
        <time>2022-06-03T11:38:06.000Z</time>
      </trkpt>
      <trkpt lat="44.16208" lon="22.64214">
        <ele>52.22</ele>
        <time>2022-06-03T11:39:51.000Z</time>
      </trkpt>
      <trkpt lat="44.16215" lon="22.64223">
        <ele>50.85</ele>
        <time>2022-06-03T11:41:43.000Z</time>
      </trkpt>
      <trkpt lat="44.16207" lon="22.64216">
        <ele>51.9</ele>
        <time>2022-06-03T11:42:45.000Z</time>
      </trkpt>
      <trkpt lat="44.16198" lon="22.64215">
        <ele>49.68</ele>
        <time>2022-06-03T11:43:26.000Z</time>
      </trkpt>
      <trkpt lat="44.16208" lon="22.64216">
        <ele>48.75</ele>
        <time>2022-06-03T11:44:08.000Z</time>
      </trkpt>
      <trkpt lat="44.16218" lon="22.6422">
        <ele>48.5</ele>
        <time>2022-06-03T11:46:05.000Z</time>
      </trkpt>
      <trkpt lat="44.16207" lon="22.64216">
        <ele>50.5</ele>
        <time>2022-06-03T11:47:24.000Z</time>
      </trkpt>
      <trkpt lat="44.16216" lon="22.64221">
        <ele>49.99</ele>
        <time>2022-06-03T11:48:44.000Z</time>
      </trkpt>
      <trkpt lat="44.16208" lon="22.64213">
        <ele>46.36</ele>
        <time>2022-06-03T11:49:55.000Z</time>
      </trkpt>
      <trkpt lat="44.16216" lon="22.64226">
        <ele>47.05</ele>
        <time>2022-06-03T11:54:21.000Z</time>
      </trkpt>
      <trkpt lat="44.16211" lon="22.64215">
        <ele>48.65</ele>
        <time>2022-06-03T11:55:44.000Z</time>
      </trkpt>
      <trkpt lat="44.16219" lon="22.64222">
        <ele>48.2</ele>
        <time>2022-06-03T11:56:17.000Z</time>
      </trkpt>
      <trkpt lat="44.16209" lon="22.64217">
        <ele>50.18</ele>
        <time>2022-06-03T11:57:10.000Z</time>
      </trkpt>
      <trkpt lat="44.16218" lon="22.64217">
        <ele>56.6</ele>
        <time>2022-06-03T11:59:15.000Z</time>
      </trkpt>
      <trkpt lat="44.16211" lon="22.64226">
        <ele>49.78</ele>
        <time>2022-06-03T12:03:17.000Z</time>
      </trkpt>
      <trkpt lat="44.16205" lon="22.64209">
        <ele>49.38</ele>
        <time>2022-06-03T12:07:54.000Z</time>
      </trkpt>
      <trkpt lat="44.16215" lon="22.64207">
        <ele>48.68</ele>
        <time>2022-06-03T12:08:32.000Z</time>
      </trkpt>
      <trkpt lat="44.16208" lon="22.64215">
        <ele>44.06</ele>
        <time>2022-06-03T12:09:59.000Z</time>
      </trkpt>
      <trkpt lat="44.16214" lon="22.64226">
        <ele>44.32</ele>
        <time>2022-06-03T12:12:14.000Z</time>
      </trkpt>
      <trkpt lat="44.16212" lon="22.64213">
        <ele>45.35</ele>
        <time>2022-06-03T12:14:21.000Z</time>
      </trkpt>
      <trkpt lat="44.16222" lon="22.64213">
        <ele>46.09</ele>
        <time>2022-06-03T12:14:36.000Z</time>
      </trkpt>
      <trkpt lat="44.16232" lon="22.64216">
        <ele>46.49</ele>
        <time>2022-06-03T12:14:42.000Z</time>
      </trkpt>
      <trkpt lat="44.16243" lon="22.64219">
        <ele>47.23</ele>
        <time>2022-06-03T12:14:47.000Z</time>
      </trkpt>
      <trkpt lat="44.16259" lon="22.64226">
        <ele>47.87</ele>
        <time>2022-06-03T12:14:52.000Z</time>
      </trkpt>
      <trkpt lat="44.16274" lon="22.64236">
        <ele>48.56</ele>
        <time>2022-06-03T12:14:57.000Z</time>
      </trkpt>
      <trkpt lat="44.16285" lon="22.64243">
        <ele>49.17</ele>
        <time>2022-06-03T12:15:02.000Z</time>
      </trkpt>
      <trkpt lat="44.16299" lon="22.6425">
        <ele>49.86</ele>
        <time>2022-06-03T12:15:07.000Z</time>
      </trkpt>
      <trkpt lat="44.16313" lon="22.6426">
        <ele>50.42</ele>
        <time>2022-06-03T12:15:12.000Z</time>
      </trkpt>
      <trkpt lat="44.16329" lon="22.6427">
        <ele>50.97</ele>
        <time>2022-06-03T12:15:17.000Z</time>
      </trkpt>
      <trkpt lat="44.16346" lon="22.64281">
        <ele>51.92</ele>
        <time>2022-06-03T12:15:22.000Z</time>
      </trkpt>
      <trkpt lat="44.16361" lon="22.64292">
        <ele>52.14</ele>
        <time>2022-06-03T12:15:27.000Z</time>
      </trkpt>
      <trkpt lat="44.16375" lon="22.64302">
        <ele>52.58</ele>
        <time>2022-06-03T12:15:32.000Z</time>
      </trkpt>
      <trkpt lat="44.16393" lon="22.64315">
        <ele>53.25</ele>
        <time>2022-06-03T12:15:37.000Z</time>
      </trkpt>
      <trkpt lat="44.16409" lon="22.64328">
        <ele>54.26</ele>
        <time>2022-06-03T12:15:42.000Z</time>
      </trkpt>
      <trkpt lat="44.16426" lon="22.64339">
        <ele>55.04</ele>
        <time>2022-06-03T12:15:47.000Z</time>
      </trkpt>
      <trkpt lat="44.16441" lon="22.64351">
        <ele>55.9</ele>
        <time>2022-06-03T12:15:52.000Z</time>
      </trkpt>
      <trkpt lat="44.16455" lon="22.64358">
        <ele>57.3</ele>
        <time>2022-06-03T12:15:57.000Z</time>
      </trkpt>
      <trkpt lat="44.16467" lon="22.64369">
        <ele>58.51</ele>
        <time>2022-06-03T12:16:02.000Z</time>
      </trkpt>
      <trkpt lat="44.16476" lon="22.64374">
        <ele>59.71</ele>
        <time>2022-06-03T12:16:08.000Z</time>
      </trkpt>
      <trkpt lat="44.16487" lon="22.64383">
        <ele>60.57</ele>
        <time>2022-06-03T12:16:13.000Z</time>
      </trkpt>
      <trkpt lat="44.16499" lon="22.64391">
        <ele>60.92</ele>
        <time>2022-06-03T12:16:18.000Z</time>
      </trkpt>
      <trkpt lat="44.16511" lon="22.64399">
        <ele>61.01</ele>
        <time>2022-06-03T12:16:23.000Z</time>
      </trkpt>
      <trkpt lat="44.16525" lon="22.64406">
        <ele>60.59</ele>
        <time>2022-06-03T12:16:28.000Z</time>
      </trkpt>
      <trkpt lat="44.16538" lon="22.64412">
        <ele>57.92</ele>
        <time>2022-06-03T12:16:33.000Z</time>
      </trkpt>
      <trkpt lat="44.16553" lon="22.64414">
        <ele>56.99</ele>
        <time>2022-06-03T12:16:38.000Z</time>
      </trkpt>
      <trkpt lat="44.16567" lon="22.64415">
        <ele>56.71</ele>
        <time>2022-06-03T12:16:43.000Z</time>
      </trkpt>
      <trkpt lat="44.16582" lon="22.64416">
        <ele>55.87</ele>
        <time>2022-06-03T12:16:48.000Z</time>
      </trkpt>
      <trkpt lat="44.16598" lon="22.64416">
        <ele>55.81</ele>
        <time>2022-06-03T12:16:53.000Z</time>
      </trkpt>
      <trkpt lat="44.16613" lon="22.64416">
        <ele>57.05</ele>
        <time>2022-06-03T12:16:58.000Z</time>
      </trkpt>
      <trkpt lat="44.16628" lon="22.64414">
        <ele>56.36</ele>
        <time>2022-06-03T12:17:03.000Z</time>
      </trkpt>
      <trkpt lat="44.16649" lon="22.6441">
        <ele>57.48</ele>
        <time>2022-06-03T12:17:08.000Z</time>
      </trkpt>
      <trkpt lat="44.16671" lon="22.64404">
        <ele>58.43</ele>
        <time>2022-06-03T12:17:13.000Z</time>
      </trkpt>
      <trkpt lat="44.16696" lon="22.64401">
        <ele>57.08</ele>
        <time>2022-06-03T12:17:18.000Z</time>
      </trkpt>
      <trkpt lat="44.16723" lon="22.64396">
        <ele>54.8</ele>
        <time>2022-06-03T12:17:23.000Z</time>
      </trkpt>
      <trkpt lat="44.1675" lon="22.64391">
        <ele>52.78</ele>
        <time>2022-06-03T12:17:28.000Z</time>
      </trkpt>
      <trkpt lat="44.16776" lon="22.6439">
        <ele>52.19</ele>
        <time>2022-06-03T12:17:33.000Z</time>
      </trkpt>
      <trkpt lat="44.16799" lon="22.64395">
        <ele>51.9</ele>
        <time>2022-06-03T12:17:38.000Z</time>
      </trkpt>
      <trkpt lat="44.16815" lon="22.64402">
        <ele>52.52</ele>
        <time>2022-06-03T12:17:43.000Z</time>
      </trkpt>
      <trkpt lat="44.16828" lon="22.64407">
        <ele>52.49</ele>
        <time>2022-06-03T12:17:48.000Z</time>
      </trkpt>
      <trkpt lat="44.16845" lon="22.6441">
        <ele>51.78</ele>
        <time>2022-06-03T12:17:53.000Z</time>
      </trkpt>
      <trkpt lat="44.16865" lon="22.64412">
        <ele>50.9</ele>
        <time>2022-06-03T12:17:58.000Z</time>
      </trkpt>
      <trkpt lat="44.16889" lon="22.64416">
        <ele>49.52</ele>
        <time>2022-06-03T12:18:03.000Z</time>
      </trkpt>
      <trkpt lat="44.16922" lon="22.64413">
        <ele>51.84</ele>
        <time>2022-06-03T12:18:08.000Z</time>
      </trkpt>
      <trkpt lat="44.16947" lon="22.644">
        <ele>53.12</ele>
        <time>2022-06-03T12:18:13.000Z</time>
      </trkpt>
      <trkpt lat="44.16969" lon="22.64394">
        <ele>53.92</ele>
        <time>2022-06-03T12:18:18.000Z</time>
      </trkpt>
      <trkpt lat="44.16987" lon="22.64389">
        <ele>55.01</ele>
        <time>2022-06-03T12:18:23.000Z</time>
      </trkpt>
      <trkpt lat="44.17002" lon="22.64383">
        <ele>55.72</ele>
        <time>2022-06-03T12:18:28.000Z</time>
      </trkpt>
      <trkpt lat="44.17019" lon="22.64376">
        <ele>56.31</ele>
        <time>2022-06-03T12:18:33.000Z</time>
      </trkpt>
      <trkpt lat="44.17037" lon="22.64367">
        <ele>56.89</ele>
        <time>2022-06-03T12:18:38.000Z</time>
      </trkpt>
      <trkpt lat="44.17055" lon="22.64357">
        <ele>56.57</ele>
        <time>2022-06-03T12:18:43.000Z</time>
      </trkpt>
      <trkpt lat="44.17072" lon="22.64347">
        <ele>55.58</ele>
        <time>2022-06-03T12:18:48.000Z</time>
      </trkpt>
      <trkpt lat="44.17089" lon="22.64333">
        <ele>55.85</ele>
        <time>2022-06-03T12:18:53.000Z</time>
      </trkpt>
      <trkpt lat="44.17104" lon="22.64322">
        <ele>55.7</ele>
        <time>2022-06-03T12:18:58.000Z</time>
      </trkpt>
      <trkpt lat="44.17116" lon="22.64314">
        <ele>55.97</ele>
        <time>2022-06-03T12:19:03.000Z</time>
      </trkpt>
      <trkpt lat="44.17128" lon="22.64303">
        <ele>56.02</ele>
        <time>2022-06-03T12:19:08.000Z</time>
      </trkpt>
      <trkpt lat="44.17141" lon="22.64297">
        <ele>56.89</ele>
        <time>2022-06-03T12:19:13.000Z</time>
      </trkpt>
      <trkpt lat="44.17155" lon="22.64289">
        <ele>57.93</ele>
        <time>2022-06-03T12:19:18.000Z</time>
      </trkpt>
      <trkpt lat="44.17168" lon="22.64282">
        <ele>58.71</ele>
        <time>2022-06-03T12:19:23.000Z</time>
      </trkpt>
      <trkpt lat="44.17181" lon="22.64273">
        <ele>59.38</ele>
        <time>2022-06-03T12:19:28.000Z</time>
      </trkpt>
      <trkpt lat="44.17194" lon="22.64263">
        <ele>61.15</ele>
        <time>2022-06-03T12:19:33.000Z</time>
      </trkpt>
      <trkpt lat="44.17209" lon="22.64253">
        <ele>61.41</ele>
        <time>2022-06-03T12:19:38.000Z</time>
      </trkpt>
      <trkpt lat="44.17227" lon="22.64243">
        <ele>58.99</ele>
        <time>2022-06-03T12:19:43.000Z</time>
      </trkpt>
      <trkpt lat="44.17249" lon="22.64225">
        <ele>56.75</ele>
        <time>2022-06-03T12:19:48.000Z</time>
      </trkpt>
      <trkpt lat="44.17279" lon="22.64196">
        <ele>56.11</ele>
        <time>2022-06-03T12:19:53.000Z</time>
      </trkpt>
      <trkpt lat="44.17311" lon="22.64169">
        <ele>54.87</ele>
        <time>2022-06-03T12:19:58.000Z</time>
      </trkpt>
      <trkpt lat="44.17351" lon="22.64153">
        <ele>53.58</ele>
        <time>2022-06-03T12:20:03.000Z</time>
      </trkpt>
      <trkpt lat="44.17389" lon="22.64149">
        <ele>51.52</ele>
        <time>2022-06-03T12:20:08.000Z</time>
      </trkpt>
      <trkpt lat="44.1742" lon="22.64148">
        <ele>51.04</ele>
        <time>2022-06-03T12:20:13.000Z</time>
      </trkpt>
      <trkpt lat="44.1745" lon="22.64149">
        <ele>51.21</ele>
        <time>2022-06-03T12:20:18.000Z</time>
      </trkpt>
      <trkpt lat="44.17477" lon="22.64154">
        <ele>51</ele>
        <time>2022-06-03T12:20:23.000Z</time>
      </trkpt>
      <trkpt lat="44.175" lon="22.64156">
        <ele>50.48</ele>
        <time>2022-06-03T12:20:28.000Z</time>
      </trkpt>
      <trkpt lat="44.17519" lon="22.64158">
        <ele>52.14</ele>
        <time>2022-06-03T12:20:33.000Z</time>
      </trkpt>
      <trkpt lat="44.17534" lon="22.6416">
        <ele>51.7</ele>
        <time>2022-06-03T12:20:38.000Z</time>
      </trkpt>
      <trkpt lat="44.17548" lon="22.64163">
        <ele>52.41</ele>
        <time>2022-06-03T12:20:43.000Z</time>
      </trkpt>
      <trkpt lat="44.17559" lon="22.64163">
        <ele>53.36</ele>
        <time>2022-06-03T12:20:48.000Z</time>
      </trkpt>
      <trkpt lat="44.17569" lon="22.64164">
        <ele>54.36</ele>
        <time>2022-06-03T12:20:54.000Z</time>
      </trkpt>
      <trkpt lat="44.17578" lon="22.64165">
        <ele>55.28</ele>
        <time>2022-06-03T12:21:00.000Z</time>
      </trkpt>
      <trkpt lat="44.17588" lon="22.64165">
        <ele>54.75</ele>
        <time>2022-06-03T12:21:06.000Z</time>
      </trkpt>
      <trkpt lat="44.17599" lon="22.64169">
        <ele>53.56</ele>
        <time>2022-06-03T12:21:11.000Z</time>
      </trkpt>
      <trkpt lat="44.17611" lon="22.6417">
        <ele>53.95</ele>
        <time>2022-06-03T12:21:17.000Z</time>
      </trkpt>
      <trkpt lat="44.1762" lon="22.64173">
        <ele>53.77</ele>
        <time>2022-06-03T12:21:22.000Z</time>
      </trkpt>
      <trkpt lat="44.17629" lon="22.64177">
        <ele>54.9</ele>
        <time>2022-06-03T12:21:27.000Z</time>
      </trkpt>
      <trkpt lat="44.17642" lon="22.6418">
        <ele>55.74</ele>
        <time>2022-06-03T12:21:32.000Z</time>
      </trkpt>
      <trkpt lat="44.17656" lon="22.64186">
        <ele>56.74</ele>
        <time>2022-06-03T12:21:37.000Z</time>
      </trkpt>
      <trkpt lat="44.17667" lon="22.64187">
        <ele>59.24</ele>
        <time>2022-06-03T12:21:42.000Z</time>
      </trkpt>
      <trkpt lat="44.17677" lon="22.64187">
        <ele>60.75</ele>
        <time>2022-06-03T12:21:47.000Z</time>
      </trkpt>
      <trkpt lat="44.17686" lon="22.64187">
        <ele>62.7</ele>
        <time>2022-06-03T12:21:52.000Z</time>
      </trkpt>
      <trkpt lat="44.177" lon="22.6419">
        <ele>62.13</ele>
        <time>2022-06-03T12:21:57.000Z</time>
      </trkpt>
      <trkpt lat="44.17712" lon="22.64194">
        <ele>59.06</ele>
        <time>2022-06-03T12:22:02.000Z</time>
      </trkpt>
      <trkpt lat="44.17727" lon="22.64196">
        <ele>58.29</ele>
        <time>2022-06-03T12:22:07.000Z</time>
      </trkpt>
      <trkpt lat="44.17742" lon="22.64196">
        <ele>57.39</ele>
        <time>2022-06-03T12:22:12.000Z</time>
      </trkpt>
      <trkpt lat="44.17759" lon="22.64196">
        <ele>56.97</ele>
        <time>2022-06-03T12:22:17.000Z</time>
      </trkpt>
      <trkpt lat="44.17775" lon="22.64195">
        <ele>57.87</ele>
        <time>2022-06-03T12:22:22.000Z</time>
      </trkpt>
      <trkpt lat="44.17794" lon="22.64197">
        <ele>58.06</ele>
        <time>2022-06-03T12:22:27.000Z</time>
      </trkpt>
      <trkpt lat="44.17814" lon="22.64199">
        <ele>58.95</ele>
        <time>2022-06-03T12:22:32.000Z</time>
      </trkpt>
      <trkpt lat="44.17835" lon="22.64202">
        <ele>60</ele>
        <time>2022-06-03T12:22:37.000Z</time>
      </trkpt>
      <trkpt lat="44.17855" lon="22.64203">
        <ele>60.6</ele>
        <time>2022-06-03T12:22:42.000Z</time>
      </trkpt>
      <trkpt lat="44.17879" lon="22.64208">
        <ele>59.42</ele>
        <time>2022-06-03T12:22:47.000Z</time>
      </trkpt>
      <trkpt lat="44.179" lon="22.6421">
        <ele>58.5</ele>
        <time>2022-06-03T12:22:52.000Z</time>
      </trkpt>
      <trkpt lat="44.17922" lon="22.64211">
        <ele>58.67</ele>
        <time>2022-06-03T12:22:57.000Z</time>
      </trkpt>
      <trkpt lat="44.17941" lon="22.64212">
        <ele>57.81</ele>
        <time>2022-06-03T12:23:02.000Z</time>
      </trkpt>
      <trkpt lat="44.17961" lon="22.64213">
        <ele>57.35</ele>
        <time>2022-06-03T12:23:07.000Z</time>
      </trkpt>
      <trkpt lat="44.17982" lon="22.64214">
        <ele>59.39</ele>
        <time>2022-06-03T12:23:12.000Z</time>
      </trkpt>
      <trkpt lat="44.18009" lon="22.64219">
        <ele>61.85</ele>
        <time>2022-06-03T12:23:17.000Z</time>
      </trkpt>
      <trkpt lat="44.18032" lon="22.64223">
        <ele>62.2</ele>
        <time>2022-06-03T12:23:22.000Z</time>
      </trkpt>
      <trkpt lat="44.18054" lon="22.64226">
        <ele>63.29</ele>
        <time>2022-06-03T12:23:27.000Z</time>
      </trkpt>
      <trkpt lat="44.18074" lon="22.64228">
        <ele>63.63</ele>
        <time>2022-06-03T12:23:32.000Z</time>
      </trkpt>
      <trkpt lat="44.18095" lon="22.6423">
        <ele>62.25</ele>
        <time>2022-06-03T12:23:37.000Z</time>
      </trkpt>
      <trkpt lat="44.18116" lon="22.64234">
        <ele>63.92</ele>
        <time>2022-06-03T12:23:42.000Z</time>
      </trkpt>
      <trkpt lat="44.18139" lon="22.64236">
        <ele>65.88</ele>
        <time>2022-06-03T12:23:47.000Z</time>
      </trkpt>
      <trkpt lat="44.18163" lon="22.64238">
        <ele>66.14</ele>
        <time>2022-06-03T12:23:52.000Z</time>
      </trkpt>
      <trkpt lat="44.18183" lon="22.64241">
        <ele>63.32</ele>
        <time>2022-06-03T12:23:57.000Z</time>
      </trkpt>
      <trkpt lat="44.18203" lon="22.64245">
        <ele>62.36</ele>
        <time>2022-06-03T12:24:02.000Z</time>
      </trkpt>
      <trkpt lat="44.18223" lon="22.64246">
        <ele>61.21</ele>
        <time>2022-06-03T12:24:07.000Z</time>
      </trkpt>
      <trkpt lat="44.18242" lon="22.64246">
        <ele>59.96</ele>
        <time>2022-06-03T12:24:12.000Z</time>
      </trkpt>
      <trkpt lat="44.18268" lon="22.64248">
        <ele>58.36</ele>
        <time>2022-06-03T12:24:17.000Z</time>
      </trkpt>
      <trkpt lat="44.18305" lon="22.64252">
        <ele>57.78</ele>
        <time>2022-06-03T12:24:22.000Z</time>
      </trkpt>
      <trkpt lat="44.18343" lon="22.64257">
        <ele>55.94</ele>
        <time>2022-06-03T12:24:27.000Z</time>
      </trkpt>
      <trkpt lat="44.18385" lon="22.64267">
        <ele>53.33</ele>
        <time>2022-06-03T12:24:32.000Z</time>
      </trkpt>
      <trkpt lat="44.18428" lon="22.64278">
        <ele>51.86</ele>
        <time>2022-06-03T12:24:37.000Z</time>
      </trkpt>
      <trkpt lat="44.18467" lon="22.64291">
        <ele>51.39</ele>
        <time>2022-06-03T12:24:42.000Z</time>
      </trkpt>
      <trkpt lat="44.185" lon="22.64309">
        <ele>50.23</ele>
        <time>2022-06-03T12:24:47.000Z</time>
      </trkpt>
      <trkpt lat="44.18527" lon="22.64331">
        <ele>48.74</ele>
        <time>2022-06-03T12:24:52.000Z</time>
      </trkpt>
      <trkpt lat="44.18553" lon="22.64357">
        <ele>47.41</ele>
        <time>2022-06-03T12:24:57.000Z</time>
      </trkpt>
      <trkpt lat="44.18581" lon="22.64386">
        <ele>46.34</ele>
        <time>2022-06-03T12:25:02.000Z</time>
      </trkpt>
      <trkpt lat="44.18607" lon="22.64411">
        <ele>46.4</ele>
        <time>2022-06-03T12:25:07.000Z</time>
      </trkpt>
      <trkpt lat="44.1863" lon="22.64436">
        <ele>45.84</ele>
        <time>2022-06-03T12:25:12.000Z</time>
      </trkpt>
      <trkpt lat="44.18655" lon="22.64462">
        <ele>44.46</ele>
        <time>2022-06-03T12:25:17.000Z</time>
      </trkpt>
      <trkpt lat="44.18679" lon="22.64484">
        <ele>43.92</ele>
        <time>2022-06-03T12:25:22.000Z</time>
      </trkpt>
      <trkpt lat="44.18702" lon="22.64508">
        <ele>43.96</ele>
        <time>2022-06-03T12:25:27.000Z</time>
      </trkpt>
      <trkpt lat="44.18723" lon="22.64532">
        <ele>43.23</ele>
        <time>2022-06-03T12:25:32.000Z</time>
      </trkpt>
      <trkpt lat="44.18743" lon="22.64553">
        <ele>42.45</ele>
        <time>2022-06-03T12:25:37.000Z</time>
      </trkpt>
      <trkpt lat="44.18763" lon="22.64574">
        <ele>41.96</ele>
        <time>2022-06-03T12:25:42.000Z</time>
      </trkpt>
      <trkpt lat="44.18779" lon="22.64594">
        <ele>42.57</ele>
        <time>2022-06-03T12:25:47.000Z</time>
      </trkpt>
      <trkpt lat="44.18796" lon="22.64611">
        <ele>43.25</ele>
        <time>2022-06-03T12:25:52.000Z</time>
      </trkpt>
      <trkpt lat="44.18811" lon="22.64632">
        <ele>44</ele>
        <time>2022-06-03T12:25:57.000Z</time>
      </trkpt>
      <trkpt lat="44.18824" lon="22.64651">
        <ele>44.45</ele>
        <time>2022-06-03T12:26:02.000Z</time>
      </trkpt>
      <trkpt lat="44.18838" lon="22.64673">
        <ele>45.23</ele>
        <time>2022-06-03T12:26:07.000Z</time>
      </trkpt>
      <trkpt lat="44.18853" lon="22.64695">
        <ele>45.58</ele>
        <time>2022-06-03T12:26:12.000Z</time>
      </trkpt>
      <trkpt lat="44.18869" lon="22.64717">
        <ele>45.3</ele>
        <time>2022-06-03T12:26:17.000Z</time>
      </trkpt>
      <trkpt lat="44.18884" lon="22.64737">
        <ele>45.88</ele>
        <time>2022-06-03T12:26:22.000Z</time>
      </trkpt>
      <trkpt lat="44.18897" lon="22.64755">
        <ele>45.14</ele>
        <time>2022-06-03T12:26:27.000Z</time>
      </trkpt>
      <trkpt lat="44.18911" lon="22.64778">
        <ele>44.84</ele>
        <time>2022-06-03T12:26:32.000Z</time>
      </trkpt>
      <trkpt lat="44.18923" lon="22.64801">
        <ele>46.47</ele>
        <time>2022-06-03T12:26:37.000Z</time>
      </trkpt>
      <trkpt lat="44.18933" lon="22.64811">
        <ele>45.12</ele>
        <time>2022-06-03T12:27:10.000Z</time>
      </trkpt>
      <trkpt lat="44.18942" lon="22.64834">
        <ele>45.49</ele>
        <time>2022-06-03T12:27:15.000Z</time>
      </trkpt>
      <trkpt lat="44.18945" lon="22.64865">
        <ele>45.64</ele>
        <time>2022-06-03T12:27:20.000Z</time>
      </trkpt>
      <trkpt lat="44.18947" lon="22.64893">
        <ele>45.65</ele>
        <time>2022-06-03T12:27:25.000Z</time>
      </trkpt>
      <trkpt lat="44.18952" lon="22.6492">
        <ele>44.8</ele>
        <time>2022-06-03T12:27:30.000Z</time>
      </trkpt>
      <trkpt lat="44.18958" lon="22.64947">
        <ele>45.57</ele>
        <time>2022-06-03T12:27:35.000Z</time>
      </trkpt>
      <trkpt lat="44.18961" lon="22.64978">
        <ele>46.35</ele>
        <time>2022-06-03T12:27:40.000Z</time>
      </trkpt>
      <trkpt lat="44.18966" lon="22.65004">
        <ele>46.41</ele>
        <time>2022-06-03T12:27:45.000Z</time>
      </trkpt>
      <trkpt lat="44.18969" lon="22.65034">
        <ele>45.8</ele>
        <time>2022-06-03T12:27:50.000Z</time>
      </trkpt>
      <trkpt lat="44.18975" lon="22.65062">
        <ele>45.26</ele>
        <time>2022-06-03T12:27:55.000Z</time>
      </trkpt>
      <trkpt lat="44.18982" lon="22.65092">
        <ele>44.85</ele>
        <time>2022-06-03T12:28:00.000Z</time>
      </trkpt>
      <trkpt lat="44.18987" lon="22.65125">
        <ele>45.37</ele>
        <time>2022-06-03T12:28:05.000Z</time>
      </trkpt>
      <trkpt lat="44.18992" lon="22.65156">
        <ele>46.99</ele>
        <time>2022-06-03T12:28:10.000Z</time>
      </trkpt>
      <trkpt lat="44.18997" lon="22.65185">
        <ele>47.57</ele>
        <time>2022-06-03T12:28:15.000Z</time>
      </trkpt>
      <trkpt lat="44.19001" lon="22.65216">
        <ele>47.81</ele>
        <time>2022-06-03T12:28:20.000Z</time>
      </trkpt>
      <trkpt lat="44.19004" lon="22.65248">
        <ele>46.64</ele>
        <time>2022-06-03T12:28:25.000Z</time>
      </trkpt>
      <trkpt lat="44.19011" lon="22.65276">
        <ele>48.9</ele>
        <time>2022-06-03T12:28:30.000Z</time>
      </trkpt>
      <trkpt lat="44.19015" lon="22.65303">
        <ele>47.95</ele>
        <time>2022-06-03T12:28:35.000Z</time>
      </trkpt>
      <trkpt lat="44.19019" lon="22.6533">
        <ele>46.43</ele>
        <time>2022-06-03T12:28:40.000Z</time>
      </trkpt>
      <trkpt lat="44.19026" lon="22.65356">
        <ele>46.19</ele>
        <time>2022-06-03T12:28:45.000Z</time>
      </trkpt>
      <trkpt lat="44.19033" lon="22.65379">
        <ele>45.85</ele>
        <time>2022-06-03T12:28:50.000Z</time>
      </trkpt>
      <trkpt lat="44.1904" lon="22.65402">
        <ele>44.95</ele>
        <time>2022-06-03T12:28:55.000Z</time>
      </trkpt>
      <trkpt lat="44.19049" lon="22.65423">
        <ele>43.99</ele>
        <time>2022-06-03T12:29:00.000Z</time>
      </trkpt>
      <trkpt lat="44.19058" lon="22.65447">
        <ele>44.68</ele>
        <time>2022-06-03T12:29:05.000Z</time>
      </trkpt>
      <trkpt lat="44.19066" lon="22.65469">
        <ele>45.98</ele>
        <time>2022-06-03T12:29:10.000Z</time>
      </trkpt>
      <trkpt lat="44.19072" lon="22.65487">
        <ele>46.26</ele>
        <time>2022-06-03T12:29:15.000Z</time>
      </trkpt>
      <trkpt lat="44.19079" lon="22.65505">
        <ele>47.31</ele>
        <time>2022-06-03T12:29:20.000Z</time>
      </trkpt>
      <trkpt lat="44.19087" lon="22.65522">
        <ele>47.79</ele>
        <time>2022-06-03T12:29:25.000Z</time>
      </trkpt>
      <trkpt lat="44.19094" lon="22.65542">
        <ele>47.81</ele>
        <time>2022-06-03T12:29:30.000Z</time>
      </trkpt>
      <trkpt lat="44.19101" lon="22.65559">
        <ele>47.75</ele>
        <time>2022-06-03T12:29:35.000Z</time>
      </trkpt>
      <trkpt lat="44.19107" lon="22.65582">
        <ele>46.66</ele>
        <time>2022-06-03T12:29:40.000Z</time>
      </trkpt>
      <trkpt lat="44.19113" lon="22.65604">
        <ele>47.04</ele>
        <time>2022-06-03T12:29:45.000Z</time>
      </trkpt>
      <trkpt lat="44.19117" lon="22.65627">
        <ele>46.84</ele>
        <time>2022-06-03T12:29:50.000Z</time>
      </trkpt>
      <trkpt lat="44.19122" lon="22.65656">
        <ele>45.78</ele>
        <time>2022-06-03T12:29:55.000Z</time>
      </trkpt>
      <trkpt lat="44.19129" lon="22.65678">
        <ele>46.89</ele>
        <time>2022-06-03T12:30:00.000Z</time>
      </trkpt>
      <trkpt lat="44.19137" lon="22.65696">
        <ele>46.75</ele>
        <time>2022-06-03T12:30:05.000Z</time>
      </trkpt>
      <trkpt lat="44.19148" lon="22.65718">
        <ele>47.96</ele>
        <time>2022-06-03T12:30:10.000Z</time>
      </trkpt>
      <trkpt lat="44.19159" lon="22.65741">
        <ele>49.1</ele>
        <time>2022-06-03T12:30:15.000Z</time>
      </trkpt>
      <trkpt lat="44.19169" lon="22.65764">
        <ele>51.01</ele>
        <time>2022-06-03T12:30:20.000Z</time>
      </trkpt>
      <trkpt lat="44.19177" lon="22.65788">
        <ele>52.37</ele>
        <time>2022-06-03T12:30:25.000Z</time>
      </trkpt>
      <trkpt lat="44.19188" lon="22.65813">
        <ele>52.39</ele>
        <time>2022-06-03T12:30:30.000Z</time>
      </trkpt>
      <trkpt lat="44.19197" lon="22.65837">
        <ele>52.8</ele>
        <time>2022-06-03T12:30:35.000Z</time>
      </trkpt>
      <trkpt lat="44.19205" lon="22.65861">
        <ele>53.29</ele>
        <time>2022-06-03T12:30:40.000Z</time>
      </trkpt>
      <trkpt lat="44.19212" lon="22.65882">
        <ele>54.03</ele>
        <time>2022-06-03T12:30:45.000Z</time>
      </trkpt>
      <trkpt lat="44.19219" lon="22.65904">
        <ele>54.65</ele>
        <time>2022-06-03T12:30:50.000Z</time>
      </trkpt>
      <trkpt lat="44.19226" lon="22.65926">
        <ele>55.12</ele>
        <time>2022-06-03T12:30:55.000Z</time>
      </trkpt>
      <trkpt lat="44.19231" lon="22.65949">
        <ele>55.18</ele>
        <time>2022-06-03T12:31:00.000Z</time>
      </trkpt>
      <trkpt lat="44.19237" lon="22.6597">
        <ele>55.12</ele>
        <time>2022-06-03T12:31:05.000Z</time>
      </trkpt>
      <trkpt lat="44.19242" lon="22.65994">
        <ele>55.08</ele>
        <time>2022-06-03T12:31:10.000Z</time>
      </trkpt>
      <trkpt lat="44.19249" lon="22.66016">
        <ele>56.2</ele>
        <time>2022-06-03T12:31:15.000Z</time>
      </trkpt>
      <trkpt lat="44.19253" lon="22.66041">
        <ele>56.97</ele>
        <time>2022-06-03T12:31:20.000Z</time>
      </trkpt>
      <trkpt lat="44.19258" lon="22.66065">
        <ele>57.29</ele>
        <time>2022-06-03T12:31:25.000Z</time>
      </trkpt>
      <trkpt lat="44.19261" lon="22.66094">
        <ele>56.98</ele>
        <time>2022-06-03T12:31:30.000Z</time>
      </trkpt>
      <trkpt lat="44.19263" lon="22.66126">
        <ele>56.88</ele>
        <time>2022-06-03T12:31:35.000Z</time>
      </trkpt>
      <trkpt lat="44.19264" lon="22.6616">
        <ele>57.92</ele>
        <time>2022-06-03T12:31:40.000Z</time>
      </trkpt>
      <trkpt lat="44.19263" lon="22.66191">
        <ele>58.82</ele>
        <time>2022-06-03T12:31:45.000Z</time>
      </trkpt>
      <trkpt lat="44.19264" lon="22.66224">
        <ele>59.31</ele>
        <time>2022-06-03T12:31:50.000Z</time>
      </trkpt>
      <trkpt lat="44.19264" lon="22.66259">
        <ele>59.72</ele>
        <time>2022-06-03T12:31:55.000Z</time>
      </trkpt>
      <trkpt lat="44.19266" lon="22.66291">
        <ele>58.84</ele>
        <time>2022-06-03T12:32:00.000Z</time>
      </trkpt>
      <trkpt lat="44.19267" lon="22.66327">
        <ele>57.83</ele>
        <time>2022-06-03T12:32:05.000Z</time>
      </trkpt>
      <trkpt lat="44.19267" lon="22.66361">
        <ele>57.31</ele>
        <time>2022-06-03T12:32:10.000Z</time>
      </trkpt>
      <trkpt lat="44.19264" lon="22.664">
        <ele>57.49</ele>
        <time>2022-06-03T12:32:15.000Z</time>
      </trkpt>
      <trkpt lat="44.1926" lon="22.66441">
        <ele>58.09</ele>
        <time>2022-06-03T12:32:20.000Z</time>
      </trkpt>
      <trkpt lat="44.19253" lon="22.66481">
        <ele>58.13</ele>
        <time>2022-06-03T12:32:25.000Z</time>
      </trkpt>
      <trkpt lat="44.19247" lon="22.66518">
        <ele>57.3</ele>
        <time>2022-06-03T12:32:30.000Z</time>
      </trkpt>
      <trkpt lat="44.1924" lon="22.66555">
        <ele>56.54</ele>
        <time>2022-06-03T12:32:35.000Z</time>
      </trkpt>
      <trkpt lat="44.19233" lon="22.6659">
        <ele>56.26</ele>
        <time>2022-06-03T12:32:40.000Z</time>
      </trkpt>
      <trkpt lat="44.19231" lon="22.66625">
        <ele>55.87</ele>
        <time>2022-06-03T12:32:45.000Z</time>
      </trkpt>
      <trkpt lat="44.19234" lon="22.66656">
        <ele>54.11</ele>
        <time>2022-06-03T12:32:50.000Z</time>
      </trkpt>
      <trkpt lat="44.19241" lon="22.66683">
        <ele>53.55</ele>
        <time>2022-06-03T12:32:55.000Z</time>
      </trkpt>
      <trkpt lat="44.19247" lon="22.66709">
        <ele>53.72</ele>
        <time>2022-06-03T12:33:00.000Z</time>
      </trkpt>
      <trkpt lat="44.19255" lon="22.66739">
        <ele>54.01</ele>
        <time>2022-06-03T12:33:05.000Z</time>
      </trkpt>
      <trkpt lat="44.19265" lon="22.66767">
        <ele>55.1</ele>
        <time>2022-06-03T12:33:10.000Z</time>
      </trkpt>
      <trkpt lat="44.19272" lon="22.66797">
        <ele>54.98</ele>
        <time>2022-06-03T12:33:15.000Z</time>
      </trkpt>
      <trkpt lat="44.19278" lon="22.6683">
        <ele>53.81</ele>
        <time>2022-06-03T12:33:20.000Z</time>
      </trkpt>
      <trkpt lat="44.19292" lon="22.66861">
        <ele>51.91</ele>
        <time>2022-06-03T12:33:25.000Z</time>
      </trkpt>
      <trkpt lat="44.19307" lon="22.66894">
        <ele>51.08</ele>
        <time>2022-06-03T12:33:30.000Z</time>
      </trkpt>
      <trkpt lat="44.19323" lon="22.66926">
        <ele>49.74</ele>
        <time>2022-06-03T12:33:35.000Z</time>
      </trkpt>
      <trkpt lat="44.19337" lon="22.66959">
        <ele>49</ele>
        <time>2022-06-03T12:33:40.000Z</time>
      </trkpt>
      <trkpt lat="44.19335" lon="22.66995">
        <ele>48.44</ele>
        <time>2022-06-03T12:33:45.000Z</time>
      </trkpt>
      <trkpt lat="44.19329" lon="22.67028">
        <ele>47.64</ele>
        <time>2022-06-03T12:33:50.000Z</time>
      </trkpt>
      <trkpt lat="44.19319" lon="22.67061">
        <ele>47</ele>
        <time>2022-06-03T12:33:55.000Z</time>
      </trkpt>
      <trkpt lat="44.19309" lon="22.6709">
        <ele>45.57</ele>
        <time>2022-06-03T12:34:00.000Z</time>
      </trkpt>
      <trkpt lat="44.193" lon="22.67118">
        <ele>44.84</ele>
        <time>2022-06-03T12:34:05.000Z</time>
      </trkpt>
      <trkpt lat="44.19294" lon="22.67144">
        <ele>44.88</ele>
        <time>2022-06-03T12:34:10.000Z</time>
      </trkpt>
      <trkpt lat="44.19289" lon="22.67173">
        <ele>45.58</ele>
        <time>2022-06-03T12:34:15.000Z</time>
      </trkpt>
      <trkpt lat="44.19289" lon="22.672">
        <ele>45.69</ele>
        <time>2022-06-03T12:34:20.000Z</time>
      </trkpt>
      <trkpt lat="44.19288" lon="22.67223">
        <ele>46.33</ele>
        <time>2022-06-03T12:34:25.000Z</time>
      </trkpt>
      <trkpt lat="44.19289" lon="22.67247">
        <ele>46.93</ele>
        <time>2022-06-03T12:34:30.000Z</time>
      </trkpt>
      <trkpt lat="44.19296" lon="22.67269">
        <ele>47.67</ele>
        <time>2022-06-03T12:34:35.000Z</time>
      </trkpt>
      <trkpt lat="44.19304" lon="22.67289">
        <ele>48.36</ele>
        <time>2022-06-03T12:34:40.000Z</time>
      </trkpt>
      <trkpt lat="44.1931" lon="22.67306">
        <ele>49.43</ele>
        <time>2022-06-03T12:34:45.000Z</time>
      </trkpt>
      <trkpt lat="44.19313" lon="22.67327">
        <ele>50.24</ele>
        <time>2022-06-03T12:34:50.000Z</time>
      </trkpt>
      <trkpt lat="44.19319" lon="22.67346">
        <ele>51.24</ele>
        <time>2022-06-03T12:34:55.000Z</time>
      </trkpt>
      <trkpt lat="44.19322" lon="22.67362">
        <ele>52.04</ele>
        <time>2022-06-03T12:35:00.000Z</time>
      </trkpt>
      <trkpt lat="44.19324" lon="22.67378">
        <ele>52.74</ele>
        <time>2022-06-03T12:35:05.000Z</time>
      </trkpt>
      <trkpt lat="44.19331" lon="22.67391">
        <ele>53.61</ele>
        <time>2022-06-03T12:35:10.000Z</time>
      </trkpt>
      <trkpt lat="44.19333" lon="22.67409">
        <ele>54.34</ele>
        <time>2022-06-03T12:35:15.000Z</time>
      </trkpt>
      <trkpt lat="44.19336" lon="22.67422">
        <ele>55.71</ele>
        <time>2022-06-03T12:35:20.000Z</time>
      </trkpt>
      <trkpt lat="44.19334" lon="22.6744">
        <ele>55.5</ele>
        <time>2022-06-03T12:35:25.000Z</time>
      </trkpt>
      <trkpt lat="44.19338" lon="22.67452">
        <ele>55.89</ele>
        <time>2022-06-03T12:35:30.000Z</time>
      </trkpt>
      <trkpt lat="44.19341" lon="22.67465">
        <ele>56.34</ele>
        <time>2022-06-03T12:35:35.000Z</time>
      </trkpt>
      <trkpt lat="44.19342" lon="22.67478">
        <ele>56.82</ele>
        <time>2022-06-03T12:35:40.000Z</time>
      </trkpt>
      <trkpt lat="44.19344" lon="22.67491">
        <ele>56.49</ele>
        <time>2022-06-03T12:35:45.000Z</time>
      </trkpt>
      <trkpt lat="44.19346" lon="22.67508">
        <ele>57.62</ele>
        <time>2022-06-03T12:35:50.000Z</time>
      </trkpt>
      <trkpt lat="44.19347" lon="22.67525">
        <ele>57.53</ele>
        <time>2022-06-03T12:35:55.000Z</time>
      </trkpt>
      <trkpt lat="44.19348" lon="22.67541">
        <ele>57.35</ele>
        <time>2022-06-03T12:36:00.000Z</time>
      </trkpt>
      <trkpt lat="44.1935" lon="22.67556">
        <ele>57.71</ele>
        <time>2022-06-03T12:36:05.000Z</time>
      </trkpt>
      <trkpt lat="44.19354" lon="22.67568">
        <ele>57.87</ele>
        <time>2022-06-03T12:36:11.000Z</time>
      </trkpt>
      <trkpt lat="44.19357" lon="22.67583">
        <ele>59.41</ele>
        <time>2022-06-03T12:36:17.000Z</time>
      </trkpt>
      <trkpt lat="44.1936" lon="22.67596">
        <ele>60.56</ele>
        <time>2022-06-03T12:36:23.000Z</time>
      </trkpt>
      <trkpt lat="44.19363" lon="22.67611">
        <ele>61.55</ele>
        <time>2022-06-03T12:36:29.000Z</time>
      </trkpt>
      <trkpt lat="44.19366" lon="22.67624">
        <ele>62.36</ele>
        <time>2022-06-03T12:36:34.000Z</time>
      </trkpt>
      <trkpt lat="44.19367" lon="22.67638">
        <ele>63.16</ele>
        <time>2022-06-03T12:36:39.000Z</time>
      </trkpt>
      <trkpt lat="44.1937" lon="22.6765">
        <ele>63.96</ele>
        <time>2022-06-03T12:36:44.000Z</time>
      </trkpt>
      <trkpt lat="44.19372" lon="22.67663">
        <ele>64.22</ele>
        <time>2022-06-03T12:36:49.000Z</time>
      </trkpt>
      <trkpt lat="44.19375" lon="22.67677">
        <ele>65.15</ele>
        <time>2022-06-03T12:36:54.000Z</time>
      </trkpt>
      <trkpt lat="44.19377" lon="22.67694">
        <ele>65.64</ele>
        <time>2022-06-03T12:36:59.000Z</time>
      </trkpt>
      <trkpt lat="44.1938" lon="22.67715">
        <ele>66.59</ele>
        <time>2022-06-03T12:37:04.000Z</time>
      </trkpt>
      <trkpt lat="44.19383" lon="22.67739">
        <ele>67.27</ele>
        <time>2022-06-03T12:37:09.000Z</time>
      </trkpt>
      <trkpt lat="44.19383" lon="22.67769">
        <ele>67.39</ele>
        <time>2022-06-03T12:37:14.000Z</time>
      </trkpt>
      <trkpt lat="44.19387" lon="22.67796">
        <ele>68.52</ele>
        <time>2022-06-03T12:37:19.000Z</time>
      </trkpt>
      <trkpt lat="44.19388" lon="22.67826">
        <ele>69.61</ele>
        <time>2022-06-03T12:37:24.000Z</time>
      </trkpt>
      <trkpt lat="44.19391" lon="22.67852">
        <ele>69.98</ele>
        <time>2022-06-03T12:37:29.000Z</time>
      </trkpt>
      <trkpt lat="44.19394" lon="22.67876">
        <ele>69.62</ele>
        <time>2022-06-03T12:37:34.000Z</time>
      </trkpt>
      <trkpt lat="44.19399" lon="22.67898">
        <ele>68.15</ele>
        <time>2022-06-03T12:37:39.000Z</time>
      </trkpt>
      <trkpt lat="44.19404" lon="22.67923">
        <ele>67.56</ele>
        <time>2022-06-03T12:37:44.000Z</time>
      </trkpt>
      <trkpt lat="44.19408" lon="22.67949">
        <ele>66.87</ele>
        <time>2022-06-03T12:37:49.000Z</time>
      </trkpt>
      <trkpt lat="44.19412" lon="22.67975">
        <ele>66.15</ele>
        <time>2022-06-03T12:37:54.000Z</time>
      </trkpt>
      <trkpt lat="44.19415" lon="22.67999">
        <ele>65.72</ele>
        <time>2022-06-03T12:37:59.000Z</time>
      </trkpt>
      <trkpt lat="44.19414" lon="22.68031">
        <ele>64.56</ele>
        <time>2022-06-03T12:38:04.000Z</time>
      </trkpt>
      <trkpt lat="44.19416" lon="22.68063">
        <ele>64.25</ele>
        <time>2022-06-03T12:38:09.000Z</time>
      </trkpt>
      <trkpt lat="44.19417" lon="22.68097">
        <ele>65.51</ele>
        <time>2022-06-03T12:38:14.000Z</time>
      </trkpt>
      <trkpt lat="44.19419" lon="22.68133">
        <ele>67.69</ele>
        <time>2022-06-03T12:38:19.000Z</time>
      </trkpt>
      <trkpt lat="44.19421" lon="22.6817">
        <ele>68.1</ele>
        <time>2022-06-03T12:38:24.000Z</time>
      </trkpt>
      <trkpt lat="44.1942" lon="22.68207">
        <ele>68.96</ele>
        <time>2022-06-03T12:38:29.000Z</time>
      </trkpt>
      <trkpt lat="44.19421" lon="22.68243">
        <ele>68.94</ele>
        <time>2022-06-03T12:38:34.000Z</time>
      </trkpt>
      <trkpt lat="44.19422" lon="22.68279">
        <ele>68.45</ele>
        <time>2022-06-03T12:38:39.000Z</time>
      </trkpt>
      <trkpt lat="44.19425" lon="22.68318">
        <ele>66.21</ele>
        <time>2022-06-03T12:38:44.000Z</time>
      </trkpt>
      <trkpt lat="44.19423" lon="22.68359">
        <ele>64.99</ele>
        <time>2022-06-03T12:38:49.000Z</time>
      </trkpt>
      <trkpt lat="44.19422" lon="22.68399">
        <ele>64.69</ele>
        <time>2022-06-03T12:38:54.000Z</time>
      </trkpt>
      <trkpt lat="44.19425" lon="22.68438">
        <ele>65.21</ele>
        <time>2022-06-03T12:38:59.000Z</time>
      </trkpt>
      <trkpt lat="44.19426" lon="22.68478">
        <ele>66.31</ele>
        <time>2022-06-03T12:39:04.000Z</time>
      </trkpt>
      <trkpt lat="44.19424" lon="22.6852">
        <ele>64.99</ele>
        <time>2022-06-03T12:39:09.000Z</time>
      </trkpt>
      <trkpt lat="44.19424" lon="22.6856">
        <ele>63.65</ele>
        <time>2022-06-03T12:39:14.000Z</time>
      </trkpt>
      <trkpt lat="44.19426" lon="22.68599">
        <ele>63.41</ele>
        <time>2022-06-03T12:39:19.000Z</time>
      </trkpt>
      <trkpt lat="44.19428" lon="22.6864">
        <ele>62.09</ele>
        <time>2022-06-03T12:39:24.000Z</time>
      </trkpt>
      <trkpt lat="44.19428" lon="22.6868">
        <ele>62.22</ele>
        <time>2022-06-03T12:39:29.000Z</time>
      </trkpt>
      <trkpt lat="44.19426" lon="22.68719">
        <ele>61.51</ele>
        <time>2022-06-03T12:39:34.000Z</time>
      </trkpt>
      <trkpt lat="44.19427" lon="22.68755">
        <ele>61.49</ele>
        <time>2022-06-03T12:39:39.000Z</time>
      </trkpt>
      <trkpt lat="44.19427" lon="22.68789">
        <ele>60.76</ele>
        <time>2022-06-03T12:39:44.000Z</time>
      </trkpt>
      <trkpt lat="44.19429" lon="22.68822">
        <ele>59.8</ele>
        <time>2022-06-03T12:39:49.000Z</time>
      </trkpt>
      <trkpt lat="44.19431" lon="22.68854">
        <ele>59.81</ele>
        <time>2022-06-03T12:39:54.000Z</time>
      </trkpt>
      <trkpt lat="44.19436" lon="22.68887">
        <ele>58.78</ele>
        <time>2022-06-03T12:39:59.000Z</time>
      </trkpt>
      <trkpt lat="44.19437" lon="22.68922">
        <ele>56.22</ele>
        <time>2022-06-03T12:40:04.000Z</time>
      </trkpt>
      <trkpt lat="44.19439" lon="22.6896">
        <ele>57.11</ele>
        <time>2022-06-03T12:40:09.000Z</time>
      </trkpt>
      <trkpt lat="44.19441" lon="22.68995">
        <ele>57.3</ele>
        <time>2022-06-03T12:40:14.000Z</time>
      </trkpt>
      <trkpt lat="44.19444" lon="22.69032">
        <ele>56.75</ele>
        <time>2022-06-03T12:40:19.000Z</time>
      </trkpt>
      <trkpt lat="44.19448" lon="22.69067">
        <ele>55.08</ele>
        <time>2022-06-03T12:40:24.000Z</time>
      </trkpt>
      <trkpt lat="44.19452" lon="22.69103">
        <ele>55.54</ele>
        <time>2022-06-03T12:40:29.000Z</time>
      </trkpt>
      <trkpt lat="44.19456" lon="22.69138">
        <ele>56.2</ele>
        <time>2022-06-03T12:40:34.000Z</time>
      </trkpt>
      <trkpt lat="44.19459" lon="22.69174">
        <ele>55.46</ele>
        <time>2022-06-03T12:40:39.000Z</time>
      </trkpt>
      <trkpt lat="44.19458" lon="22.69212">
        <ele>55.6</ele>
        <time>2022-06-03T12:40:44.000Z</time>
      </trkpt>
      <trkpt lat="44.19457" lon="22.69251">
        <ele>55.53</ele>
        <time>2022-06-03T12:40:49.000Z</time>
      </trkpt>
      <trkpt lat="44.19455" lon="22.69289">
        <ele>56</ele>
        <time>2022-06-03T12:40:54.000Z</time>
      </trkpt>
      <trkpt lat="44.19453" lon="22.69326">
        <ele>56.12</ele>
        <time>2022-06-03T12:40:59.000Z</time>
      </trkpt>
      <trkpt lat="44.19451" lon="22.69363">
        <ele>56.85</ele>
        <time>2022-06-03T12:41:04.000Z</time>
      </trkpt>
      <trkpt lat="44.1945" lon="22.69397">
        <ele>58.99</ele>
        <time>2022-06-03T12:41:09.000Z</time>
      </trkpt>
      <trkpt lat="44.19451" lon="22.69434">
        <ele>61.4</ele>
        <time>2022-06-03T12:41:14.000Z</time>
      </trkpt>
      <trkpt lat="44.19451" lon="22.69472">
        <ele>62.54</ele>
        <time>2022-06-03T12:41:19.000Z</time>
      </trkpt>
      <trkpt lat="44.19456" lon="22.69509">
        <ele>62.48</ele>
        <time>2022-06-03T12:41:24.000Z</time>
      </trkpt>
      <trkpt lat="44.19463" lon="22.69544">
        <ele>61.69</ele>
        <time>2022-06-03T12:41:29.000Z</time>
      </trkpt>
      <trkpt lat="44.19469" lon="22.69576">
        <ele>57.84</ele>
        <time>2022-06-03T12:41:34.000Z</time>
      </trkpt>
      <trkpt lat="44.19475" lon="22.69606">
        <ele>55.99</ele>
        <time>2022-06-03T12:41:39.000Z</time>
      </trkpt>
      <trkpt lat="44.19482" lon="22.69632">
        <ele>56.65</ele>
        <time>2022-06-03T12:41:44.000Z</time>
      </trkpt>
      <trkpt lat="44.19488" lon="22.69661">
        <ele>58.47</ele>
        <time>2022-06-03T12:41:49.000Z</time>
      </trkpt>
      <trkpt lat="44.1949" lon="22.69685">
        <ele>57.98</ele>
        <time>2022-06-03T12:41:54.000Z</time>
      </trkpt>
      <trkpt lat="44.19494" lon="22.69709">
        <ele>57.53</ele>
        <time>2022-06-03T12:41:59.000Z</time>
      </trkpt>
      <trkpt lat="44.19496" lon="22.69735">
        <ele>56.26</ele>
        <time>2022-06-03T12:42:04.000Z</time>
      </trkpt>
      <trkpt lat="44.195" lon="22.6976">
        <ele>56.77</ele>
        <time>2022-06-03T12:42:09.000Z</time>
      </trkpt>
      <trkpt lat="44.19505" lon="22.69786">
        <ele>57.7</ele>
        <time>2022-06-03T12:42:14.000Z</time>
      </trkpt>
      <trkpt lat="44.19512" lon="22.69814">
        <ele>59.03</ele>
        <time>2022-06-03T12:42:19.000Z</time>
      </trkpt>
      <trkpt lat="44.19519" lon="22.69845">
        <ele>58.83</ele>
        <time>2022-06-03T12:42:24.000Z</time>
      </trkpt>
      <trkpt lat="44.19531" lon="22.6987">
        <ele>58.45</ele>
        <time>2022-06-03T12:42:29.000Z</time>
      </trkpt>
      <trkpt lat="44.19545" lon="22.69896">
        <ele>58.61</ele>
        <time>2022-06-03T12:42:34.000Z</time>
      </trkpt>
      <trkpt lat="44.19557" lon="22.69926">
        <ele>59.06</ele>
        <time>2022-06-03T12:42:39.000Z</time>
      </trkpt>
      <trkpt lat="44.19571" lon="22.6996">
        <ele>60.26</ele>
        <time>2022-06-03T12:42:44.000Z</time>
      </trkpt>
      <trkpt lat="44.19588" lon="22.69998">
        <ele>59.49</ele>
        <time>2022-06-03T12:42:49.000Z</time>
      </trkpt>
      <trkpt lat="44.19597" lon="22.70035">
        <ele>58.27</ele>
        <time>2022-06-03T12:42:54.000Z</time>
      </trkpt>
      <trkpt lat="44.19604" lon="22.70069">
        <ele>58.27</ele>
        <time>2022-06-03T12:42:59.000Z</time>
      </trkpt>
      <trkpt lat="44.19608" lon="22.70103">
        <ele>58.77</ele>
        <time>2022-06-03T12:43:04.000Z</time>
      </trkpt>
      <trkpt lat="44.19614" lon="22.7014">
        <ele>60.2</ele>
        <time>2022-06-03T12:43:09.000Z</time>
      </trkpt>
      <trkpt lat="44.19625" lon="22.70166">
        <ele>60.5</ele>
        <time>2022-06-03T12:43:14.000Z</time>
      </trkpt>
      <trkpt lat="44.19628" lon="22.70188">
        <ele>59.83</ele>
        <time>2022-06-03T12:43:19.000Z</time>
      </trkpt>
      <trkpt lat="44.1963" lon="22.70215">
        <ele>59.23</ele>
        <time>2022-06-03T12:43:24.000Z</time>
      </trkpt>
      <trkpt lat="44.19627" lon="22.70246">
        <ele>59.07</ele>
        <time>2022-06-03T12:43:29.000Z</time>
      </trkpt>
      <trkpt lat="44.19626" lon="22.7028">
        <ele>59.64</ele>
        <time>2022-06-03T12:43:34.000Z</time>
      </trkpt>
      <trkpt lat="44.19623" lon="22.70313">
        <ele>59.42</ele>
        <time>2022-06-03T12:43:39.000Z</time>
      </trkpt>
      <trkpt lat="44.19621" lon="22.70344">
        <ele>60.79</ele>
        <time>2022-06-03T12:43:44.000Z</time>
      </trkpt>
      <trkpt lat="44.19619" lon="22.70379">
        <ele>61.44</ele>
        <time>2022-06-03T12:43:49.000Z</time>
      </trkpt>
      <trkpt lat="44.19615" lon="22.70412">
        <ele>59.48</ele>
        <time>2022-06-03T12:43:54.000Z</time>
      </trkpt>
      <trkpt lat="44.19611" lon="22.70445">
        <ele>58.42</ele>
        <time>2022-06-03T12:43:59.000Z</time>
      </trkpt>
      <trkpt lat="44.19602" lon="22.70475">
        <ele>58.23</ele>
        <time>2022-06-03T12:44:04.000Z</time>
      </trkpt>
      <trkpt lat="44.19592" lon="22.70507">
        <ele>58.53</ele>
        <time>2022-06-03T12:44:09.000Z</time>
      </trkpt>
      <trkpt lat="44.1958" lon="22.70545">
        <ele>58.85</ele>
        <time>2022-06-03T12:44:14.000Z</time>
      </trkpt>
      <trkpt lat="44.19568" lon="22.70583">
        <ele>59</ele>
        <time>2022-06-03T12:44:19.000Z</time>
      </trkpt>
      <trkpt lat="44.19555" lon="22.70621">
        <ele>58.98</ele>
        <time>2022-06-03T12:44:24.000Z</time>
      </trkpt>
      <trkpt lat="44.19544" lon="22.70656">
        <ele>58.58</ele>
        <time>2022-06-03T12:44:29.000Z</time>
      </trkpt>
      <trkpt lat="44.19534" lon="22.70691">
        <ele>57.74</ele>
        <time>2022-06-03T12:44:34.000Z</time>
      </trkpt>
      <trkpt lat="44.19526" lon="22.70722">
        <ele>57.75</ele>
        <time>2022-06-03T12:44:39.000Z</time>
      </trkpt>
      <trkpt lat="44.19514" lon="22.70754">
        <ele>58.39</ele>
        <time>2022-06-03T12:44:44.000Z</time>
      </trkpt>
      <trkpt lat="44.19503" lon="22.70788">
        <ele>59.44</ele>
        <time>2022-06-03T12:44:49.000Z</time>
      </trkpt>
      <trkpt lat="44.19489" lon="22.70825">
        <ele>60.28</ele>
        <time>2022-06-03T12:44:54.000Z</time>
      </trkpt>
      <trkpt lat="44.1948" lon="22.70855">
        <ele>61.09</ele>
        <time>2022-06-03T12:44:59.000Z</time>
      </trkpt>
      <trkpt lat="44.19473" lon="22.70884">
        <ele>61.08</ele>
        <time>2022-06-03T12:45:04.000Z</time>
      </trkpt>
      <trkpt lat="44.19466" lon="22.70912">
        <ele>59.47</ele>
        <time>2022-06-03T12:45:09.000Z</time>
      </trkpt>
      <trkpt lat="44.19454" lon="22.70943">
        <ele>57.98</ele>
        <time>2022-06-03T12:45:14.000Z</time>
      </trkpt>
      <trkpt lat="44.19443" lon="22.70973">
        <ele>56.38</ele>
        <time>2022-06-03T12:45:19.000Z</time>
      </trkpt>
      <trkpt lat="44.19432" lon="22.71005">
        <ele>56.19</ele>
        <time>2022-06-03T12:45:24.000Z</time>
      </trkpt>
      <trkpt lat="44.19424" lon="22.71035">
        <ele>57.01</ele>
        <time>2022-06-03T12:45:29.000Z</time>
      </trkpt>
      <trkpt lat="44.19418" lon="22.71061">
        <ele>57.71</ele>
        <time>2022-06-03T12:45:34.000Z</time>
      </trkpt>
      <trkpt lat="44.19408" lon="22.71092">
        <ele>57.69</ele>
        <time>2022-06-03T12:45:39.000Z</time>
      </trkpt>
      <trkpt lat="44.19397" lon="22.71127">
        <ele>58.06</ele>
        <time>2022-06-03T12:45:44.000Z</time>
      </trkpt>
      <trkpt lat="44.19386" lon="22.7116">
        <ele>58.25</ele>
        <time>2022-06-03T12:45:49.000Z</time>
      </trkpt>
      <trkpt lat="44.19373" lon="22.71192">
        <ele>57.16</ele>
        <time>2022-06-03T12:45:54.000Z</time>
      </trkpt>
      <trkpt lat="44.19364" lon="22.71223">
        <ele>56.24</ele>
        <time>2022-06-03T12:45:59.000Z</time>
      </trkpt>
      <trkpt lat="44.19354" lon="22.71253">
        <ele>55.72</ele>
        <time>2022-06-03T12:46:04.000Z</time>
      </trkpt>
      <trkpt lat="44.19343" lon="22.71285">
        <ele>55.04</ele>
        <time>2022-06-03T12:46:09.000Z</time>
      </trkpt>
      <trkpt lat="44.19333" lon="22.71315">
        <ele>53.54</ele>
        <time>2022-06-03T12:46:14.000Z</time>
      </trkpt>
      <trkpt lat="44.19322" lon="22.71346">
        <ele>52.38</ele>
        <time>2022-06-03T12:46:19.000Z</time>
      </trkpt>
      <trkpt lat="44.19312" lon="22.71376">
        <ele>52.46</ele>
        <time>2022-06-03T12:46:24.000Z</time>
      </trkpt>
      <trkpt lat="44.19304" lon="22.71405">
        <ele>53.5</ele>
        <time>2022-06-03T12:46:29.000Z</time>
      </trkpt>
      <trkpt lat="44.19294" lon="22.71433">
        <ele>53.49</ele>
        <time>2022-06-03T12:46:34.000Z</time>
      </trkpt>
      <trkpt lat="44.19285" lon="22.71457">
        <ele>52.46</ele>
        <time>2022-06-03T12:46:39.000Z</time>
      </trkpt>
      <trkpt lat="44.1928" lon="22.71467">
        <ele>52.78</ele>
        <time>2022-06-03T12:46:47.000Z</time>
      </trkpt>
      <trkpt lat="44.19274" lon="22.71483">
        <ele>52.92</ele>
        <time>2022-06-03T12:47:45.000Z</time>
      </trkpt>
      <trkpt lat="44.1927" lon="22.71498">
        <ele>53.17</ele>
        <time>2022-06-03T12:47:51.000Z</time>
      </trkpt>
      <trkpt lat="44.19262" lon="22.71521">
        <ele>53.19</ele>
        <time>2022-06-03T12:47:56.000Z</time>
      </trkpt>
      <trkpt lat="44.19251" lon="22.71549">
        <ele>53.19</ele>
        <time>2022-06-03T12:48:01.000Z</time>
      </trkpt>
      <trkpt lat="44.19239" lon="22.71576">
        <ele>52.3</ele>
        <time>2022-06-03T12:48:06.000Z</time>
      </trkpt>
      <trkpt lat="44.19227" lon="22.71606">
        <ele>51.56</ele>
        <time>2022-06-03T12:48:11.000Z</time>
      </trkpt>
      <trkpt lat="44.19214" lon="22.71636">
        <ele>50.64</ele>
        <time>2022-06-03T12:48:16.000Z</time>
      </trkpt>
      <trkpt lat="44.19202" lon="22.71666">
        <ele>51.11</ele>
        <time>2022-06-03T12:48:21.000Z</time>
      </trkpt>
      <trkpt lat="44.19196" lon="22.71698">
        <ele>51.91</ele>
        <time>2022-06-03T12:48:26.000Z</time>
      </trkpt>
      <trkpt lat="44.19191" lon="22.71738">
        <ele>52.12</ele>
        <time>2022-06-03T12:48:31.000Z</time>
      </trkpt>
      <trkpt lat="44.19191" lon="22.71778">
        <ele>52.4</ele>
        <time>2022-06-03T12:48:36.000Z</time>
      </trkpt>
      <trkpt lat="44.19192" lon="22.71815">
        <ele>53.35</ele>
        <time>2022-06-03T12:48:41.000Z</time>
      </trkpt>
      <trkpt lat="44.19192" lon="22.71855">
        <ele>54.28</ele>
        <time>2022-06-03T12:48:46.000Z</time>
      </trkpt>
      <trkpt lat="44.19191" lon="22.71893">
        <ele>54.85</ele>
        <time>2022-06-03T12:48:51.000Z</time>
      </trkpt>
      <trkpt lat="44.1919" lon="22.71928">
        <ele>54.78</ele>
        <time>2022-06-03T12:48:56.000Z</time>
      </trkpt>
      <trkpt lat="44.19189" lon="22.7196">
        <ele>55.19</ele>
        <time>2022-06-03T12:49:01.000Z</time>
      </trkpt>
      <trkpt lat="44.19188" lon="22.71991">
        <ele>55.22</ele>
        <time>2022-06-03T12:49:06.000Z</time>
      </trkpt>
      <trkpt lat="44.19189" lon="22.72018">
        <ele>55.75</ele>
        <time>2022-06-03T12:49:11.000Z</time>
      </trkpt>
      <trkpt lat="44.19189" lon="22.72044">
        <ele>55.1</ele>
        <time>2022-06-03T12:49:16.000Z</time>
      </trkpt>
      <trkpt lat="44.19189" lon="22.72068">
        <ele>54.75</ele>
        <time>2022-06-03T12:49:21.000Z</time>
      </trkpt>
      <trkpt lat="44.19188" lon="22.72094">
        <ele>55.21</ele>
        <time>2022-06-03T12:49:26.000Z</time>
      </trkpt>
      <trkpt lat="44.19186" lon="22.72121">
        <ele>54.9</ele>
        <time>2022-06-03T12:49:31.000Z</time>
      </trkpt>
      <trkpt lat="44.19188" lon="22.72145">
        <ele>53.4</ele>
        <time>2022-06-03T12:49:36.000Z</time>
      </trkpt>
      <trkpt lat="44.19189" lon="22.72176">
        <ele>51.28</ele>
        <time>2022-06-03T12:49:41.000Z</time>
      </trkpt>
      <trkpt lat="44.1919" lon="22.7221">
        <ele>50.69</ele>
        <time>2022-06-03T12:49:46.000Z</time>
      </trkpt>
      <trkpt lat="44.19191" lon="22.72248">
        <ele>49.66</ele>
        <time>2022-06-03T12:49:51.000Z</time>
      </trkpt>
      <trkpt lat="44.19193" lon="22.72285">
        <ele>49.7</ele>
        <time>2022-06-03T12:49:56.000Z</time>
      </trkpt>
      <trkpt lat="44.19196" lon="22.72321">
        <ele>50.48</ele>
        <time>2022-06-03T12:50:01.000Z</time>
      </trkpt>
      <trkpt lat="44.19198" lon="22.72356">
        <ele>51.23</ele>
        <time>2022-06-03T12:50:06.000Z</time>
      </trkpt>
      <trkpt lat="44.19201" lon="22.7239">
        <ele>51.67</ele>
        <time>2022-06-03T12:50:11.000Z</time>
      </trkpt>
      <trkpt lat="44.19205" lon="22.72421">
        <ele>52.36</ele>
        <time>2022-06-03T12:50:16.000Z</time>
      </trkpt>
      <trkpt lat="44.19206" lon="22.72455">
        <ele>52.59</ele>
        <time>2022-06-03T12:50:21.000Z</time>
      </trkpt>
      <trkpt lat="44.19209" lon="22.72486">
        <ele>52.99</ele>
        <time>2022-06-03T12:50:26.000Z</time>
      </trkpt>
      <trkpt lat="44.19214" lon="22.72517">
        <ele>52.96</ele>
        <time>2022-06-03T12:50:31.000Z</time>
      </trkpt>
      <trkpt lat="44.19223" lon="22.72547">
        <ele>52.13</ele>
        <time>2022-06-03T12:50:36.000Z</time>
      </trkpt>
      <trkpt lat="44.1923" lon="22.72576">
        <ele>52.19</ele>
        <time>2022-06-03T12:50:41.000Z</time>
      </trkpt>
      <trkpt lat="44.19237" lon="22.72607">
        <ele>51.83</ele>
        <time>2022-06-03T12:50:46.000Z</time>
      </trkpt>
      <trkpt lat="44.19238" lon="22.72644">
        <ele>51.82</ele>
        <time>2022-06-03T12:50:51.000Z</time>
      </trkpt>
      <trkpt lat="44.19236" lon="22.72682">
        <ele>51.33</ele>
        <time>2022-06-03T12:50:56.000Z</time>
      </trkpt>
      <trkpt lat="44.19231" lon="22.7272">
        <ele>51.61</ele>
        <time>2022-06-03T12:51:01.000Z</time>
      </trkpt>
      <trkpt lat="44.19236" lon="22.72755">
        <ele>51.46</ele>
        <time>2022-06-03T12:51:06.000Z</time>
      </trkpt>
      <trkpt lat="44.19237" lon="22.72786">
        <ele>50.95</ele>
        <time>2022-06-03T12:51:11.000Z</time>
      </trkpt>
      <trkpt lat="44.1924" lon="22.72815">
        <ele>50.97</ele>
        <time>2022-06-03T12:51:16.000Z</time>
      </trkpt>
      <trkpt lat="44.19242" lon="22.72843">
        <ele>51.67</ele>
        <time>2022-06-03T12:51:21.000Z</time>
      </trkpt>
      <trkpt lat="44.19242" lon="22.72867">
        <ele>52.82</ele>
        <time>2022-06-03T12:51:26.000Z</time>
      </trkpt>
      <trkpt lat="44.19243" lon="22.72893">
        <ele>52.24</ele>
        <time>2022-06-03T12:51:31.000Z</time>
      </trkpt>
      <trkpt lat="44.19243" lon="22.72921">
        <ele>51.9</ele>
        <time>2022-06-03T12:51:36.000Z</time>
      </trkpt>
      <trkpt lat="44.19244" lon="22.72955">
        <ele>51.56</ele>
        <time>2022-06-03T12:51:41.000Z</time>
      </trkpt>
      <trkpt lat="44.19251" lon="22.72989">
        <ele>50.2</ele>
        <time>2022-06-03T12:51:46.000Z</time>
      </trkpt>
      <trkpt lat="44.1926" lon="22.73023">
        <ele>49.91</ele>
        <time>2022-06-03T12:51:51.000Z</time>
      </trkpt>
      <trkpt lat="44.1927" lon="22.73058">
        <ele>49.13</ele>
        <time>2022-06-03T12:51:56.000Z</time>
      </trkpt>
      <trkpt lat="44.19279" lon="22.73093">
        <ele>46.43</ele>
        <time>2022-06-03T12:52:01.000Z</time>
      </trkpt>
      <trkpt lat="44.19286" lon="22.73127">
        <ele>45.44</ele>
        <time>2022-06-03T12:52:06.000Z</time>
      </trkpt>
      <trkpt lat="44.19294" lon="22.73159">
        <ele>44.88</ele>
        <time>2022-06-03T12:52:11.000Z</time>
      </trkpt>
      <trkpt lat="44.19296" lon="22.73193">
        <ele>43.99</ele>
        <time>2022-06-03T12:52:16.000Z</time>
      </trkpt>
      <trkpt lat="44.19301" lon="22.73225">
        <ele>44.34</ele>
        <time>2022-06-03T12:52:21.000Z</time>
      </trkpt>
      <trkpt lat="44.19305" lon="22.73257">
        <ele>43.86</ele>
        <time>2022-06-03T12:52:26.000Z</time>
      </trkpt>
      <trkpt lat="44.19313" lon="22.7329">
        <ele>44.18</ele>
        <time>2022-06-03T12:52:31.000Z</time>
      </trkpt>
      <trkpt lat="44.19322" lon="22.73322">
        <ele>44.66</ele>
        <time>2022-06-03T12:52:36.000Z</time>
      </trkpt>
      <trkpt lat="44.19326" lon="22.73356">
        <ele>43.73</ele>
        <time>2022-06-03T12:52:41.000Z</time>
      </trkpt>
      <trkpt lat="44.19329" lon="22.73389">
        <ele>45.07</ele>
        <time>2022-06-03T12:52:46.000Z</time>
      </trkpt>
      <trkpt lat="44.19329" lon="22.73423">
        <ele>45.17</ele>
        <time>2022-06-03T12:52:51.000Z</time>
      </trkpt>
      <trkpt lat="44.19324" lon="22.73458">
        <ele>44.34</ele>
        <time>2022-06-03T12:52:56.000Z</time>
      </trkpt>
      <trkpt lat="44.19325" lon="22.73491">
        <ele>44.59</ele>
        <time>2022-06-03T12:53:01.000Z</time>
      </trkpt>
      <trkpt lat="44.19336" lon="22.7352">
        <ele>46.61</ele>
        <time>2022-06-03T12:53:06.000Z</time>
      </trkpt>
      <trkpt lat="44.19347" lon="22.73547">
        <ele>46.06</ele>
        <time>2022-06-03T12:53:11.000Z</time>
      </trkpt>
      <trkpt lat="44.19356" lon="22.73577">
        <ele>46.77</ele>
        <time>2022-06-03T12:53:16.000Z</time>
      </trkpt>
      <trkpt lat="44.19367" lon="22.73603">
        <ele>47.76</ele>
        <time>2022-06-03T12:53:21.000Z</time>
      </trkpt>
      <trkpt lat="44.19375" lon="22.73635">
        <ele>51.04</ele>
        <time>2022-06-03T12:53:26.000Z</time>
      </trkpt>
      <trkpt lat="44.19378" lon="22.73667">
        <ele>51.86</ele>
        <time>2022-06-03T12:53:31.000Z</time>
      </trkpt>
      <trkpt lat="44.19381" lon="22.73697">
        <ele>52.33</ele>
        <time>2022-06-03T12:53:36.000Z</time>
      </trkpt>
      <trkpt lat="44.19383" lon="22.73726">
        <ele>53.2</ele>
        <time>2022-06-03T12:53:41.000Z</time>
      </trkpt>
      <trkpt lat="44.19382" lon="22.73753">
        <ele>53.77</ele>
        <time>2022-06-03T12:53:46.000Z</time>
      </trkpt>
      <trkpt lat="44.19379" lon="22.73779">
        <ele>53.94</ele>
        <time>2022-06-03T12:53:51.000Z</time>
      </trkpt>
      <trkpt lat="44.19373" lon="22.73807">
        <ele>54.11</ele>
        <time>2022-06-03T12:53:56.000Z</time>
      </trkpt>
      <trkpt lat="44.19364" lon="22.73833">
        <ele>52.97</ele>
        <time>2022-06-03T12:54:01.000Z</time>
      </trkpt>
      <trkpt lat="44.19351" lon="22.73863">
        <ele>51.81</ele>
        <time>2022-06-03T12:54:06.000Z</time>
      </trkpt>
      <trkpt lat="44.19341" lon="22.73891">
        <ele>50.73</ele>
        <time>2022-06-03T12:54:11.000Z</time>
      </trkpt>
      <trkpt lat="44.19324" lon="22.73915">
        <ele>49.82</ele>
        <time>2022-06-03T12:54:16.000Z</time>
      </trkpt>
      <trkpt lat="44.19305" lon="22.7394">
        <ele>49.21</ele>
        <time>2022-06-03T12:54:21.000Z</time>
      </trkpt>
      <trkpt lat="44.19285" lon="22.73969">
        <ele>48.9</ele>
        <time>2022-06-03T12:54:26.000Z</time>
      </trkpt>
      <trkpt lat="44.19265" lon="22.73998">
        <ele>48.87</ele>
        <time>2022-06-03T12:54:31.000Z</time>
      </trkpt>
      <trkpt lat="44.19253" lon="22.74033">
        <ele>49.22</ele>
        <time>2022-06-03T12:54:36.000Z</time>
      </trkpt>
      <trkpt lat="44.19244" lon="22.74065">
        <ele>47.6</ele>
        <time>2022-06-03T12:54:41.000Z</time>
      </trkpt>
      <trkpt lat="44.19239" lon="22.74093">
        <ele>46.64</ele>
        <time>2022-06-03T12:54:46.000Z</time>
      </trkpt>
      <trkpt lat="44.19229" lon="22.74126">
        <ele>46.65</ele>
        <time>2022-06-03T12:54:51.000Z</time>
      </trkpt>
      <trkpt lat="44.19219" lon="22.74154">
        <ele>46.72</ele>
        <time>2022-06-03T12:54:56.000Z</time>
      </trkpt>
      <trkpt lat="44.19214" lon="22.74179">
        <ele>45.81</ele>
        <time>2022-06-03T12:55:01.000Z</time>
      </trkpt>
      <trkpt lat="44.19203" lon="22.7421">
        <ele>45.58</ele>
        <time>2022-06-03T12:55:06.000Z</time>
      </trkpt>
      <trkpt lat="44.19194" lon="22.7424">
        <ele>45.42</ele>
        <time>2022-06-03T12:55:11.000Z</time>
      </trkpt>
      <trkpt lat="44.19185" lon="22.74271">
        <ele>46.51</ele>
        <time>2022-06-03T12:55:16.000Z</time>
      </trkpt>
      <trkpt lat="44.19174" lon="22.74304">
        <ele>46.69</ele>
        <time>2022-06-03T12:55:21.000Z</time>
      </trkpt>
      <trkpt lat="44.19162" lon="22.74336">
        <ele>45.23</ele>
        <time>2022-06-03T12:55:26.000Z</time>
      </trkpt>
      <trkpt lat="44.19152" lon="22.74369">
        <ele>44.51</ele>
        <time>2022-06-03T12:55:31.000Z</time>
      </trkpt>
      <trkpt lat="44.19143" lon="22.744">
        <ele>45.63</ele>
        <time>2022-06-03T12:55:36.000Z</time>
      </trkpt>
      <trkpt lat="44.19134" lon="22.7443">
        <ele>46.7</ele>
        <time>2022-06-03T12:55:41.000Z</time>
      </trkpt>
      <trkpt lat="44.19129" lon="22.74454">
        <ele>46.57</ele>
        <time>2022-06-03T12:55:46.000Z</time>
      </trkpt>
      <trkpt lat="44.19121" lon="22.74483">
        <ele>46.63</ele>
        <time>2022-06-03T12:55:51.000Z</time>
      </trkpt>
      <trkpt lat="44.19112" lon="22.7451">
        <ele>45.74</ele>
        <time>2022-06-03T12:55:56.000Z</time>
      </trkpt>
      <trkpt lat="44.19102" lon="22.74536">
        <ele>45.45</ele>
        <time>2022-06-03T12:56:01.000Z</time>
      </trkpt>
      <trkpt lat="44.19092" lon="22.74564">
        <ele>44.9</ele>
        <time>2022-06-03T12:56:06.000Z</time>
      </trkpt>
      <trkpt lat="44.19082" lon="22.74591">
        <ele>44.38</ele>
        <time>2022-06-03T12:56:11.000Z</time>
      </trkpt>
      <trkpt lat="44.19074" lon="22.74619">
        <ele>44.13</ele>
        <time>2022-06-03T12:56:16.000Z</time>
      </trkpt>
      <trkpt lat="44.19064" lon="22.74649">
        <ele>44.3</ele>
        <time>2022-06-03T12:56:21.000Z</time>
      </trkpt>
      <trkpt lat="44.19053" lon="22.7468">
        <ele>44.75</ele>
        <time>2022-06-03T12:56:26.000Z</time>
      </trkpt>
      <trkpt lat="44.1904" lon="22.74712">
        <ele>45.71</ele>
        <time>2022-06-03T12:56:31.000Z</time>
      </trkpt>
      <trkpt lat="44.19026" lon="22.74745">
        <ele>46.3</ele>
        <time>2022-06-03T12:56:36.000Z</time>
      </trkpt>
      <trkpt lat="44.19014" lon="22.74774">
        <ele>47.36</ele>
        <time>2022-06-03T12:56:41.000Z</time>
      </trkpt>
      <trkpt lat="44.19002" lon="22.74807">
        <ele>47.94</ele>
        <time>2022-06-03T12:56:46.000Z</time>
      </trkpt>
      <trkpt lat="44.18989" lon="22.74838">
        <ele>49.11</ele>
        <time>2022-06-03T12:56:51.000Z</time>
      </trkpt>
      <trkpt lat="44.18978" lon="22.74867">
        <ele>49.7</ele>
        <time>2022-06-03T12:56:56.000Z</time>
      </trkpt>
      <trkpt lat="44.18967" lon="22.74894">
        <ele>49.87</ele>
        <time>2022-06-03T12:57:01.000Z</time>
      </trkpt>
      <trkpt lat="44.18956" lon="22.7492">
        <ele>50.19</ele>
        <time>2022-06-03T12:57:06.000Z</time>
      </trkpt>
      <trkpt lat="44.18945" lon="22.74945">
        <ele>49.76</ele>
        <time>2022-06-03T12:57:11.000Z</time>
      </trkpt>
      <trkpt lat="44.18933" lon="22.74971">
        <ele>49.24</ele>
        <time>2022-06-03T12:57:16.000Z</time>
      </trkpt>
      <trkpt lat="44.18918" lon="22.75">
        <ele>49.32</ele>
        <time>2022-06-03T12:57:21.000Z</time>
      </trkpt>
      <trkpt lat="44.18904" lon="22.75029">
        <ele>48.2</ele>
        <time>2022-06-03T12:57:26.000Z</time>
      </trkpt>
      <trkpt lat="44.18892" lon="22.75056">
        <ele>47.74</ele>
        <time>2022-06-03T12:57:31.000Z</time>
      </trkpt>
      <trkpt lat="44.18879" lon="22.75084">
        <ele>47.44</ele>
        <time>2022-06-03T12:57:36.000Z</time>
      </trkpt>
      <trkpt lat="44.18866" lon="22.75112">
        <ele>46.54</ele>
        <time>2022-06-03T12:57:41.000Z</time>
      </trkpt>
      <trkpt lat="44.18853" lon="22.75141">
        <ele>46.29</ele>
        <time>2022-06-03T12:57:46.000Z</time>
      </trkpt>
      <trkpt lat="44.18838" lon="22.7517">
        <ele>46.75</ele>
        <time>2022-06-03T12:57:51.000Z</time>
      </trkpt>
      <trkpt lat="44.18823" lon="22.75201">
        <ele>47.42</ele>
        <time>2022-06-03T12:57:56.000Z</time>
      </trkpt>
      <trkpt lat="44.18808" lon="22.75227">
        <ele>45.88</ele>
        <time>2022-06-03T12:58:01.000Z</time>
      </trkpt>
      <trkpt lat="44.18794" lon="22.75256">
        <ele>45.36</ele>
        <time>2022-06-03T12:58:06.000Z</time>
      </trkpt>
      <trkpt lat="44.18781" lon="22.75286">
        <ele>45.32</ele>
        <time>2022-06-03T12:58:11.000Z</time>
      </trkpt>
      <trkpt lat="44.18766" lon="22.75315">
        <ele>44.24</ele>
        <time>2022-06-03T12:58:16.000Z</time>
      </trkpt>
      <trkpt lat="44.18754" lon="22.75345">
        <ele>44.25</ele>
        <time>2022-06-03T12:58:21.000Z</time>
      </trkpt>
      <trkpt lat="44.18744" lon="22.75374">
        <ele>43.8</ele>
        <time>2022-06-03T12:58:26.000Z</time>
      </trkpt>
      <trkpt lat="44.18733" lon="22.75401">
        <ele>43.82</ele>
        <time>2022-06-03T12:58:31.000Z</time>
      </trkpt>
      <trkpt lat="44.18722" lon="22.75429">
        <ele>43.29</ele>
        <time>2022-06-03T12:58:36.000Z</time>
      </trkpt>
      <trkpt lat="44.18712" lon="22.75459">
        <ele>43.75</ele>
        <time>2022-06-03T12:58:41.000Z</time>
      </trkpt>
      <trkpt lat="44.18703" lon="22.75487">
        <ele>43.69</ele>
        <time>2022-06-03T12:58:46.000Z</time>
      </trkpt>
      <trkpt lat="44.1869" lon="22.75519">
        <ele>43.79</ele>
        <time>2022-06-03T12:58:51.000Z</time>
      </trkpt>
      <trkpt lat="44.18678" lon="22.7555">
        <ele>43.05</ele>
        <time>2022-06-03T12:58:56.000Z</time>
      </trkpt>
      <trkpt lat="44.18667" lon="22.7558">
        <ele>42.43</ele>
        <time>2022-06-03T12:59:01.000Z</time>
      </trkpt>
      <trkpt lat="44.18653" lon="22.75612">
        <ele>42.21</ele>
        <time>2022-06-03T12:59:06.000Z</time>
      </trkpt>
      <trkpt lat="44.1864" lon="22.75642">
        <ele>41.71</ele>
        <time>2022-06-03T12:59:11.000Z</time>
      </trkpt>
      <trkpt lat="44.18626" lon="22.75667">
        <ele>40.84</ele>
        <time>2022-06-03T12:59:16.000Z</time>
      </trkpt>
      <trkpt lat="44.18616" lon="22.75693">
        <ele>40.25</ele>
        <time>2022-06-03T12:59:21.000Z</time>
      </trkpt>
      <trkpt lat="44.18605" lon="22.75718">
        <ele>40.59</ele>
        <time>2022-06-03T12:59:26.000Z</time>
      </trkpt>
      <trkpt lat="44.18591" lon="22.75748">
        <ele>41.68</ele>
        <time>2022-06-03T12:59:31.000Z</time>
      </trkpt>
      <trkpt lat="44.18577" lon="22.75779">
        <ele>41.99</ele>
        <time>2022-06-03T12:59:36.000Z</time>
      </trkpt>
      <trkpt lat="44.18564" lon="22.75808">
        <ele>42</ele>
        <time>2022-06-03T12:59:41.000Z</time>
      </trkpt>
      <trkpt lat="44.18551" lon="22.75835">
        <ele>41.83</ele>
        <time>2022-06-03T12:59:46.000Z</time>
      </trkpt>
      <trkpt lat="44.18538" lon="22.75863">
        <ele>41.31</ele>
        <time>2022-06-03T12:59:51.000Z</time>
      </trkpt>
      <trkpt lat="44.18522" lon="22.75888">
        <ele>41.27</ele>
        <time>2022-06-03T12:59:56.000Z</time>
      </trkpt>
      <trkpt lat="44.18504" lon="22.75911">
        <ele>40.56</ele>
        <time>2022-06-03T13:00:01.000Z</time>
      </trkpt>
      <trkpt lat="44.18482" lon="22.75934">
        <ele>40.67</ele>
        <time>2022-06-03T13:00:06.000Z</time>
      </trkpt>
      <trkpt lat="44.18459" lon="22.75956">
        <ele>40.77</ele>
        <time>2022-06-03T13:00:11.000Z</time>
      </trkpt>
      <trkpt lat="44.18437" lon="22.75971">
        <ele>40.66</ele>
        <time>2022-06-03T13:00:16.000Z</time>
      </trkpt>
      <trkpt lat="44.18413" lon="22.75987">
        <ele>40.3</ele>
        <time>2022-06-03T13:00:21.000Z</time>
      </trkpt>
      <trkpt lat="44.1839" lon="22.75999">
        <ele>39.66</ele>
        <time>2022-06-03T13:00:26.000Z</time>
      </trkpt>
      <trkpt lat="44.18366" lon="22.76012">
        <ele>39.99</ele>
        <time>2022-06-03T13:00:31.000Z</time>
      </trkpt>
      <trkpt lat="44.18341" lon="22.7603">
        <ele>39.92</ele>
        <time>2022-06-03T13:00:36.000Z</time>
      </trkpt>
      <trkpt lat="44.18316" lon="22.76049">
        <ele>39.63</ele>
        <time>2022-06-03T13:00:41.000Z</time>
      </trkpt>
      <trkpt lat="44.18296" lon="22.7607">
        <ele>40.21</ele>
        <time>2022-06-03T13:00:46.000Z</time>
      </trkpt>
      <trkpt lat="44.18276" lon="22.76096">
        <ele>40.1</ele>
        <time>2022-06-03T13:00:51.000Z</time>
      </trkpt>
      <trkpt lat="44.18256" lon="22.76124">
        <ele>39.36</ele>
        <time>2022-06-03T13:00:56.000Z</time>
      </trkpt>
      <trkpt lat="44.18239" lon="22.76149">
        <ele>38.46</ele>
        <time>2022-06-03T13:01:01.000Z</time>
      </trkpt>
      <trkpt lat="44.18222" lon="22.76176">
        <ele>37.99</ele>
        <time>2022-06-03T13:01:06.000Z</time>
      </trkpt>
      <trkpt lat="44.18207" lon="22.76201">
        <ele>38.65</ele>
        <time>2022-06-03T13:01:11.000Z</time>
      </trkpt>
      <trkpt lat="44.18189" lon="22.76227">
        <ele>39.17</ele>
        <time>2022-06-03T13:01:16.000Z</time>
      </trkpt>
      <trkpt lat="44.18169" lon="22.76254">
        <ele>39.2</ele>
        <time>2022-06-03T13:01:21.000Z</time>
      </trkpt>
      <trkpt lat="44.18152" lon="22.76278">
        <ele>39.84</ele>
        <time>2022-06-03T13:01:26.000Z</time>
      </trkpt>
      <trkpt lat="44.18135" lon="22.76304">
        <ele>39.92</ele>
        <time>2022-06-03T13:01:31.000Z</time>
      </trkpt>
      <trkpt lat="44.18121" lon="22.76327">
        <ele>40</ele>
        <time>2022-06-03T13:01:36.000Z</time>
      </trkpt>
      <trkpt lat="44.18105" lon="22.76351">
        <ele>39.42</ele>
        <time>2022-06-03T13:01:41.000Z</time>
      </trkpt>
      <trkpt lat="44.1809" lon="22.76371">
        <ele>38.63</ele>
        <time>2022-06-03T13:01:46.000Z</time>
      </trkpt>
      <trkpt lat="44.18073" lon="22.76393">
        <ele>37.44</ele>
        <time>2022-06-03T13:01:51.000Z</time>
      </trkpt>
      <trkpt lat="44.18059" lon="22.76412">
        <ele>37.62</ele>
        <time>2022-06-03T13:01:56.000Z</time>
      </trkpt>
      <trkpt lat="44.18043" lon="22.76432">
        <ele>37.52</ele>
        <time>2022-06-03T13:02:01.000Z</time>
      </trkpt>
      <trkpt lat="44.18028" lon="22.76451">
        <ele>37.43</ele>
        <time>2022-06-03T13:02:06.000Z</time>
      </trkpt>
      <trkpt lat="44.18013" lon="22.7647">
        <ele>37.34</ele>
        <time>2022-06-03T13:02:11.000Z</time>
      </trkpt>
      <trkpt lat="44.17995" lon="22.76492">
        <ele>38.83</ele>
        <time>2022-06-03T13:02:16.000Z</time>
      </trkpt>
      <trkpt lat="44.17981" lon="22.76511">
        <ele>40.89</ele>
        <time>2022-06-03T13:02:21.000Z</time>
      </trkpt>
      <trkpt lat="44.17969" lon="22.7653">
        <ele>41.7</ele>
        <time>2022-06-03T13:02:26.000Z</time>
      </trkpt>
      <trkpt lat="44.17958" lon="22.76543">
        <ele>43.19</ele>
        <time>2022-06-03T13:02:31.000Z</time>
      </trkpt>
      <trkpt lat="44.17944" lon="22.7656">
        <ele>44.8</ele>
        <time>2022-06-03T13:02:36.000Z</time>
      </trkpt>
      <trkpt lat="44.17928" lon="22.76577">
        <ele>46.19</ele>
        <time>2022-06-03T13:02:41.000Z</time>
      </trkpt>
      <trkpt lat="44.17916" lon="22.76598">
        <ele>48.29</ele>
        <time>2022-06-03T13:02:46.000Z</time>
      </trkpt>
      <trkpt lat="44.179" lon="22.76619">
        <ele>48.73</ele>
        <time>2022-06-03T13:02:51.000Z</time>
      </trkpt>
      <trkpt lat="44.17881" lon="22.76641">
        <ele>47.67</ele>
        <time>2022-06-03T13:02:56.000Z</time>
      </trkpt>
      <trkpt lat="44.17864" lon="22.76662">
        <ele>46.76</ele>
        <time>2022-06-03T13:03:01.000Z</time>
      </trkpt>
      <trkpt lat="44.1785" lon="22.76679">
        <ele>45.96</ele>
        <time>2022-06-03T13:03:06.000Z</time>
      </trkpt>
      <trkpt lat="44.17834" lon="22.76698">
        <ele>45.94</ele>
        <time>2022-06-03T13:03:11.000Z</time>
      </trkpt>
      <trkpt lat="44.1782" lon="22.76712">
        <ele>44.86</ele>
        <time>2022-06-03T13:03:16.000Z</time>
      </trkpt>
      <trkpt lat="44.17801" lon="22.76731">
        <ele>43.82</ele>
        <time>2022-06-03T13:03:21.000Z</time>
      </trkpt>
      <trkpt lat="44.17787" lon="22.76748">
        <ele>42.3</ele>
        <time>2022-06-03T13:03:26.000Z</time>
      </trkpt>
      <trkpt lat="44.17768" lon="22.76768">
        <ele>41</ele>
        <time>2022-06-03T13:03:31.000Z</time>
      </trkpt>
      <trkpt lat="44.17751" lon="22.76788">
        <ele>39.77</ele>
        <time>2022-06-03T13:03:36.000Z</time>
      </trkpt>
      <trkpt lat="44.17732" lon="22.76805">
        <ele>38.67</ele>
        <time>2022-06-03T13:03:41.000Z</time>
      </trkpt>
      <trkpt lat="44.17714" lon="22.76826">
        <ele>37.67</ele>
        <time>2022-06-03T13:03:46.000Z</time>
      </trkpt>
      <trkpt lat="44.17698" lon="22.76845">
        <ele>36.84</ele>
        <time>2022-06-03T13:03:51.000Z</time>
      </trkpt>
      <trkpt lat="44.17685" lon="22.76857">
        <ele>36.24</ele>
        <time>2022-06-03T13:03:56.000Z</time>
      </trkpt>
      <trkpt lat="44.17674" lon="22.7687">
        <ele>35.56</ele>
        <time>2022-06-03T13:04:01.000Z</time>
      </trkpt>
      <trkpt lat="44.17668" lon="22.76882">
        <ele>35.03</ele>
        <time>2022-06-03T13:04:11.000Z</time>
      </trkpt>
      <trkpt lat="44.17659" lon="22.76878">
        <ele>34.7</ele>
        <time>2022-06-03T13:04:23.000Z</time>
      </trkpt>
      <trkpt lat="44.17652" lon="22.76891">
        <ele>34.63</ele>
        <time>2022-06-03T13:04:28.000Z</time>
      </trkpt>
      <trkpt lat="44.17645" lon="22.769">
        <ele>34.41</ele>
        <time>2022-06-03T13:04:33.000Z</time>
      </trkpt>
      <trkpt lat="44.17637" lon="22.76909">
        <ele>34.11</ele>
        <time>2022-06-03T13:04:38.000Z</time>
      </trkpt>
      <trkpt lat="44.17626" lon="22.76923">
        <ele>33.9</ele>
        <time>2022-06-03T13:04:43.000Z</time>
      </trkpt>
      <trkpt lat="44.17612" lon="22.76938">
        <ele>33.8</ele>
        <time>2022-06-03T13:04:48.000Z</time>
      </trkpt>
      <trkpt lat="44.17597" lon="22.76952">
        <ele>33.71</ele>
        <time>2022-06-03T13:04:53.000Z</time>
      </trkpt>
      <trkpt lat="44.17585" lon="22.76964">
        <ele>33.61</ele>
        <time>2022-06-03T13:04:58.000Z</time>
      </trkpt>
      <trkpt lat="44.17572" lon="22.76982">
        <ele>33.4</ele>
        <time>2022-06-03T13:05:03.000Z</time>
      </trkpt>
      <trkpt lat="44.17553" lon="22.77007">
        <ele>32.76</ele>
        <time>2022-06-03T13:05:08.000Z</time>
      </trkpt>
      <trkpt lat="44.17537" lon="22.77029">
        <ele>32.97</ele>
        <time>2022-06-03T13:05:13.000Z</time>
      </trkpt>
      <trkpt lat="44.1752" lon="22.77048">
        <ele>32.73</ele>
        <time>2022-06-03T13:05:18.000Z</time>
      </trkpt>
      <trkpt lat="44.17504" lon="22.77063">
        <ele>32.45</ele>
        <time>2022-06-03T13:05:23.000Z</time>
      </trkpt>
      <trkpt lat="44.17489" lon="22.77081">
        <ele>32.04</ele>
        <time>2022-06-03T13:05:28.000Z</time>
      </trkpt>
      <trkpt lat="44.17473" lon="22.77095">
        <ele>31.44</ele>
        <time>2022-06-03T13:05:33.000Z</time>
      </trkpt>
      <trkpt lat="44.17457" lon="22.77115">
        <ele>30.57</ele>
        <time>2022-06-03T13:05:38.000Z</time>
      </trkpt>
      <trkpt lat="44.17442" lon="22.77135">
        <ele>30.42</ele>
        <time>2022-06-03T13:05:43.000Z</time>
      </trkpt>
      <trkpt lat="44.17427" lon="22.77156">
        <ele>30.69</ele>
        <time>2022-06-03T13:05:48.000Z</time>
      </trkpt>
      <trkpt lat="44.17417" lon="22.77174">
        <ele>30.43</ele>
        <time>2022-06-03T13:05:53.000Z</time>
      </trkpt>
      <trkpt lat="44.17398" lon="22.77197">
        <ele>30.23</ele>
        <time>2022-06-03T13:05:58.000Z</time>
      </trkpt>
      <trkpt lat="44.17382" lon="22.77216">
        <ele>29.92</ele>
        <time>2022-06-03T13:06:03.000Z</time>
      </trkpt>
      <trkpt lat="44.17365" lon="22.77238">
        <ele>30.47</ele>
        <time>2022-06-03T13:06:08.000Z</time>
      </trkpt>
      <trkpt lat="44.17348" lon="22.77256">
        <ele>30.6</ele>
        <time>2022-06-03T13:06:13.000Z</time>
      </trkpt>
      <trkpt lat="44.17332" lon="22.77275">
        <ele>30.75</ele>
        <time>2022-06-03T13:06:18.000Z</time>
      </trkpt>
      <trkpt lat="44.17318" lon="22.77289">
        <ele>30.5</ele>
        <time>2022-06-03T13:06:23.000Z</time>
      </trkpt>
      <trkpt lat="44.17302" lon="22.77308">
        <ele>30.23</ele>
        <time>2022-06-03T13:06:28.000Z</time>
      </trkpt>
      <trkpt lat="44.17283" lon="22.77329">
        <ele>29.52</ele>
        <time>2022-06-03T13:06:33.000Z</time>
      </trkpt>
      <trkpt lat="44.17267" lon="22.77348">
        <ele>28.86</ele>
        <time>2022-06-03T13:06:38.000Z</time>
      </trkpt>
      <trkpt lat="44.17248" lon="22.77369">
        <ele>28.13</ele>
        <time>2022-06-03T13:06:43.000Z</time>
      </trkpt>
      <trkpt lat="44.17235" lon="22.77385">
        <ele>27.97</ele>
        <time>2022-06-03T13:06:48.000Z</time>
      </trkpt>
      <trkpt lat="44.17221" lon="22.774">
        <ele>27.71</ele>
        <time>2022-06-03T13:06:53.000Z</time>
      </trkpt>
      <trkpt lat="44.17204" lon="22.77417">
        <ele>27.04</ele>
        <time>2022-06-03T13:06:58.000Z</time>
      </trkpt>
      <trkpt lat="44.17187" lon="22.77435">
        <ele>26.88</ele>
        <time>2022-06-03T13:07:03.000Z</time>
      </trkpt>
      <trkpt lat="44.17169" lon="22.7745">
        <ele>26.91</ele>
        <time>2022-06-03T13:07:08.000Z</time>
      </trkpt>
      <trkpt lat="44.17146" lon="22.77467">
        <ele>26.93</ele>
        <time>2022-06-03T13:07:13.000Z</time>
      </trkpt>
      <trkpt lat="44.17126" lon="22.77479">
        <ele>26.62</ele>
        <time>2022-06-03T13:07:18.000Z</time>
      </trkpt>
      <trkpt lat="44.17109" lon="22.77491">
        <ele>26.65</ele>
        <time>2022-06-03T13:07:23.000Z</time>
      </trkpt>
      <trkpt lat="44.1709" lon="22.77501">
        <ele>26.3</ele>
        <time>2022-06-03T13:07:28.000Z</time>
      </trkpt>
      <trkpt lat="44.17074" lon="22.77518">
        <ele>26.86</ele>
        <time>2022-06-03T13:07:33.000Z</time>
      </trkpt>
      <trkpt lat="44.17058" lon="22.77534">
        <ele>26.48</ele>
        <time>2022-06-03T13:07:38.000Z</time>
      </trkpt>
      <trkpt lat="44.17046" lon="22.77551">
        <ele>26.32</ele>
        <time>2022-06-03T13:07:43.000Z</time>
      </trkpt>
      <trkpt lat="44.17033" lon="22.77564">
        <ele>26.01</ele>
        <time>2022-06-03T13:07:48.000Z</time>
      </trkpt>
      <trkpt lat="44.1702" lon="22.7758">
        <ele>24.89</ele>
        <time>2022-06-03T13:07:53.000Z</time>
      </trkpt>
      <trkpt lat="44.16999" lon="22.77598">
        <ele>24.4</ele>
        <time>2022-06-03T13:07:58.000Z</time>
      </trkpt>
      <trkpt lat="44.16981" lon="22.77617">
        <ele>25.68</ele>
        <time>2022-06-03T13:08:03.000Z</time>
      </trkpt>
      <trkpt lat="44.16963" lon="22.77635">
        <ele>26.51</ele>
        <time>2022-06-03T13:08:08.000Z</time>
      </trkpt>
      <trkpt lat="44.16945" lon="22.77652">
        <ele>26.97</ele>
        <time>2022-06-03T13:08:13.000Z</time>
      </trkpt>
      <trkpt lat="44.16928" lon="22.77668">
        <ele>27.17</ele>
        <time>2022-06-03T13:08:18.000Z</time>
      </trkpt>
      <trkpt lat="44.16913" lon="22.77684">
        <ele>27.84</ele>
        <time>2022-06-03T13:08:23.000Z</time>
      </trkpt>
      <trkpt lat="44.16897" lon="22.77699">
        <ele>28.3</ele>
        <time>2022-06-03T13:08:28.000Z</time>
      </trkpt>
      <trkpt lat="44.16878" lon="22.77719">
        <ele>28.98</ele>
        <time>2022-06-03T13:08:33.000Z</time>
      </trkpt>
      <trkpt lat="44.16858" lon="22.77742">
        <ele>31.64</ele>
        <time>2022-06-03T13:08:38.000Z</time>
      </trkpt>
      <trkpt lat="44.1684" lon="22.77763">
        <ele>32.14</ele>
        <time>2022-06-03T13:08:43.000Z</time>
      </trkpt>
      <trkpt lat="44.16825" lon="22.77779">
        <ele>32.22</ele>
        <time>2022-06-03T13:08:48.000Z</time>
      </trkpt>
      <trkpt lat="44.1681" lon="22.77799">
        <ele>33.23</ele>
        <time>2022-06-03T13:08:53.000Z</time>
      </trkpt>
      <trkpt lat="44.16794" lon="22.77815">
        <ele>34.42</ele>
        <time>2022-06-03T13:08:58.000Z</time>
      </trkpt>
      <trkpt lat="44.16782" lon="22.77824">
        <ele>36</ele>
        <time>2022-06-03T13:09:03.000Z</time>
      </trkpt>
      <trkpt lat="44.16775" lon="22.77836">
        <ele>39.44</ele>
        <time>2022-06-03T13:09:08.000Z</time>
      </trkpt>
      <trkpt lat="44.16766" lon="22.77838">
        <ele>44.82</ele>
        <time>2022-06-03T13:11:16.000Z</time>
      </trkpt>
      <trkpt lat="44.16778" lon="22.77837">
        <ele>46.7</ele>
        <time>2022-06-03T13:12:04.000Z</time>
      </trkpt>
      <trkpt lat="44.1677" lon="22.77847">
        <ele>46.7</ele>
        <time>2022-06-03T13:14:12.000Z</time>
      </trkpt>
      <trkpt lat="44.16763" lon="22.77857">
        <ele>46.53</ele>
        <time>2022-06-03T13:14:17.000Z</time>
      </trkpt>
      <trkpt lat="44.16755" lon="22.77865">
        <ele>46.7</ele>
        <time>2022-06-03T13:14:22.000Z</time>
      </trkpt>
      <trkpt lat="44.16745" lon="22.77879">
        <ele>46.53</ele>
        <time>2022-06-03T13:14:27.000Z</time>
      </trkpt>
      <trkpt lat="44.16731" lon="22.77895">
        <ele>46.69</ele>
        <time>2022-06-03T13:14:32.000Z</time>
      </trkpt>
      <trkpt lat="44.16719" lon="22.77912">
        <ele>46.7</ele>
        <time>2022-06-03T13:14:37.000Z</time>
      </trkpt>
      <trkpt lat="44.16705" lon="22.7793">
        <ele>47.21</ele>
        <time>2022-06-03T13:14:42.000Z</time>
      </trkpt>
      <trkpt lat="44.16692" lon="22.77944">
        <ele>47.32</ele>
        <time>2022-06-03T13:14:47.000Z</time>
      </trkpt>
      <trkpt lat="44.16678" lon="22.7796">
        <ele>47.12</ele>
        <time>2022-06-03T13:14:52.000Z</time>
      </trkpt>
      <trkpt lat="44.16665" lon="22.77978">
        <ele>46.79</ele>
        <time>2022-06-03T13:14:57.000Z</time>
      </trkpt>
      <trkpt lat="44.16654" lon="22.77997">
        <ele>47.27</ele>
        <time>2022-06-03T13:15:02.000Z</time>
      </trkpt>
      <trkpt lat="44.16645" lon="22.78014">
        <ele>46.69</ele>
        <time>2022-06-03T13:15:07.000Z</time>
      </trkpt>
      <trkpt lat="44.16627" lon="22.78035">
        <ele>47.31</ele>
        <time>2022-06-03T13:15:12.000Z</time>
      </trkpt>
      <trkpt lat="44.16614" lon="22.78055">
        <ele>47.92</ele>
        <time>2022-06-03T13:15:17.000Z</time>
      </trkpt>
      <trkpt lat="44.166" lon="22.78071">
        <ele>48.19</ele>
        <time>2022-06-03T13:15:22.000Z</time>
      </trkpt>
      <trkpt lat="44.16586" lon="22.78084">
        <ele>48.73</ele>
        <time>2022-06-03T13:15:27.000Z</time>
      </trkpt>
      <trkpt lat="44.16574" lon="22.78098">
        <ele>48.92</ele>
        <time>2022-06-03T13:15:32.000Z</time>
      </trkpt>
      <trkpt lat="44.16562" lon="22.78114">
        <ele>49.49</ele>
        <time>2022-06-03T13:15:37.000Z</time>
      </trkpt>
      <trkpt lat="44.16549" lon="22.7813">
        <ele>48.76</ele>
        <time>2022-06-03T13:15:42.000Z</time>
      </trkpt>
      <trkpt lat="44.16533" lon="22.78143">
        <ele>47.64</ele>
        <time>2022-06-03T13:15:47.000Z</time>
      </trkpt>
      <trkpt lat="44.16522" lon="22.78153">
        <ele>46.95</ele>
        <time>2022-06-03T13:15:52.000Z</time>
      </trkpt>
      <trkpt lat="44.1651" lon="22.78162">
        <ele>47.78</ele>
        <time>2022-06-03T13:15:57.000Z</time>
      </trkpt>
      <trkpt lat="44.165" lon="22.7817">
        <ele>48.66</ele>
        <time>2022-06-03T13:16:02.000Z</time>
      </trkpt>
      <trkpt lat="44.16491" lon="22.78178">
        <ele>49.61</ele>
        <time>2022-06-03T13:16:07.000Z</time>
      </trkpt>
      <trkpt lat="44.16484" lon="22.78186">
        <ele>50.73</ele>
        <time>2022-06-03T13:16:12.000Z</time>
      </trkpt>
      <trkpt lat="44.16474" lon="22.78193">
        <ele>51.66</ele>
        <time>2022-06-03T13:16:17.000Z</time>
      </trkpt>
      <trkpt lat="44.1646" lon="22.78206">
        <ele>52.32</ele>
        <time>2022-06-03T13:16:22.000Z</time>
      </trkpt>
      <trkpt lat="44.16444" lon="22.78221">
        <ele>53.04</ele>
        <time>2022-06-03T13:16:27.000Z</time>
      </trkpt>
      <trkpt lat="44.16428" lon="22.78238">
        <ele>54.03</ele>
        <time>2022-06-03T13:16:32.000Z</time>
      </trkpt>
      <trkpt lat="44.16409" lon="22.7825">
        <ele>54.68</ele>
        <time>2022-06-03T13:16:37.000Z</time>
      </trkpt>
      <trkpt lat="44.1639" lon="22.78255">
        <ele>54.41</ele>
        <time>2022-06-03T13:16:42.000Z</time>
      </trkpt>
      <trkpt lat="44.16371" lon="22.78259">
        <ele>54.28</ele>
        <time>2022-06-03T13:16:47.000Z</time>
      </trkpt>
      <trkpt lat="44.16351" lon="22.78262">
        <ele>54.09</ele>
        <time>2022-06-03T13:16:52.000Z</time>
      </trkpt>
      <trkpt lat="44.1633" lon="22.78263">
        <ele>54.05</ele>
        <time>2022-06-03T13:16:57.000Z</time>
      </trkpt>
      <trkpt lat="44.16312" lon="22.78267">
        <ele>54.05</ele>
        <time>2022-06-03T13:17:02.000Z</time>
      </trkpt>
      <trkpt lat="44.163" lon="22.78283">
        <ele>53.07</ele>
        <time>2022-06-03T13:17:07.000Z</time>
      </trkpt>
      <trkpt lat="44.16289" lon="22.78298">
        <ele>52.77</ele>
        <time>2022-06-03T13:17:12.000Z</time>
      </trkpt>
      <trkpt lat="44.16277" lon="22.78312">
        <ele>51.59</ele>
        <time>2022-06-03T13:17:17.000Z</time>
      </trkpt>
      <trkpt lat="44.16267" lon="22.78326">
        <ele>50</ele>
        <time>2022-06-03T13:17:22.000Z</time>
      </trkpt>
      <trkpt lat="44.16258" lon="22.78337">
        <ele>49</ele>
        <time>2022-06-03T13:17:27.000Z</time>
      </trkpt>
      <trkpt lat="44.16248" lon="22.78346">
        <ele>48.36</ele>
        <time>2022-06-03T13:17:32.000Z</time>
      </trkpt>
      <trkpt lat="44.16238" lon="22.7836">
        <ele>48.94</ele>
        <time>2022-06-03T13:17:37.000Z</time>
      </trkpt>
      <trkpt lat="44.16235" lon="22.7838">
        <ele>50.56</ele>
        <time>2022-06-03T13:17:42.000Z</time>
      </trkpt>
      <trkpt lat="44.16233" lon="22.784">
        <ele>49.95</ele>
        <time>2022-06-03T13:17:47.000Z</time>
      </trkpt>
      <trkpt lat="44.16232" lon="22.78423">
        <ele>48.97</ele>
        <time>2022-06-03T13:17:52.000Z</time>
      </trkpt>
      <trkpt lat="44.16232" lon="22.78447">
        <ele>47.6</ele>
        <time>2022-06-03T13:17:57.000Z</time>
      </trkpt>
      <trkpt lat="44.16227" lon="22.78473">
        <ele>48.59</ele>
        <time>2022-06-03T13:18:02.000Z</time>
      </trkpt>
      <trkpt lat="44.16222" lon="22.78498">
        <ele>48.97</ele>
        <time>2022-06-03T13:18:07.000Z</time>
      </trkpt>
      <trkpt lat="44.16218" lon="22.78519">
        <ele>48.62</ele>
        <time>2022-06-03T13:18:12.000Z</time>
      </trkpt>
      <trkpt lat="44.16214" lon="22.78531">
        <ele>47.64</ele>
        <time>2022-06-03T13:18:19.000Z</time>
      </trkpt>
      <trkpt lat="44.16206" lon="22.78541">
        <ele>51.25</ele>
        <time>2022-06-03T13:21:54.000Z</time>
      </trkpt>
      <trkpt lat="44.16223" lon="22.78536">
        <ele>51.25</ele>
        <time>2022-06-03T13:23:40.000Z</time>
      </trkpt>
      <trkpt lat="44.16215" lon="22.78528">
        <ele>50.63</ele>
        <time>2022-06-03T13:25:16.000Z</time>
      </trkpt>
      <trkpt lat="44.16207" lon="22.7852">
        <ele>49.47</ele>
        <time>2022-06-03T13:27:23.000Z</time>
      </trkpt>
      <trkpt lat="44.16203" lon="22.78532">
        <ele>50.67</ele>
        <time>2022-06-03T13:27:36.000Z</time>
      </trkpt>
      <trkpt lat="44.16212" lon="22.78531">
        <ele>50.62</ele>
        <time>2022-06-03T13:28:07.000Z</time>
      </trkpt>
      <trkpt lat="44.16205" lon="22.78541">
        <ele>46.36</ele>
        <time>2022-06-03T13:31:34.000Z</time>
      </trkpt>
      <trkpt lat="44.16199" lon="22.78555">
        <ele>46.8</ele>
        <time>2022-06-03T13:31:39.000Z</time>
      </trkpt>
      <trkpt lat="44.16191" lon="22.78578">
        <ele>46.63</ele>
        <time>2022-06-03T13:31:44.000Z</time>
      </trkpt>
      <trkpt lat="44.16183" lon="22.78596">
        <ele>46.5</ele>
        <time>2022-06-03T13:31:49.000Z</time>
      </trkpt>
      <trkpt lat="44.16172" lon="22.78619">
        <ele>46.32</ele>
        <time>2022-06-03T13:31:54.000Z</time>
      </trkpt>
      <trkpt lat="44.16163" lon="22.78639">
        <ele>46.12</ele>
        <time>2022-06-03T13:31:59.000Z</time>
      </trkpt>
      <trkpt lat="44.16152" lon="22.78666">
        <ele>46.08</ele>
        <time>2022-06-03T13:32:04.000Z</time>
      </trkpt>
      <trkpt lat="44.16143" lon="22.78687">
        <ele>45.93</ele>
        <time>2022-06-03T13:32:09.000Z</time>
      </trkpt>
      <trkpt lat="44.16134" lon="22.78712">
        <ele>45.88</ele>
        <time>2022-06-03T13:32:14.000Z</time>
      </trkpt>
      <trkpt lat="44.16122" lon="22.78737">
        <ele>46.17</ele>
        <time>2022-06-03T13:32:19.000Z</time>
      </trkpt>
      <trkpt lat="44.16109" lon="22.78761">
        <ele>46.57</ele>
        <time>2022-06-03T13:32:24.000Z</time>
      </trkpt>
      <trkpt lat="44.16095" lon="22.78783">
        <ele>46.71</ele>
        <time>2022-06-03T13:32:29.000Z</time>
      </trkpt>
      <trkpt lat="44.16083" lon="22.788">
        <ele>47.27</ele>
        <time>2022-06-03T13:32:34.000Z</time>
      </trkpt>
      <trkpt lat="44.16077" lon="22.78815">
        <ele>47.48</ele>
        <time>2022-06-03T13:32:39.000Z</time>
      </trkpt>
      <trkpt lat="44.16086" lon="22.78814">
        <ele>48.67</ele>
        <time>2022-06-03T13:32:48.000Z</time>
      </trkpt>
      <trkpt lat="44.16094" lon="22.78807">
        <ele>49.86</ele>
        <time>2022-06-03T13:32:55.000Z</time>
      </trkpt>
      <trkpt lat="44.16088" lon="22.78796">
        <ele>50.87</ele>
        <time>2022-06-03T13:33:10.000Z</time>
      </trkpt>
      <trkpt lat="44.1608" lon="22.78803">
        <ele>51.8</ele>
        <time>2022-06-03T13:33:21.000Z</time>
      </trkpt>
      <trkpt lat="44.16069" lon="22.78805">
        <ele>51.41</ele>
        <time>2022-06-03T13:33:27.000Z</time>
      </trkpt>
      <trkpt lat="44.16049" lon="22.78801">
        <ele>51.1</ele>
        <time>2022-06-03T13:33:32.000Z</time>
      </trkpt>
      <trkpt lat="44.16028" lon="22.78796">
        <ele>51.06</ele>
        <time>2022-06-03T13:33:37.000Z</time>
      </trkpt>
      <trkpt lat="44.16009" lon="22.78775">
        <ele>50.19</ele>
        <time>2022-06-03T13:33:42.000Z</time>
      </trkpt>
      <trkpt lat="44.15992" lon="22.78757">
        <ele>50.77</ele>
        <time>2022-06-03T13:33:47.000Z</time>
      </trkpt>
      <trkpt lat="44.15974" lon="22.78739">
        <ele>49.99</ele>
        <time>2022-06-03T13:33:52.000Z</time>
      </trkpt>
      <trkpt lat="44.15958" lon="22.78721">
        <ele>48.23</ele>
        <time>2022-06-03T13:33:57.000Z</time>
      </trkpt>
      <trkpt lat="44.15942" lon="22.78704">
        <ele>47.49</ele>
        <time>2022-06-03T13:34:02.000Z</time>
      </trkpt>
      <trkpt lat="44.15928" lon="22.78687">
        <ele>47.76</ele>
        <time>2022-06-03T13:34:07.000Z</time>
      </trkpt>
      <trkpt lat="44.15909" lon="22.78675">
        <ele>46.72</ele>
        <time>2022-06-03T13:34:12.000Z</time>
      </trkpt>
      <trkpt lat="44.1589" lon="22.78666">
        <ele>45.71</ele>
        <time>2022-06-03T13:34:17.000Z</time>
      </trkpt>
      <trkpt lat="44.15873" lon="22.78661">
        <ele>45.46</ele>
        <time>2022-06-03T13:34:22.000Z</time>
      </trkpt>
      <trkpt lat="44.15852" lon="22.78669">
        <ele>46.07</ele>
        <time>2022-06-03T13:34:27.000Z</time>
      </trkpt>
      <trkpt lat="44.15833" lon="22.78684">
        <ele>46.37</ele>
        <time>2022-06-03T13:34:32.000Z</time>
      </trkpt>
      <trkpt lat="44.15812" lon="22.78697">
        <ele>46.79</ele>
        <time>2022-06-03T13:34:37.000Z</time>
      </trkpt>
      <trkpt lat="44.15793" lon="22.78713">
        <ele>46.69</ele>
        <time>2022-06-03T13:34:42.000Z</time>
      </trkpt>
      <trkpt lat="44.15779" lon="22.78737">
        <ele>45.89</ele>
        <time>2022-06-03T13:34:47.000Z</time>
      </trkpt>
      <trkpt lat="44.15769" lon="22.78765">
        <ele>45.33</ele>
        <time>2022-06-03T13:34:52.000Z</time>
      </trkpt>
      <trkpt lat="44.15763" lon="22.78796">
        <ele>44.83</ele>
        <time>2022-06-03T13:34:57.000Z</time>
      </trkpt>
      <trkpt lat="44.15759" lon="22.78826">
        <ele>45.14</ele>
        <time>2022-06-03T13:35:02.000Z</time>
      </trkpt>
      <trkpt lat="44.15758" lon="22.78852">
        <ele>44.76</ele>
        <time>2022-06-03T13:35:07.000Z</time>
      </trkpt>
      <trkpt lat="44.15752" lon="22.78882">
        <ele>44.97</ele>
        <time>2022-06-03T13:35:12.000Z</time>
      </trkpt>
      <trkpt lat="44.15738" lon="22.78912">
        <ele>45.12</ele>
        <time>2022-06-03T13:35:17.000Z</time>
      </trkpt>
      <trkpt lat="44.15722" lon="22.78942">
        <ele>44.12</ele>
        <time>2022-06-03T13:35:22.000Z</time>
      </trkpt>
      <trkpt lat="44.15709" lon="22.78969">
        <ele>42.85</ele>
        <time>2022-06-03T13:35:27.000Z</time>
      </trkpt>
      <trkpt lat="44.15697" lon="22.78995">
        <ele>42.43</ele>
        <time>2022-06-03T13:35:32.000Z</time>
      </trkpt>
      <trkpt lat="44.15683" lon="22.79021">
        <ele>42.35</ele>
        <time>2022-06-03T13:35:37.000Z</time>
      </trkpt>
      <trkpt lat="44.15669" lon="22.79041">
        <ele>42.26</ele>
        <time>2022-06-03T13:35:42.000Z</time>
      </trkpt>
      <trkpt lat="44.15657" lon="22.79065">
        <ele>42.24</ele>
        <time>2022-06-03T13:35:47.000Z</time>
      </trkpt>
      <trkpt lat="44.15645" lon="22.79085">
        <ele>41.94</ele>
        <time>2022-06-03T13:35:52.000Z</time>
      </trkpt>
      <trkpt lat="44.15631" lon="22.7911">
        <ele>41.43</ele>
        <time>2022-06-03T13:35:57.000Z</time>
      </trkpt>
      <trkpt lat="44.15616" lon="22.79136">
        <ele>41.15</ele>
        <time>2022-06-03T13:36:02.000Z</time>
      </trkpt>
      <trkpt lat="44.15611" lon="22.79148">
        <ele>40.9</ele>
        <time>2022-06-03T13:36:07.000Z</time>
      </trkpt>
      <trkpt lat="44.15605" lon="22.79164">
        <ele>41.07</ele>
        <time>2022-06-03T13:36:12.000Z</time>
      </trkpt>
      <trkpt lat="44.15591" lon="22.79193">
        <ele>41.02</ele>
        <time>2022-06-03T13:36:17.000Z</time>
      </trkpt>
      <trkpt lat="44.15582" lon="22.79216">
        <ele>40.83</ele>
        <time>2022-06-03T13:36:22.000Z</time>
      </trkpt>
      <trkpt lat="44.15574" lon="22.79237">
        <ele>39.97</ele>
        <time>2022-06-03T13:36:27.000Z</time>
      </trkpt>
      <trkpt lat="44.15561" lon="22.79265">
        <ele>39.82</ele>
        <time>2022-06-03T13:36:32.000Z</time>
      </trkpt>
      <trkpt lat="44.15547" lon="22.79291">
        <ele>39.98</ele>
        <time>2022-06-03T13:36:37.000Z</time>
      </trkpt>
      <trkpt lat="44.15535" lon="22.79315">
        <ele>40.08</ele>
        <time>2022-06-03T13:36:42.000Z</time>
      </trkpt>
      <trkpt lat="44.15522" lon="22.79342">
        <ele>40.54</ele>
        <time>2022-06-03T13:36:47.000Z</time>
      </trkpt>
      <trkpt lat="44.15507" lon="22.79368">
        <ele>40.82</ele>
        <time>2022-06-03T13:36:52.000Z</time>
      </trkpt>
      <trkpt lat="44.15493" lon="22.79392">
        <ele>40.95</ele>
        <time>2022-06-03T13:36:57.000Z</time>
      </trkpt>
      <trkpt lat="44.15478" lon="22.79419">
        <ele>40.82</ele>
        <time>2022-06-03T13:37:02.000Z</time>
      </trkpt>
      <trkpt lat="44.15462" lon="22.79444">
        <ele>42.15</ele>
        <time>2022-06-03T13:37:07.000Z</time>
      </trkpt>
      <trkpt lat="44.15449" lon="22.79464">
        <ele>41.66</ele>
        <time>2022-06-03T13:37:12.000Z</time>
      </trkpt>
      <trkpt lat="44.15435" lon="22.79484">
        <ele>41.7</ele>
        <time>2022-06-03T13:37:17.000Z</time>
      </trkpt>
      <trkpt lat="44.15424" lon="22.79504">
        <ele>41.31</ele>
        <time>2022-06-03T13:37:22.000Z</time>
      </trkpt>
      <trkpt lat="44.15413" lon="22.79525">
        <ele>41.97</ele>
        <time>2022-06-03T13:37:27.000Z</time>
      </trkpt>
      <trkpt lat="44.15404" lon="22.7954">
        <ele>42.2</ele>
        <time>2022-06-03T13:37:32.000Z</time>
      </trkpt>
      <trkpt lat="44.15395" lon="22.79558">
        <ele>42.47</ele>
        <time>2022-06-03T13:37:37.000Z</time>
      </trkpt>
      <trkpt lat="44.1538" lon="22.79582">
        <ele>41.61</ele>
        <time>2022-06-03T13:37:42.000Z</time>
      </trkpt>
      <trkpt lat="44.15363" lon="22.79606">
        <ele>39.83</ele>
        <time>2022-06-03T13:37:47.000Z</time>
      </trkpt>
      <trkpt lat="44.15352" lon="22.79627">
        <ele>41.14</ele>
        <time>2022-06-03T13:37:52.000Z</time>
      </trkpt>
      <trkpt lat="44.1534" lon="22.79649">
        <ele>41.86</ele>
        <time>2022-06-03T13:37:57.000Z</time>
      </trkpt>
      <trkpt lat="44.15329" lon="22.79671">
        <ele>42.05</ele>
        <time>2022-06-03T13:38:02.000Z</time>
      </trkpt>
      <trkpt lat="44.15318" lon="22.79693">
        <ele>41.98</ele>
        <time>2022-06-03T13:38:07.000Z</time>
      </trkpt>
      <trkpt lat="44.15308" lon="22.79716">
        <ele>42.45</ele>
        <time>2022-06-03T13:38:12.000Z</time>
      </trkpt>
      <trkpt lat="44.15295" lon="22.79742">
        <ele>42.73</ele>
        <time>2022-06-03T13:38:17.000Z</time>
      </trkpt>
      <trkpt lat="44.15281" lon="22.79767">
        <ele>42.95</ele>
        <time>2022-06-03T13:38:22.000Z</time>
      </trkpt>
      <trkpt lat="44.15269" lon="22.79791">
        <ele>42.65</ele>
        <time>2022-06-03T13:38:27.000Z</time>
      </trkpt>
      <trkpt lat="44.15258" lon="22.79815">
        <ele>42.35</ele>
        <time>2022-06-03T13:38:32.000Z</time>
      </trkpt>
      <trkpt lat="44.15246" lon="22.79841">
        <ele>43.11</ele>
        <time>2022-06-03T13:38:37.000Z</time>
      </trkpt>
      <trkpt lat="44.15232" lon="22.79867">
        <ele>43.74</ele>
        <time>2022-06-03T13:38:42.000Z</time>
      </trkpt>
      <trkpt lat="44.15219" lon="22.79891">
        <ele>43.68</ele>
        <time>2022-06-03T13:38:47.000Z</time>
      </trkpt>
      <trkpt lat="44.15205" lon="22.79916">
        <ele>43.11</ele>
        <time>2022-06-03T13:38:52.000Z</time>
      </trkpt>
      <trkpt lat="44.15192" lon="22.7994">
        <ele>42.85</ele>
        <time>2022-06-03T13:38:57.000Z</time>
      </trkpt>
      <trkpt lat="44.15179" lon="22.79966">
        <ele>42.55</ele>
        <time>2022-06-03T13:39:02.000Z</time>
      </trkpt>
      <trkpt lat="44.15164" lon="22.79994">
        <ele>42.56</ele>
        <time>2022-06-03T13:39:07.000Z</time>
      </trkpt>
      <trkpt lat="44.15151" lon="22.80018">
        <ele>42.64</ele>
        <time>2022-06-03T13:39:12.000Z</time>
      </trkpt>
      <trkpt lat="44.15139" lon="22.80043">
        <ele>42.57</ele>
        <time>2022-06-03T13:39:17.000Z</time>
      </trkpt>
      <trkpt lat="44.15125" lon="22.8007">
        <ele>43.83</ele>
        <time>2022-06-03T13:39:22.000Z</time>
      </trkpt>
      <trkpt lat="44.15112" lon="22.80096">
        <ele>44.74</ele>
        <time>2022-06-03T13:39:27.000Z</time>
      </trkpt>
      <trkpt lat="44.15099" lon="22.80119">
        <ele>45.2</ele>
        <time>2022-06-03T13:39:32.000Z</time>
      </trkpt>
      <trkpt lat="44.15086" lon="22.80143">
        <ele>45.95</ele>
        <time>2022-06-03T13:39:37.000Z</time>
      </trkpt>
      <trkpt lat="44.15074" lon="22.80168">
        <ele>46.39</ele>
        <time>2022-06-03T13:39:42.000Z</time>
      </trkpt>
      <trkpt lat="44.15061" lon="22.80193">
        <ele>45.53</ele>
        <time>2022-06-03T13:39:47.000Z</time>
      </trkpt>
      <trkpt lat="44.15047" lon="22.80217">
        <ele>44.53</ele>
        <time>2022-06-03T13:39:52.000Z</time>
      </trkpt>
      <trkpt lat="44.15034" lon="22.80238">
        <ele>44.29</ele>
        <time>2022-06-03T13:39:57.000Z</time>
      </trkpt>
      <trkpt lat="44.15019" lon="22.80262">
        <ele>46.16</ele>
        <time>2022-06-03T13:40:02.000Z</time>
      </trkpt>
      <trkpt lat="44.15005" lon="22.80285">
        <ele>46.41</ele>
        <time>2022-06-03T13:40:07.000Z</time>
      </trkpt>
      <trkpt lat="44.1499" lon="22.80306">
        <ele>45.58</ele>
        <time>2022-06-03T13:40:12.000Z</time>
      </trkpt>
      <trkpt lat="44.14976" lon="22.80331">
        <ele>45.7</ele>
        <time>2022-06-03T13:40:17.000Z</time>
      </trkpt>
      <trkpt lat="44.14967" lon="22.80355">
        <ele>45.44</ele>
        <time>2022-06-03T13:40:22.000Z</time>
      </trkpt>
      <trkpt lat="44.14953" lon="22.80379">
        <ele>44.63</ele>
        <time>2022-06-03T13:40:27.000Z</time>
      </trkpt>
      <trkpt lat="44.14938" lon="22.80408">
        <ele>44.33</ele>
        <time>2022-06-03T13:40:32.000Z</time>
      </trkpt>
      <trkpt lat="44.14922" lon="22.8044">
        <ele>44.42</ele>
        <time>2022-06-03T13:40:37.000Z</time>
      </trkpt>
      <trkpt lat="44.14906" lon="22.8047">
        <ele>44.21</ele>
        <time>2022-06-03T13:40:42.000Z</time>
      </trkpt>
      <trkpt lat="44.1489" lon="22.80502">
        <ele>44.52</ele>
        <time>2022-06-03T13:40:47.000Z</time>
      </trkpt>
      <trkpt lat="44.14876" lon="22.80532">
        <ele>45.08</ele>
        <time>2022-06-03T13:40:52.000Z</time>
      </trkpt>
      <trkpt lat="44.14861" lon="22.80562">
        <ele>44.71</ele>
        <time>2022-06-03T13:40:57.000Z</time>
      </trkpt>
      <trkpt lat="44.14848" lon="22.8059">
        <ele>44.73</ele>
        <time>2022-06-03T13:41:02.000Z</time>
      </trkpt>
      <trkpt lat="44.14834" lon="22.80617">
        <ele>43.83</ele>
        <time>2022-06-03T13:41:07.000Z</time>
      </trkpt>
      <trkpt lat="44.14821" lon="22.80643">
        <ele>42.99</ele>
        <time>2022-06-03T13:41:12.000Z</time>
      </trkpt>
      <trkpt lat="44.14807" lon="22.80668">
        <ele>42.44</ele>
        <time>2022-06-03T13:41:17.000Z</time>
      </trkpt>
      <trkpt lat="44.14794" lon="22.80692">
        <ele>42.16</ele>
        <time>2022-06-03T13:41:22.000Z</time>
      </trkpt>
      <trkpt lat="44.1478" lon="22.80717">
        <ele>42.48</ele>
        <time>2022-06-03T13:41:27.000Z</time>
      </trkpt>
      <trkpt lat="44.14767" lon="22.80739">
        <ele>42.2</ele>
        <time>2022-06-03T13:41:32.000Z</time>
      </trkpt>
      <trkpt lat="44.1475" lon="22.80762">
        <ele>42.5</ele>
        <time>2022-06-03T13:41:37.000Z</time>
      </trkpt>
      <trkpt lat="44.14737" lon="22.80782">
        <ele>42.52</ele>
        <time>2022-06-03T13:41:42.000Z</time>
      </trkpt>
      <trkpt lat="44.14719" lon="22.80807">
        <ele>43.23</ele>
        <time>2022-06-03T13:41:47.000Z</time>
      </trkpt>
      <trkpt lat="44.14705" lon="22.80825">
        <ele>43.62</ele>
        <time>2022-06-03T13:41:52.000Z</time>
      </trkpt>
      <trkpt lat="44.14692" lon="22.8084">
        <ele>43.3</ele>
        <time>2022-06-03T13:41:57.000Z</time>
      </trkpt>
      <trkpt lat="44.1468" lon="22.80856">
        <ele>43.46</ele>
        <time>2022-06-03T13:42:02.000Z</time>
      </trkpt>
      <trkpt lat="44.14667" lon="22.80871">
        <ele>43.97</ele>
        <time>2022-06-03T13:42:07.000Z</time>
      </trkpt>
      <trkpt lat="44.14658" lon="22.80884">
        <ele>44.36</ele>
        <time>2022-06-03T13:42:12.000Z</time>
      </trkpt>
      <trkpt lat="44.1465" lon="22.80897">
        <ele>45.14</ele>
        <time>2022-06-03T13:42:17.000Z</time>
      </trkpt>
      <trkpt lat="44.14644" lon="22.80907">
        <ele>46.03</ele>
        <time>2022-06-03T13:42:22.000Z</time>
      </trkpt>
      <trkpt lat="44.14633" lon="22.80925">
        <ele>46.47</ele>
        <time>2022-06-03T13:42:27.000Z</time>
      </trkpt>
      <trkpt lat="44.14626" lon="22.80939">
        <ele>47.43</ele>
        <time>2022-06-03T13:42:32.000Z</time>
      </trkpt>
      <trkpt lat="44.1462" lon="22.80954">
        <ele>48.45</ele>
        <time>2022-06-03T13:42:37.000Z</time>
      </trkpt>
      <trkpt lat="44.14612" lon="22.80972">
        <ele>49.14</ele>
        <time>2022-06-03T13:42:42.000Z</time>
      </trkpt>
      <trkpt lat="44.1461" lon="22.80985">
        <ele>49.94</ele>
        <time>2022-06-03T13:42:47.000Z</time>
      </trkpt>
      <trkpt lat="44.14609" lon="22.80998">
        <ele>50.64</ele>
        <time>2022-06-03T13:42:52.000Z</time>
      </trkpt>
      <trkpt lat="44.14607" lon="22.81012">
        <ele>51.65</ele>
        <time>2022-06-03T13:42:57.000Z</time>
      </trkpt>
      <trkpt lat="44.14604" lon="22.81026">
        <ele>52.99</ele>
        <time>2022-06-03T13:43:04.000Z</time>
      </trkpt>
      <trkpt lat="44.14601" lon="22.81042">
        <ele>54.33</ele>
        <time>2022-06-03T13:43:09.000Z</time>
      </trkpt>
      <trkpt lat="44.14596" lon="22.81058">
        <ele>55.31</ele>
        <time>2022-06-03T13:43:14.000Z</time>
      </trkpt>
      <trkpt lat="44.14586" lon="22.81086">
        <ele>56.39</ele>
        <time>2022-06-03T13:43:19.000Z</time>
      </trkpt>
      <trkpt lat="44.1458" lon="22.81109">
        <ele>57.9</ele>
        <time>2022-06-03T13:43:24.000Z</time>
      </trkpt>
      <trkpt lat="44.14575" lon="22.81126">
        <ele>58.59</ele>
        <time>2022-06-03T13:43:29.000Z</time>
      </trkpt>
      <trkpt lat="44.14572" lon="22.81142">
        <ele>58.6</ele>
        <time>2022-06-03T13:43:34.000Z</time>
      </trkpt>
      <trkpt lat="44.14566" lon="22.8116">
        <ele>59.16</ele>
        <time>2022-06-03T13:43:39.000Z</time>
      </trkpt>
      <trkpt lat="44.14563" lon="22.81175">
        <ele>59.94</ele>
        <time>2022-06-03T13:43:45.000Z</time>
      </trkpt>
      <trkpt lat="44.14559" lon="22.81188">
        <ele>60.27</ele>
        <time>2022-06-03T13:43:51.000Z</time>
      </trkpt>
      <trkpt lat="44.14556" lon="22.812">
        <ele>60.86</ele>
        <time>2022-06-03T13:43:56.000Z</time>
      </trkpt>
      <trkpt lat="44.1455" lon="22.81214">
        <ele>61.29</ele>
        <time>2022-06-03T13:44:01.000Z</time>
      </trkpt>
      <trkpt lat="44.14547" lon="22.81227">
        <ele>61.49</ele>
        <time>2022-06-03T13:44:06.000Z</time>
      </trkpt>
      <trkpt lat="44.14543" lon="22.81241">
        <ele>62.07</ele>
        <time>2022-06-03T13:44:12.000Z</time>
      </trkpt>
      <trkpt lat="44.1454" lon="22.81254">
        <ele>62.83</ele>
        <time>2022-06-03T13:44:17.000Z</time>
      </trkpt>
      <trkpt lat="44.14535" lon="22.81269">
        <ele>63.64</ele>
        <time>2022-06-03T13:44:22.000Z</time>
      </trkpt>
      <trkpt lat="44.1453" lon="22.81282">
        <ele>64.26</ele>
        <time>2022-06-03T13:44:27.000Z</time>
      </trkpt>
      <trkpt lat="44.14522" lon="22.81298">
        <ele>64.57</ele>
        <time>2022-06-03T13:44:32.000Z</time>
      </trkpt>
      <trkpt lat="44.14519" lon="22.81317">
        <ele>65.18</ele>
        <time>2022-06-03T13:44:37.000Z</time>
      </trkpt>
      <trkpt lat="44.14516" lon="22.81331">
        <ele>65.27</ele>
        <time>2022-06-03T13:44:42.000Z</time>
      </trkpt>
      <trkpt lat="44.14511" lon="22.81343">
        <ele>65.4</ele>
        <time>2022-06-03T13:44:47.000Z</time>
      </trkpt>
      <trkpt lat="44.14505" lon="22.81356">
        <ele>65.57</ele>
        <time>2022-06-03T13:44:52.000Z</time>
      </trkpt>
      <trkpt lat="44.145" lon="22.81371">
        <ele>65.69</ele>
        <time>2022-06-03T13:44:57.000Z</time>
      </trkpt>
      <trkpt lat="44.14495" lon="22.81386">
        <ele>65.81</ele>
        <time>2022-06-03T13:45:02.000Z</time>
      </trkpt>
      <trkpt lat="44.14489" lon="22.81403">
        <ele>66.34</ele>
        <time>2022-06-03T13:45:08.000Z</time>
      </trkpt>
      <trkpt lat="44.14485" lon="22.81415">
        <ele>66.51</ele>
        <time>2022-06-03T13:45:13.000Z</time>
      </trkpt>
      <trkpt lat="44.14479" lon="22.81429">
        <ele>66.6</ele>
        <time>2022-06-03T13:45:19.000Z</time>
      </trkpt>
      <trkpt lat="44.14477" lon="22.81443">
        <ele>66.7</ele>
        <time>2022-06-03T13:45:24.000Z</time>
      </trkpt>
      <trkpt lat="44.14473" lon="22.81459">
        <ele>66.87</ele>
        <time>2022-06-03T13:45:29.000Z</time>
      </trkpt>
      <trkpt lat="44.1447" lon="22.81473">
        <ele>67.39</ele>
        <time>2022-06-03T13:45:34.000Z</time>
      </trkpt>
      <trkpt lat="44.14467" lon="22.81488">
        <ele>68.13</ele>
        <time>2022-06-03T13:45:39.000Z</time>
      </trkpt>
      <trkpt lat="44.1446" lon="22.81504">
        <ele>68.88</ele>
        <time>2022-06-03T13:45:44.000Z</time>
      </trkpt>
      <trkpt lat="44.14455" lon="22.81516">
        <ele>69.54</ele>
        <time>2022-06-03T13:45:49.000Z</time>
      </trkpt>
      <trkpt lat="44.14447" lon="22.81529">
        <ele>70.07</ele>
        <time>2022-06-03T13:45:54.000Z</time>
      </trkpt>
      <trkpt lat="44.14438" lon="22.81542">
        <ele>70.67</ele>
        <time>2022-06-03T13:45:59.000Z</time>
      </trkpt>
      <trkpt lat="44.14431" lon="22.81556">
        <ele>71.09</ele>
        <time>2022-06-03T13:46:04.000Z</time>
      </trkpt>
      <trkpt lat="44.14425" lon="22.81567">
        <ele>71.66</ele>
        <time>2022-06-03T13:46:09.000Z</time>
      </trkpt>
      <trkpt lat="44.14417" lon="22.81579">
        <ele>72.07</ele>
        <time>2022-06-03T13:46:16.000Z</time>
      </trkpt>
      <trkpt lat="44.14414" lon="22.81593">
        <ele>72.57</ele>
        <time>2022-06-03T13:46:22.000Z</time>
      </trkpt>
      <trkpt lat="44.14405" lon="22.8161">
        <ele>72.94</ele>
        <time>2022-06-03T13:46:27.000Z</time>
      </trkpt>
      <trkpt lat="44.14399" lon="22.81625">
        <ele>73.64</ele>
        <time>2022-06-03T13:46:32.000Z</time>
      </trkpt>
      <trkpt lat="44.1439" lon="22.81642">
        <ele>74.48</ele>
        <time>2022-06-03T13:46:37.000Z</time>
      </trkpt>
      <trkpt lat="44.14384" lon="22.81655">
        <ele>74.87</ele>
        <time>2022-06-03T13:46:42.000Z</time>
      </trkpt>
      <trkpt lat="44.14379" lon="22.81666">
        <ele>75.73</ele>
        <time>2022-06-03T13:46:48.000Z</time>
      </trkpt>
      <trkpt lat="44.14371" lon="22.81686">
        <ele>76.47</ele>
        <time>2022-06-03T13:46:53.000Z</time>
      </trkpt>
      <trkpt lat="44.14363" lon="22.81704">
        <ele>77.24</ele>
        <time>2022-06-03T13:46:58.000Z</time>
      </trkpt>
      <trkpt lat="44.14353" lon="22.81721">
        <ele>78.2</ele>
        <time>2022-06-03T13:47:03.000Z</time>
      </trkpt>
      <trkpt lat="44.14347" lon="22.81737">
        <ele>79.14</ele>
        <time>2022-06-03T13:47:08.000Z</time>
      </trkpt>
      <trkpt lat="44.14341" lon="22.81755">
        <ele>80.75</ele>
        <time>2022-06-03T13:47:13.000Z</time>
      </trkpt>
      <trkpt lat="44.14337" lon="22.81772">
        <ele>82.55</ele>
        <time>2022-06-03T13:47:18.000Z</time>
      </trkpt>
      <trkpt lat="44.14333" lon="22.81788">
        <ele>83.76</ele>
        <time>2022-06-03T13:47:23.000Z</time>
      </trkpt>
      <trkpt lat="44.14328" lon="22.81805">
        <ele>84.2</ele>
        <time>2022-06-03T13:47:28.000Z</time>
      </trkpt>
      <trkpt lat="44.14323" lon="22.81823">
        <ele>85.41</ele>
        <time>2022-06-03T13:47:33.000Z</time>
      </trkpt>
      <trkpt lat="44.14318" lon="22.81841">
        <ele>85.82</ele>
        <time>2022-06-03T13:47:38.000Z</time>
      </trkpt>
      <trkpt lat="44.14313" lon="22.81859">
        <ele>87.49</ele>
        <time>2022-06-03T13:47:43.000Z</time>
      </trkpt>
      <trkpt lat="44.14307" lon="22.81875">
        <ele>88.99</ele>
        <time>2022-06-03T13:47:48.000Z</time>
      </trkpt>
      <trkpt lat="44.14304" lon="22.81888">
        <ele>90.42</ele>
        <time>2022-06-03T13:47:53.000Z</time>
      </trkpt>
      <trkpt lat="44.14299" lon="22.81907">
        <ele>91.34</ele>
        <time>2022-06-03T13:47:58.000Z</time>
      </trkpt>
      <trkpt lat="44.14294" lon="22.81925">
        <ele>92.01</ele>
        <time>2022-06-03T13:48:03.000Z</time>
      </trkpt>
      <trkpt lat="44.14289" lon="22.81944">
        <ele>92.9</ele>
        <time>2022-06-03T13:48:08.000Z</time>
      </trkpt>
      <trkpt lat="44.14282" lon="22.81963">
        <ele>93.68</ele>
        <time>2022-06-03T13:48:13.000Z</time>
      </trkpt>
      <trkpt lat="44.14276" lon="22.81981">
        <ele>95.76</ele>
        <time>2022-06-03T13:48:18.000Z</time>
      </trkpt>
      <trkpt lat="44.14271" lon="22.82">
        <ele>96.31</ele>
        <time>2022-06-03T13:48:23.000Z</time>
      </trkpt>
      <trkpt lat="44.14268" lon="22.82016">
        <ele>96.38</ele>
        <time>2022-06-03T13:48:28.000Z</time>
      </trkpt>
      <trkpt lat="44.14266" lon="22.82032">
        <ele>96.21</ele>
        <time>2022-06-03T13:48:33.000Z</time>
      </trkpt>
      <trkpt lat="44.14262" lon="22.82049">
        <ele>95.21</ele>
        <time>2022-06-03T13:48:38.000Z</time>
      </trkpt>
      <trkpt lat="44.14253" lon="22.82075">
        <ele>94.43</ele>
        <time>2022-06-03T13:48:43.000Z</time>
      </trkpt>
      <trkpt lat="44.14248" lon="22.82094">
        <ele>94.5</ele>
        <time>2022-06-03T13:48:48.000Z</time>
      </trkpt>
      <trkpt lat="44.14241" lon="22.82115">
        <ele>94.31</ele>
        <time>2022-06-03T13:48:53.000Z</time>
      </trkpt>
      <trkpt lat="44.14237" lon="22.82136">
        <ele>94.01</ele>
        <time>2022-06-03T13:48:58.000Z</time>
      </trkpt>
      <trkpt lat="44.14229" lon="22.82159">
        <ele>93.24</ele>
        <time>2022-06-03T13:49:03.000Z</time>
      </trkpt>
      <trkpt lat="44.14224" lon="22.82179">
        <ele>92.93</ele>
        <time>2022-06-03T13:49:08.000Z</time>
      </trkpt>
      <trkpt lat="44.14216" lon="22.82203">
        <ele>92.87</ele>
        <time>2022-06-03T13:49:13.000Z</time>
      </trkpt>
      <trkpt lat="44.14207" lon="22.82225">
        <ele>92.88</ele>
        <time>2022-06-03T13:49:18.000Z</time>
      </trkpt>
      <trkpt lat="44.14198" lon="22.82249">
        <ele>93.01</ele>
        <time>2022-06-03T13:49:23.000Z</time>
      </trkpt>
      <trkpt lat="44.14188" lon="22.82276">
        <ele>92.83</ele>
        <time>2022-06-03T13:49:28.000Z</time>
      </trkpt>
      <trkpt lat="44.14177" lon="22.82303">
        <ele>92.7</ele>
        <time>2022-06-03T13:49:33.000Z</time>
      </trkpt>
      <trkpt lat="44.14168" lon="22.82328">
        <ele>92.34</ele>
        <time>2022-06-03T13:49:38.000Z</time>
      </trkpt>
      <trkpt lat="44.14161" lon="22.82351">
        <ele>92.17</ele>
        <time>2022-06-03T13:49:43.000Z</time>
      </trkpt>
      <trkpt lat="44.14152" lon="22.82373">
        <ele>92.1</ele>
        <time>2022-06-03T13:49:48.000Z</time>
      </trkpt>
      <trkpt lat="44.14145" lon="22.82395">
        <ele>91.81</ele>
        <time>2022-06-03T13:49:53.000Z</time>
      </trkpt>
      <trkpt lat="44.14139" lon="22.82418">
        <ele>91.82</ele>
        <time>2022-06-03T13:49:58.000Z</time>
      </trkpt>
      <trkpt lat="44.14129" lon="22.82445">
        <ele>91.53</ele>
        <time>2022-06-03T13:50:03.000Z</time>
      </trkpt>
      <trkpt lat="44.1412" lon="22.8247">
        <ele>90.83</ele>
        <time>2022-06-03T13:50:08.000Z</time>
      </trkpt>
      <trkpt lat="44.14111" lon="22.82496">
        <ele>90.43</ele>
        <time>2022-06-03T13:50:13.000Z</time>
      </trkpt>
      <trkpt lat="44.14101" lon="22.82525">
        <ele>90.3</ele>
        <time>2022-06-03T13:50:18.000Z</time>
      </trkpt>
      <trkpt lat="44.14093" lon="22.82549">
        <ele>90.49</ele>
        <time>2022-06-03T13:50:23.000Z</time>
      </trkpt>
      <trkpt lat="44.14083" lon="22.82578">
        <ele>90.97</ele>
        <time>2022-06-03T13:50:28.000Z</time>
      </trkpt>
      <trkpt lat="44.14069" lon="22.82614">
        <ele>90.9</ele>
        <time>2022-06-03T13:50:33.000Z</time>
      </trkpt>
      <trkpt lat="44.14056" lon="22.82646">
        <ele>90.79</ele>
        <time>2022-06-03T13:50:38.000Z</time>
      </trkpt>
      <trkpt lat="44.14043" lon="22.82685">
        <ele>90.9</ele>
        <time>2022-06-03T13:50:43.000Z</time>
      </trkpt>
      <trkpt lat="44.14031" lon="22.82723">
        <ele>91.19</ele>
        <time>2022-06-03T13:50:48.000Z</time>
      </trkpt>
      <trkpt lat="44.14022" lon="22.82755">
        <ele>91.1</ele>
        <time>2022-06-03T13:50:53.000Z</time>
      </trkpt>
      <trkpt lat="44.14013" lon="22.82788">
        <ele>91.02</ele>
        <time>2022-06-03T13:50:58.000Z</time>
      </trkpt>
      <trkpt lat="44.14003" lon="22.82823">
        <ele>90.7</ele>
        <time>2022-06-03T13:51:03.000Z</time>
      </trkpt>
      <trkpt lat="44.13992" lon="22.82862">
        <ele>90.86</ele>
        <time>2022-06-03T13:51:08.000Z</time>
      </trkpt>
      <trkpt lat="44.13982" lon="22.829">
        <ele>90.53</ele>
        <time>2022-06-03T13:51:13.000Z</time>
      </trkpt>
      <trkpt lat="44.13977" lon="22.82931">
        <ele>89.44</ele>
        <time>2022-06-03T13:51:18.000Z</time>
      </trkpt>
      <trkpt lat="44.13968" lon="22.82962">
        <ele>88.54</ele>
        <time>2022-06-03T13:51:23.000Z</time>
      </trkpt>
      <trkpt lat="44.13959" lon="22.82998">
        <ele>87.28</ele>
        <time>2022-06-03T13:51:28.000Z</time>
      </trkpt>
      <trkpt lat="44.13951" lon="22.83037">
        <ele>85.7</ele>
        <time>2022-06-03T13:51:33.000Z</time>
      </trkpt>
      <trkpt lat="44.13942" lon="22.83081">
        <ele>84.12</ele>
        <time>2022-06-03T13:51:38.000Z</time>
      </trkpt>
      <trkpt lat="44.13932" lon="22.83125">
        <ele>82.87</ele>
        <time>2022-06-03T13:51:43.000Z</time>
      </trkpt>
      <trkpt lat="44.13922" lon="22.83169">
        <ele>81.76</ele>
        <time>2022-06-03T13:51:48.000Z</time>
      </trkpt>
      <trkpt lat="44.13913" lon="22.83214">
        <ele>79.49</ele>
        <time>2022-06-03T13:51:53.000Z</time>
      </trkpt>
      <trkpt lat="44.13903" lon="22.83259">
        <ele>77.71</ele>
        <time>2022-06-03T13:51:58.000Z</time>
      </trkpt>
      <trkpt lat="44.13894" lon="22.83305">
        <ele>76.19</ele>
        <time>2022-06-03T13:52:03.000Z</time>
      </trkpt>
      <trkpt lat="44.13886" lon="22.83354">
        <ele>74.89</ele>
        <time>2022-06-03T13:52:08.000Z</time>
      </trkpt>
      <trkpt lat="44.13877" lon="22.83406">
        <ele>73.81</ele>
        <time>2022-06-03T13:52:13.000Z</time>
      </trkpt>
      <trkpt lat="44.13866" lon="22.83459">
        <ele>72.22</ele>
        <time>2022-06-03T13:52:18.000Z</time>
      </trkpt>
      <trkpt lat="44.13855" lon="22.83514">
        <ele>70.76</ele>
        <time>2022-06-03T13:52:23.000Z</time>
      </trkpt>
      <trkpt lat="44.13842" lon="22.83572">
        <ele>68.07</ele>
        <time>2022-06-03T13:52:28.000Z</time>
      </trkpt>
      <trkpt lat="44.1383" lon="22.8363">
        <ele>66.04</ele>
        <time>2022-06-03T13:52:33.000Z</time>
      </trkpt>
      <trkpt lat="44.13817" lon="22.8369">
        <ele>63.67</ele>
        <time>2022-06-03T13:52:38.000Z</time>
      </trkpt>
      <trkpt lat="44.13806" lon="22.83747">
        <ele>61.44</ele>
        <time>2022-06-03T13:52:43.000Z</time>
      </trkpt>
      <trkpt lat="44.13794" lon="22.83802">
        <ele>58.92</ele>
        <time>2022-06-03T13:52:48.000Z</time>
      </trkpt>
      <trkpt lat="44.13784" lon="22.83859">
        <ele>56.1</ele>
        <time>2022-06-03T13:52:53.000Z</time>
      </trkpt>
      <trkpt lat="44.13766" lon="22.83913">
        <ele>53.66</ele>
        <time>2022-06-03T13:52:58.000Z</time>
      </trkpt>
      <trkpt lat="44.13747" lon="22.83959">
        <ele>51.54</ele>
        <time>2022-06-03T13:53:03.000Z</time>
      </trkpt>
      <trkpt lat="44.13746" lon="22.84027">
        <ele>49.65</ele>
        <time>2022-06-03T13:53:08.000Z</time>
      </trkpt>
      <trkpt lat="44.13748" lon="22.84094">
        <ele>47.25</ele>
        <time>2022-06-03T13:53:13.000Z</time>
      </trkpt>
      <trkpt lat="44.13735" lon="22.84153">
        <ele>44.86</ele>
        <time>2022-06-03T13:53:18.000Z</time>
      </trkpt>
      <trkpt lat="44.13718" lon="22.84204">
        <ele>42.34</ele>
        <time>2022-06-03T13:53:23.000Z</time>
      </trkpt>
      <trkpt lat="44.13698" lon="22.84251">
        <ele>40.04</ele>
        <time>2022-06-03T13:53:28.000Z</time>
      </trkpt>
      <trkpt lat="44.13678" lon="22.84297">
        <ele>37.64</ele>
        <time>2022-06-03T13:53:33.000Z</time>
      </trkpt>
      <trkpt lat="44.13663" lon="22.84343">
        <ele>35.66</ele>
        <time>2022-06-03T13:53:38.000Z</time>
      </trkpt>
      <trkpt lat="44.1365" lon="22.84387">
        <ele>33.36</ele>
        <time>2022-06-03T13:53:43.000Z</time>
      </trkpt>
      <trkpt lat="44.13637" lon="22.84432">
        <ele>31.61</ele>
        <time>2022-06-03T13:53:48.000Z</time>
      </trkpt>
      <trkpt lat="44.13626" lon="22.84475">
        <ele>29.7</ele>
        <time>2022-06-03T13:53:53.000Z</time>
      </trkpt>
      <trkpt lat="44.13616" lon="22.84517">
        <ele>28.62</ele>
        <time>2022-06-03T13:53:58.000Z</time>
      </trkpt>
      <trkpt lat="44.13607" lon="22.84549">
        <ele>26.98</ele>
        <time>2022-06-03T13:54:03.000Z</time>
      </trkpt>
      <trkpt lat="44.136" lon="22.84576">
        <ele>25.2</ele>
        <time>2022-06-03T13:54:08.000Z</time>
      </trkpt>
      <trkpt lat="44.13593" lon="22.84605">
        <ele>24.06</ele>
        <time>2022-06-03T13:54:13.000Z</time>
      </trkpt>
      <trkpt lat="44.13585" lon="22.84637">
        <ele>22.6</ele>
        <time>2022-06-03T13:54:18.000Z</time>
      </trkpt>
      <trkpt lat="44.13577" lon="22.84664">
        <ele>21.09</ele>
        <time>2022-06-03T13:54:23.000Z</time>
      </trkpt>
      <trkpt lat="44.13571" lon="22.84696">
        <ele>20.57</ele>
        <time>2022-06-03T13:54:28.000Z</time>
      </trkpt>
      <trkpt lat="44.13562" lon="22.84725">
        <ele>20.24</ele>
        <time>2022-06-03T13:54:33.000Z</time>
      </trkpt>
      <trkpt lat="44.13555" lon="22.8476">
        <ele>20.44</ele>
        <time>2022-06-03T13:54:38.000Z</time>
      </trkpt>
      <trkpt lat="44.13546" lon="22.84787">
        <ele>20.07</ele>
        <time>2022-06-03T13:54:43.000Z</time>
      </trkpt>
      <trkpt lat="44.13539" lon="22.84815">
        <ele>18.81</ele>
        <time>2022-06-03T13:54:48.000Z</time>
      </trkpt>
      <trkpt lat="44.13535" lon="22.84839">
        <ele>18.33</ele>
        <time>2022-06-03T13:54:53.000Z</time>
      </trkpt>
      <trkpt lat="44.13529" lon="22.84863">
        <ele>17.54</ele>
        <time>2022-06-03T13:54:58.000Z</time>
      </trkpt>
      <trkpt lat="44.13523" lon="22.84886">
        <ele>16.94</ele>
        <time>2022-06-03T13:55:03.000Z</time>
      </trkpt>
      <trkpt lat="44.13518" lon="22.84897">
        <ele>15.84</ele>
        <time>2022-06-03T13:55:14.000Z</time>
      </trkpt>
      <trkpt lat="44.13509" lon="22.84906">
        <ele>17.78</ele>
        <time>2022-06-03T13:55:47.000Z</time>
      </trkpt>
      <trkpt lat="44.13508" lon="22.84919">
        <ele>21.2</ele>
        <time>2022-06-03T13:56:44.000Z</time>
      </trkpt>
      <trkpt lat="44.13503" lon="22.84934">
        <ele>21.3</ele>
        <time>2022-06-03T13:56:49.000Z</time>
      </trkpt>
      <trkpt lat="44.13498" lon="22.84955">
        <ele>21.92</ele>
        <time>2022-06-03T13:56:54.000Z</time>
      </trkpt>
      <trkpt lat="44.13495" lon="22.84976">
        <ele>22.93</ele>
        <time>2022-06-03T13:56:59.000Z</time>
      </trkpt>
      <trkpt lat="44.13493" lon="22.84996">
        <ele>23.77</ele>
        <time>2022-06-03T13:57:04.000Z</time>
      </trkpt>
      <trkpt lat="44.13489" lon="22.85018">
        <ele>24.93</ele>
        <time>2022-06-03T13:57:09.000Z</time>
      </trkpt>
      <trkpt lat="44.13483" lon="22.85039">
        <ele>25.66</ele>
        <time>2022-06-03T13:57:14.000Z</time>
      </trkpt>
      <trkpt lat="44.1348" lon="22.85059">
        <ele>26.12</ele>
        <time>2022-06-03T13:57:19.000Z</time>
      </trkpt>
      <trkpt lat="44.13474" lon="22.85079">
        <ele>26.1</ele>
        <time>2022-06-03T13:57:24.000Z</time>
      </trkpt>
      <trkpt lat="44.13469" lon="22.85102">
        <ele>26.49</ele>
        <time>2022-06-03T13:57:29.000Z</time>
      </trkpt>
      <trkpt lat="44.13464" lon="22.85126">
        <ele>27.25</ele>
        <time>2022-06-03T13:57:34.000Z</time>
      </trkpt>
      <trkpt lat="44.13459" lon="22.85147">
        <ele>28.6</ele>
        <time>2022-06-03T13:57:39.000Z</time>
      </trkpt>
      <trkpt lat="44.13454" lon="22.85166">
        <ele>29.29</ele>
        <time>2022-06-03T13:57:44.000Z</time>
      </trkpt>
      <trkpt lat="44.13449" lon="22.85178">
        <ele>30.33</ele>
        <time>2022-06-03T13:57:49.000Z</time>
      </trkpt>
      <trkpt lat="44.13441" lon="22.8519">
        <ele>31.51</ele>
        <time>2022-06-03T13:57:54.000Z</time>
      </trkpt>
      <trkpt lat="44.13436" lon="22.85204">
        <ele>32.7</ele>
        <time>2022-06-03T13:57:59.000Z</time>
      </trkpt>
      <trkpt lat="44.1343" lon="22.85218">
        <ele>34.6</ele>
        <time>2022-06-03T13:58:04.000Z</time>
      </trkpt>
      <trkpt lat="44.13426" lon="22.8523">
        <ele>35.76</ele>
        <time>2022-06-03T13:58:10.000Z</time>
      </trkpt>
      <trkpt lat="44.13422" lon="22.85243">
        <ele>36.63</ele>
        <time>2022-06-03T13:58:15.000Z</time>
      </trkpt>
      <trkpt lat="44.13416" lon="22.85257">
        <ele>36.97</ele>
        <time>2022-06-03T13:58:20.000Z</time>
      </trkpt>
      <trkpt lat="44.1341" lon="22.8527">
        <ele>37.47</ele>
        <time>2022-06-03T13:58:26.000Z</time>
      </trkpt>
      <trkpt lat="44.13406" lon="22.85283">
        <ele>38.16</ele>
        <time>2022-06-03T13:58:31.000Z</time>
      </trkpt>
      <trkpt lat="44.13399" lon="22.85293">
        <ele>39.81</ele>
        <time>2022-06-03T13:58:37.000Z</time>
      </trkpt>
      <trkpt lat="44.13393" lon="22.85302">
        <ele>41.9</ele>
        <time>2022-06-03T13:58:43.000Z</time>
      </trkpt>
      <trkpt lat="44.13387" lon="22.85314">
        <ele>42.94</ele>
        <time>2022-06-03T13:58:49.000Z</time>
      </trkpt>
      <trkpt lat="44.13381" lon="22.85324">
        <ele>43.74</ele>
        <time>2022-06-03T13:58:55.000Z</time>
      </trkpt>
      <trkpt lat="44.13373" lon="22.85333">
        <ele>44.93</ele>
        <time>2022-06-03T13:59:01.000Z</time>
      </trkpt>
      <trkpt lat="44.13368" lon="22.85346">
        <ele>46.13</ele>
        <time>2022-06-03T13:59:06.000Z</time>
      </trkpt>
      <trkpt lat="44.13362" lon="22.85357">
        <ele>47.56</ele>
        <time>2022-06-03T13:59:13.000Z</time>
      </trkpt>
      <trkpt lat="44.13356" lon="22.8537">
        <ele>48.77</ele>
        <time>2022-06-03T13:59:20.000Z</time>
      </trkpt>
      <trkpt lat="44.1335" lon="22.85382">
        <ele>49.19</ele>
        <time>2022-06-03T13:59:26.000Z</time>
      </trkpt>
      <trkpt lat="44.13345" lon="22.85392">
        <ele>50.44</ele>
        <time>2022-06-03T13:59:33.000Z</time>
      </trkpt>
      <trkpt lat="44.1334" lon="22.85404">
        <ele>51.26</ele>
        <time>2022-06-03T13:59:40.000Z</time>
      </trkpt>
      <trkpt lat="44.13333" lon="22.85413">
        <ele>52.33</ele>
        <time>2022-06-03T13:59:46.000Z</time>
      </trkpt>
      <trkpt lat="44.13327" lon="22.85424">
        <ele>53.83</ele>
        <time>2022-06-03T13:59:53.000Z</time>
      </trkpt>
      <trkpt lat="44.13322" lon="22.85436">
        <ele>55.23</ele>
        <time>2022-06-03T13:59:59.000Z</time>
      </trkpt>
      <trkpt lat="44.13316" lon="22.85447">
        <ele>57.3</ele>
        <time>2022-06-03T14:00:06.000Z</time>
      </trkpt>
      <trkpt lat="44.13311" lon="22.85459">
        <ele>59.2</ele>
        <time>2022-06-03T14:00:12.000Z</time>
      </trkpt>
      <trkpt lat="44.13306" lon="22.85471">
        <ele>60.88</ele>
        <time>2022-06-03T14:00:18.000Z</time>
      </trkpt>
      <trkpt lat="44.13301" lon="22.85482">
        <ele>62.16</ele>
        <time>2022-06-03T14:00:24.000Z</time>
      </trkpt>
      <trkpt lat="44.13295" lon="22.85494">
        <ele>62.85</ele>
        <time>2022-06-03T14:00:30.000Z</time>
      </trkpt>
      <trkpt lat="44.13289" lon="22.85506">
        <ele>63.63</ele>
        <time>2022-06-03T14:00:35.000Z</time>
      </trkpt>
      <trkpt lat="44.13284" lon="22.85518">
        <ele>64.84</ele>
        <time>2022-06-03T14:00:41.000Z</time>
      </trkpt>
      <trkpt lat="44.13278" lon="22.85528">
        <ele>66.07</ele>
        <time>2022-06-03T14:00:48.000Z</time>
      </trkpt>
      <trkpt lat="44.13272" lon="22.85539">
        <ele>67.13</ele>
        <time>2022-06-03T14:00:54.000Z</time>
      </trkpt>
      <trkpt lat="44.13267" lon="22.85549">
        <ele>67.97</ele>
        <time>2022-06-03T14:01:00.000Z</time>
      </trkpt>
      <trkpt lat="44.1326" lon="22.85559">
        <ele>68.84</ele>
        <time>2022-06-03T14:01:06.000Z</time>
      </trkpt>
      <trkpt lat="44.13255" lon="22.85572">
        <ele>69.46</ele>
        <time>2022-06-03T14:01:13.000Z</time>
      </trkpt>
      <trkpt lat="44.13248" lon="22.85583">
        <ele>70.48</ele>
        <time>2022-06-03T14:01:21.000Z</time>
      </trkpt>
      <trkpt lat="44.1324" lon="22.85593">
        <ele>71.19</ele>
        <time>2022-06-03T14:01:27.000Z</time>
      </trkpt>
      <trkpt lat="44.13233" lon="22.85602">
        <ele>71.77</ele>
        <time>2022-06-03T14:01:33.000Z</time>
      </trkpt>
      <trkpt lat="44.13227" lon="22.85615">
        <ele>71.89</ele>
        <time>2022-06-03T14:01:39.000Z</time>
      </trkpt>
      <trkpt lat="44.1322" lon="22.85625">
        <ele>72.07</ele>
        <time>2022-06-03T14:01:45.000Z</time>
      </trkpt>
      <trkpt lat="44.13211" lon="22.8563">
        <ele>72.27</ele>
        <time>2022-06-03T14:01:50.000Z</time>
      </trkpt>
      <trkpt lat="44.13204" lon="22.85639">
        <ele>72.47</ele>
        <time>2022-06-03T14:01:56.000Z</time>
      </trkpt>
      <trkpt lat="44.13199" lon="22.85652">
        <ele>73.06</ele>
        <time>2022-06-03T14:02:02.000Z</time>
      </trkpt>
      <trkpt lat="44.13192" lon="22.85662">
        <ele>73.42</ele>
        <time>2022-06-03T14:02:08.000Z</time>
      </trkpt>
      <trkpt lat="44.13184" lon="22.85672">
        <ele>73.31</ele>
        <time>2022-06-03T14:02:14.000Z</time>
      </trkpt>
      <trkpt lat="44.13177" lon="22.8568">
        <ele>73.57</ele>
        <time>2022-06-03T14:02:20.000Z</time>
      </trkpt>
      <trkpt lat="44.13171" lon="22.8569">
        <ele>74.84</ele>
        <time>2022-06-03T14:02:26.000Z</time>
      </trkpt>
      <trkpt lat="44.13164" lon="22.85698">
        <ele>76.06</ele>
        <time>2022-06-03T14:02:32.000Z</time>
      </trkpt>
      <trkpt lat="44.13158" lon="22.85708">
        <ele>77.36</ele>
        <time>2022-06-03T14:02:37.000Z</time>
      </trkpt>
      <trkpt lat="44.1315" lon="22.85718">
        <ele>77.58</ele>
        <time>2022-06-03T14:02:42.000Z</time>
      </trkpt>
      <trkpt lat="44.13143" lon="22.85728">
        <ele>77.63</ele>
        <time>2022-06-03T14:02:47.000Z</time>
      </trkpt>
      <trkpt lat="44.13135" lon="22.85737">
        <ele>78.34</ele>
        <time>2022-06-03T14:02:53.000Z</time>
      </trkpt>
      <trkpt lat="44.13128" lon="22.85747">
        <ele>78.98</ele>
        <time>2022-06-03T14:02:58.000Z</time>
      </trkpt>
      <trkpt lat="44.1312" lon="22.85756">
        <ele>78.87</ele>
        <time>2022-06-03T14:03:03.000Z</time>
      </trkpt>
      <trkpt lat="44.13114" lon="22.85766">
        <ele>79.47</ele>
        <time>2022-06-03T14:03:08.000Z</time>
      </trkpt>
      <trkpt lat="44.13108" lon="22.85778">
        <ele>79.97</ele>
        <time>2022-06-03T14:03:13.000Z</time>
      </trkpt>
      <trkpt lat="44.13102" lon="22.85788">
        <ele>80.3</ele>
        <time>2022-06-03T14:03:19.000Z</time>
      </trkpt>
      <trkpt lat="44.13095" lon="22.85798">
        <ele>80.67</ele>
        <time>2022-06-03T14:03:24.000Z</time>
      </trkpt>
      <trkpt lat="44.13088" lon="22.85809">
        <ele>81.18</ele>
        <time>2022-06-03T14:03:29.000Z</time>
      </trkpt>
      <trkpt lat="44.1308" lon="22.85822">
        <ele>81.96</ele>
        <time>2022-06-03T14:03:34.000Z</time>
      </trkpt>
      <trkpt lat="44.13072" lon="22.85835">
        <ele>82.27</ele>
        <time>2022-06-03T14:03:39.000Z</time>
      </trkpt>
      <trkpt lat="44.13063" lon="22.85847">
        <ele>82.15</ele>
        <time>2022-06-03T14:03:44.000Z</time>
      </trkpt>
      <trkpt lat="44.13055" lon="22.85859">
        <ele>81.94</ele>
        <time>2022-06-03T14:03:49.000Z</time>
      </trkpt>
      <trkpt lat="44.13046" lon="22.85873">
        <ele>81.78</ele>
        <time>2022-06-03T14:03:54.000Z</time>
      </trkpt>
      <trkpt lat="44.13037" lon="22.85883">
        <ele>81.79</ele>
        <time>2022-06-03T14:03:59.000Z</time>
      </trkpt>
      <trkpt lat="44.13027" lon="22.85895">
        <ele>81.63</ele>
        <time>2022-06-03T14:04:04.000Z</time>
      </trkpt>
      <trkpt lat="44.13017" lon="22.85904">
        <ele>80.85</ele>
        <time>2022-06-03T14:04:09.000Z</time>
      </trkpt>
      <trkpt lat="44.13006" lon="22.85916">
        <ele>80.03</ele>
        <time>2022-06-03T14:04:14.000Z</time>
      </trkpt>
      <trkpt lat="44.12995" lon="22.85925">
        <ele>79.65</ele>
        <time>2022-06-03T14:04:19.000Z</time>
      </trkpt>
      <trkpt lat="44.12985" lon="22.85938">
        <ele>79.71</ele>
        <time>2022-06-03T14:04:24.000Z</time>
      </trkpt>
      <trkpt lat="44.12974" lon="22.85947">
        <ele>79.69</ele>
        <time>2022-06-03T14:04:29.000Z</time>
      </trkpt>
      <trkpt lat="44.12963" lon="22.85961">
        <ele>79.56</ele>
        <time>2022-06-03T14:04:34.000Z</time>
      </trkpt>
      <trkpt lat="44.1295" lon="22.85974">
        <ele>79.3</ele>
        <time>2022-06-03T14:04:39.000Z</time>
      </trkpt>
      <trkpt lat="44.12937" lon="22.85984">
        <ele>78.23</ele>
        <time>2022-06-03T14:04:44.000Z</time>
      </trkpt>
      <trkpt lat="44.12925" lon="22.85996">
        <ele>77.08</ele>
        <time>2022-06-03T14:04:49.000Z</time>
      </trkpt>
      <trkpt lat="44.12913" lon="22.8601">
        <ele>77.95</ele>
        <time>2022-06-03T14:04:54.000Z</time>
      </trkpt>
      <trkpt lat="44.12899" lon="22.86022">
        <ele>79.47</ele>
        <time>2022-06-03T14:04:59.000Z</time>
      </trkpt>
      <trkpt lat="44.12886" lon="22.86037">
        <ele>79.51</ele>
        <time>2022-06-03T14:05:04.000Z</time>
      </trkpt>
      <trkpt lat="44.12874" lon="22.86049">
        <ele>79.62</ele>
        <time>2022-06-03T14:05:09.000Z</time>
      </trkpt>
      <trkpt lat="44.1286" lon="22.86061">
        <ele>80.23</ele>
        <time>2022-06-03T14:05:14.000Z</time>
      </trkpt>
      <trkpt lat="44.12847" lon="22.86074">
        <ele>80.1</ele>
        <time>2022-06-03T14:05:19.000Z</time>
      </trkpt>
      <trkpt lat="44.12835" lon="22.86086">
        <ele>79.86</ele>
        <time>2022-06-03T14:05:24.000Z</time>
      </trkpt>
      <trkpt lat="44.12822" lon="22.86094">
        <ele>80.63</ele>
        <time>2022-06-03T14:05:29.000Z</time>
      </trkpt>
      <trkpt lat="44.12807" lon="22.8611">
        <ele>83.37</ele>
        <time>2022-06-03T14:05:34.000Z</time>
      </trkpt>
      <trkpt lat="44.12792" lon="22.86119">
        <ele>84.45</ele>
        <time>2022-06-03T14:05:39.000Z</time>
      </trkpt>
      <trkpt lat="44.12779" lon="22.86124">
        <ele>84.88</ele>
        <time>2022-06-03T14:05:44.000Z</time>
      </trkpt>
      <trkpt lat="44.12764" lon="22.86129">
        <ele>85.82</ele>
        <time>2022-06-03T14:05:49.000Z</time>
      </trkpt>
      <trkpt lat="44.12749" lon="22.86137">
        <ele>86.12</ele>
        <time>2022-06-03T14:05:54.000Z</time>
      </trkpt>
      <trkpt lat="44.12736" lon="22.86143">
        <ele>86.93</ele>
        <time>2022-06-03T14:05:59.000Z</time>
      </trkpt>
      <trkpt lat="44.12723" lon="22.86146">
        <ele>88.14</ele>
        <time>2022-06-03T14:06:04.000Z</time>
      </trkpt>
      <trkpt lat="44.12709" lon="22.86154">
        <ele>90.4</ele>
        <time>2022-06-03T14:06:09.000Z</time>
      </trkpt>
      <trkpt lat="44.12697" lon="22.86163">
        <ele>90.72</ele>
        <time>2022-06-03T14:06:14.000Z</time>
      </trkpt>
      <trkpt lat="44.12683" lon="22.86171">
        <ele>91.31</ele>
        <time>2022-06-03T14:06:19.000Z</time>
      </trkpt>
      <trkpt lat="44.1267" lon="22.86178">
        <ele>90.98</ele>
        <time>2022-06-03T14:06:24.000Z</time>
      </trkpt>
      <trkpt lat="44.12655" lon="22.86186">
        <ele>90.5</ele>
        <time>2022-06-03T14:06:29.000Z</time>
      </trkpt>
      <trkpt lat="44.12641" lon="22.86192">
        <ele>91.01</ele>
        <time>2022-06-03T14:06:34.000Z</time>
      </trkpt>
      <trkpt lat="44.12625" lon="22.86201">
        <ele>90.95</ele>
        <time>2022-06-03T14:06:39.000Z</time>
      </trkpt>
      <trkpt lat="44.12606" lon="22.8621">
        <ele>91.11</ele>
        <time>2022-06-03T14:06:44.000Z</time>
      </trkpt>
      <trkpt lat="44.12587" lon="22.86218">
        <ele>91.69</ele>
        <time>2022-06-03T14:06:49.000Z</time>
      </trkpt>
      <trkpt lat="44.12567" lon="22.86226">
        <ele>91.17</ele>
        <time>2022-06-03T14:06:54.000Z</time>
      </trkpt>
      <trkpt lat="44.12548" lon="22.86235">
        <ele>91.22</ele>
        <time>2022-06-03T14:06:59.000Z</time>
      </trkpt>
      <trkpt lat="44.12529" lon="22.86242">
        <ele>90.24</ele>
        <time>2022-06-03T14:07:04.000Z</time>
      </trkpt>
      <trkpt lat="44.12507" lon="22.86251">
        <ele>88.28</ele>
        <time>2022-06-03T14:07:09.000Z</time>
      </trkpt>
      <trkpt lat="44.12486" lon="22.8626">
        <ele>86.96</ele>
        <time>2022-06-03T14:07:14.000Z</time>
      </trkpt>
      <trkpt lat="44.12466" lon="22.8627">
        <ele>86.37</ele>
        <time>2022-06-03T14:07:19.000Z</time>
      </trkpt>
      <trkpt lat="44.12446" lon="22.86279">
        <ele>85.86</ele>
        <time>2022-06-03T14:07:24.000Z</time>
      </trkpt>
      <trkpt lat="44.12426" lon="22.86287">
        <ele>84.76</ele>
        <time>2022-06-03T14:07:29.000Z</time>
      </trkpt>
      <trkpt lat="44.12404" lon="22.86293">
        <ele>83.94</ele>
        <time>2022-06-03T14:07:34.000Z</time>
      </trkpt>
      <trkpt lat="44.1238" lon="22.863">
        <ele>82.44</ele>
        <time>2022-06-03T14:07:39.000Z</time>
      </trkpt>
      <trkpt lat="44.12357" lon="22.86308">
        <ele>82.75</ele>
        <time>2022-06-03T14:07:44.000Z</time>
      </trkpt>
      <trkpt lat="44.12332" lon="22.86315">
        <ele>82.8</ele>
        <time>2022-06-03T14:07:49.000Z</time>
      </trkpt>
      <trkpt lat="44.12307" lon="22.86321">
        <ele>82.76</ele>
        <time>2022-06-03T14:07:54.000Z</time>
      </trkpt>
      <trkpt lat="44.12284" lon="22.86328">
        <ele>87</ele>
        <time>2022-06-03T14:07:59.000Z</time>
      </trkpt>
      <trkpt lat="44.12262" lon="22.86335">
        <ele>88.71</ele>
        <time>2022-06-03T14:08:04.000Z</time>
      </trkpt>
      <trkpt lat="44.1224" lon="22.86343">
        <ele>87.39</ele>
        <time>2022-06-03T14:08:09.000Z</time>
      </trkpt>
      <trkpt lat="44.12218" lon="22.86352">
        <ele>87.52</ele>
        <time>2022-06-03T14:08:14.000Z</time>
      </trkpt>
      <trkpt lat="44.12197" lon="22.86361">
        <ele>88.4</ele>
        <time>2022-06-03T14:08:19.000Z</time>
      </trkpt>
      <trkpt lat="44.12175" lon="22.8637">
        <ele>89.67</ele>
        <time>2022-06-03T14:08:24.000Z</time>
      </trkpt>
      <trkpt lat="44.12155" lon="22.86378">
        <ele>90.96</ele>
        <time>2022-06-03T14:08:29.000Z</time>
      </trkpt>
      <trkpt lat="44.12136" lon="22.86386">
        <ele>91.12</ele>
        <time>2022-06-03T14:08:34.000Z</time>
      </trkpt>
      <trkpt lat="44.12116" lon="22.86395">
        <ele>92.96</ele>
        <time>2022-06-03T14:08:39.000Z</time>
      </trkpt>
      <trkpt lat="44.12094" lon="22.86403">
        <ele>93.15</ele>
        <time>2022-06-03T14:08:44.000Z</time>
      </trkpt>
      <trkpt lat="44.12073" lon="22.8641">
        <ele>92.87</ele>
        <time>2022-06-03T14:08:49.000Z</time>
      </trkpt>
      <trkpt lat="44.12053" lon="22.86419">
        <ele>93.44</ele>
        <time>2022-06-03T14:08:54.000Z</time>
      </trkpt>
      <trkpt lat="44.12033" lon="22.8643">
        <ele>93.33</ele>
        <time>2022-06-03T14:08:59.000Z</time>
      </trkpt>
      <trkpt lat="44.12015" lon="22.86436">
        <ele>93.37</ele>
        <time>2022-06-03T14:09:04.000Z</time>
      </trkpt>
      <trkpt lat="44.11999" lon="22.86439">
        <ele>92.61</ele>
        <time>2022-06-03T14:09:09.000Z</time>
      </trkpt>
      <trkpt lat="44.11982" lon="22.86442">
        <ele>91.3</ele>
        <time>2022-06-03T14:09:14.000Z</time>
      </trkpt>
      <trkpt lat="44.11964" lon="22.86446">
        <ele>90.3</ele>
        <time>2022-06-03T14:09:19.000Z</time>
      </trkpt>
      <trkpt lat="44.11944" lon="22.86449">
        <ele>89.79</ele>
        <time>2022-06-03T14:09:24.000Z</time>
      </trkpt>
      <trkpt lat="44.11924" lon="22.86453">
        <ele>89.68</ele>
        <time>2022-06-03T14:09:29.000Z</time>
      </trkpt>
      <trkpt lat="44.11905" lon="22.86458">
        <ele>89.93</ele>
        <time>2022-06-03T14:09:34.000Z</time>
      </trkpt>
      <trkpt lat="44.11888" lon="22.86463">
        <ele>91.88</ele>
        <time>2022-06-03T14:09:39.000Z</time>
      </trkpt>
      <trkpt lat="44.11872" lon="22.86465">
        <ele>92.7</ele>
        <time>2022-06-03T14:09:44.000Z</time>
      </trkpt>
      <trkpt lat="44.11862" lon="22.86468">
        <ele>90.34</ele>
        <time>2022-06-03T14:19:25.000Z</time>
      </trkpt>
      <trkpt lat="44.11852" lon="22.86467">
        <ele>90.01</ele>
        <time>2022-06-03T14:19:30.000Z</time>
      </trkpt>
      <trkpt lat="44.11839" lon="22.86469">
        <ele>89.88</ele>
        <time>2022-06-03T14:19:35.000Z</time>
      </trkpt>
      <trkpt lat="44.11827" lon="22.86471">
        <ele>90.15</ele>
        <time>2022-06-03T14:19:40.000Z</time>
      </trkpt>
      <trkpt lat="44.11812" lon="22.86476">
        <ele>91.09</ele>
        <time>2022-06-03T14:19:45.000Z</time>
      </trkpt>
      <trkpt lat="44.11796" lon="22.8648">
        <ele>91.69</ele>
        <time>2022-06-03T14:19:50.000Z</time>
      </trkpt>
      <trkpt lat="44.11778" lon="22.86482">
        <ele>91.93</ele>
        <time>2022-06-03T14:19:55.000Z</time>
      </trkpt>
      <trkpt lat="44.11759" lon="22.86486">
        <ele>91.81</ele>
        <time>2022-06-03T14:20:00.000Z</time>
      </trkpt>
      <trkpt lat="44.1174" lon="22.86489">
        <ele>91.38</ele>
        <time>2022-06-03T14:20:05.000Z</time>
      </trkpt>
      <trkpt lat="44.11721" lon="22.86493">
        <ele>90.81</ele>
        <time>2022-06-03T14:20:10.000Z</time>
      </trkpt>
      <trkpt lat="44.11702" lon="22.86499">
        <ele>89.37</ele>
        <time>2022-06-03T14:20:15.000Z</time>
      </trkpt>
      <trkpt lat="44.11683" lon="22.86507">
        <ele>88.65</ele>
        <time>2022-06-03T14:20:20.000Z</time>
      </trkpt>
      <trkpt lat="44.11663" lon="22.86521">
        <ele>89.4</ele>
        <time>2022-06-03T14:20:25.000Z</time>
      </trkpt>
      <trkpt lat="44.11643" lon="22.86535">
        <ele>92.42</ele>
        <time>2022-06-03T14:20:30.000Z</time>
      </trkpt>
      <trkpt lat="44.11621" lon="22.86546">
        <ele>92.56</ele>
        <time>2022-06-03T14:20:35.000Z</time>
      </trkpt>
      <trkpt lat="44.116" lon="22.86556">
        <ele>91.99</ele>
        <time>2022-06-03T14:20:40.000Z</time>
      </trkpt>
      <trkpt lat="44.11579" lon="22.86566">
        <ele>91.98</ele>
        <time>2022-06-03T14:20:45.000Z</time>
      </trkpt>
      <trkpt lat="44.11558" lon="22.86578">
        <ele>92.76</ele>
        <time>2022-06-03T14:20:50.000Z</time>
      </trkpt>
      <trkpt lat="44.11536" lon="22.8659">
        <ele>93.63</ele>
        <time>2022-06-03T14:20:55.000Z</time>
      </trkpt>
      <trkpt lat="44.11513" lon="22.86599">
        <ele>93.91</ele>
        <time>2022-06-03T14:21:00.000Z</time>
      </trkpt>
      <trkpt lat="44.11489" lon="22.86609">
        <ele>93.63</ele>
        <time>2022-06-03T14:21:05.000Z</time>
      </trkpt>
      <trkpt lat="44.11465" lon="22.86621">
        <ele>94.32</ele>
        <time>2022-06-03T14:21:10.000Z</time>
      </trkpt>
      <trkpt lat="44.1144" lon="22.86636">
        <ele>95.16</ele>
        <time>2022-06-03T14:21:15.000Z</time>
      </trkpt>
      <trkpt lat="44.11414" lon="22.86653">
        <ele>94.88</ele>
        <time>2022-06-03T14:21:20.000Z</time>
      </trkpt>
      <trkpt lat="44.11388" lon="22.8667">
        <ele>92.78</ele>
        <time>2022-06-03T14:21:25.000Z</time>
      </trkpt>
      <trkpt lat="44.1136" lon="22.86689">
        <ele>91.9</ele>
        <time>2022-06-03T14:21:30.000Z</time>
      </trkpt>
      <trkpt lat="44.11333" lon="22.86705">
        <ele>92.37</ele>
        <time>2022-06-03T14:21:35.000Z</time>
      </trkpt>
      <trkpt lat="44.11306" lon="22.86721">
        <ele>94.35</ele>
        <time>2022-06-03T14:21:40.000Z</time>
      </trkpt>
      <trkpt lat="44.11281" lon="22.86737">
        <ele>94.3</ele>
        <time>2022-06-03T14:21:45.000Z</time>
      </trkpt>
      <trkpt lat="44.11256" lon="22.86756">
        <ele>95.17</ele>
        <time>2022-06-03T14:21:50.000Z</time>
      </trkpt>
      <trkpt lat="44.11229" lon="22.86773">
        <ele>96.04</ele>
        <time>2022-06-03T14:21:55.000Z</time>
      </trkpt>
      <trkpt lat="44.11204" lon="22.86791">
        <ele>95.86</ele>
        <time>2022-06-03T14:22:00.000Z</time>
      </trkpt>
      <trkpt lat="44.11179" lon="22.86808">
        <ele>95.78</ele>
        <time>2022-06-03T14:22:05.000Z</time>
      </trkpt>
      <trkpt lat="44.11155" lon="22.86823">
        <ele>95.61</ele>
        <time>2022-06-03T14:22:10.000Z</time>
      </trkpt>
      <trkpt lat="44.11133" lon="22.86838">
        <ele>94.76</ele>
        <time>2022-06-03T14:22:15.000Z</time>
      </trkpt>
      <trkpt lat="44.11111" lon="22.8685">
        <ele>92.92</ele>
        <time>2022-06-03T14:22:20.000Z</time>
      </trkpt>
      <trkpt lat="44.1109" lon="22.8686">
        <ele>91.77</ele>
        <time>2022-06-03T14:22:25.000Z</time>
      </trkpt>
      <trkpt lat="44.11068" lon="22.8687">
        <ele>91.76</ele>
        <time>2022-06-03T14:22:30.000Z</time>
      </trkpt>
      <trkpt lat="44.11047" lon="22.86879">
        <ele>91.58</ele>
        <time>2022-06-03T14:22:35.000Z</time>
      </trkpt>
      <trkpt lat="44.11025" lon="22.86886">
        <ele>93.02</ele>
        <time>2022-06-03T14:22:40.000Z</time>
      </trkpt>
      <trkpt lat="44.11006" lon="22.86895">
        <ele>92.75</ele>
        <time>2022-06-03T14:22:45.000Z</time>
      </trkpt>
      <trkpt lat="44.10989" lon="22.86903">
        <ele>92.01</ele>
        <time>2022-06-03T14:22:50.000Z</time>
      </trkpt>
      <trkpt lat="44.10972" lon="22.86911">
        <ele>92.18</ele>
        <time>2022-06-03T14:22:55.000Z</time>
      </trkpt>
      <trkpt lat="44.10956" lon="22.86919">
        <ele>92.92</ele>
        <time>2022-06-03T14:23:00.000Z</time>
      </trkpt>
      <trkpt lat="44.10941" lon="22.86922">
        <ele>92.49</ele>
        <time>2022-06-03T14:23:05.000Z</time>
      </trkpt>
      <trkpt lat="44.10925" lon="22.86929">
        <ele>93.21</ele>
        <time>2022-06-03T14:23:10.000Z</time>
      </trkpt>
      <trkpt lat="44.10909" lon="22.86936">
        <ele>94.75</ele>
        <time>2022-06-03T14:23:15.000Z</time>
      </trkpt>
      <trkpt lat="44.10893" lon="22.86946">
        <ele>93.86</ele>
        <time>2022-06-03T14:23:20.000Z</time>
      </trkpt>
      <trkpt lat="44.10875" lon="22.86954">
        <ele>95.51</ele>
        <time>2022-06-03T14:23:25.000Z</time>
      </trkpt>
      <trkpt lat="44.10857" lon="22.86962">
        <ele>96.12</ele>
        <time>2022-06-03T14:23:30.000Z</time>
      </trkpt>
      <trkpt lat="44.10837" lon="22.8697">
        <ele>95.46</ele>
        <time>2022-06-03T14:23:35.000Z</time>
      </trkpt>
      <trkpt lat="44.10815" lon="22.8698">
        <ele>95.85</ele>
        <time>2022-06-03T14:23:40.000Z</time>
      </trkpt>
      <trkpt lat="44.10793" lon="22.86991">
        <ele>96.48</ele>
        <time>2022-06-03T14:23:45.000Z</time>
      </trkpt>
      <trkpt lat="44.10771" lon="22.87001">
        <ele>96.65</ele>
        <time>2022-06-03T14:23:50.000Z</time>
      </trkpt>
      <trkpt lat="44.10747" lon="22.87011">
        <ele>97.64</ele>
        <time>2022-06-03T14:23:55.000Z</time>
      </trkpt>
      <trkpt lat="44.10722" lon="22.87021">
        <ele>97.76</ele>
        <time>2022-06-03T14:24:00.000Z</time>
      </trkpt>
      <trkpt lat="44.10697" lon="22.87032">
        <ele>96.65</ele>
        <time>2022-06-03T14:24:05.000Z</time>
      </trkpt>
      <trkpt lat="44.1067" lon="22.87044">
        <ele>95.04</ele>
        <time>2022-06-03T14:24:10.000Z</time>
      </trkpt>
      <trkpt lat="44.10646" lon="22.87053">
        <ele>95.67</ele>
        <time>2022-06-03T14:24:15.000Z</time>
      </trkpt>
      <trkpt lat="44.1062" lon="22.87059">
        <ele>95.72</ele>
        <time>2022-06-03T14:24:20.000Z</time>
      </trkpt>
      <trkpt lat="44.10593" lon="22.87064">
        <ele>95.16</ele>
        <time>2022-06-03T14:24:25.000Z</time>
      </trkpt>
      <trkpt lat="44.10564" lon="22.87067">
        <ele>94.8</ele>
        <time>2022-06-03T14:24:30.000Z</time>
      </trkpt>
      <trkpt lat="44.10538" lon="22.87073">
        <ele>93.67</ele>
        <time>2022-06-03T14:24:35.000Z</time>
      </trkpt>
      <trkpt lat="44.10513" lon="22.87073">
        <ele>90.08</ele>
        <time>2022-06-03T14:24:40.000Z</time>
      </trkpt>
      <trkpt lat="44.10485" lon="22.87077">
        <ele>86.82</ele>
        <time>2022-06-03T14:24:45.000Z</time>
      </trkpt>
      <trkpt lat="44.10453" lon="22.8708">
        <ele>84.66</ele>
        <time>2022-06-03T14:24:50.000Z</time>
      </trkpt>
      <trkpt lat="44.10421" lon="22.87082">
        <ele>86.26</ele>
        <time>2022-06-03T14:24:55.000Z</time>
      </trkpt>
      <trkpt lat="44.10391" lon="22.87087">
        <ele>86.58</ele>
        <time>2022-06-03T14:25:00.000Z</time>
      </trkpt>
      <trkpt lat="44.10361" lon="22.87091">
        <ele>85.56</ele>
        <time>2022-06-03T14:25:05.000Z</time>
      </trkpt>
      <trkpt lat="44.10335" lon="22.87095">
        <ele>85.74</ele>
        <time>2022-06-03T14:25:10.000Z</time>
      </trkpt>
      <trkpt lat="44.10307" lon="22.87099">
        <ele>86.21</ele>
        <time>2022-06-03T14:25:15.000Z</time>
      </trkpt>
      <trkpt lat="44.10279" lon="22.87107">
        <ele>86.12</ele>
        <time>2022-06-03T14:25:20.000Z</time>
      </trkpt>
      <trkpt lat="44.10248" lon="22.87117">
        <ele>87.32</ele>
        <time>2022-06-03T14:25:25.000Z</time>
      </trkpt>
      <trkpt lat="44.10217" lon="22.87126">
        <ele>86.15</ele>
        <time>2022-06-03T14:25:30.000Z</time>
      </trkpt>
      <trkpt lat="44.10185" lon="22.87136">
        <ele>85.26</ele>
        <time>2022-06-03T14:25:35.000Z</time>
      </trkpt>
      <trkpt lat="44.10155" lon="22.87146">
        <ele>84</ele>
        <time>2022-06-03T14:25:40.000Z</time>
      </trkpt>
      <trkpt lat="44.10126" lon="22.87156">
        <ele>83.2</ele>
        <time>2022-06-03T14:25:45.000Z</time>
      </trkpt>
      <trkpt lat="44.10097" lon="22.87163">
        <ele>81.79</ele>
        <time>2022-06-03T14:25:50.000Z</time>
      </trkpt>
      <trkpt lat="44.10067" lon="22.87164">
        <ele>80.28</ele>
        <time>2022-06-03T14:25:55.000Z</time>
      </trkpt>
      <trkpt lat="44.1004" lon="22.87157">
        <ele>80</ele>
        <time>2022-06-03T14:26:00.000Z</time>
      </trkpt>
      <trkpt lat="44.10019" lon="22.87132">
        <ele>80.96</ele>
        <time>2022-06-03T14:26:05.000Z</time>
      </trkpt>
      <trkpt lat="44.10004" lon="22.87098">
        <ele>80.79</ele>
        <time>2022-06-03T14:26:10.000Z</time>
      </trkpt>
      <trkpt lat="44.09991" lon="22.87067">
        <ele>80.77</ele>
        <time>2022-06-03T14:26:15.000Z</time>
      </trkpt>
      <trkpt lat="44.09981" lon="22.87042">
        <ele>81.3</ele>
        <time>2022-06-03T14:26:20.000Z</time>
      </trkpt>
      <trkpt lat="44.09972" lon="22.87021">
        <ele>81.49</ele>
        <time>2022-06-03T14:26:25.000Z</time>
      </trkpt>
      <trkpt lat="44.09964" lon="22.87002">
        <ele>84.17</ele>
        <time>2022-06-03T14:26:30.000Z</time>
      </trkpt>
      <trkpt lat="44.09958" lon="22.8698">
        <ele>85.12</ele>
        <time>2022-06-03T14:26:35.000Z</time>
      </trkpt>
      <trkpt lat="44.09954" lon="22.86959">
        <ele>85.5</ele>
        <time>2022-06-03T14:26:40.000Z</time>
      </trkpt>
      <trkpt lat="44.09949" lon="22.86941">
        <ele>85.72</ele>
        <time>2022-06-03T14:26:45.000Z</time>
      </trkpt>
      <trkpt lat="44.09941" lon="22.86917">
        <ele>84.66</ele>
        <time>2022-06-03T14:26:50.000Z</time>
      </trkpt>
      <trkpt lat="44.09931" lon="22.86898">
        <ele>83.17</ele>
        <time>2022-06-03T14:26:55.000Z</time>
      </trkpt>
      <trkpt lat="44.09914" lon="22.8688">
        <ele>84</ele>
        <time>2022-06-03T14:27:00.000Z</time>
      </trkpt>
      <trkpt lat="44.09892" lon="22.8686">
        <ele>85.36</ele>
        <time>2022-06-03T14:27:05.000Z</time>
      </trkpt>
      <trkpt lat="44.09871" lon="22.8684">
        <ele>86.91</ele>
        <time>2022-06-03T14:27:10.000Z</time>
      </trkpt>
      <trkpt lat="44.09853" lon="22.8682">
        <ele>86.19</ele>
        <time>2022-06-03T14:27:15.000Z</time>
      </trkpt>
      <trkpt lat="44.09833" lon="22.86801">
        <ele>84.18</ele>
        <time>2022-06-03T14:27:20.000Z</time>
      </trkpt>
      <trkpt lat="44.09813" lon="22.86781">
        <ele>83.79</ele>
        <time>2022-06-03T14:27:25.000Z</time>
      </trkpt>
      <trkpt lat="44.09795" lon="22.86762">
        <ele>84.85</ele>
        <time>2022-06-03T14:27:30.000Z</time>
      </trkpt>
      <trkpt lat="44.09775" lon="22.86743">
        <ele>85.13</ele>
        <time>2022-06-03T14:27:35.000Z</time>
      </trkpt>
      <trkpt lat="44.09756" lon="22.86724">
        <ele>84.47</ele>
        <time>2022-06-03T14:27:40.000Z</time>
      </trkpt>
      <trkpt lat="44.0974" lon="22.86703">
        <ele>84.99</ele>
        <time>2022-06-03T14:27:45.000Z</time>
      </trkpt>
      <trkpt lat="44.09724" lon="22.86686">
        <ele>85.04</ele>
        <time>2022-06-03T14:27:50.000Z</time>
      </trkpt>
      <trkpt lat="44.09713" lon="22.86672">
        <ele>84.95</ele>
        <time>2022-06-03T14:27:55.000Z</time>
      </trkpt>
      <trkpt lat="44.09704" lon="22.8667">
        <ele>84.43</ele>
        <time>2022-06-03T14:28:10.000Z</time>
      </trkpt>
      <trkpt lat="44.09694" lon="22.86662">
        <ele>81.5</ele>
        <time>2022-06-03T14:28:23.000Z</time>
      </trkpt>
      <trkpt lat="44.09687" lon="22.86646">
        <ele>79.81</ele>
        <time>2022-06-03T14:28:28.000Z</time>
      </trkpt>
      <trkpt lat="44.09671" lon="22.86625">
        <ele>78.64</ele>
        <time>2022-06-03T14:28:33.000Z</time>
      </trkpt>
      <trkpt lat="44.09651" lon="22.86601">
        <ele>77.79</ele>
        <time>2022-06-03T14:28:38.000Z</time>
      </trkpt>
      <trkpt lat="44.09631" lon="22.86577">
        <ele>77.19</ele>
        <time>2022-06-03T14:28:43.000Z</time>
      </trkpt>
      <trkpt lat="44.09612" lon="22.86554">
        <ele>76.91</ele>
        <time>2022-06-03T14:28:48.000Z</time>
      </trkpt>
      <trkpt lat="44.09592" lon="22.8653">
        <ele>78.08</ele>
        <time>2022-06-03T14:28:53.000Z</time>
      </trkpt>
      <trkpt lat="44.09572" lon="22.86504">
        <ele>78.62</ele>
        <time>2022-06-03T14:28:58.000Z</time>
      </trkpt>
      <trkpt lat="44.09548" lon="22.86479">
        <ele>78.04</ele>
        <time>2022-06-03T14:29:03.000Z</time>
      </trkpt>
      <trkpt lat="44.09523" lon="22.86461">
        <ele>80.06</ele>
        <time>2022-06-03T14:29:08.000Z</time>
      </trkpt>
      <trkpt lat="44.09499" lon="22.86446">
        <ele>79.59</ele>
        <time>2022-06-03T14:29:13.000Z</time>
      </trkpt>
      <trkpt lat="44.09476" lon="22.8643">
        <ele>79.31</ele>
        <time>2022-06-03T14:29:18.000Z</time>
      </trkpt>
      <trkpt lat="44.09454" lon="22.86415">
        <ele>78.39</ele>
        <time>2022-06-03T14:29:23.000Z</time>
      </trkpt>
      <trkpt lat="44.09433" lon="22.86396">
        <ele>77.91</ele>
        <time>2022-06-03T14:29:28.000Z</time>
      </trkpt>
      <trkpt lat="44.09409" lon="22.86376">
        <ele>77.17</ele>
        <time>2022-06-03T14:29:33.000Z</time>
      </trkpt>
      <trkpt lat="44.09379" lon="22.86354">
        <ele>75.34</ele>
        <time>2022-06-03T14:29:38.000Z</time>
      </trkpt>
      <trkpt lat="44.09348" lon="22.86328">
        <ele>73.77</ele>
        <time>2022-06-03T14:29:43.000Z</time>
      </trkpt>
      <trkpt lat="44.09319" lon="22.86306">
        <ele>73.68</ele>
        <time>2022-06-03T14:29:48.000Z</time>
      </trkpt>
      <trkpt lat="44.09291" lon="22.86282">
        <ele>73.59</ele>
        <time>2022-06-03T14:29:53.000Z</time>
      </trkpt>
      <trkpt lat="44.09264" lon="22.86258">
        <ele>73.84</ele>
        <time>2022-06-03T14:29:58.000Z</time>
      </trkpt>
      <trkpt lat="44.09238" lon="22.86237">
        <ele>73.18</ele>
        <time>2022-06-03T14:30:03.000Z</time>
      </trkpt>
      <trkpt lat="44.09212" lon="22.86218">
        <ele>72.64</ele>
        <time>2022-06-03T14:30:08.000Z</time>
      </trkpt>
      <trkpt lat="44.09186" lon="22.86195">
        <ele>71.83</ele>
        <time>2022-06-03T14:30:13.000Z</time>
      </trkpt>
      <trkpt lat="44.0916" lon="22.86176">
        <ele>71.63</ele>
        <time>2022-06-03T14:30:18.000Z</time>
      </trkpt>
      <trkpt lat="44.09135" lon="22.86165">
        <ele>74.01</ele>
        <time>2022-06-03T14:30:23.000Z</time>
      </trkpt>
      <trkpt lat="44.09108" lon="22.86173">
        <ele>74.53</ele>
        <time>2022-06-03T14:30:28.000Z</time>
      </trkpt>
      <trkpt lat="44.09084" lon="22.86194">
        <ele>74.33</ele>
        <time>2022-06-03T14:30:33.000Z</time>
      </trkpt>
      <trkpt lat="44.09062" lon="22.86217">
        <ele>73.64</ele>
        <time>2022-06-03T14:30:38.000Z</time>
      </trkpt>
      <trkpt lat="44.0904" lon="22.86238">
        <ele>73.15</ele>
        <time>2022-06-03T14:30:43.000Z</time>
      </trkpt>
      <trkpt lat="44.09018" lon="22.86259">
        <ele>72.61</ele>
        <time>2022-06-03T14:30:48.000Z</time>
      </trkpt>
      <trkpt lat="44.08995" lon="22.8628">
        <ele>72.23</ele>
        <time>2022-06-03T14:30:53.000Z</time>
      </trkpt>
      <trkpt lat="44.08971" lon="22.86304">
        <ele>71.93</ele>
        <time>2022-06-03T14:30:58.000Z</time>
      </trkpt>
      <trkpt lat="44.08946" lon="22.86324">
        <ele>71.1</ele>
        <time>2022-06-03T14:31:03.000Z</time>
      </trkpt>
      <trkpt lat="44.08922" lon="22.86343">
        <ele>70.93</ele>
        <time>2022-06-03T14:31:08.000Z</time>
      </trkpt>
      <trkpt lat="44.089" lon="22.86361">
        <ele>70.68</ele>
        <time>2022-06-03T14:31:13.000Z</time>
      </trkpt>
      <trkpt lat="44.0888" lon="22.8638">
        <ele>71.47</ele>
        <time>2022-06-03T14:31:18.000Z</time>
      </trkpt>
      <trkpt lat="44.08862" lon="22.86395">
        <ele>71.13</ele>
        <time>2022-06-03T14:31:23.000Z</time>
      </trkpt>
      <trkpt lat="44.0885" lon="22.86404">
        <ele>70.73</ele>
        <time>2022-06-03T14:31:28.000Z</time>
      </trkpt>
      <trkpt lat="44.08835" lon="22.86413">
        <ele>70.43</ele>
        <time>2022-06-03T14:31:33.000Z</time>
      </trkpt>
      <trkpt lat="44.08819" lon="22.86423">
        <ele>70.13</ele>
        <time>2022-06-03T14:31:38.000Z</time>
      </trkpt>
      <trkpt lat="44.08803" lon="22.86434">
        <ele>69.9</ele>
        <time>2022-06-03T14:31:43.000Z</time>
      </trkpt>
      <trkpt lat="44.08787" lon="22.86448">
        <ele>69.43</ele>
        <time>2022-06-03T14:31:48.000Z</time>
      </trkpt>
      <trkpt lat="44.0877" lon="22.86467">
        <ele>69.32</ele>
        <time>2022-06-03T14:31:53.000Z</time>
      </trkpt>
      <trkpt lat="44.08755" lon="22.86484">
        <ele>69.03</ele>
        <time>2022-06-03T14:31:58.000Z</time>
      </trkpt>
      <trkpt lat="44.08741" lon="22.86507">
        <ele>68.73</ele>
        <time>2022-06-03T14:32:03.000Z</time>
      </trkpt>
      <trkpt lat="44.08728" lon="22.8654">
        <ele>68.3</ele>
        <time>2022-06-03T14:32:08.000Z</time>
      </trkpt>
      <trkpt lat="44.08716" lon="22.86567">
        <ele>68.02</ele>
        <time>2022-06-03T14:32:13.000Z</time>
      </trkpt>
      <trkpt lat="44.08704" lon="22.86593">
        <ele>68.6</ele>
        <time>2022-06-03T14:32:18.000Z</time>
      </trkpt>
      <trkpt lat="44.08693" lon="22.8662">
        <ele>69.81</ele>
        <time>2022-06-03T14:32:23.000Z</time>
      </trkpt>
      <trkpt lat="44.08683" lon="22.86646">
        <ele>72.31</ele>
        <time>2022-06-03T14:32:28.000Z</time>
      </trkpt>
      <trkpt lat="44.0867" lon="22.86674">
        <ele>73.11</ele>
        <time>2022-06-03T14:32:33.000Z</time>
      </trkpt>
      <trkpt lat="44.08658" lon="22.86702">
        <ele>74.67</ele>
        <time>2022-06-03T14:32:38.000Z</time>
      </trkpt>
      <trkpt lat="44.08646" lon="22.86729">
        <ele>77.83</ele>
        <time>2022-06-03T14:32:43.000Z</time>
      </trkpt>
      <trkpt lat="44.08633" lon="22.86755">
        <ele>78.25</ele>
        <time>2022-06-03T14:32:48.000Z</time>
      </trkpt>
      <trkpt lat="44.0862" lon="22.86778">
        <ele>78.39</ele>
        <time>2022-06-03T14:32:53.000Z</time>
      </trkpt>
      <trkpt lat="44.08606" lon="22.868">
        <ele>78.91</ele>
        <time>2022-06-03T14:32:58.000Z</time>
      </trkpt>
      <trkpt lat="44.08591" lon="22.86824">
        <ele>78.83</ele>
        <time>2022-06-03T14:33:03.000Z</time>
      </trkpt>
      <trkpt lat="44.08576" lon="22.8685">
        <ele>78.5</ele>
        <time>2022-06-03T14:33:08.000Z</time>
      </trkpt>
      <trkpt lat="44.08562" lon="22.86868">
        <ele>79.05</ele>
        <time>2022-06-03T14:33:13.000Z</time>
      </trkpt>
      <trkpt lat="44.08548" lon="22.86889">
        <ele>80.03</ele>
        <time>2022-06-03T14:33:18.000Z</time>
      </trkpt>
      <trkpt lat="44.08533" lon="22.86908">
        <ele>81.16</ele>
        <time>2022-06-03T14:33:23.000Z</time>
      </trkpt>
      <trkpt lat="44.08518" lon="22.86926">
        <ele>79.93</ele>
        <time>2022-06-03T14:33:28.000Z</time>
      </trkpt>
      <trkpt lat="44.08503" lon="22.86947">
        <ele>79.76</ele>
        <time>2022-06-03T14:33:33.000Z</time>
      </trkpt>
      <trkpt lat="44.08488" lon="22.86968">
        <ele>78.75</ele>
        <time>2022-06-03T14:33:38.000Z</time>
      </trkpt>
      <trkpt lat="44.08472" lon="22.86988">
        <ele>77.81</ele>
        <time>2022-06-03T14:33:43.000Z</time>
      </trkpt>
      <trkpt lat="44.08457" lon="22.87005">
        <ele>76.03</ele>
        <time>2022-06-03T14:33:48.000Z</time>
      </trkpt>
      <trkpt lat="44.08441" lon="22.87025">
        <ele>75.35</ele>
        <time>2022-06-03T14:33:53.000Z</time>
      </trkpt>
      <trkpt lat="44.08423" lon="22.87046">
        <ele>76.61</ele>
        <time>2022-06-03T14:33:58.000Z</time>
      </trkpt>
      <trkpt lat="44.08404" lon="22.87063">
        <ele>76.64</ele>
        <time>2022-06-03T14:34:03.000Z</time>
      </trkpt>
      <trkpt lat="44.08386" lon="22.8708">
        <ele>76.46</ele>
        <time>2022-06-03T14:34:08.000Z</time>
      </trkpt>
      <trkpt lat="44.0837" lon="22.87091">
        <ele>75.98</ele>
        <time>2022-06-03T14:34:13.000Z</time>
      </trkpt>
      <trkpt lat="44.08352" lon="22.87108">
        <ele>75.19</ele>
        <time>2022-06-03T14:34:18.000Z</time>
      </trkpt>
      <trkpt lat="44.08334" lon="22.87123">
        <ele>74.71</ele>
        <time>2022-06-03T14:34:23.000Z</time>
      </trkpt>
      <trkpt lat="44.08314" lon="22.87139">
        <ele>75.91</ele>
        <time>2022-06-03T14:34:28.000Z</time>
      </trkpt>
      <trkpt lat="44.08295" lon="22.87152">
        <ele>79.84</ele>
        <time>2022-06-03T14:34:33.000Z</time>
      </trkpt>
      <trkpt lat="44.08277" lon="22.87164">
        <ele>82.93</ele>
        <time>2022-06-03T14:34:38.000Z</time>
      </trkpt>
      <trkpt lat="44.08257" lon="22.87175">
        <ele>83.34</ele>
        <time>2022-06-03T14:34:43.000Z</time>
      </trkpt>
      <trkpt lat="44.08239" lon="22.87186">
        <ele>84.54</ele>
        <time>2022-06-03T14:34:48.000Z</time>
      </trkpt>
      <trkpt lat="44.08219" lon="22.872">
        <ele>85.34</ele>
        <time>2022-06-03T14:34:53.000Z</time>
      </trkpt>
      <trkpt lat="44.08196" lon="22.87214">
        <ele>84.88</ele>
        <time>2022-06-03T14:34:58.000Z</time>
      </trkpt>
      <trkpt lat="44.08173" lon="22.87229">
        <ele>84.69</ele>
        <time>2022-06-03T14:35:03.000Z</time>
      </trkpt>
      <trkpt lat="44.08149" lon="22.87244">
        <ele>83.63</ele>
        <time>2022-06-03T14:35:08.000Z</time>
      </trkpt>
      <trkpt lat="44.08123" lon="22.87259">
        <ele>82.02</ele>
        <time>2022-06-03T14:35:13.000Z</time>
      </trkpt>
      <trkpt lat="44.08096" lon="22.87276">
        <ele>79.24</ele>
        <time>2022-06-03T14:35:18.000Z</time>
      </trkpt>
      <trkpt lat="44.08068" lon="22.87293">
        <ele>77.51</ele>
        <time>2022-06-03T14:35:23.000Z</time>
      </trkpt>
      <trkpt lat="44.0804" lon="22.87313">
        <ele>74.47</ele>
        <time>2022-06-03T14:35:28.000Z</time>
      </trkpt>
      <trkpt lat="44.0801" lon="22.87331">
        <ele>73.03</ele>
        <time>2022-06-03T14:35:33.000Z</time>
      </trkpt>
      <trkpt lat="44.0798" lon="22.8735">
        <ele>71.96</ele>
        <time>2022-06-03T14:35:38.000Z</time>
      </trkpt>
      <trkpt lat="44.0795" lon="22.87369">
        <ele>70.81</ele>
        <time>2022-06-03T14:35:43.000Z</time>
      </trkpt>
      <trkpt lat="44.0792" lon="22.87385">
        <ele>68.52</ele>
        <time>2022-06-03T14:35:48.000Z</time>
      </trkpt>
      <trkpt lat="44.07886" lon="22.87392">
        <ele>66.01</ele>
        <time>2022-06-03T14:35:53.000Z</time>
      </trkpt>
      <trkpt lat="44.07851" lon="22.87396">
        <ele>64.65</ele>
        <time>2022-06-03T14:35:58.000Z</time>
      </trkpt>
      <trkpt lat="44.07816" lon="22.87402">
        <ele>65.45</ele>
        <time>2022-06-03T14:36:03.000Z</time>
      </trkpt>
      <trkpt lat="44.0778" lon="22.87408">
        <ele>65.57</ele>
        <time>2022-06-03T14:36:08.000Z</time>
      </trkpt>
      <trkpt lat="44.07743" lon="22.87415">
        <ele>65.58</ele>
        <time>2022-06-03T14:36:13.000Z</time>
      </trkpt>
      <trkpt lat="44.07706" lon="22.87427">
        <ele>65.67</ele>
        <time>2022-06-03T14:36:18.000Z</time>
      </trkpt>
      <trkpt lat="44.07669" lon="22.87438">
        <ele>66.71</ele>
        <time>2022-06-03T14:36:23.000Z</time>
      </trkpt>
      <trkpt lat="44.07634" lon="22.87449">
        <ele>66.1</ele>
        <time>2022-06-03T14:36:28.000Z</time>
      </trkpt>
      <trkpt lat="44.07597" lon="22.8746">
        <ele>63.54</ele>
        <time>2022-06-03T14:36:33.000Z</time>
      </trkpt>
      <trkpt lat="44.0756" lon="22.87471">
        <ele>62.62</ele>
        <time>2022-06-03T14:36:38.000Z</time>
      </trkpt>
      <trkpt lat="44.07522" lon="22.87481">
        <ele>61.75</ele>
        <time>2022-06-03T14:36:43.000Z</time>
      </trkpt>
      <trkpt lat="44.07485" lon="22.87488">
        <ele>60.89</ele>
        <time>2022-06-03T14:36:48.000Z</time>
      </trkpt>
      <trkpt lat="44.0745" lon="22.87497">
        <ele>59.92</ele>
        <time>2022-06-03T14:36:53.000Z</time>
      </trkpt>
      <trkpt lat="44.07415" lon="22.87508">
        <ele>60.15</ele>
        <time>2022-06-03T14:36:58.000Z</time>
      </trkpt>
      <trkpt lat="44.07379" lon="22.87518">
        <ele>59.13</ele>
        <time>2022-06-03T14:37:03.000Z</time>
      </trkpt>
      <trkpt lat="44.07344" lon="22.87529">
        <ele>57.88</ele>
        <time>2022-06-03T14:37:08.000Z</time>
      </trkpt>
      <trkpt lat="44.07307" lon="22.87538">
        <ele>56.33</ele>
        <time>2022-06-03T14:37:13.000Z</time>
      </trkpt>
      <trkpt lat="44.07272" lon="22.87548">
        <ele>55.17</ele>
        <time>2022-06-03T14:37:18.000Z</time>
      </trkpt>
      <trkpt lat="44.07236" lon="22.87559">
        <ele>54.1</ele>
        <time>2022-06-03T14:37:23.000Z</time>
      </trkpt>
      <trkpt lat="44.07199" lon="22.8757">
        <ele>54.71</ele>
        <time>2022-06-03T14:37:28.000Z</time>
      </trkpt>
      <trkpt lat="44.07164" lon="22.8758">
        <ele>54.89</ele>
        <time>2022-06-03T14:37:33.000Z</time>
      </trkpt>
      <trkpt lat="44.07128" lon="22.87589">
        <ele>54.92</ele>
        <time>2022-06-03T14:37:38.000Z</time>
      </trkpt>
      <trkpt lat="44.07093" lon="22.87598">
        <ele>54.27</ele>
        <time>2022-06-03T14:37:43.000Z</time>
      </trkpt>
      <trkpt lat="44.07057" lon="22.87607">
        <ele>53.51</ele>
        <time>2022-06-03T14:37:48.000Z</time>
      </trkpt>
      <trkpt lat="44.07022" lon="22.87617">
        <ele>52.64</ele>
        <time>2022-06-03T14:37:53.000Z</time>
      </trkpt>
      <trkpt lat="44.06988" lon="22.87626">
        <ele>51.11</ele>
        <time>2022-06-03T14:37:58.000Z</time>
      </trkpt>
      <trkpt lat="44.06952" lon="22.87636">
        <ele>51.59</ele>
        <time>2022-06-03T14:38:03.000Z</time>
      </trkpt>
      <trkpt lat="44.06917" lon="22.87647">
        <ele>50.58</ele>
        <time>2022-06-03T14:38:08.000Z</time>
      </trkpt>
      <trkpt lat="44.06882" lon="22.87656">
        <ele>49.36</ele>
        <time>2022-06-03T14:38:13.000Z</time>
      </trkpt>
      <trkpt lat="44.0685" lon="22.87665">
        <ele>50.11</ele>
        <time>2022-06-03T14:38:18.000Z</time>
      </trkpt>
      <trkpt lat="44.06819" lon="22.87669">
        <ele>48.47</ele>
        <time>2022-06-03T14:38:23.000Z</time>
      </trkpt>
      <trkpt lat="44.06787" lon="22.87672">
        <ele>47.92</ele>
        <time>2022-06-03T14:38:28.000Z</time>
      </trkpt>
      <trkpt lat="44.06753" lon="22.87674">
        <ele>47.7</ele>
        <time>2022-06-03T14:38:33.000Z</time>
      </trkpt>
      <trkpt lat="44.0672" lon="22.87673">
        <ele>45.48</ele>
        <time>2022-06-03T14:38:38.000Z</time>
      </trkpt>
      <trkpt lat="44.06687" lon="22.87673">
        <ele>44.09</ele>
        <time>2022-06-03T14:38:43.000Z</time>
      </trkpt>
      <trkpt lat="44.06654" lon="22.87676">
        <ele>43.77</ele>
        <time>2022-06-03T14:38:48.000Z</time>
      </trkpt>
      <trkpt lat="44.06622" lon="22.87675">
        <ele>43.59</ele>
        <time>2022-06-03T14:38:53.000Z</time>
      </trkpt>
      <trkpt lat="44.06589" lon="22.87676">
        <ele>43.08</ele>
        <time>2022-06-03T14:38:58.000Z</time>
      </trkpt>
      <trkpt lat="44.06557" lon="22.87679">
        <ele>42.69</ele>
        <time>2022-06-03T14:39:03.000Z</time>
      </trkpt>
      <trkpt lat="44.06524" lon="22.87682">
        <ele>42.78</ele>
        <time>2022-06-03T14:39:08.000Z</time>
      </trkpt>
      <trkpt lat="44.06491" lon="22.87685">
        <ele>42.38</ele>
        <time>2022-06-03T14:39:13.000Z</time>
      </trkpt>
      <trkpt lat="44.06459" lon="22.87689">
        <ele>41.77</ele>
        <time>2022-06-03T14:39:18.000Z</time>
      </trkpt>
      <trkpt lat="44.06429" lon="22.87693">
        <ele>41.53</ele>
        <time>2022-06-03T14:39:23.000Z</time>
      </trkpt>
      <trkpt lat="44.06397" lon="22.87697">
        <ele>40.83</ele>
        <time>2022-06-03T14:39:28.000Z</time>
      </trkpt>
      <trkpt lat="44.06367" lon="22.877">
        <ele>40.34</ele>
        <time>2022-06-03T14:39:33.000Z</time>
      </trkpt>
      <trkpt lat="44.06338" lon="22.87704">
        <ele>40.82</ele>
        <time>2022-06-03T14:39:38.000Z</time>
      </trkpt>
      <trkpt lat="44.06308" lon="22.87709">
        <ele>42.01</ele>
        <time>2022-06-03T14:39:43.000Z</time>
      </trkpt>
      <trkpt lat="44.06279" lon="22.87713">
        <ele>42.33</ele>
        <time>2022-06-03T14:39:48.000Z</time>
      </trkpt>
      <trkpt lat="44.06252" lon="22.87716">
        <ele>42.75</ele>
        <time>2022-06-03T14:39:53.000Z</time>
      </trkpt>
      <trkpt lat="44.06224" lon="22.87723">
        <ele>42.83</ele>
        <time>2022-06-03T14:39:58.000Z</time>
      </trkpt>
      <trkpt lat="44.06195" lon="22.8773">
        <ele>42.67</ele>
        <time>2022-06-03T14:40:03.000Z</time>
      </trkpt>
      <trkpt lat="44.06166" lon="22.87731">
        <ele>42.92</ele>
        <time>2022-06-03T14:40:08.000Z</time>
      </trkpt>
      <trkpt lat="44.06135" lon="22.87732">
        <ele>43.97</ele>
        <time>2022-06-03T14:40:13.000Z</time>
      </trkpt>
      <trkpt lat="44.06102" lon="22.87732">
        <ele>44.02</ele>
        <time>2022-06-03T14:40:18.000Z</time>
      </trkpt>
      <trkpt lat="44.0607" lon="22.87732">
        <ele>43.36</ele>
        <time>2022-06-03T14:40:23.000Z</time>
      </trkpt>
      <trkpt lat="44.06037" lon="22.87732">
        <ele>42.84</ele>
        <time>2022-06-03T14:40:28.000Z</time>
      </trkpt>
      <trkpt lat="44.06004" lon="22.87733">
        <ele>43.1</ele>
        <time>2022-06-03T14:40:33.000Z</time>
      </trkpt>
      <trkpt lat="44.0597" lon="22.87737">
        <ele>43.96</ele>
        <time>2022-06-03T14:40:38.000Z</time>
      </trkpt>
      <trkpt lat="44.05936" lon="22.87744">
        <ele>43.2</ele>
        <time>2022-06-03T14:40:43.000Z</time>
      </trkpt>
      <trkpt lat="44.059" lon="22.87749">
        <ele>43.83</ele>
        <time>2022-06-03T14:40:48.000Z</time>
      </trkpt>
      <trkpt lat="44.05862" lon="22.87754">
        <ele>45.15</ele>
        <time>2022-06-03T14:40:53.000Z</time>
      </trkpt>
      <trkpt lat="44.05821" lon="22.87757">
        <ele>44.84</ele>
        <time>2022-06-03T14:40:58.000Z</time>
      </trkpt>
      <trkpt lat="44.05784" lon="22.87762">
        <ele>43.93</ele>
        <time>2022-06-03T14:41:03.000Z</time>
      </trkpt>
      <trkpt lat="44.05749" lon="22.87768">
        <ele>43.37</ele>
        <time>2022-06-03T14:41:08.000Z</time>
      </trkpt>
      <trkpt lat="44.05712" lon="22.87776">
        <ele>42.55</ele>
        <time>2022-06-03T14:41:13.000Z</time>
      </trkpt>
      <trkpt lat="44.05675" lon="22.87783">
        <ele>41.37</ele>
        <time>2022-06-03T14:41:18.000Z</time>
      </trkpt>
      <trkpt lat="44.05638" lon="22.8779">
        <ele>40.77</ele>
        <time>2022-06-03T14:41:23.000Z</time>
      </trkpt>
      <trkpt lat="44.05604" lon="22.87794">
        <ele>39.48</ele>
        <time>2022-06-03T14:41:28.000Z</time>
      </trkpt>
      <trkpt lat="44.0557" lon="22.87801">
        <ele>39.01</ele>
        <time>2022-06-03T14:41:33.000Z</time>
      </trkpt>
      <trkpt lat="44.05537" lon="22.87805">
        <ele>38.84</ele>
        <time>2022-06-03T14:41:38.000Z</time>
      </trkpt>
      <trkpt lat="44.05505" lon="22.87811">
        <ele>38.63</ele>
        <time>2022-06-03T14:41:43.000Z</time>
      </trkpt>
      <trkpt lat="44.05473" lon="22.87818">
        <ele>38.05</ele>
        <time>2022-06-03T14:41:48.000Z</time>
      </trkpt>
      <trkpt lat="44.05442" lon="22.87824">
        <ele>37.27</ele>
        <time>2022-06-03T14:41:53.000Z</time>
      </trkpt>
      <trkpt lat="44.0541" lon="22.87831">
        <ele>36.59</ele>
        <time>2022-06-03T14:41:58.000Z</time>
      </trkpt>
      <trkpt lat="44.05382" lon="22.87837">
        <ele>36.24</ele>
        <time>2022-06-03T14:42:03.000Z</time>
      </trkpt>
      <trkpt lat="44.05354" lon="22.87844">
        <ele>35.78</ele>
        <time>2022-06-03T14:42:08.000Z</time>
      </trkpt>
      <trkpt lat="44.05325" lon="22.87851">
        <ele>35.51</ele>
        <time>2022-06-03T14:42:13.000Z</time>
      </trkpt>
      <trkpt lat="44.05297" lon="22.87859">
        <ele>36.09</ele>
        <time>2022-06-03T14:42:18.000Z</time>
      </trkpt>
      <trkpt lat="44.0527" lon="22.87868">
        <ele>37.65</ele>
        <time>2022-06-03T14:42:23.000Z</time>
      </trkpt>
      <trkpt lat="44.05244" lon="22.87876">
        <ele>38.32</ele>
        <time>2022-06-03T14:42:28.000Z</time>
      </trkpt>
      <trkpt lat="44.05218" lon="22.87886">
        <ele>38.9</ele>
        <time>2022-06-03T14:42:33.000Z</time>
      </trkpt>
      <trkpt lat="44.05193" lon="22.87897">
        <ele>38.51</ele>
        <time>2022-06-03T14:42:38.000Z</time>
      </trkpt>
      <trkpt lat="44.05169" lon="22.87907">
        <ele>38.71</ele>
        <time>2022-06-03T14:42:43.000Z</time>
      </trkpt>
      <trkpt lat="44.05145" lon="22.87915">
        <ele>39.34</ele>
        <time>2022-06-03T14:42:48.000Z</time>
      </trkpt>
      <trkpt lat="44.0512" lon="22.87923">
        <ele>40.1</ele>
        <time>2022-06-03T14:42:53.000Z</time>
      </trkpt>
      <trkpt lat="44.05097" lon="22.8793">
        <ele>40.4</ele>
        <time>2022-06-03T14:42:58.000Z</time>
      </trkpt>
      <trkpt lat="44.05077" lon="22.87939">
        <ele>38.79</ele>
        <time>2022-06-03T14:43:03.000Z</time>
      </trkpt>
      <trkpt lat="44.05055" lon="22.87944">
        <ele>37.57</ele>
        <time>2022-06-03T14:43:08.000Z</time>
      </trkpt>
      <trkpt lat="44.05032" lon="22.87947">
        <ele>36.82</ele>
        <time>2022-06-03T14:43:13.000Z</time>
      </trkpt>
      <trkpt lat="44.05009" lon="22.87949">
        <ele>35.67</ele>
        <time>2022-06-03T14:43:18.000Z</time>
      </trkpt>
      <trkpt lat="44.04986" lon="22.8795">
        <ele>34.94</ele>
        <time>2022-06-03T14:43:23.000Z</time>
      </trkpt>
      <trkpt lat="44.04962" lon="22.87952">
        <ele>34.62</ele>
        <time>2022-06-03T14:43:28.000Z</time>
      </trkpt>
      <trkpt lat="44.04937" lon="22.87951">
        <ele>34.84</ele>
        <time>2022-06-03T14:43:33.000Z</time>
      </trkpt>
      <trkpt lat="44.04913" lon="22.87951">
        <ele>34.7</ele>
        <time>2022-06-03T14:43:38.000Z</time>
      </trkpt>
      <trkpt lat="44.04889" lon="22.87953">
        <ele>34.67</ele>
        <time>2022-06-03T14:43:43.000Z</time>
      </trkpt>
      <trkpt lat="44.04864" lon="22.87952">
        <ele>34.68</ele>
        <time>2022-06-03T14:43:48.000Z</time>
      </trkpt>
      <trkpt lat="44.04837" lon="22.87951">
        <ele>34.88</ele>
        <time>2022-06-03T14:43:53.000Z</time>
      </trkpt>
      <trkpt lat="44.0481" lon="22.8795">
        <ele>35.85</ele>
        <time>2022-06-03T14:43:58.000Z</time>
      </trkpt>
      <trkpt lat="44.04784" lon="22.87949">
        <ele>36.32</ele>
        <time>2022-06-03T14:44:03.000Z</time>
      </trkpt>
      <trkpt lat="44.04757" lon="22.8795">
        <ele>37.06</ele>
        <time>2022-06-03T14:44:08.000Z</time>
      </trkpt>
      <trkpt lat="44.04728" lon="22.87949">
        <ele>36.83</ele>
        <time>2022-06-03T14:44:13.000Z</time>
      </trkpt>
      <trkpt lat="44.04698" lon="22.87948">
        <ele>36.13</ele>
        <time>2022-06-03T14:44:18.000Z</time>
      </trkpt>
      <trkpt lat="44.04671" lon="22.87948">
        <ele>35.93</ele>
        <time>2022-06-03T14:44:23.000Z</time>
      </trkpt>
      <trkpt lat="44.04644" lon="22.87948">
        <ele>36.04</ele>
        <time>2022-06-03T14:44:28.000Z</time>
      </trkpt>
      <trkpt lat="44.04617" lon="22.87947">
        <ele>35.93</ele>
        <time>2022-06-03T14:44:33.000Z</time>
      </trkpt>
      <trkpt lat="44.0459" lon="22.8795">
        <ele>34.65</ele>
        <time>2022-06-03T14:44:38.000Z</time>
      </trkpt>
      <trkpt lat="44.04562" lon="22.87952">
        <ele>33.29</ele>
        <time>2022-06-03T14:44:43.000Z</time>
      </trkpt>
      <trkpt lat="44.04534" lon="22.87955">
        <ele>31.99</ele>
        <time>2022-06-03T14:44:48.000Z</time>
      </trkpt>
      <trkpt lat="44.04505" lon="22.87959">
        <ele>31.8</ele>
        <time>2022-06-03T14:44:53.000Z</time>
      </trkpt>
      <trkpt lat="44.04476" lon="22.87961">
        <ele>31.79</ele>
        <time>2022-06-03T14:44:58.000Z</time>
      </trkpt>
      <trkpt lat="44.04449" lon="22.87963">
        <ele>31.2</ele>
        <time>2022-06-03T14:45:03.000Z</time>
      </trkpt>
      <trkpt lat="44.0442" lon="22.87966">
        <ele>30.68</ele>
        <time>2022-06-03T14:45:08.000Z</time>
      </trkpt>
      <trkpt lat="44.04392" lon="22.8797">
        <ele>31.43</ele>
        <time>2022-06-03T14:45:13.000Z</time>
      </trkpt>
      <trkpt lat="44.04365" lon="22.87974">
        <ele>31.97</ele>
        <time>2022-06-03T14:45:18.000Z</time>
      </trkpt>
      <trkpt lat="44.04338" lon="22.87979">
        <ele>32.64</ele>
        <time>2022-06-03T14:45:23.000Z</time>
      </trkpt>
      <trkpt lat="44.04309" lon="22.87982">
        <ele>32.28</ele>
        <time>2022-06-03T14:45:28.000Z</time>
      </trkpt>
      <trkpt lat="44.0428" lon="22.87985">
        <ele>32.88</ele>
        <time>2022-06-03T14:45:33.000Z</time>
      </trkpt>
      <trkpt lat="44.04252" lon="22.87988">
        <ele>32.4</ele>
        <time>2022-06-03T14:45:38.000Z</time>
      </trkpt>
      <trkpt lat="44.04224" lon="22.87994">
        <ele>30.81</ele>
        <time>2022-06-03T14:45:43.000Z</time>
      </trkpt>
      <trkpt lat="44.04199" lon="22.87998">
        <ele>30.67</ele>
        <time>2022-06-03T14:45:48.000Z</time>
      </trkpt>
      <trkpt lat="44.04171" lon="22.88003">
        <ele>31.07</ele>
        <time>2022-06-03T14:45:53.000Z</time>
      </trkpt>
      <trkpt lat="44.04143" lon="22.88008">
        <ele>30.48</ele>
        <time>2022-06-03T14:45:58.000Z</time>
      </trkpt>
      <trkpt lat="44.04116" lon="22.88012">
        <ele>32.19</ele>
        <time>2022-06-03T14:46:03.000Z</time>
      </trkpt>
      <trkpt lat="44.04089" lon="22.88016">
        <ele>33.12</ele>
        <time>2022-06-03T14:46:08.000Z</time>
      </trkpt>
      <trkpt lat="44.04061" lon="22.88025">
        <ele>34.31</ele>
        <time>2022-06-03T14:46:13.000Z</time>
      </trkpt>
      <trkpt lat="44.04033" lon="22.88029">
        <ele>34.89</ele>
        <time>2022-06-03T14:46:18.000Z</time>
      </trkpt>
      <trkpt lat="44.04007" lon="22.88036">
        <ele>34.99</ele>
        <time>2022-06-03T14:46:23.000Z</time>
      </trkpt>
      <trkpt lat="44.03982" lon="22.88044">
        <ele>35.72</ele>
        <time>2022-06-03T14:46:28.000Z</time>
      </trkpt>
      <trkpt lat="44.03957" lon="22.88048">
        <ele>35.53</ele>
        <time>2022-06-03T14:46:33.000Z</time>
      </trkpt>
      <trkpt lat="44.03934" lon="22.88052">
        <ele>35.2</ele>
        <time>2022-06-03T14:46:38.000Z</time>
      </trkpt>
      <trkpt lat="44.03912" lon="22.88057">
        <ele>35.52</ele>
        <time>2022-06-03T14:46:43.000Z</time>
      </trkpt>
      <trkpt lat="44.0389" lon="22.88061">
        <ele>38.46</ele>
        <time>2022-06-03T14:46:48.000Z</time>
      </trkpt>
      <trkpt lat="44.03869" lon="22.88065">
        <ele>39.35</ele>
        <time>2022-06-03T14:46:53.000Z</time>
      </trkpt>
      <trkpt lat="44.03849" lon="22.88068">
        <ele>40.91</ele>
        <time>2022-06-03T14:46:58.000Z</time>
      </trkpt>
      <trkpt lat="44.03828" lon="22.88071">
        <ele>42.6</ele>
        <time>2022-06-03T14:47:03.000Z</time>
      </trkpt>
      <trkpt lat="44.03807" lon="22.88076">
        <ele>43.73</ele>
        <time>2022-06-03T14:47:08.000Z</time>
      </trkpt>
      <trkpt lat="44.03786" lon="22.8808">
        <ele>45.11</ele>
        <time>2022-06-03T14:47:13.000Z</time>
      </trkpt>
      <trkpt lat="44.03765" lon="22.88084">
        <ele>47.01</ele>
        <time>2022-06-03T14:47:18.000Z</time>
      </trkpt>
      <trkpt lat="44.03743" lon="22.88089">
        <ele>46.05</ele>
        <time>2022-06-03T14:47:23.000Z</time>
      </trkpt>
      <trkpt lat="44.03722" lon="22.88093">
        <ele>46.6</ele>
        <time>2022-06-03T14:47:28.000Z</time>
      </trkpt>
      <trkpt lat="44.037" lon="22.88097">
        <ele>44</ele>
        <time>2022-06-03T14:47:33.000Z</time>
      </trkpt>
      <trkpt lat="44.03676" lon="22.88101">
        <ele>41.25</ele>
        <time>2022-06-03T14:47:38.000Z</time>
      </trkpt>
      <trkpt lat="44.03653" lon="22.88105">
        <ele>40.1</ele>
        <time>2022-06-03T14:47:43.000Z</time>
      </trkpt>
      <trkpt lat="44.03629" lon="22.88112">
        <ele>38.11</ele>
        <time>2022-06-03T14:47:48.000Z</time>
      </trkpt>
      <trkpt lat="44.03607" lon="22.88117">
        <ele>37.57</ele>
        <time>2022-06-03T14:47:53.000Z</time>
      </trkpt>
      <trkpt lat="44.03584" lon="22.88124">
        <ele>36.02</ele>
        <time>2022-06-03T14:47:58.000Z</time>
      </trkpt>
      <trkpt lat="44.03564" lon="22.88128">
        <ele>34.37</ele>
        <time>2022-06-03T14:48:03.000Z</time>
      </trkpt>
      <trkpt lat="44.0355" lon="22.88126">
        <ele>34.4</ele>
        <time>2022-06-03T14:48:08.000Z</time>
      </trkpt>
      <trkpt lat="44.03541" lon="22.88121">
        <ele>40.72</ele>
        <time>2022-06-03T14:51:09.000Z</time>
      </trkpt>
      <trkpt lat="44.03526" lon="22.88126">
        <ele>40.99</ele>
        <time>2022-06-03T14:51:14.000Z</time>
      </trkpt>
      <trkpt lat="44.03507" lon="22.88134">
        <ele>41.56</ele>
        <time>2022-06-03T14:51:19.000Z</time>
      </trkpt>
      <trkpt lat="44.03486" lon="22.88138">
        <ele>42.17</ele>
        <time>2022-06-03T14:51:24.000Z</time>
      </trkpt>
      <trkpt lat="44.03461" lon="22.88145">
        <ele>42.62</ele>
        <time>2022-06-03T14:51:29.000Z</time>
      </trkpt>
      <trkpt lat="44.03437" lon="22.88152">
        <ele>43.14</ele>
        <time>2022-06-03T14:51:34.000Z</time>
      </trkpt>
      <trkpt lat="44.03408" lon="22.88146">
        <ele>43.12</ele>
        <time>2022-06-03T14:51:39.000Z</time>
      </trkpt>
      <trkpt lat="44.03374" lon="22.88137">
        <ele>43.57</ele>
        <time>2022-06-03T14:51:44.000Z</time>
      </trkpt>
      <trkpt lat="44.03333" lon="22.88131">
        <ele>44.34</ele>
        <time>2022-06-03T14:51:49.000Z</time>
      </trkpt>
      <trkpt lat="44.03294" lon="22.88122">
        <ele>44.21</ele>
        <time>2022-06-03T14:51:54.000Z</time>
      </trkpt>
      <trkpt lat="44.03254" lon="22.88116">
        <ele>43.57</ele>
        <time>2022-06-03T14:51:59.000Z</time>
      </trkpt>
      <trkpt lat="44.03217" lon="22.88112">
        <ele>43.33</ele>
        <time>2022-06-03T14:52:04.000Z</time>
      </trkpt>
      <trkpt lat="44.03186" lon="22.88114">
        <ele>42.65</ele>
        <time>2022-06-03T14:52:09.000Z</time>
      </trkpt>
      <trkpt lat="44.03155" lon="22.8812">
        <ele>40.23</ele>
        <time>2022-06-03T14:52:14.000Z</time>
      </trkpt>
      <trkpt lat="44.03129" lon="22.88124">
        <ele>35.66</ele>
        <time>2022-06-03T14:52:19.000Z</time>
      </trkpt>
      <trkpt lat="44.03103" lon="22.8813">
        <ele>33.54</ele>
        <time>2022-06-03T14:52:24.000Z</time>
      </trkpt>
      <trkpt lat="44.03079" lon="22.88134">
        <ele>32.29</ele>
        <time>2022-06-03T14:52:29.000Z</time>
      </trkpt>
      <trkpt lat="44.03056" lon="22.88137">
        <ele>30.9</ele>
        <time>2022-06-03T14:52:34.000Z</time>
      </trkpt>
      <trkpt lat="44.03034" lon="22.88144">
        <ele>29.73</ele>
        <time>2022-06-03T14:52:39.000Z</time>
      </trkpt>
      <trkpt lat="44.03011" lon="22.88146">
        <ele>28.25</ele>
        <time>2022-06-03T14:52:44.000Z</time>
      </trkpt>
      <trkpt lat="44.02988" lon="22.88146">
        <ele>27.95</ele>
        <time>2022-06-03T14:52:49.000Z</time>
      </trkpt>
      <trkpt lat="44.02965" lon="22.88147">
        <ele>27.97</ele>
        <time>2022-06-03T14:52:54.000Z</time>
      </trkpt>
      <trkpt lat="44.02942" lon="22.88148">
        <ele>28.49</ele>
        <time>2022-06-03T14:52:59.000Z</time>
      </trkpt>
      <trkpt lat="44.02918" lon="22.88148">
        <ele>30.78</ele>
        <time>2022-06-03T14:53:04.000Z</time>
      </trkpt>
      <trkpt lat="44.02894" lon="22.88148">
        <ele>32.87</ele>
        <time>2022-06-03T14:53:09.000Z</time>
      </trkpt>
      <trkpt lat="44.0287" lon="22.88148">
        <ele>34.64</ele>
        <time>2022-06-03T14:53:14.000Z</time>
      </trkpt>
      <trkpt lat="44.02846" lon="22.88148">
        <ele>35.37</ele>
        <time>2022-06-03T14:53:19.000Z</time>
      </trkpt>
      <trkpt lat="44.02822" lon="22.88152">
        <ele>37.07</ele>
        <time>2022-06-03T14:53:24.000Z</time>
      </trkpt>
      <trkpt lat="44.02799" lon="22.88151">
        <ele>38.02</ele>
        <time>2022-06-03T14:53:29.000Z</time>
      </trkpt>
      <trkpt lat="44.02776" lon="22.8815">
        <ele>39.7</ele>
        <time>2022-06-03T14:53:34.000Z</time>
      </trkpt>
      <trkpt lat="44.02753" lon="22.88149">
        <ele>40.59</ele>
        <time>2022-06-03T14:53:39.000Z</time>
      </trkpt>
      <trkpt lat="44.02732" lon="22.88145">
        <ele>39.57</ele>
        <time>2022-06-03T14:53:44.000Z</time>
      </trkpt>
      <trkpt lat="44.02709" lon="22.8814">
        <ele>38.68</ele>
        <time>2022-06-03T14:53:49.000Z</time>
      </trkpt>
      <trkpt lat="44.02687" lon="22.88136">
        <ele>39.23</ele>
        <time>2022-06-03T14:53:54.000Z</time>
      </trkpt>
      <trkpt lat="44.02663" lon="22.88131">
        <ele>39.64</ele>
        <time>2022-06-03T14:53:59.000Z</time>
      </trkpt>
      <trkpt lat="44.02641" lon="22.88127">
        <ele>39.52</ele>
        <time>2022-06-03T14:54:04.000Z</time>
      </trkpt>
      <trkpt lat="44.02618" lon="22.88122">
        <ele>39.45</ele>
        <time>2022-06-03T14:54:09.000Z</time>
      </trkpt>
      <trkpt lat="44.02596" lon="22.88117">
        <ele>39.55</ele>
        <time>2022-06-03T14:54:14.000Z</time>
      </trkpt>
      <trkpt lat="44.02572" lon="22.88116">
        <ele>39.58</ele>
        <time>2022-06-03T14:54:19.000Z</time>
      </trkpt>
      <trkpt lat="44.02547" lon="22.88117">
        <ele>39.18</ele>
        <time>2022-06-03T14:54:24.000Z</time>
      </trkpt>
      <trkpt lat="44.02523" lon="22.8812">
        <ele>37.26</ele>
        <time>2022-06-03T14:54:29.000Z</time>
      </trkpt>
      <trkpt lat="44.02499" lon="22.88125">
        <ele>36.51</ele>
        <time>2022-06-03T14:54:34.000Z</time>
      </trkpt>
      <trkpt lat="44.02475" lon="22.88132">
        <ele>35.18</ele>
        <time>2022-06-03T14:54:39.000Z</time>
      </trkpt>
      <trkpt lat="44.0245" lon="22.88143">
        <ele>34.56</ele>
        <time>2022-06-03T14:54:44.000Z</time>
      </trkpt>
      <trkpt lat="44.02426" lon="22.88153">
        <ele>34.12</ele>
        <time>2022-06-03T14:54:49.000Z</time>
      </trkpt>
      <trkpt lat="44.02404" lon="22.88162">
        <ele>32.56</ele>
        <time>2022-06-03T14:54:54.000Z</time>
      </trkpt>
      <trkpt lat="44.02381" lon="22.88173">
        <ele>32.38</ele>
        <time>2022-06-03T14:54:59.000Z</time>
      </trkpt>
      <trkpt lat="44.02359" lon="22.88183">
        <ele>32.21</ele>
        <time>2022-06-03T14:55:04.000Z</time>
      </trkpt>
      <trkpt lat="44.02337" lon="22.88194">
        <ele>31.5</ele>
        <time>2022-06-03T14:55:09.000Z</time>
      </trkpt>
      <trkpt lat="44.02316" lon="22.88203">
        <ele>30.8</ele>
        <time>2022-06-03T14:55:14.000Z</time>
      </trkpt>
      <trkpt lat="44.02294" lon="22.88215">
        <ele>30.7</ele>
        <time>2022-06-03T14:55:19.000Z</time>
      </trkpt>
      <trkpt lat="44.02271" lon="22.88225">
        <ele>30.13</ele>
        <time>2022-06-03T14:55:24.000Z</time>
      </trkpt>
      <trkpt lat="44.0225" lon="22.88233">
        <ele>29.99</ele>
        <time>2022-06-03T14:55:29.000Z</time>
      </trkpt>
      <trkpt lat="44.02228" lon="22.88242">
        <ele>31.32</ele>
        <time>2022-06-03T14:55:34.000Z</time>
      </trkpt>
      <trkpt lat="44.02207" lon="22.88248">
        <ele>32.08</ele>
        <time>2022-06-03T14:55:39.000Z</time>
      </trkpt>
      <trkpt lat="44.02185" lon="22.88257">
        <ele>31.79</ele>
        <time>2022-06-03T14:55:44.000Z</time>
      </trkpt>
      <trkpt lat="44.02164" lon="22.88267">
        <ele>31.61</ele>
        <time>2022-06-03T14:55:49.000Z</time>
      </trkpt>
      <trkpt lat="44.02142" lon="22.88275">
        <ele>31.99</ele>
        <time>2022-06-03T14:55:54.000Z</time>
      </trkpt>
      <trkpt lat="44.02121" lon="22.88284">
        <ele>32.03</ele>
        <time>2022-06-03T14:55:59.000Z</time>
      </trkpt>
      <trkpt lat="44.02102" lon="22.88293">
        <ele>33.11</ele>
        <time>2022-06-03T14:56:04.000Z</time>
      </trkpt>
      <trkpt lat="44.02081" lon="22.88303">
        <ele>33.99</ele>
        <time>2022-06-03T14:56:09.000Z</time>
      </trkpt>
      <trkpt lat="44.02062" lon="22.88311">
        <ele>33.86</ele>
        <time>2022-06-03T14:56:14.000Z</time>
      </trkpt>
      <trkpt lat="44.02042" lon="22.88322">
        <ele>32.45</ele>
        <time>2022-06-03T14:56:19.000Z</time>
      </trkpt>
      <trkpt lat="44.0202" lon="22.88333">
        <ele>32.11</ele>
        <time>2022-06-03T14:56:24.000Z</time>
      </trkpt>
      <trkpt lat="44.02" lon="22.88342">
        <ele>32.21</ele>
        <time>2022-06-03T14:56:29.000Z</time>
      </trkpt>
      <trkpt lat="44.0198" lon="22.88349">
        <ele>33.01</ele>
        <time>2022-06-03T14:56:34.000Z</time>
      </trkpt>
      <trkpt lat="44.0196" lon="22.88357">
        <ele>32.63</ele>
        <time>2022-06-03T14:56:39.000Z</time>
      </trkpt>
      <trkpt lat="44.0194" lon="22.88365">
        <ele>32.73</ele>
        <time>2022-06-03T14:56:44.000Z</time>
      </trkpt>
      <trkpt lat="44.01919" lon="22.88374">
        <ele>34.22</ele>
        <time>2022-06-03T14:56:49.000Z</time>
      </trkpt>
      <trkpt lat="44.01899" lon="22.88383">
        <ele>35.07</ele>
        <time>2022-06-03T14:56:54.000Z</time>
      </trkpt>
      <trkpt lat="44.01879" lon="22.88392">
        <ele>36.05</ele>
        <time>2022-06-03T14:56:59.000Z</time>
      </trkpt>
      <trkpt lat="44.0186" lon="22.88401">
        <ele>36.58</ele>
        <time>2022-06-03T14:57:04.000Z</time>
      </trkpt>
      <trkpt lat="44.01839" lon="22.88409">
        <ele>36.04</ele>
        <time>2022-06-03T14:57:09.000Z</time>
      </trkpt>
      <trkpt lat="44.01819" lon="22.88419">
        <ele>35.54</ele>
        <time>2022-06-03T14:57:14.000Z</time>
      </trkpt>
      <trkpt lat="44.018" lon="22.88428">
        <ele>35.51</ele>
        <time>2022-06-03T14:57:19.000Z</time>
      </trkpt>
      <trkpt lat="44.01779" lon="22.88436">
        <ele>35.03</ele>
        <time>2022-06-03T14:57:24.000Z</time>
      </trkpt>
      <trkpt lat="44.01759" lon="22.88443">
        <ele>35.78</ele>
        <time>2022-06-03T14:57:29.000Z</time>
      </trkpt>
      <trkpt lat="44.0174" lon="22.8845">
        <ele>36.62</ele>
        <time>2022-06-03T14:57:34.000Z</time>
      </trkpt>
      <trkpt lat="44.01723" lon="22.88458">
        <ele>37.64</ele>
        <time>2022-06-03T14:57:39.000Z</time>
      </trkpt>
      <trkpt lat="44.01706" lon="22.88465">
        <ele>38.45</ele>
        <time>2022-06-03T14:57:44.000Z</time>
      </trkpt>
      <trkpt lat="44.01692" lon="22.88475">
        <ele>40.39</ele>
        <time>2022-06-03T14:57:49.000Z</time>
      </trkpt>
      <trkpt lat="44.01678" lon="22.88485">
        <ele>41.81</ele>
        <time>2022-06-03T14:57:54.000Z</time>
      </trkpt>
      <trkpt lat="44.01663" lon="22.88494">
        <ele>43.01</ele>
        <time>2022-06-03T14:57:59.000Z</time>
      </trkpt>
      <trkpt lat="44.01648" lon="22.88504">
        <ele>44.11</ele>
        <time>2022-06-03T14:58:04.000Z</time>
      </trkpt>
      <trkpt lat="44.01632" lon="22.88511">
        <ele>44.45</ele>
        <time>2022-06-03T14:58:09.000Z</time>
      </trkpt>
      <trkpt lat="44.01616" lon="22.88518">
        <ele>43.99</ele>
        <time>2022-06-03T14:58:14.000Z</time>
      </trkpt>
      <trkpt lat="44.016" lon="22.88527">
        <ele>44.17</ele>
        <time>2022-06-03T14:58:19.000Z</time>
      </trkpt>
      <trkpt lat="44.01585" lon="22.88534">
        <ele>45.38</ele>
        <time>2022-06-03T14:58:24.000Z</time>
      </trkpt>
      <trkpt lat="44.01569" lon="22.88544">
        <ele>46.13</ele>
        <time>2022-06-03T14:58:29.000Z</time>
      </trkpt>
      <trkpt lat="44.01551" lon="22.88554">
        <ele>45.74</ele>
        <time>2022-06-03T14:58:34.000Z</time>
      </trkpt>
      <trkpt lat="44.01532" lon="22.88565">
        <ele>45.31</ele>
        <time>2022-06-03T14:58:39.000Z</time>
      </trkpt>
      <trkpt lat="44.01512" lon="22.88574">
        <ele>44.69</ele>
        <time>2022-06-03T14:58:44.000Z</time>
      </trkpt>
      <trkpt lat="44.01492" lon="22.88585">
        <ele>44.05</ele>
        <time>2022-06-03T14:58:49.000Z</time>
      </trkpt>
      <trkpt lat="44.01472" lon="22.88595">
        <ele>43.69</ele>
        <time>2022-06-03T14:58:54.000Z</time>
      </trkpt>
      <trkpt lat="44.0145" lon="22.88604">
        <ele>43.11</ele>
        <time>2022-06-03T14:58:59.000Z</time>
      </trkpt>
      <trkpt lat="44.01425" lon="22.88617">
        <ele>41.68</ele>
        <time>2022-06-03T14:59:04.000Z</time>
      </trkpt>
      <trkpt lat="44.014" lon="22.8863">
        <ele>38.06</ele>
        <time>2022-06-03T14:59:09.000Z</time>
      </trkpt>
      <trkpt lat="44.01372" lon="22.88648">
        <ele>36.02</ele>
        <time>2022-06-03T14:59:14.000Z</time>
      </trkpt>
      <trkpt lat="44.01343" lon="22.88668">
        <ele>33.57</ele>
        <time>2022-06-03T14:59:19.000Z</time>
      </trkpt>
      <trkpt lat="44.01312" lon="22.88691">
        <ele>30.38</ele>
        <time>2022-06-03T14:59:24.000Z</time>
      </trkpt>
      <trkpt lat="44.01283" lon="22.88712">
        <ele>28.45</ele>
        <time>2022-06-03T14:59:29.000Z</time>
      </trkpt>
      <trkpt lat="44.01253" lon="22.88734">
        <ele>26.29</ele>
        <time>2022-06-03T14:59:34.000Z</time>
      </trkpt>
      <trkpt lat="44.01228" lon="22.88753">
        <ele>27.52</ele>
        <time>2022-06-03T14:59:39.000Z</time>
      </trkpt>
      <trkpt lat="44.01207" lon="22.88771">
        <ele>29.73</ele>
        <time>2022-06-03T14:59:44.000Z</time>
      </trkpt>
      <trkpt lat="44.01184" lon="22.88791">
        <ele>29.9</ele>
        <time>2022-06-03T14:59:49.000Z</time>
      </trkpt>
      <trkpt lat="44.01163" lon="22.88809">
        <ele>29.02</ele>
        <time>2022-06-03T14:59:54.000Z</time>
      </trkpt>
      <trkpt lat="44.01146" lon="22.88826">
        <ele>28.6</ele>
        <time>2022-06-03T14:59:59.000Z</time>
      </trkpt>
      <trkpt lat="44.01132" lon="22.88839">
        <ele>28.31</ele>
        <time>2022-06-03T15:00:04.000Z</time>
      </trkpt>
      <trkpt lat="44.01122" lon="22.88842">
        <ele>27.3</ele>
        <time>2022-06-03T15:00:30.000Z</time>
      </trkpt>
      <trkpt lat="44.01107" lon="22.88858">
        <ele>27.4</ele>
        <time>2022-06-03T15:00:35.000Z</time>
      </trkpt>
      <trkpt lat="44.01092" lon="22.88863">
        <ele>27.08</ele>
        <time>2022-06-03T15:00:40.000Z</time>
      </trkpt>
      <trkpt lat="44.01073" lon="22.88867">
        <ele>25.63</ele>
        <time>2022-06-03T15:00:45.000Z</time>
      </trkpt>
      <trkpt lat="44.01052" lon="22.88872">
        <ele>23.15</ele>
        <time>2022-06-03T15:00:50.000Z</time>
      </trkpt>
      <trkpt lat="44.01027" lon="22.88868">
        <ele>23.34</ele>
        <time>2022-06-03T15:00:55.000Z</time>
      </trkpt>
      <trkpt lat="44.01003" lon="22.88861">
        <ele>24.1</ele>
        <time>2022-06-03T15:01:00.000Z</time>
      </trkpt>
      <trkpt lat="44.0098" lon="22.88849">
        <ele>24.39</ele>
        <time>2022-06-03T15:01:05.000Z</time>
      </trkpt>
      <trkpt lat="44.0096" lon="22.88832">
        <ele>25.01</ele>
        <time>2022-06-03T15:01:10.000Z</time>
      </trkpt>
      <trkpt lat="44.00941" lon="22.88813">
        <ele>24.83</ele>
        <time>2022-06-03T15:01:15.000Z</time>
      </trkpt>
      <trkpt lat="44.0092" lon="22.8879">
        <ele>25.56</ele>
        <time>2022-06-03T15:01:20.000Z</time>
      </trkpt>
      <trkpt lat="44.00902" lon="22.88765">
        <ele>25.66</ele>
        <time>2022-06-03T15:01:25.000Z</time>
      </trkpt>
      <trkpt lat="44.00886" lon="22.88738">
        <ele>26.14</ele>
        <time>2022-06-03T15:01:30.000Z</time>
      </trkpt>
      <trkpt lat="44.00871" lon="22.88712">
        <ele>26.49</ele>
        <time>2022-06-03T15:01:35.000Z</time>
      </trkpt>
      <trkpt lat="44.00856" lon="22.88684">
        <ele>26.4</ele>
        <time>2022-06-03T15:01:40.000Z</time>
      </trkpt>
      <trkpt lat="44.0084" lon="22.88654">
        <ele>27.32</ele>
        <time>2022-06-03T15:01:45.000Z</time>
      </trkpt>
      <trkpt lat="44.00824" lon="22.88626">
        <ele>28.33</ele>
        <time>2022-06-03T15:01:50.000Z</time>
      </trkpt>
      <trkpt lat="44.00807" lon="22.88597">
        <ele>29.27</ele>
        <time>2022-06-03T15:01:55.000Z</time>
      </trkpt>
      <trkpt lat="44.00791" lon="22.88568">
        <ele>29.83</ele>
        <time>2022-06-03T15:02:00.000Z</time>
      </trkpt>
      <trkpt lat="44.00774" lon="22.88536">
        <ele>29.69</ele>
        <time>2022-06-03T15:02:05.000Z</time>
      </trkpt>
      <trkpt lat="44.00758" lon="22.88506">
        <ele>31.06</ele>
        <time>2022-06-03T15:02:10.000Z</time>
      </trkpt>
      <trkpt lat="44.00747" lon="22.88474">
        <ele>29.97</ele>
        <time>2022-06-03T15:02:15.000Z</time>
      </trkpt>
      <trkpt lat="44.00742" lon="22.88443">
        <ele>30.41</ele>
        <time>2022-06-03T15:02:20.000Z</time>
      </trkpt>
      <trkpt lat="44.00733" lon="22.88407">
        <ele>31.97</ele>
        <time>2022-06-03T15:02:25.000Z</time>
      </trkpt>
      <trkpt lat="44.00725" lon="22.88374">
        <ele>32.79</ele>
        <time>2022-06-03T15:02:30.000Z</time>
      </trkpt>
      <trkpt lat="44.00717" lon="22.88343">
        <ele>33.15</ele>
        <time>2022-06-03T15:02:35.000Z</time>
      </trkpt>
      <trkpt lat="44.00708" lon="22.88312">
        <ele>32.28</ele>
        <time>2022-06-03T15:02:40.000Z</time>
      </trkpt>
      <trkpt lat="44.00698" lon="22.88279">
        <ele>33.03</ele>
        <time>2022-06-03T15:02:45.000Z</time>
      </trkpt>
      <trkpt lat="44.00687" lon="22.88245">
        <ele>33.1</ele>
        <time>2022-06-03T15:02:50.000Z</time>
      </trkpt>
      <trkpt lat="44.00678" lon="22.88211">
        <ele>32.99</ele>
        <time>2022-06-03T15:02:55.000Z</time>
      </trkpt>
      <trkpt lat="44.00668" lon="22.88177">
        <ele>33.71</ele>
        <time>2022-06-03T15:03:00.000Z</time>
      </trkpt>
      <trkpt lat="44.00656" lon="22.8814">
        <ele>34.63</ele>
        <time>2022-06-03T15:03:05.000Z</time>
      </trkpt>
      <trkpt lat="44.00645" lon="22.88101">
        <ele>35.34</ele>
        <time>2022-06-03T15:03:10.000Z</time>
      </trkpt>
      <trkpt lat="44.00632" lon="22.88062">
        <ele>36.2</ele>
        <time>2022-06-03T15:03:15.000Z</time>
      </trkpt>
      <trkpt lat="44.00622" lon="22.88029">
        <ele>37.88</ele>
        <time>2022-06-03T15:03:20.000Z</time>
      </trkpt>
      <trkpt lat="44.00617" lon="22.88012">
        <ele>38.83</ele>
        <time>2022-06-03T15:03:25.000Z</time>
      </trkpt>
      <trkpt lat="44.0061" lon="22.88002">
        <ele>36.8</ele>
        <time>2022-06-03T15:03:55.000Z</time>
      </trkpt>
      <trkpt lat="44.00593" lon="22.88002">
        <ele>36.67</ele>
        <time>2022-06-03T15:04:00.000Z</time>
      </trkpt>
      <trkpt lat="44.00572" lon="22.8801">
        <ele>36.85</ele>
        <time>2022-06-03T15:04:05.000Z</time>
      </trkpt>
      <trkpt lat="44.00548" lon="22.88015">
        <ele>37.46</ele>
        <time>2022-06-03T15:04:10.000Z</time>
      </trkpt>
      <trkpt lat="44.00524" lon="22.88021">
        <ele>38.69</ele>
        <time>2022-06-03T15:04:15.000Z</time>
      </trkpt>
      <trkpt lat="44.00501" lon="22.88024">
        <ele>38.64</ele>
        <time>2022-06-03T15:04:20.000Z</time>
      </trkpt>
      <trkpt lat="44.00479" lon="22.88027">
        <ele>39.28</ele>
        <time>2022-06-03T15:04:25.000Z</time>
      </trkpt>
      <trkpt lat="44.0046" lon="22.88013">
        <ele>39.19</ele>
        <time>2022-06-03T15:04:30.000Z</time>
      </trkpt>
      <trkpt lat="44.00438" lon="22.88002">
        <ele>39.48</ele>
        <time>2022-06-03T15:04:35.000Z</time>
      </trkpt>
      <trkpt lat="44.00416" lon="22.8799">
        <ele>39.59</ele>
        <time>2022-06-03T15:04:40.000Z</time>
      </trkpt>
      <trkpt lat="44.00393" lon="22.87977">
        <ele>40.76</ele>
        <time>2022-06-03T15:04:45.000Z</time>
      </trkpt>
      <trkpt lat="44.00369" lon="22.87965">
        <ele>42.05</ele>
        <time>2022-06-03T15:04:50.000Z</time>
      </trkpt>
      <trkpt lat="44.00347" lon="22.87956">
        <ele>41.99</ele>
        <time>2022-06-03T15:04:55.000Z</time>
      </trkpt>
      <trkpt lat="44.00326" lon="22.87943">
        <ele>41.03</ele>
        <time>2022-06-03T15:05:00.000Z</time>
      </trkpt>
      <trkpt lat="44.00306" lon="22.87937">
        <ele>41.77</ele>
        <time>2022-06-03T15:05:05.000Z</time>
      </trkpt>
      <trkpt lat="44.00295" lon="22.87937">
        <ele>40.47</ele>
        <time>2022-06-03T15:05:55.000Z</time>
      </trkpt>
      <trkpt lat="44.00284" lon="22.87933">
        <ele>39.06</ele>
        <time>2022-06-03T15:06:00.000Z</time>
      </trkpt>
      <trkpt lat="44.00266" lon="22.87931">
        <ele>38.54</ele>
        <time>2022-06-03T15:06:05.000Z</time>
      </trkpt>
      <trkpt lat="44.00244" lon="22.87932">
        <ele>37.5</ele>
        <time>2022-06-03T15:06:10.000Z</time>
      </trkpt>
      <trkpt lat="44.00222" lon="22.87925">
        <ele>37.39</ele>
        <time>2022-06-03T15:06:15.000Z</time>
      </trkpt>
      <trkpt lat="44.00197" lon="22.87921">
        <ele>37.45</ele>
        <time>2022-06-03T15:06:20.000Z</time>
      </trkpt>
      <trkpt lat="44.00174" lon="22.87916">
        <ele>36.52</ele>
        <time>2022-06-03T15:06:25.000Z</time>
      </trkpt>
      <trkpt lat="44.00156" lon="22.87914">
        <ele>32.46</ele>
        <time>2022-06-03T15:06:30.000Z</time>
      </trkpt>
      <trkpt lat="44.00134" lon="22.87912">
        <ele>31.09</ele>
        <time>2022-06-03T15:06:35.000Z</time>
      </trkpt>
      <trkpt lat="44.00115" lon="22.87907">
        <ele>29.89</ele>
        <time>2022-06-03T15:06:40.000Z</time>
      </trkpt>
      <trkpt lat="44.00093" lon="22.87903">
        <ele>29.72</ele>
        <time>2022-06-03T15:06:45.000Z</time>
      </trkpt>
      <trkpt lat="44.00071" lon="22.87901">
        <ele>30.22</ele>
        <time>2022-06-03T15:06:50.000Z</time>
      </trkpt>
      <trkpt lat="44.00048" lon="22.87899">
        <ele>30.91</ele>
        <time>2022-06-03T15:06:55.000Z</time>
      </trkpt>
      <trkpt lat="44.00026" lon="22.87892">
        <ele>32.18</ele>
        <time>2022-06-03T15:07:00.000Z</time>
      </trkpt>
      <trkpt lat="44.00004" lon="22.8789">
        <ele>33</ele>
        <time>2022-06-03T15:07:05.000Z</time>
      </trkpt>
      <trkpt lat="43.99979" lon="22.87888">
        <ele>35.57</ele>
        <time>2022-06-03T15:07:10.000Z</time>
      </trkpt>
      <trkpt lat="43.99957" lon="22.87882">
        <ele>36.67</ele>
        <time>2022-06-03T15:07:15.000Z</time>
      </trkpt>
      <trkpt lat="43.99934" lon="22.87877">
        <ele>37.89</ele>
        <time>2022-06-03T15:07:20.000Z</time>
      </trkpt>
      <trkpt lat="43.9991" lon="22.87873">
        <ele>38.31</ele>
        <time>2022-06-03T15:07:25.000Z</time>
      </trkpt>
      <trkpt lat="43.99884" lon="22.87872">
        <ele>39.05</ele>
        <time>2022-06-03T15:07:30.000Z</time>
      </trkpt>
      <trkpt lat="43.99861" lon="22.87868">
        <ele>38.92</ele>
        <time>2022-06-03T15:07:35.000Z</time>
      </trkpt>
      <trkpt lat="43.9984" lon="22.87866">
        <ele>38.92</ele>
        <time>2022-06-03T15:07:40.000Z</time>
      </trkpt>
      <trkpt lat="43.99818" lon="22.87862">
        <ele>37.97</ele>
        <time>2022-06-03T15:07:45.000Z</time>
      </trkpt>
      <trkpt lat="43.99793" lon="22.87858">
        <ele>36.67</ele>
        <time>2022-06-03T15:07:50.000Z</time>
      </trkpt>
      <trkpt lat="43.99769" lon="22.87853">
        <ele>35.44</ele>
        <time>2022-06-03T15:07:55.000Z</time>
      </trkpt>
      <trkpt lat="43.99743" lon="22.87849">
        <ele>35.23</ele>
        <time>2022-06-03T15:08:00.000Z</time>
      </trkpt>
      <trkpt lat="43.99719" lon="22.87848">
        <ele>35.72</ele>
        <time>2022-06-03T15:08:05.000Z</time>
      </trkpt>
      <trkpt lat="43.99693" lon="22.87843">
        <ele>36.86</ele>
        <time>2022-06-03T15:08:10.000Z</time>
      </trkpt>
      <trkpt lat="43.99671" lon="22.87838">
        <ele>38.77</ele>
        <time>2022-06-03T15:08:15.000Z</time>
      </trkpt>
      <trkpt lat="43.99648" lon="22.87836">
        <ele>38.7</ele>
        <time>2022-06-03T15:08:20.000Z</time>
      </trkpt>
      <trkpt lat="43.99625" lon="22.87832">
        <ele>39.6</ele>
        <time>2022-06-03T15:08:25.000Z</time>
      </trkpt>
      <trkpt lat="43.996" lon="22.87829">
        <ele>40.11</ele>
        <time>2022-06-03T15:08:30.000Z</time>
      </trkpt>
      <trkpt lat="43.99579" lon="22.8782">
        <ele>40.55</ele>
        <time>2022-06-03T15:08:35.000Z</time>
      </trkpt>
      <trkpt lat="43.99563" lon="22.87806">
        <ele>40.69</ele>
        <time>2022-06-03T15:08:40.000Z</time>
      </trkpt>
      <trkpt lat="43.99551" lon="22.87787">
        <ele>40.63</ele>
        <time>2022-06-03T15:08:45.000Z</time>
      </trkpt>
      <trkpt lat="43.99537" lon="22.87766">
        <ele>40.12</ele>
        <time>2022-06-03T15:08:50.000Z</time>
      </trkpt>
      <trkpt lat="43.99521" lon="22.87749">
        <ele>39.45</ele>
        <time>2022-06-03T15:08:55.000Z</time>
      </trkpt>
      <trkpt lat="43.99505" lon="22.87735">
        <ele>39.11</ele>
        <time>2022-06-03T15:09:00.000Z</time>
      </trkpt>
      <trkpt lat="43.99488" lon="22.87719">
        <ele>38.91</ele>
        <time>2022-06-03T15:09:05.000Z</time>
      </trkpt>
      <trkpt lat="43.99469" lon="22.87703">
        <ele>38.99</ele>
        <time>2022-06-03T15:09:10.000Z</time>
      </trkpt>
      <trkpt lat="43.99449" lon="22.87692">
        <ele>38.32</ele>
        <time>2022-06-03T15:09:15.000Z</time>
      </trkpt>
      <trkpt lat="43.99431" lon="22.87681">
        <ele>38.55</ele>
        <time>2022-06-03T15:09:20.000Z</time>
      </trkpt>
      <trkpt lat="43.99415" lon="22.87669">
        <ele>39.08</ele>
        <time>2022-06-03T15:09:25.000Z</time>
      </trkpt>
      <trkpt lat="43.994" lon="22.87658">
        <ele>38.84</ele>
        <time>2022-06-03T15:09:30.000Z</time>
      </trkpt>
      <trkpt lat="43.99384" lon="22.87645">
        <ele>38.49</ele>
        <time>2022-06-03T15:09:35.000Z</time>
      </trkpt>
      <trkpt lat="43.9937" lon="22.8763">
        <ele>37.14</ele>
        <time>2022-06-03T15:09:40.000Z</time>
      </trkpt>
      <trkpt lat="43.99357" lon="22.87608">
        <ele>36.1</ele>
        <time>2022-06-03T15:09:45.000Z</time>
      </trkpt>
      <trkpt lat="43.99345" lon="22.87584">
        <ele>36.18</ele>
        <time>2022-06-03T15:09:50.000Z</time>
      </trkpt>
      <trkpt lat="43.99335" lon="22.87563">
        <ele>38</ele>
        <time>2022-06-03T15:09:55.000Z</time>
      </trkpt>
      <trkpt lat="43.99328" lon="22.8755">
        <ele>40.57</ele>
        <time>2022-06-03T15:10:00.000Z</time>
      </trkpt>
      <trkpt lat="43.99322" lon="22.8756">
        <ele>39.23</ele>
        <time>2022-06-03T15:10:45.000Z</time>
      </trkpt>
      <trkpt lat="43.99318" lon="22.87582">
        <ele>38.73</ele>
        <time>2022-06-03T15:10:50.000Z</time>
      </trkpt>
      <trkpt lat="43.99313" lon="22.87602">
        <ele>38.53</ele>
        <time>2022-06-03T15:10:55.000Z</time>
      </trkpt>
      <trkpt lat="43.99309" lon="22.87624">
        <ele>38.6</ele>
        <time>2022-06-03T15:11:00.000Z</time>
      </trkpt>
      <trkpt lat="43.99301" lon="22.87646">
        <ele>38.99</ele>
        <time>2022-06-03T15:11:05.000Z</time>
      </trkpt>
      <trkpt lat="43.99292" lon="22.87666">
        <ele>38.81</ele>
        <time>2022-06-03T15:11:10.000Z</time>
      </trkpt>
      <trkpt lat="43.99285" lon="22.87693">
        <ele>38.41</ele>
        <time>2022-06-03T15:11:15.000Z</time>
      </trkpt>
      <trkpt lat="43.99277" lon="22.87718">
        <ele>38.21</ele>
        <time>2022-06-03T15:11:20.000Z</time>
      </trkpt>
      <trkpt lat="43.99267" lon="22.87744">
        <ele>38.27</ele>
        <time>2022-06-03T15:11:25.000Z</time>
      </trkpt>
      <trkpt lat="43.99259" lon="22.87773">
        <ele>38.4</ele>
        <time>2022-06-03T15:11:30.000Z</time>
      </trkpt>
      <trkpt lat="43.99252" lon="22.87801">
        <ele>38.42</ele>
        <time>2022-06-03T15:11:35.000Z</time>
      </trkpt>
      <trkpt lat="43.99244" lon="22.87829">
        <ele>38.39</ele>
        <time>2022-06-03T15:11:40.000Z</time>
      </trkpt>
      <trkpt lat="43.99235" lon="22.87862">
        <ele>38.59</ele>
        <time>2022-06-03T15:11:45.000Z</time>
      </trkpt>
      <trkpt lat="43.9923" lon="22.87891">
        <ele>38.72</ele>
        <time>2022-06-03T15:11:50.000Z</time>
      </trkpt>
      <trkpt lat="43.99221" lon="22.87919">
        <ele>39.06</ele>
        <time>2022-06-03T15:11:55.000Z</time>
      </trkpt>
      <trkpt lat="43.99213" lon="22.87949">
        <ele>39.79</ele>
        <time>2022-06-03T15:12:00.000Z</time>
      </trkpt>
      <trkpt lat="43.99203" lon="22.87972">
        <ele>40.33</ele>
        <time>2022-06-03T15:12:05.000Z</time>
      </trkpt>
      <trkpt lat="43.99191" lon="22.87983">
        <ele>40.6</ele>
        <time>2022-06-03T15:12:10.000Z</time>
      </trkpt>
      <trkpt lat="43.99175" lon="22.87998">
        <ele>41</ele>
        <time>2022-06-03T15:12:15.000Z</time>
      </trkpt>
      <trkpt lat="43.9916" lon="22.88012">
        <ele>41.14</ele>
        <time>2022-06-03T15:12:20.000Z</time>
      </trkpt>
      <trkpt lat="43.99144" lon="22.88021">
        <ele>41.32</ele>
        <time>2022-06-03T15:12:25.000Z</time>
      </trkpt>
      <trkpt lat="43.99129" lon="22.88021">
        <ele>40.82</ele>
        <time>2022-06-03T15:12:30.000Z</time>
      </trkpt>
      <trkpt lat="43.99114" lon="22.8802">
        <ele>41.14</ele>
        <time>2022-06-03T15:12:35.000Z</time>
      </trkpt>
      <trkpt lat="43.991" lon="22.88023">
        <ele>41.57</ele>
        <time>2022-06-03T15:12:40.000Z</time>
      </trkpt>
      <trkpt lat="43.99084" lon="22.88026">
        <ele>41.97</ele>
        <time>2022-06-03T15:12:45.000Z</time>
      </trkpt>
      <trkpt lat="43.99065" lon="22.88026">
        <ele>42</ele>
        <time>2022-06-03T15:12:50.000Z</time>
      </trkpt>
      <trkpt lat="43.99046" lon="22.88028">
        <ele>42.25</ele>
        <time>2022-06-03T15:12:55.000Z</time>
      </trkpt>
      <trkpt lat="43.99032" lon="22.88024">
        <ele>40.76</ele>
        <time>2022-06-03T15:13:00.000Z</time>
      </trkpt>
      <trkpt lat="43.99021" lon="22.8802">
        <ele>41.12</ele>
        <time>2022-06-03T15:13:05.000Z</time>
      </trkpt>
      <trkpt lat="43.99006" lon="22.88032">
        <ele>41.19</ele>
        <time>2022-06-03T15:13:10.000Z</time>
      </trkpt>
      <trkpt lat="43.98998" lon="22.88044">
        <ele>41.4</ele>
        <time>2022-06-03T15:13:15.000Z</time>
      </trkpt>
      <trkpt lat="43.98993" lon="22.88054">
        <ele>41</ele>
        <time>2022-06-03T15:13:23.000Z</time>
      </trkpt>
      <trkpt lat="43.98987" lon="22.88068">
        <ele>41.09</ele>
        <time>2022-06-03T15:13:28.000Z</time>
      </trkpt>
      <trkpt lat="43.98977" lon="22.88086">
        <ele>40.93</ele>
        <time>2022-06-03T15:13:33.000Z</time>
      </trkpt>
      <trkpt lat="43.98969" lon="22.88106">
        <ele>41.17</ele>
        <time>2022-06-03T15:13:38.000Z</time>
      </trkpt>
      <trkpt lat="43.98958" lon="22.88129">
        <ele>41.01</ele>
        <time>2022-06-03T15:13:43.000Z</time>
      </trkpt>
      <trkpt lat="43.98951" lon="22.8815">
        <ele>41.08</ele>
        <time>2022-06-03T15:13:48.000Z</time>
      </trkpt>
      <trkpt lat="43.98944" lon="22.8817">
        <ele>41.29</ele>
        <time>2022-06-03T15:13:53.000Z</time>
      </trkpt>
      <trkpt lat="43.98934" lon="22.88195">
        <ele>42.05</ele>
        <time>2022-06-03T15:13:58.000Z</time>
      </trkpt>
      <trkpt lat="43.98923" lon="22.88219">
        <ele>42.82</ele>
        <time>2022-06-03T15:14:03.000Z</time>
      </trkpt>
      <trkpt lat="43.98911" lon="22.88228">
        <ele>43.79</ele>
        <time>2022-06-03T15:14:08.000Z</time>
      </trkpt>
      <trkpt lat="43.98903" lon="22.88236">
        <ele>43.05</ele>
        <time>2022-06-03T15:14:29.000Z</time>
      </trkpt>
      <trkpt lat="43.98897" lon="22.88226">
        <ele>42.03</ele>
        <time>2022-06-03T15:14:35.000Z</time>
      </trkpt>
      <trkpt lat="43.98894" lon="22.88211">
        <ele>45.2</ele>
        <time>2022-06-03T15:15:55.000Z</time>
      </trkpt>
      <trkpt lat="43.98905" lon="22.88217">
        <ele>49.8</ele>
        <time>2022-06-03T15:20:35.000Z</time>
      </trkpt>
      <trkpt lat="43.98896" lon="22.88211">
        <ele>50.48</ele>
        <time>2022-06-03T15:23:37.000Z</time>
      </trkpt>
      <trkpt lat="43.98888" lon="22.88216">
        <ele>50.91</ele>
        <time>2022-06-03T15:42:16.000Z</time>
      </trkpt>
      <trkpt lat="43.98878" lon="22.88206">
        <ele>50.73</ele>
        <time>2022-06-03T15:42:23.000Z</time>
      </trkpt>
      <trkpt lat="43.98869" lon="22.88193">
        <ele>50.53</ele>
        <time>2022-06-03T15:42:28.000Z</time>
      </trkpt>
      <trkpt lat="43.98857" lon="22.8818">
        <ele>50.33</ele>
        <time>2022-06-03T15:42:33.000Z</time>
      </trkpt>
      <trkpt lat="43.98847" lon="22.88161">
        <ele>50.2</ele>
        <time>2022-06-03T15:42:38.000Z</time>
      </trkpt>
      <trkpt lat="43.98831" lon="22.88147">
        <ele>49.83</ele>
        <time>2022-06-03T15:42:43.000Z</time>
      </trkpt>
      <trkpt lat="43.98822" lon="22.88131">
        <ele>49.7</ele>
        <time>2022-06-03T15:42:48.000Z</time>
      </trkpt>
      <trkpt lat="43.98815" lon="22.88115">
        <ele>49.6</ele>
        <time>2022-06-03T15:42:53.000Z</time>
      </trkpt>
      <trkpt lat="43.98807" lon="22.88096">
        <ele>49.6</ele>
        <time>2022-06-03T15:42:58.000Z</time>
      </trkpt>
      <trkpt lat="43.98794" lon="22.88077">
        <ele>49.43</ele>
        <time>2022-06-03T15:43:03.000Z</time>
      </trkpt>
      <trkpt lat="43.98782" lon="22.88058">
        <ele>49.4</ele>
        <time>2022-06-03T15:43:08.000Z</time>
      </trkpt>
      <trkpt lat="43.9877" lon="22.88037">
        <ele>49.3</ele>
        <time>2022-06-03T15:43:13.000Z</time>
      </trkpt>
      <trkpt lat="43.98755" lon="22.88016">
        <ele>49.2</ele>
        <time>2022-06-03T15:43:18.000Z</time>
      </trkpt>
      <trkpt lat="43.98742" lon="22.87992">
        <ele>49.03</ele>
        <time>2022-06-03T15:43:23.000Z</time>
      </trkpt>
      <trkpt lat="43.98731" lon="22.87972">
        <ele>48.91</ele>
        <time>2022-06-03T15:43:28.000Z</time>
      </trkpt>
      <trkpt lat="43.9872" lon="22.87954">
        <ele>48.9</ele>
        <time>2022-06-03T15:43:33.000Z</time>
      </trkpt>
      <trkpt lat="43.9871" lon="22.87936">
        <ele>48.82</ele>
        <time>2022-06-03T15:43:38.000Z</time>
      </trkpt>
      <trkpt lat="43.98697" lon="22.87921">
        <ele>48.68</ele>
        <time>2022-06-03T15:43:43.000Z</time>
      </trkpt>
      <trkpt lat="43.98686" lon="22.87919">
        <ele>48.6</ele>
        <time>2022-06-03T15:44:03.000Z</time>
      </trkpt>
      <trkpt lat="43.98677" lon="22.87934">
        <ele>48.77</ele>
        <time>2022-06-03T15:44:08.000Z</time>
      </trkpt>
      <trkpt lat="43.98672" lon="22.87953">
        <ele>48.8</ele>
        <time>2022-06-03T15:44:13.000Z</time>
      </trkpt>
      <trkpt lat="43.98667" lon="22.87972">
        <ele>48.97</ele>
        <time>2022-06-03T15:44:18.000Z</time>
      </trkpt>
      <trkpt lat="43.98658" lon="22.87986">
        <ele>49.09</ele>
        <time>2022-06-03T15:44:23.000Z</time>
      </trkpt>
      <trkpt lat="43.98648" lon="22.87979">
        <ele>49.1</ele>
        <time>2022-06-03T15:44:28.000Z</time>
      </trkpt>
      <trkpt lat="43.98637" lon="22.87971">
        <ele>49</ele>
        <time>2022-06-03T15:44:33.000Z</time>
      </trkpt>
      <trkpt lat="43.98628" lon="22.87962">
        <ele>49</ele>
        <time>2022-06-03T15:44:38.000Z</time>
      </trkpt>
      <trkpt lat="43.98614" lon="22.87967">
        <ele>49.09</ele>
        <time>2022-06-03T15:44:43.000Z</time>
      </trkpt>
      <trkpt lat="43.98603" lon="22.87966">
        <ele>49.2</ele>
        <time>2022-06-03T15:44:48.000Z</time>
      </trkpt>
      <trkpt lat="43.98594" lon="22.87957">
        <ele>49.1</ele>
        <time>2022-06-03T15:44:53.000Z</time>
      </trkpt>
      <trkpt lat="43.98586" lon="22.87949">
        <ele>49.2</ele>
        <time>2022-06-03T15:44:58.000Z</time>
      </trkpt>
      <trkpt lat="43.98577" lon="22.87942">
        <ele>49.2</ele>
        <time>2022-06-03T15:45:04.000Z</time>
      </trkpt>
      <trkpt lat="43.98562" lon="22.87936">
        <ele>49.1</ele>
        <time>2022-06-03T15:45:09.000Z</time>
      </trkpt>
      <trkpt lat="43.98553" lon="22.87941">
        <ele>49.1</ele>
        <time>2022-06-03T15:45:14.000Z</time>
      </trkpt>
      <trkpt lat="43.98542" lon="22.87938">
        <ele>49.2</ele>
        <time>2022-06-03T15:45:19.000Z</time>
      </trkpt>
      <trkpt lat="43.9853" lon="22.87926">
        <ele>49.19</ele>
        <time>2022-06-03T15:45:24.000Z</time>
      </trkpt>
      <trkpt lat="43.98521" lon="22.87908">
        <ele>49.29</ele>
        <time>2022-06-03T15:45:29.000Z</time>
      </trkpt>
      <trkpt lat="43.98513" lon="22.87893">
        <ele>49.3</ele>
        <time>2022-06-03T15:45:34.000Z</time>
      </trkpt>
      <trkpt lat="43.98504" lon="22.87883">
        <ele>49.49</ele>
        <time>2022-06-03T15:45:39.000Z</time>
      </trkpt>
      <trkpt lat="43.98487" lon="22.87878">
        <ele>49.59</ele>
        <time>2022-06-03T15:45:44.000Z</time>
      </trkpt>
      <trkpt lat="43.98474" lon="22.87866">
        <ele>49.69</ele>
        <time>2022-06-03T15:45:49.000Z</time>
      </trkpt>
      <trkpt lat="43.98466" lon="22.87855">
        <ele>49.79</ele>
        <time>2022-06-03T15:45:54.000Z</time>
      </trkpt>
      <trkpt lat="43.98459" lon="22.87847">
        <ele>50</ele>
        <time>2022-06-03T15:46:00.000Z</time>
      </trkpt>
      <trkpt lat="43.9845" lon="22.87838">
        <ele>49.83</ele>
        <time>2022-06-03T15:46:05.000Z</time>
      </trkpt>
      <trkpt lat="43.98434" lon="22.87827">
        <ele>49.43</ele>
        <time>2022-06-03T15:46:10.000Z</time>
      </trkpt>
      <trkpt lat="43.98422" lon="22.87813">
        <ele>49.13</ele>
        <time>2022-06-03T15:46:15.000Z</time>
      </trkpt>
      <trkpt lat="43.98408" lon="22.878">
        <ele>48.81</ele>
        <time>2022-06-03T15:46:20.000Z</time>
      </trkpt>
      <trkpt lat="43.98398" lon="22.8779">
        <ele>48.6</ele>
        <time>2022-06-03T15:46:25.000Z</time>
      </trkpt>
      <trkpt lat="43.98391" lon="22.8778">
        <ele>49.85</ele>
        <time>2022-06-03T15:46:42.000Z</time>
      </trkpt>
      <trkpt lat="43.98385" lon="22.87769">
        <ele>49.6</ele>
        <time>2022-06-03T15:46:47.000Z</time>
      </trkpt>
      <trkpt lat="43.98376" lon="22.8776">
        <ele>49.67</ele>
        <time>2022-06-03T15:46:52.000Z</time>
      </trkpt>
      <trkpt lat="43.98371" lon="22.8777">
        <ele>50.58</ele>
        <time>2022-06-03T15:47:11.000Z</time>
      </trkpt>
      <trkpt lat="43.9838" lon="22.87775">
        <ele>51.61</ele>
        <time>2022-06-03T15:47:16.000Z</time>
      </trkpt>
      <trkpt lat="43.98393" lon="22.87769">
        <ele>51.6</ele>
        <time>2022-06-03T15:47:21.000Z</time>
      </trkpt>
      <trkpt lat="43.98398" lon="22.87758">
        <ele>51.77</ele>
        <time>2022-06-03T15:47:26.000Z</time>
      </trkpt>
      <trkpt lat="43.98402" lon="22.87745">
        <ele>51.8</ele>
        <time>2022-06-03T15:47:31.000Z</time>
      </trkpt>
      <trkpt lat="43.98401" lon="22.87732">
        <ele>51.7</ele>
        <time>2022-06-03T15:47:41.000Z</time>
      </trkpt>
      <trkpt lat="43.9841" lon="22.87737">
        <ele>52.22</ele>
        <time>2022-06-03T15:48:01.000Z</time>
      </trkpt>
      <trkpt lat="43.9841" lon="22.8775">
        <ele>53.41</ele>
        <time>2022-06-03T15:48:46.000Z</time>
      </trkpt>
      <trkpt lat="43.98403" lon="22.87761">
        <ele>52.86</ele>
        <time>2022-06-03T15:48:51.000Z</time>
      </trkpt>
      <trkpt lat="43.9839" lon="22.87758">
        <ele>52.38</ele>
        <time>2022-06-03T15:48:56.000Z</time>
      </trkpt>
      <trkpt lat="43.98377" lon="22.87748">
        <ele>52.03</ele>
        <time>2022-06-03T15:49:01.000Z</time>
      </trkpt>
      <trkpt lat="43.98363" lon="22.87736">
        <ele>52.02</ele>
        <time>2022-06-03T15:49:06.000Z</time>
      </trkpt>
      <trkpt lat="43.98348" lon="22.87724">
        <ele>51.79</ele>
        <time>2022-06-03T15:49:11.000Z</time>
      </trkpt>
      <trkpt lat="43.98336" lon="22.8771">
        <ele>51.14</ele>
        <time>2022-06-03T15:49:16.000Z</time>
      </trkpt>
      <trkpt lat="43.98322" lon="22.87702">
        <ele>50.15</ele>
        <time>2022-06-03T15:49:21.000Z</time>
      </trkpt>
      <trkpt lat="43.9831" lon="22.87692">
        <ele>49.71</ele>
        <time>2022-06-03T15:49:26.000Z</time>
      </trkpt>
      <trkpt lat="43.98296" lon="22.87682">
        <ele>49.31</ele>
        <time>2022-06-03T15:49:31.000Z</time>
      </trkpt>
      <trkpt lat="43.98284" lon="22.87672">
        <ele>49.3</ele>
        <time>2022-06-03T15:49:36.000Z</time>
      </trkpt>
      <trkpt lat="43.98273" lon="22.87658">
        <ele>48.96</ele>
        <time>2022-06-03T15:49:41.000Z</time>
      </trkpt>
      <trkpt lat="43.98262" lon="22.87646">
        <ele>48.73</ele>
        <time>2022-06-03T15:49:46.000Z</time>
      </trkpt>
      <trkpt lat="43.98252" lon="22.87632">
        <ele>48.61</ele>
        <time>2022-06-03T15:49:51.000Z</time>
      </trkpt>
      <trkpt lat="43.98235" lon="22.87618">
        <ele>48.68</ele>
        <time>2022-06-03T15:49:56.000Z</time>
      </trkpt>
      <trkpt lat="43.98219" lon="22.87601">
        <ele>49.09</ele>
        <time>2022-06-03T15:50:01.000Z</time>
      </trkpt>
      <trkpt lat="43.98206" lon="22.87585">
        <ele>48.75</ele>
        <time>2022-06-03T15:50:06.000Z</time>
      </trkpt>
      <trkpt lat="43.98191" lon="22.87574">
        <ele>48.8</ele>
        <time>2022-06-03T15:50:11.000Z</time>
      </trkpt>
      <trkpt lat="43.98178" lon="22.87561">
        <ele>48.6</ele>
        <time>2022-06-03T15:50:16.000Z</time>
      </trkpt>
      <trkpt lat="43.98164" lon="22.8755">
        <ele>48.77</ele>
        <time>2022-06-03T15:50:21.000Z</time>
      </trkpt>
      <trkpt lat="43.98153" lon="22.87538">
        <ele>49.09</ele>
        <time>2022-06-03T15:50:26.000Z</time>
      </trkpt>
      <trkpt lat="43.98141" lon="22.87522">
        <ele>49.42</ele>
        <time>2022-06-03T15:50:31.000Z</time>
      </trkpt>
      <trkpt lat="43.98131" lon="22.87514">
        <ele>49.41</ele>
        <time>2022-06-03T15:50:36.000Z</time>
      </trkpt>
      <trkpt lat="43.98132" lon="22.87499">
        <ele>49.57</ele>
        <time>2022-06-03T15:52:21.000Z</time>
      </trkpt>
      <trkpt lat="43.98123" lon="22.87509">
        <ele>45.78</ele>
        <time>2022-06-03T15:54:20.000Z</time>
      </trkpt>
      <trkpt lat="43.98156" lon="22.87493">
        <ele>46.07</ele>
        <time>2022-06-03T15:56:19.000Z</time>
      </trkpt>
      <trkpt lat="43.98147" lon="22.87496">
        <ele>46.1</ele>
        <time>2022-06-03T15:56:29.000Z</time>
      </trkpt>
      <trkpt lat="43.98138" lon="22.87495">
        <ele>46.2</ele>
        <time>2022-06-03T15:56:40.000Z</time>
      </trkpt>
      <trkpt lat="43.98125" lon="22.87509">
        <ele>46.2</ele>
        <time>2022-06-03T15:56:45.000Z</time>
      </trkpt>
      <trkpt lat="43.98139" lon="22.87507">
        <ele>46.37</ele>
        <time>2022-06-03T15:57:00.000Z</time>
      </trkpt>
      <trkpt lat="43.98165" lon="22.87492">
        <ele>46.4</ele>
        <time>2022-06-03T15:57:05.000Z</time>
      </trkpt>
      <trkpt lat="43.98176" lon="22.87489">
        <ele>46.4</ele>
        <time>2022-06-03T15:57:12.000Z</time>
      </trkpt>
      <trkpt lat="43.98167" lon="22.8749">
        <ele>46.5</ele>
        <time>2022-06-03T15:57:26.000Z</time>
      </trkpt>
      <trkpt lat="43.98158" lon="22.87497">
        <ele>46.5</ele>
        <time>2022-06-03T15:57:31.000Z</time>
      </trkpt>
      <trkpt lat="43.98142" lon="22.87507">
        <ele>46.5</ele>
        <time>2022-06-03T15:57:36.000Z</time>
      </trkpt>
      <trkpt lat="43.98133" lon="22.8751">
        <ele>46.5</ele>
        <time>2022-06-03T15:57:41.000Z</time>
      </trkpt>
      <trkpt lat="43.98125" lon="22.87517">
        <ele>46.42</ele>
        <time>2022-06-03T15:57:46.000Z</time>
      </trkpt>
      <trkpt lat="43.98117" lon="22.87527">
        <ele>46.3</ele>
        <time>2022-06-03T15:57:51.000Z</time>
      </trkpt>
      <trkpt lat="43.98111" lon="22.87539">
        <ele>46.4</ele>
        <time>2022-06-03T15:57:59.000Z</time>
      </trkpt>
    </trkseg>
  </trk>
</gpx>